# Wetter Temperatur Luftdruck Luftfeuchtigkeit Sichtweite Windgeschwindigkeit Windrichtung Zeit
1 Clouds 18 1016 81 10000 3.09 250 07:39 02.10.2022
2 Clear 22 1016 70 10000 3.6 260 02:55 02.10.2022
3 Clear 25 1013 60 10000 7.2 230 00:46 02.10.2022
4 Clear 25 1013 59 10000 7.2 230 00:21 02.10.2022
5 Clear 25 1015 57 10000 5.14 250 22:53 01.10.2022
6 Clouds 23 1015 63 10000 3.09 140 20:53 01.10.2022
7 Clouds 20 1016 74 10000 3.09 100 18:50 01.10.2022
8 Clouds 19 1014 77 10000 3.09 150 16:36 01.10.2022
9 Clouds 19 1015 79 10000 2.57 60 14:41 01.10.2022
10 Clouds 19 1014 78 10000 0.89 225 13:32 01.10.2022
11 Clouds 19 1015 77 10000 2.57 180 12:33 01.10.2022
12 Clouds 19 1014 79 10000 3.09 150 11:21 01.10.2022
13 Clouds 19 1014 81 10000 2.06 110 10:32 01.10.2022
14 Clouds 19 1014 82 10000 2.06 150 09:55 01.10.2022
15 Clouds 19 1015 84 10000 3.09 130 08:58 01.10.2022
16 Clear 20 1013 80 10000 3.6 250 05:47 01.10.2022
17 Clear 22 1012 70 10000 4.63 260 03:36 01.10.2022
18 Clear 26 1012 61 10000 4.63 270 01:21 01.10.2022
19 Clear 26 1014 59 10000 5.14 230 22:56 30.09.2022
20 Haze 26 1014 63 10000 4.63 260 21:41 30.09.2022
21 Clouds 25 1016 65 10000 2.06 200 20:45 30.09.2022
22 Clouds 24 1015 66 10000 2.06 200 20:19 30.09.2022
23 Clouds 20 1016 80 10000 3.09 150 17:40 30.09.2022
24 Clouds 20 1016 84 10000 2.06 110 16:29 30.09.2022
25 Clouds 20 1016 86 10000 1.54 110 14:21 30.09.2022
26 Clouds 19 1016 88 10000 1.54 150 12:24 30.09.2022
27 Clouds 19 1013 89 10000 2.06 210 11:48 30.09.2022
28 Clear 20 1013 87 10000 2.57 250 08:38 30.09.2022
29 Clouds 21 1013 81 10000 4.63 120 06:29 30.09.2022
30 Clear 26 1013 63 10000 6.17 250 02:50 30.09.2022
31 Clear 29 1013 59 10000 5.66 260 00:35 30.09.2022
32 Haze 28 1018 61 10000 5.14 260 21:39 29.09.2022
33 Haze 28 1018 62 10000 5.14 260 21:18 29.09.2022
34 Mist 25 1016 69 4828 2.57 240 18:54 29.09.2022
35 Mist 23 1016 74 1609 1.54 210 17:48 29.09.2022
36 Fog 20 1015 90 402 2.06 220 16:29 29.09.2022
37 Mist 20 1015 80 8047 1.54 150 15:36 29.09.2022
38 Mist 20 1015 91 8047 0 0 14:59 29.09.2022
39 Mist 20 1015 87 10000 1.54 110 11:54 29.09.2022
40 Clear 23 1015 69 10000 2.57 140 07:39 29.09.2022
41 Clear 28 1013 56 10000 4.12 160 03:24 29.09.2022
42 Clear 31 1015 49 10000 8 220 00:29 29.09.2022
43 Clear 32 1015 48 10000 5.66 250 23:19 28.09.2022
44 Clear 31 1016 45 10000 5.14 270 21:31 28.09.2022
45 Clear 31 1017 47 10000 2.57 0 20:49 28.09.2022
46 Clear 29 1019 52 10000 2.06 150 19:48 28.09.2022
47 Clear 22 1013 78 10000 2.57 230 16:27 28.09.2022
48 Clear 22 1012 69 10000 1.54 270 13:28 28.09.2022
49 Clear 23 1012 69 10000 2.06 270 11:43 28.09.2022
50 Clear 23 1012 64 10000 2.06 40 09:36 28.09.2022
51 Clear 23 1012 69 10000 3.6 120 07:42 28.09.2022
52 Clear 26 1011 57 10000 3.6 230 05:32 28.09.2022
53 Clear 31 1012 44 10000 6.17 250 01:41 28.09.2022
54 Clear 32 1013 44 10000 5.66 260 00:28 28.09.2022
55 Clear 33 1014 44 10000 5.14 260 22:40 27.09.2022
56 Clear 32 1014 42 10000 4.63 260 21:20 27.09.2022
57 Clear 31 1015 47 10000 3.6 250 20:31 27.09.2022
58 Clear 30 1015 49 10000 3.09 270 19:40 27.09.2022
59 Clear 25 1012 62 10000 0 0 17:47 27.09.2022
60 Clear 22 1012 73 10000 1.54 10 16:50 27.09.2022
61 Clear 22 1011 70 10000 1.54 0 15:18 27.09.2022
62 Clear 22 1011 63 10000 0 0 13:53 27.09.2022
63 Clear 21 1011 72 10000 2.06 270 12:37 27.09.2022
64 Clear 21 1012 69 10000 2.06 190 10:35 27.09.2022
65 Clear 23 1012 59 10000 0 0 07:55 27.09.2022
66 Clear 26 1010 47 10000 5.14 250 04:52 27.09.2022
67 Clear 30 1013 43 10000 6.69 250 01:40 27.09.2022
68 Clear 30 1013 43 10000 6.69 250 01:40 27.09.2022
69 Clear 32 1014 41 10000 8.23 270 00:23 27.09.2022
70 Clear 32 1014 42 10000 6.17 260 23:24 26.09.2022
71 Clear 31 1016 47 10000 5.66 270 21:35 26.09.2022
72 Clear 30 1016 48 10000 3.6 250 20:18 26.09.2022
73 Clear 28 1017 53 10000 3.6 250 19:19 26.09.2022
74 Clear 23 1013 73 10000 1.54 160 17:26 26.09.2022
75 Clear 22 1012 73 10000 2.06 320 15:25 26.09.2022
76 Clear 22 1013 71 10000 1.54 260 12:31 26.09.2022
77 Clear 22 1013 75 10000 1.54 270 11:28 26.09.2022
78 Clear 22 1014 73 10000 1.54 230 10:36 26.09.2022
79 Clear 22 1014 73 10000 1.54 230 10:18 26.09.2022
80 Clear 22 1014 63 10000 2.06 210 09:51 26.09.2022
81 Clear 22 1014 79 10000 2.06 210 09:21 26.09.2022
82 Clear 25 1013 52 10000 4.63 230 05:30 26.09.2022
83 Clear 29 1013 43 10000 7.72 260 02:35 26.09.2022
84 Clear 31 1017 44 10000 6.69 260 23:25 25.09.2022
85 Clear 31 1018 46 10000 5.14 240 21:48 25.09.2022
86 Clear 30 1018 46 10000 5.14 240 21:25 25.09.2022
87 Clear 30 1019 46 10000 3.6 230 20:36 25.09.2022
88 Clear 27 1022 54 10000 1.54 260 18:57 25.09.2022
89 Clear 25 1019 59 10000 1.54 260 18:26 25.09.2022
90 Clear 23 1016 69 10000 1.54 240 17:29 25.09.2022
91 Clear 21 1016 74 10000 1.54 310 16:21 25.09.2022
92 Clear 21 1015 69 10000 2.06 360 14:54 25.09.2022
93 Clear 21 1015 75 10000 2.06 360 14:19 25.09.2022
94 Clear 22 1016 70 10000 1.54 230 11:34 25.09.2022
95 Clear 22 1016 64 10000 2.06 240 09:48 25.09.2022
96 Clear 23 1016 60 10000 3.09 240 07:43 25.09.2022
97 Clear 25 1015 51 10000 4.63 240 05:27 25.09.2022
98 Clear 31 1018 39 10000 7.72 260 23:37 24.09.2022
99 Clear 30 1020 43 10000 5.14 260 21:50 24.09.2022
100 Clear 30 1020 42 10000 4.12 260 20:34 24.09.2022
101 Clear 28 1020 46 10000 2.57 260 19:20 24.09.2022
102 Clear 21 1016 75 10000 0 0 16:57 24.09.2022
103 Clear 22 1015 66 10000 2.57 300 15:54 24.09.2022
104 Clear 21 1015 69 10000 2.57 300 15:18 24.09.2022
105 Clear 21 1015 66 10000 2.57 260 13:22 24.09.2022
106 Clear 22 1015 66 10000 1.54 310 12:25 24.09.2022
107 Clear 22 1015 60 10000 3.09 250 10:18 24.09.2022
108 Clear 22 1015 68 10000 3.6 270 09:22 24.09.2022
109 Clear 22 1015 71 10000 2.06 240 08:42 24.09.2022
110 Clear 25 1021 57 10000 2.06 0 04:58 24.09.2022
111 Clear 25 1016 53 10000 4.63 250 04:27 24.09.2022
112 Clear 31 1015 42 10000 6.17 270 23:25 23.09.2022
113 Clear 30 1016 38 10000 3.6 250 21:44 23.09.2022
114 Clear 29 1016 40 10000 3.6 250 21:24 23.09.2022
115 Clear 30 1018 39 10000 3.09 260 20:54 23.09.2022
116 Clear 27 1017 46 10000 2.06 250 19:20 23.09.2022
117 Clear 23 1014 57 10000 0 0 17:50 23.09.2022
118 Clear 20 1012 71 10000 1.54 350 13:41 23.09.2022
119 Clear 21 1013 69 10000 0 0 10:24 23.09.2022
120 Clear 21 1013 71 10000 2.06 180 08:45 23.09.2022
121 Clear 26 1012 54 10000 5.14 250 03:37 23.09.2022
122 Clear 29 1015 40 10000 5.66 240 23:30 22.09.2022
123 Clear 29 1016 40 10000 5.14 260 22:28 22.09.2022
124 Clear 29 1016 40 10000 4.63 260 21:36 22.09.2022
125 Clear 27 1015 42 10000 3.09 210 20:25 22.09.2022
126 Clear 24 1019 54 10000 1.54 110 18:59 22.09.2022
127 Clear 18 1014 66 10000 0 0 15:58 22.09.2022
128 Clear 19 1014 69 10000 2.57 240 10:55 22.09.2022
129 Clear 19 1014 68 10000 2.57 240 10:19 22.09.2022
130 Clear 20 1014 64 10000 3.09 240 08:22 22.09.2022
131 Clear 20 1013 70 10000 6.17 270 06:18 22.09.2022
132 Clear 26 1014 51 10000 9.77 260 01:27 22.09.2022
133 Clear 26 1016 45 10000 6.17 260 22:29 21.09.2022
134 Clear 26 1017 49 10000 4.63 270 21:26 21.09.2022
135 Clear 23 1017 59 10000 2.06 210 19:22 21.09.2022
136 Clear 20 1015 75 10000 1.54 30 17:45 21.09.2022
137 Clear 17 1014 77 10000 2.06 290 16:20 21.09.2022
138 Clear 17 1014 79 10000 0 0 13:56 21.09.2022
139 Clear 18 1013 74 10000 2.06 320 11:44 21.09.2022
140 Clear 19 1013 73 10000 2.06 320 11:22 21.09.2022
141 Clear 19 1017 76 10000 4.63 270 09:44 21.09.2022
142 Clear 19 1013 79 10000 6.17 260 08:50 21.09.2022
143 Clear 21 1018 78 10000 8.75 270 05:53 21.09.2022
144 Clear 25 1014 64 10000 10.29 270 02:42 21.09.2022
145 Clear 25 1014 63 10000 10.29 270 02:19 21.09.2022
146 Clear 27 1014 59 10000 9.77 250 00:20 21.09.2022
147 Clear 27 1016 53 10000 5.14 250 21:55 20.09.2022
148 Clear 25 1016 56 10000 4.63 240 20:37 20.09.2022
149 Clear 24 1017 62 10000 2.06 0 19:24 20.09.2022
150 Clouds 17 1023 87 10000 0 0 15:58 20.09.2022
151 Clear 18 1016 85 10000 1.54 30 14:35 20.09.2022
152 Clear 18 1015 85 10000 2.06 330 12:45 20.09.2022
153 Clouds 19 1017 85 10000 5.66 270 08:51 20.09.2022
154 Clear 19 1018 84 10000 5.66 270 08:25 20.09.2022
155 Clear 21 1013 73 10000 6.69 250 04:44 20.09.2022
156 Clear 23 1013 64 10000 6.69 250 03:38 20.09.2022
157 Clear 26 1014 53 10000 5.66 260 22:51 19.09.2022
158 Clear 25 1014 55 10000 4.63 240 21:39 19.09.2022
159 Clear 24 1014 59 10000 4.63 260 20:47 19.09.2022
160 Clear 23 1014 64 10000 2.06 0 19:42 19.09.2022
161 Clear 19 1015 79 10000 3.09 120 17:44 19.09.2022
162 Clouds 17 1016 85 10000 1.54 110 14:18 19.09.2022
163 Clouds 17 1017 86 10000 0 0 12:56 19.09.2022
164 Clear 17 1015 84 10000 3.6 250 10:47 19.09.2022
165 Clouds 18 1016 81 10000 4.12 270 08:51 19.09.2022
166 Clear 19 1013 76 10000 3.6 270 05:53 19.09.2022
167 Clear 24 1012 62 10000 6.69 250 01:53 19.09.2022
168 Clouds 24 1012 61 10000 6.17 230 23:22 18.09.2022
169 Clouds 24 1013 58 10000 6.69 260 21:34 18.09.2022
170 Clouds 23 1013 61 10000 4.12 240 20:24 18.09.2022
171 Clouds 21 1013 75 10000 4.12 250 17:54 18.09.2022
172 Clouds 20 1012 75 10000 3.6 120 17:35 18.09.2022
173 Clouds 19 1012 78 10000 4.12 100 15:36 18.09.2022
174 Clouds 19 1011 80 10000 3.6 130 13:50 18.09.2022
175 Clouds 19 1011 82 10000 3.6 110 12:35 18.09.2022
176 Clouds 19 1012 84 10000 1.54 130 10:55 18.09.2022
177 Clear 23 1010 69 10000 5.66 250 03:42 18.09.2022
178 Haze 25 1010 59 10000 6.17 250 01:24 18.09.2022
179 Clouds 26 1011 58 10000 6.17 240 00:23 18.09.2022
180 Clouds 23 1014 65 10000 3.6 220 21:40 17.09.2022
181 Clouds 22 1015 72 10000 3.09 150 19:43 17.09.2022
182 Clouds 21 1015 77 10000 2.06 140 18:57 17.09.2022
183 Clouds 18 1014 87 10000 2.06 120 16:22 17.09.2022
184 Clear 18 1010 87 10000 0 0 13:56 17.09.2022
185 Clear 19 1010 84 10000 2.57 100 11:31 17.09.2022
186 Clear 19 1011 82 10000 0 0 09:37 17.09.2022
187 Clear 21 1014 77 10000 3.09 250 06:25 17.09.2022
188 Clear 26 1015 66 10000 6.69 260 01:51 17.09.2022
189 Clear 27 1016 58 10000 5.66 270 22:54 16.09.2022
190 Clear 26 1016 59 10000 5.14 230 21:29 16.09.2022
191 Clear 25 1016 63 10000 3.09 200 20:24 16.09.2022
192 Clear 21 1018 78 10000 2.57 100 17:50 16.09.2022
193 Clear 18 1013 80 10000 1.54 80 15:34 16.09.2022
194 Clear 18 1013 82 10000 2.57 80 14:28 16.09.2022
195 Clear 19 1013 83 10000 1.54 100 11:45 16.09.2022
196 Clear 20 1022 81 10000 2.06 170 08:53 16.09.2022
197 Clear 20 1018 78 10000 2.57 220 07:20 16.09.2022
198 Clear 21 1018 77 10000 5.66 260 06:47 16.09.2022
199 Clear 24 1016 68 10000 3.6 230 02:59 16.09.2022
200 Clear 27 1016 57 10000 6.17 240 23:48 15.09.2022
201 Clouds 26 1017 59 10000 4.12 220 21:24 15.09.2022
202 Clouds 24 1018 62 10000 3.09 120 20:23 15.09.2022
203 Clouds 22 1018 75 10000 3.09 130 18:30 15.09.2022
204 Clouds 20 1018 78 10000 2.06 120 17:33 15.09.2022
205 Clouds 20 1019 82 10000 2.06 190 16:54 15.09.2022
206 Clouds 19 1017 85 10000 2.06 90 14:42 15.09.2022
207 Clouds 19 1018 86 10000 1.54 50 12:48 15.09.2022
208 Clear 19 1017 83 10000 3.6 110 10:21 15.09.2022
209 Clear 20 1020 83 10000 2.06 100 08:57 15.09.2022
210 Clear 23 1015 73 10000 6.17 250 04:24 15.09.2022
211 Clear 26 1015 64 10000 5.14 190 01:57 15.09.2022
212 Clear 27 1015 57 10000 5.14 230 22:26 14.09.2022
213 Clouds 25 1016 65 10000 3.09 200 20:19 14.09.2022
214 Clouds 24 1016 70 10000 3.6 160 19:32 14.09.2022
215 Clouds 21 1016 83 10000 3.09 150 17:26 14.09.2022
216 Clouds 20 1018 87 10000 0 0 15:56 14.09.2022
217 Clouds 20 1015 86 10000 2.06 90 14:35 14.09.2022
218 Clear 20 1016 84 10000 0 0 11:54 14.09.2022
219 Clear 21 1011 81 10000 2.06 200 09:48 14.09.2022
220 Clear 22 1014 77 10000 3.6 250 07:39 14.09.2022
221 Clear 22 1014 76 10000 4.12 270 06:47 14.09.2022
222 Clear 23 1013 70 10000 4.63 270 04:52 14.09.2022
223 Clear 27 1013 62 10000 6.69 250 01:51 14.09.2022
224 Clear 28 1012 61 10000 6.69 250 01:29 14.09.2022
225 Clear 28 1013 60 10000 6.17 200 00:52 14.09.2022
226 Clear 28 1014 61 10000 3.6 190 23:54 13.09.2022
227 Clear 28 1011 61 10000 5.14 270 23:36 13.09.2022
228 Clear 28 1011 61 10000 5.14 270 23:18 13.09.2022
229 Clear 28 1011 61 10000 5.66 260 22:21 13.09.2022
230 Clouds 27 1013 62 10000 3.09 260 20:21 13.09.2022
231 Clear 24 1015 73 10000 2.06 100 18:20 13.09.2022
232 Clear 21 1017 86 10000 0 0 15:56 13.09.2022
233 Clear 21 1016 86 10000 2.57 260 14:47 13.09.2022
234 Clouds 21 1012 86 10000 1.54 270 13:20 13.09.2022
235 Clear 22 1016 82 10000 3.09 250 09:23 13.09.2022
236 Clear 23 1016 79 10000 4.63 240 07:21 13.09.2022
237 Clear 29 1015 61 10000 7.72 260 00:30 13.09.2022
238 Clear 30 1017 61 10000 6.69 260 22:51 12.09.2022
239 Clear 29 1016 61 10000 6.69 260 22:22 12.09.2022
240 Clouds 28 1018 65 10000 4.63 230 20:42 12.09.2022
241 Clear 26 1019 74 10000 1.54 0 18:52 12.09.2022
242 Clouds 24 1018 81 10000 2.06 190 17:42 12.09.2022
243 Clouds 22 1018 87 10000 0 0 14:54 12.09.2022
244 Clouds 23 1019 84 10000 4.63 260 11:51 12.09.2022
245 Clear 23 1019 83 10000 4.63 250 10:20 12.09.2022
246 Clear 25 1020 77 10000 4.63 270 05:50 12.09.2022
247 Clouds 26 1018 71 10000 5.14 250 04:30 12.09.2022
248 Clear 31 1018 60 10000 3.6 260 23:58 11.09.2022
249 Clouds 31 1018 59 10000 5.66 260 22:43 11.09.2022
250 Clouds 30 1017 63 10000 4.63 260 20:53 11.09.2022
251 Clouds 29 1019 65 10000 4.63 260 20:21 11.09.2022
252 Clouds 28 1019 69 10000 2.06 180 19:26 11.09.2022
253 Clouds 26 1016 74 10000 1.54 120 18:38 11.09.2022
254 Clouds 24 1020 83 10000 0 0 16:57 11.09.2022
255 Clouds 23 1018 86 10000 1.54 140 15:22 11.09.2022
256 Clouds 24 1017 85 10000 2.06 50 12:54 11.09.2022
257 Clouds 24 1017 84 10000 3.09 130 10:35 11.09.2022
258 Clouds 24 1017 83 10000 2.57 90 07:49 11.09.2022
259 Clouds 25 1014 76 10000 3.6 200 03:34 11.09.2022
260 Clouds 27 1015 72 10000 3.6 140 23:48 10.09.2022
261 Clouds 25 1012 74 10000 3.6 210 21:38 10.09.2022
262 Clouds 26 1016 77 10000 0 0 19:58 10.09.2022
263 Clouds 26 1014 79 10000 2.57 130 19:40 10.09.2022
264 Clouds 25 1014 81 10000 2.57 130 19:20 10.09.2022
265 Clouds 23 1010 90 10000 2.57 60 17:19 10.09.2022
266 Clouds 22 1009 91 10000 2.57 0 15:35 10.09.2022
267 Clouds 22 1008 92 10000 1.54 320 13:29 10.09.2022
268 Mist 22 1011 93 9656 1.54 0 12:26 10.09.2022
269 Mist 22 1011 94 10000 2.57 180 10:28 10.09.2022
270 Clouds 22 1010 89 10000 5.66 150 08:41 10.09.2022
271 Rain 22 1010 89 10000 5.66 150 08:20 10.09.2022
272 Clear 28 1004 60 10000 4.12 70 03:43 10.09.2022
273 Clear 35 1003 36 10000 7.2 100 23:36 09.09.2022
274 Clear 37 1003 36 10000 8.23 100 22:36 09.09.2022
275 Clear 34 1004 43 10000 4.63 140 20:50 09.09.2022
276 Clear 33 1005 48 10000 4.63 130 19:58 09.09.2022
277 Clear 32 1004 49 10000 4.63 130 19:22 09.09.2022
278 Clear 30 1004 53 10000 2.57 40 17:19 09.09.2022
279 Clear 28 1004 49 10000 1.54 10 14:47 09.09.2022
280 Clear 29 1004 47 10000 2.06 260 13:31 09.09.2022
281 Clear 28 1006 58 10000 1.54 60 10:42 09.09.2022
282 Clear 28 1006 58 10000 1.54 60 10:42 09.09.2022
283 Clear 31 1005 44 10000 3.6 280 07:45 09.09.2022
284 Clear 34 1006 43 10000 5.14 230 03:34 09.09.2022
285 Clear 34 1011 42 10000 3.6 320 22:40 08.09.2022
286 Clear 32 1012 50 10000 5.14 120 21:51 08.09.2022
287 Clear 31 1014 55 10000 4.63 140 20:49 08.09.2022
288 Clear 30 1014 56 10000 4.63 140 20:25 08.09.2022
289 Clouds 27 1011 72 10000 2.06 170 18:43 08.09.2022
290 Clear 25 1012 71 10000 4.12 90 17:25 08.09.2022
291 Clear 24 1011 66 10000 1.54 250 15:35 08.09.2022
292 Smoke 25 1011 60 10000 1.54 130 13:30 08.09.2022
293 Smoke 25 1011 63 10000 2.06 350 12:40 08.09.2022
294 Smoke 26 1012 60 10000 2.57 270 11:23 08.09.2022
295 Smoke 26 1012 58 10000 2.06 180 09:35 08.09.2022
296 Clear 28 1012 56 10000 2.06 130 07:18 08.09.2022
297 Smoke 30 1014 49 10000 4.63 230 04:43 08.09.2022
298 Smoke 34 1013 43 10000 6.17 260 02:36 08.09.2022
299 Smoke 34 1013 43 10000 6.17 260 02:18 08.09.2022
300 Clear 37 1017 38 10000 2.24 251 22:58 07.09.2022
301 Clear 36 1016 43 10000 4.12 270 21:46 07.09.2022
302 Clear 35 1017 43 10000 4.12 270 21:21 07.09.2022
303 Clear 33 1017 49 10000 2.57 280 20:28 07.09.2022
304 Clear 31 1017 56 10000 3.09 260 19:20 07.09.2022
305 Clear 24 1013 74 10000 1.54 0 16:24 07.09.2022
306 Clear 25 1013 65 10000 4.12 250 10:52 07.09.2022
307 Clear 25 1013 66 10000 4.12 250 10:32 07.09.2022
308 Clear 26 1013 68 10000 3.09 260 08:29 07.09.2022
309 Clear 27 1012 70 10000 4.12 260 06:31 07.09.2022
310 Smoke 35 1012 45 10000 4.63 240 00:38 07.09.2022
311 Clear 34 1016 51 10000 1.34 250 21:56 06.09.2022
312 Smoke 34 1014 50 10000 4.63 270 21:33 06.09.2022
313 Smoke 31 1015 57 10000 4.12 260 19:39 06.09.2022
314 Smoke 29 1014 60 10000 2.06 170 18:40 06.09.2022
315 Smoke 28 1010 66 10000 1.54 200 17:50 06.09.2022
316 Clear 24 1010 84 10000 0 0 16:47 06.09.2022
317 Clear 23 1010 86 10000 0 0 16:24 06.09.2022
318 Clear 23 1008 83 10000 2.06 50 14:27 06.09.2022
319 Clear 23 1008 83 10000 2.06 30 13:44 06.09.2022
320 Clear 23 1008 84 10000 2.06 30 13:18 06.09.2022
321 Clear 24 1008 80 10000 2.57 240 10:55 06.09.2022
322 Clear 25 1009 73 10000 4.12 110 09:49 06.09.2022
323 Clear 26 1008 68 10000 3.09 240 08:18 06.09.2022
324 Clear 29 1007 55 10000 3.6 260 06:20 06.09.2022
325 Clear 34 1009 43 10000 5.66 260 01:22 06.09.2022
326 Clear 35 1013 50 10000 5.14 200 22:57 05.09.2022
327 Clear 35 1011 46 10000 4.63 260 21:39 05.09.2022
328 Clear 33 1012 49 10000 4.12 210 20:30 05.09.2022
329 Clear 30 1013 58 10000 2.57 120 18:53 05.09.2022
330 Clear 29 1012 63 10000 2.57 120 18:26 05.09.2022
331 Clear 29 1014 65 10000 0.89 225 17:57 05.09.2022
332 Clear 23 1009 82 10000 0 0 15:54 05.09.2022
333 Clear 24 1008 77 10000 0 0 15:23 05.09.2022
334 Clear 25 1013 76 10000 0 0 12:56 05.09.2022
335 Clear 25 1013 73 10000 2.57 280 11:37 05.09.2022
336 Clear 26 1008 72 10000 0 0 08:58 05.09.2022
337 Clear 28 1013 60 10000 2.57 140 06:38 05.09.2022
338 Clear 33 1008 43 10000 5.66 200 01:35 05.09.2022
339 Clear 38 1009 34 10000 5.66 270 22:39 04.09.2022
340 Clear 39 1012 33 10000 5.66 270 22:19 04.09.2022
341 Clear 38 1011 38 10000 4.12 280 20:37 04.09.2022
342 Clear 36 1014 38 10000 3.6 350 18:55 04.09.2022
343 Clear 32 1012 44 10000 2.06 40 17:43 04.09.2022
344 Clear 27 1015 56 10000 2.06 10 16:28 04.09.2022
345 Clear 28 1017 52 10000 0 0 14:27 04.09.2022
346 Clear 28 1019 49 10000 0.57 69 12:57 04.09.2022
347 Clear 27 1016 51 10000 1.54 100 11:52 04.09.2022
348 Clear 27 1015 49 10000 1.54 250 09:50 04.09.2022
349 Clear 28 1015 53 10000 4.12 120 07:27 04.09.2022
350 Clear 32 1013 42 10000 2.24 243 04:00 04.09.2022
351 Clear 34 1013 37 10000 6.17 250 23:40 03.09.2022
352 Clear 36 1014 39 10000 5.66 270 22:21 03.09.2022
353 Clear 36 1014 41 10000 5.14 250 21:23 03.09.2022
354 Clear 36 1014 41 10000 5.14 250 21:23 03.09.2022
355 Clear 33 1014 45 10000 1.54 170 18:59 03.09.2022
356 Clear 28 1013 61 10000 2.06 0 17:26 03.09.2022
357 Clear 25 1013 65 10000 3.09 250 16:27 03.09.2022
358 Clear 24 1012 69 10000 2.06 310 14:44 03.09.2022
359 Clear 25 1008 61 10000 0 0 13:55 03.09.2022
360 Clear 24 1015 64 10000 1.54 290 11:51 03.09.2022
361 Clear 25 1010 62 10000 5.14 120 09:56 03.09.2022
362 Clear 27 1014 57 10000 4.63 120 07:57 03.09.2022
363 Clear 27 1013 59 10000 3.09 110 06:53 03.09.2022
364 Clear 30 1007 51 10000 5.14 260 04:31 03.09.2022
365 Clear 35 1011 46 10000 5.14 250 23:49 02.09.2022
366 Clear 35 1011 42 10000 6.17 260 22:45 02.09.2022
367 Clear 35 1014 45 10000 1.34 304 20:59 02.09.2022
368 Clear 34 1012 45 10000 4.12 130 20:27 02.09.2022
369 Clear 32 1014 46 10000 1.54 170 19:00 02.09.2022
370 Clear 30 1012 51 10000 2.06 100 18:28 02.09.2022
371 Clear 27 1013 62 10000 2.06 50 17:43 02.09.2022
372 Clear 24 1009 77 10000 2.06 290 16:46 02.09.2022
373 Clear 23 1008 73 10000 2.06 70 13:55 02.09.2022
374 Clear 23 1012 75 10000 3.6 100 12:36 02.09.2022
375 Clear 23 1008 72 10000 2.06 80 10:19 02.09.2022
376 Clear 24 1007 72 10000 3.09 130 09:39 02.09.2022
377 Clear 25 1007 61 10000 2.57 160 07:30 02.09.2022
378 Clear 25 1007 61 10000 2.57 160 07:30 02.09.2022
379 Clear 26 1007 58 10000 3.6 130 06:36 02.09.2022
380 Clear 33 1009 47 10000 4.63 260 02:52 02.09.2022
381 Clear 35 1010 40 10000 6.17 110 22:30 01.09.2022
382 Clear 34 1011 45 10000 4.12 260 21:43 01.09.2022
383 Clear 34 1011 46 10000 4.12 260 21:25 01.09.2022
384 Clear 33 1012 46 10000 7.2 120 20:44 01.09.2022
385 Clear 31 1013 49 10000 3.09 130 18:54 01.09.2022
386 Clear 27 1008 59 10000 3.09 110 17:22 01.09.2022
387 Clear 28 1007 43 10000 0 0 15:59 01.09.2022
388 Clear 28 1006 50 10000 3.09 270 14:33 01.09.2022
389 Clear 29 1011 48 10000 2.57 270 12:58 01.09.2022
390 Clear 28 1012 50 10000 1.54 130 11:53 01.09.2022
391 Clear 28 1007 48 10000 1.54 130 11:31 01.09.2022
392 Clear 28 1008 48 10000 0 0 10:38 01.09.2022
393 Clear 28 1007 46 10000 3.09 270 08:30 01.09.2022
394 Clear 31 1010 39 10000 2.57 230 06:22 01.09.2022
395 Haze 36 1008 35 10000 7.72 250 01:33 01.09.2022
396 Clear 36 1011 33 10000 10.29 270 00:18 01.09.2022
397 Clear 34 1015 40 10000 4.12 270 21:33 31.08.2022
398 Clear 32 1018 50 10000 2.57 240 19:50 31.08.2022
399 Clear 28 1016 58 10000 2.57 210 18:18 31.08.2022
400 Clear 23 1012 61 10000 3.09 250 16:23 31.08.2022
401 Clear 23 1011 61 10000 2.06 300 14:32 31.08.2022
402 Clear 24 1011 61 10000 2.06 270 12:23 31.08.2022
403 Clear 25 1012 61 10000 0 0 11:26 31.08.2022
404 Clear 24 1013 50 10000 2.06 140 08:54 31.08.2022
405 Clear 27 1012 48 10000 4.12 250 05:26 31.08.2022
406 Clear 32 1016 46 10000 8.23 260 23:20 30.08.2022
407 Clear 31 1017 50 10000 6.17 270 21:41 30.08.2022
408 Clear 30 1019 52 10000 3.09 200 20:57 30.08.2022
409 Clear 25 1018 63 10000 2.06 250 18:32 30.08.2022
410 Clear 20 1014 78 10000 2.06 320 15:29 30.08.2022
411 Clear 20 1013 81 10000 1.54 180 13:24 30.08.2022
412 Clear 19 1013 79 10000 1.54 0 11:22 30.08.2022
413 Clear 20 1014 79 10000 2.57 190 10:49 30.08.2022
414 Clear 20 1013 75 10000 3.6 230 07:42 30.08.2022
415 Clear 26 1011 59 10000 8.23 260 02:34 30.08.2022
416 Clear 28 1015 58 10000 7.2 260 23:22 29.08.2022
417 Clear 28 1016 60 10000 6.17 250 22:28 29.08.2022
418 Clear 27 1016 61 10000 4.12 250 21:26 29.08.2022
419 Clear 25 1017 67 10000 4.12 260 20:19 29.08.2022
420 Clouds 21 1019 83 10000 3.09 140 17:58 29.08.2022
421 Clouds 20 1013 83 10000 2.06 160 17:25 29.08.2022
422 Clouds 19 1013 86 10000 1.54 0 16:40 29.08.2022
423 Clouds 18 1012 87 10000 2.06 160 15:18 29.08.2022
424 Clouds 18 1012 84 10000 3.6 260 13:23 29.08.2022
425 Clouds 19 1012 85 10000 3.09 230 11:30 29.08.2022
426 Clouds 19 1011 85 10000 3.09 260 10:21 29.08.2022
427 Clear 19 1011 83 10000 4.12 250 08:38 29.08.2022
428 Clear 21 1015 81 10000 3.6 250 05:58 29.08.2022
429 Clear 26 1011 61 10000 6.69 260 01:25 29.08.2022
430 Clear 27 1014 58 10000 5.66 250 22:50 28.08.2022
431 Clear 27 1014 61 10000 5.66 260 21:45 28.08.2022
432 Clear 26 1016 62 10000 1.54 0 20:58 28.08.2022
433 Clouds 24 1014 67 10000 2.57 250 19:44 28.08.2022
434 Clouds 22 1014 76 10000 2.57 210 18:22 28.08.2022
435 Clouds 21 1015 77 10000 2.57 0 17:40 28.08.2022
436 Clouds 20 1015 81 10000 3.09 220 16:32 28.08.2022
437 Clouds 20 1014 85 10000 2.06 280 14:44 28.08.2022
438 Clouds 20 1014 84 10000 1.54 290 12:49 28.08.2022
439 Clouds 20 1011 84 10000 2.06 290 10:51 28.08.2022
440 Clouds 20 1011 84 10000 1.54 300 09:57 28.08.2022
441 Clouds 20 1011 83 10000 3.09 290 08:39 28.08.2022
442 Clouds 20 1010 82 10000 4.63 270 07:50 28.08.2022
443 Clear 25 1012 64 10000 6.17 260 03:44 28.08.2022
444 Clear 28 1013 58 10000 5.66 260 00:33 28.08.2022
445 Clear 28 1015 57 10000 5.66 150 22:50 27.08.2022
446 Clear 28 1014 55 10000 5.66 150 22:18 27.08.2022
447 Clear 26 1015 63 10000 3.6 230 20:27 27.08.2022
448 Clouds 23 1016 75 10000 1.54 0 18:42 27.08.2022
449 Clouds 20 1012 86 10000 1.54 0 16:26 27.08.2022
450 Clouds 19 1012 87 10000 2.06 110 15:30 27.08.2022
451 Clouds 19 1012 88 10000 0 0 12:55 27.08.2022
452 Clouds 19 1013 88 10000 0 0 11:56 27.08.2022
453 Clear 20 1013 82 10000 1.54 120 10:26 27.08.2022
454 Clouds 20 1013 83 10000 2.57 90 09:31 27.08.2022
455 Clear 22 1012 77 10000 2.06 210 05:59 27.08.2022
456 Clear 29 1015 57 10000 6.17 270 00:52 27.08.2022
457 Clear 29 1016 55 10000 6.17 260 23:35 26.08.2022
458 Fog 29 1016 58 10000 3.6 210 21:45 26.08.2022
459 Haze 26 1020 69 10000 2.06 0 19:50 26.08.2022
460 Mist 22 1015 81 8047 2.57 320 17:49 26.08.2022
461 Mist 19 1014 92 9656 2.06 310 15:45 26.08.2022
462 Mist 19 1014 92 9656 1.54 290 14:59 26.08.2022
463 Clear 19 1014 91 10000 0 0 12:59 26.08.2022
464 Clear 20 1015 86 10000 2.57 260 11:47 26.08.2022
465 Clear 20 1015 86 10000 2.57 260 11:21 26.08.2022
466 Clouds 21 1015 82 10000 3.09 260 08:21 26.08.2022
467 Clear 26 1013 66 10000 6.17 270 03:51 26.08.2022
468 Clear 30 1016 54 10000 4.63 250 00:39 26.08.2022
469 Clear 30 1017 52 10000 4.63 250 22:39 25.08.2022
470 Clear 30 1019 54 10000 3.6 180 20:54 25.08.2022
471 Clear 30 1019 54 10000 3.6 180 20:54 25.08.2022
472 Clear 28 1018 59 10000 3.09 250 19:35 25.08.2022
473 Clear 26 1017 67 10000 1.79 304 18:29 25.08.2022
474 Clear 23 1015 74 10000 0.45 270 17:32 25.08.2022
475 Clear 22 1014 82 10000 2.06 160 16:45 25.08.2022
476 Clear 20 1014 83 10000 1.54 120 15:30 25.08.2022
477 Clear 21 1018 81 10000 2.06 220 13:58 25.08.2022
478 Clear 21 1014 81 10000 2.57 110 11:21 25.08.2022
479 Clear 21 1014 81 10000 2.57 110 10:42 25.08.2022
480 Clear 22 1012 78 10000 4.12 140 07:35 25.08.2022
481 Clear 27 1013 64 10000 4.12 200 03:44 25.08.2022
482 Clear 30 1013 56 10000 5.14 180 23:37 24.08.2022
483 Clear 30 1013 55 10000 5.14 180 23:18 24.08.2022
484 Clear 30 1015 55 10000 2.24 238 21:56 24.08.2022
485 Clear 29 1014 58 10000 4.63 260 21:30 24.08.2022
486 Clear 27 1014 63 10000 4.63 230 20:18 24.08.2022
487 Clouds 21 1011 82 10000 2.57 130 17:32 24.08.2022
488 Clouds 20 1010 86 10000 1.54 0 15:55 24.08.2022
489 Clouds 20 1010 86 10000 1.54 0 15:35 24.08.2022
490 Clouds 20 1010 81 10000 1.54 0 12:52 24.08.2022
491 Clouds 20 1010 81 10000 1.54 0 12:52 24.08.2022
492 Clear 20 1010 84 10000 2.06 90 11:21 24.08.2022
493 Clouds 20 1011 81 10000 0 0 08:59 24.08.2022
494 Clear 21 1009 78 10000 4.12 120 06:52 24.08.2022
495 Haze 29 1007 58 10000 5.66 240 01:20 24.08.2022
496 Haze 30 1013 57 10000 5.66 260 22:49 23.08.2022
497 Haze 29 1012 57 10000 5.66 260 22:21 23.08.2022
498 Haze 28 1013 61 9656 4.63 260 21:21 23.08.2022
499 Haze 25 1013 71 8047 3.6 260 19:28 23.08.2022
500 Haze 22 1010 80 6437 2.06 150 18:21 23.08.2022
501 Mist 21 1010 85 6437 2.57 190 17:43 23.08.2022
502 Mist 19 1010 92 6437 1.54 160 16:31 23.08.2022
503 Mist 18 1010 92 10000 1.54 0 14:54 23.08.2022
504 Mist 18 1010 93 10000 0 0 13:25 23.08.2022
505 Mist 18 1011 92 10000 2.06 0 11:19 23.08.2022
506 Clear 19 1012 89 10000 2.06 120 10:33 23.08.2022
507 Clear 19 1012 88 10000 1.54 240 09:46 23.08.2022
508 Clouds 19 1012 87 10000 2.57 120 08:48 23.08.2022
509 Clear 19 1012 88 10000 2.57 120 08:20 23.08.2022
510 Clear 19 1013 88 10000 3.09 250 07:33 23.08.2022
511 Clouds 20 1012 83 10000 4.12 260 06:26 23.08.2022
512 Clear 27 1012 65 10000 4.12 210 01:55 23.08.2022
513 Clear 27 1013 64 10000 6.17 260 01:55 23.08.2022
514 Haze 27 1016 63 10000 7.2 280 00:27 23.08.2022
515 Haze 27 1017 63 10000 5.14 270 23:32 22.08.2022
516 Haze 26 1018 65 10000 4.12 210 22:32 22.08.2022
517 Haze 25 1020 70 10000 3.6 200 21:22 22.08.2022
518 Mist 21 1017 87 10000 2.57 250 19:47 22.08.2022
519 Drizzle 20 1017 88 10000 3.09 270 18:38 22.08.2022
520 Haze 19 1020 87 10000 3.09 260 16:31 22.08.2022
521 Clouds 19 1019 86 10000 2.06 270 15:38 22.08.2022
522 Clouds 19 1016 87 10000 0 0 12:57 22.08.2022
523 Clear 19 1016 86 10000 3.09 250 10:26 22.08.2022
524 Clear 20 1020 83 10000 4.63 240 07:41 22.08.2022
525 Clear 25 1018 68 10000 6.17 260 03:49 22.08.2022
526 Clear 28 1018 59 10000 5.14 240 00:38 22.08.2022
527 Clear 28 1019 58 10000 5.14 240 00:18 22.08.2022
528 Clouds 26 1020 64 10000 3.6 260 22:18 21.08.2022
529 Clouds 25 1020 69 10000 3.6 210 21:23 21.08.2022
530 Clouds 23 1018 73 10000 3.6 180 20:36 21.08.2022
531 Haze 22 1021 77 10000 3.6 130 19:24 21.08.2022
532 Clouds 20 1021 82 10000 0 0 16:55 21.08.2022
533 Clouds 20 1020 81 10000 2.57 100 15:53 21.08.2022
534 Clouds 20 1019 82 10000 2.57 100 15:20 21.08.2022
535 Haze 20 1018 82 2816 2.57 110 13:52 21.08.2022
536 Clouds 20 1018 83 10000 2.57 110 13:26 21.08.2022
537 Clouds 20 1014 81 10000 3.09 150 11:34 21.08.2022
538 Clear 20 1018 82 10000 2.57 140 09:31 21.08.2022
539 Clear 20 1021 82 10000 0 0 08:56 21.08.2022
540 Clear 21 1017 79 10000 3.6 140 08:38 21.08.2022
541 Clouds 21 1018 80 10000 3.09 150 07:26 21.08.2022
542 Clear 25 1013 66 10000 6.17 200 03:40 21.08.2022
543 Clear 28 1013 57 10000 5.14 260 00:22 21.08.2022
544 Clear 28 1015 61 10000 4.63 210 22:40 20.08.2022
545 Clouds 26 1015 62 10000 5.14 180 21:37 20.08.2022
546 Clouds 25 1016 68 10000 4.63 130 20:40 20.08.2022
547 Clouds 23 1015 74 10000 4.12 120 19:40 20.08.2022
548 Clouds 22 1015 78 10000 4.12 110 18:30 20.08.2022
549 Clouds 22 1011 80 10000 3.6 120 17:50 20.08.2022
550 Clouds 21 1011 84 10000 2.57 120 16:52 20.08.2022
551 Clouds 20 1010 83 10000 3.09 0 15:33 20.08.2022
552 Clear 20 1009 83 10000 2.57 90 13:26 20.08.2022
553 Clear 19 1009 84 10000 2.57 120 11:50 20.08.2022
554 Clear 20 1009 77 10000 2.57 150 09:37 20.08.2022
555 Clear 20 1009 74 10000 3.6 120 08:31 20.08.2022
556 Clear 22 1008 68 10000 4.12 150 05:55 20.08.2022
557 Clear 30 1011 49 10000 4.63 200 00:59 20.08.2022
558 Clear 30 1010 51 10000 6.17 260 00:35 20.08.2022
559 Clear 30 1011 51 10000 5.14 270 23:19 19.08.2022
560 Clear 28 1012 55 10000 5.14 110 21:41 19.08.2022
561 Clear 26 1010 60 10000 2.57 0 20:20 19.08.2022
562 Clear 20 1011 79 10000 2.06 200 17:35 19.08.2022
563 Clear 18 1011 77 10000 0 0 15:19 19.08.2022
564 Clear 18 1011 78 10000 2.06 150 13:21 19.08.2022
565 Clear 18 1012 79 10000 2.06 180 10:53 19.08.2022
566 Mist 18 1012 82 8047 2.06 180 10:21 19.08.2022
567 Clear 20 1012 73 10000 4.63 120 06:37 19.08.2022
568 Clear 28 1011 50 10000 4.12 230 00:57 19.08.2022
569 Fog 28 1012 51 10000 7.2 270 00:28 19.08.2022
570 Clear 29 1015 51 10000 7.2 270 23:38 18.08.2022
571 Clear 29 1016 51 10000 6.69 240 22:49 18.08.2022
572 Clear 29 1017 51 10000 1.79 222 21:56 18.08.2022
573 Clear 28 1016 54 10000 5.66 100 21:26 18.08.2022
574 Clear 27 1021 54 10000 1.79 303 19:56 18.08.2022
575 Clear 25 1017 60 10000 2.57 0 19:28 18.08.2022
576 Mist 23 1014 71 9656 2.57 250 17:50 18.08.2022
577 Haze 19 1014 83 10000 2.06 250 16:58 18.08.2022
578 Mist 18 1013 85 9656 2.57 260 14:52 18.08.2022
579 Mist 18 1013 87 10000 2.57 260 14:19 18.08.2022
580 Mist 18 1013 83 10000 3.6 260 12:55 18.08.2022
581 Clear 19 1014 81 10000 2.57 120 11:42 18.08.2022
582 Clear 20 1014 75 10000 3.6 260 09:43 18.08.2022
583 Clear 21 1014 73 10000 3.09 250 08:40 18.08.2022
584 Clear 22 1014 67 10000 5.14 120 07:19 18.08.2022
585 Clear 26 1011 51 10000 5.14 260 04:36 18.08.2022
586 Haze 31 1015 46 10000 5.66 270 23:35 17.08.2022
587 Clear 31 1015 49 10000 5.14 270 21:46 17.08.2022
588 Clear 29 1015 53 10000 4.12 250 20:19 17.08.2022
589 Clear 28 1015 56 10000 4.12 260 19:29 17.08.2022
590 Clear 23 1013 68 10000 3.6 260 17:36 17.08.2022
591 Clear 20 1012 79 10000 3.6 280 16:35 17.08.2022
592 Clear 19 1012 82 10000 2.57 240 15:28 17.08.2022
593 Clear 20 1012 68 10000 1.54 300 13:30 17.08.2022
594 Clear 20 1011 72 10000 3.09 250 11:38 17.08.2022
595 Clear 21 1011 72 10000 0 0 09:31 17.08.2022
596 Clear 22 1011 68 10000 0 0 08:24 17.08.2022
597 Clear 28 1011 46 10000 5.14 270 03:39 17.08.2022
598 Clear 32 1011 42 10000 6.17 260 00:24 17.08.2022
599 Clear 31 1012 46 10000 5.66 270 22:41 16.08.2022
600 Clear 31 1014 43 10000 3.09 190 20:59 16.08.2022
601 Clear 29 1014 49 10000 2.06 0 19:54 16.08.2022
602 Clear 26 1013 58 10000 2.57 230 18:44 16.08.2022
603 Haze 25 1015 61 4023 2.06 320 17:53 16.08.2022
604 Clear 18 1009 88 10000 0 0 15:59 16.08.2022
605 Clear 20 1009 66 10000 0 0 14:55 16.08.2022
606 Clear 19 1009 77 10000 0 0 14:37 16.08.2022
607 Clear 20 1009 66 10000 0 0 13:54 16.08.2022
608 Clear 19 1010 74 10000 1.54 290 11:39 16.08.2022
609 Clear 21 1011 65 10000 2.57 240 09:52 16.08.2022
610 Clear 21 1011 69 10000 3.09 80 08:48 16.08.2022
611 Clear 21 1011 67 10000 3.09 80 08:19 16.08.2022
612 Clear 24 1009 57 10000 4.63 140 05:18 16.08.2022
613 Clear 32 1014 44 10000 4.12 180 22:56 15.08.2022
614 Clear 31 1013 46 10000 5.66 260 22:18 15.08.2022
615 Clear 31 1014 46 10000 4.63 260 21:41 15.08.2022
616 Clear 29 1013 45 10000 3.6 200 20:30 15.08.2022
617 Clear 26 1015 59 10000 2.57 270 18:56 15.08.2022
618 Clear 25 1018 59 10000 0.45 335 17:59 15.08.2022
619 Clear 20 1011 77 10000 0 0 16:24 15.08.2022
620 Clear 21 1011 67 10000 0 0 14:49 15.08.2022
621 Clear 20 1011 66 10000 1.54 170 13:23 15.08.2022
622 Clear 21 1012 58 10000 2.06 90 10:37 15.08.2022
623 Clear 22 1012 52 10000 3.6 110 08:55 15.08.2022
624 Clear 23 1011 54 10000 3.6 260 06:51 15.08.2022
625 Clear 27 1015 45 10000 3.6 240 03:56 15.08.2022
626 Clear 32 1015 43 10000 6.17 250 23:38 14.08.2022
627 Fog 32 1016 45 10000 5.14 270 21:49 14.08.2022
628 Fog 31 1017 45 10000 4.12 230 20:54 14.08.2022
629 Clear 29 1017 47 10000 2.57 220 19:46 14.08.2022
630 Clear 26 1017 55 10000 1.54 260 18:41 14.08.2022
631 Clear 25 1014 60 10000 0 0 17:44 14.08.2022
632 Clear 21 1013 69 10000 0 0 16:31 14.08.2022
633 Clear 21 1013 60 10000 0 0 15:45 14.08.2022
634 Clear 21 1013 60 10000 1.54 340 14:19 14.08.2022
635 Clear 21 1013 60 10000 0 0 13:49 14.08.2022
636 Clear 21 1014 68 10000 2.57 110 12:55 14.08.2022
637 Clear 21 1014 70 10000 2.06 120 11:31 14.08.2022
638 Clear 21 1014 69 10000 2.06 250 10:26 14.08.2022
639 Clear 23 1014 54 10000 2.57 140 08:20 14.08.2022
640 Clear 25 1014 46 10000 3.6 260 06:20 14.08.2022
641 Clear 30 1015 40 10000 5.66 260 02:46 14.08.2022
642 Clear 32 1016 36 10000 5.66 260 23:36 13.08.2022
643 Clear 32 1016 40 10000 5.14 260 22:28 13.08.2022
644 Clear 31 1017 42 10000 3.09 190 20:58 13.08.2022
645 Clear 31 1017 43 10000 4.12 280 20:28 13.08.2022
646 Clear 29 1016 45 10000 3.6 270 19:24 13.08.2022
647 Clear 25 1014 61 10000 2.06 330 17:36 13.08.2022
648 Clear 21 1014 66 10000 0 0 15:23 13.08.2022
649 Clear 22 1013 67 10000 1.54 70 14:26 13.08.2022
650 Clear 21 1013 67 10000 1.54 240 13:38 13.08.2022
651 Clear 21 1013 58 10000 2.06 310 11:52 13.08.2022
652 Clear 21 1014 75 10000 0 0 09:58 13.08.2022
653 Clear 22 1014 76 10000 3.6 110 08:23 13.08.2022
654 Clear 22 1014 76 10000 3.6 110 08:23 13.08.2022
655 Clear 28 1012 49 10000 5.14 210 04:21 13.08.2022
656 Clear 32 1016 39 10000 6.69 260 23:52 12.08.2022
657 Clear 31 1017 44 10000 4.63 250 21:42 12.08.2022
658 Clear 30 1018 44 10000 4.12 260 20:51 12.08.2022
659 Clear 28 1018 51 10000 3.6 260 19:39 12.08.2022
660 Clear 26 1018 60 10000 2.06 250 18:46 12.08.2022
661 Clear 23 1014 69 10000 1.54 220 17:21 12.08.2022
662 Clear 20 1014 69 10000 2.06 240 15:49 12.08.2022
663 Clear 20 1013 68 10000 1.54 250 14:29 12.08.2022
664 Clear 19 1013 82 10000 0 0 12:55 12.08.2022
665 Clear 21 1014 65 10000 2.57 120 10:35 12.08.2022
666 Clear 22 1014 61 10000 3.09 130 07:50 12.08.2022
667 Clear 24 1014 55 10000 3.6 230 06:39 12.08.2022
668 Clear 31 1013 32 10000 7.2 250 02:39 12.08.2022
669 Clear 32 1017 35 10000 8.23 260 00:27 12.08.2022
670 Clear 32 1018 38 10000 6.69 260 23:35 11.08.2022
671 Clear 32 1018 41 10000 6.69 260 22:27 11.08.2022
672 Clear 32 1018 42 10000 5.14 260 21:43 11.08.2022
673 Clear 31 1020 44 10000 1.34 286 20:59 11.08.2022
674 Clear 30 1018 44 10000 5.14 250 20:20 11.08.2022
675 Clear 29 1016 47 10000 4.12 270 19:32 11.08.2022
676 Clear 25 1020 54 10000 2.06 270 17:48 11.08.2022
677 Clear 22 1016 71 10000 2.57 310 16:38 11.08.2022
678 Smoke 21 1016 67 10000 0 0 15:25 11.08.2022
679 Clear 21 1015 65 10000 2.57 270 13:37 11.08.2022
680 Clear 22 1016 56 10000 0 0 10:58 11.08.2022
681 Clear 25 1016 53 10000 2.57 180 07:49 11.08.2022
682 Clear 30 1018 35 10000 5.66 260 03:57 11.08.2022
683 Clear 32 1017 37 10000 6.69 260 01:33 11.08.2022
684 Clear 32 1018 42 10000 5.66 260 22:36 10.08.2022
685 Clear 32 1019 42 10000 5.66 260 21:44 10.08.2022
686 Clear 32 1020 40 10000 3.6 180 20:55 10.08.2022
687 Clear 30 1019 44 10000 0.89 257 19:44 10.08.2022
688 Clear 28 1019 51 10000 2.06 220 18:42 10.08.2022
689 Clear 24 1015 63 10000 1.54 250 16:55 10.08.2022
690 Clear 22 1015 65 10000 1.54 250 13:36 10.08.2022
691 Clear 22 1015 65 10000 1.54 250 13:36 10.08.2022
692 Clear 22 1015 62 10000 1.54 320 12:48 10.08.2022
693 Clear 23 1015 60 10000 2.06 120 09:56 10.08.2022
694 Clear 24 1015 59 10000 2.57 140 08:35 10.08.2022
695 Clear 25 1015 53 10000 4.12 120 07:21 10.08.2022
696 Clear 29 1015 41 10000 7.2 260 03:35 10.08.2022
697 Clear 32 1016 35 10000 6.17 260 00:49 10.08.2022
698 Clear 33 1016 35 10000 5.14 260 23:25 09.08.2022
699 Clear 32 1017 39 10000 4.12 250 21:37 09.08.2022
700 Clear 31 1015 42 10000 5.66 270 20:42 09.08.2022
701 Clear 29 1017 48 10000 2.57 0 18:48 09.08.2022
702 Clear 26 1016 58 10000 1.54 260 17:31 09.08.2022
703 Clear 24 1014 67 10000 2.57 240 16:43 09.08.2022
704 Clear 22 1013 71 10000 0 0 15:59 09.08.2022
705 Clear 22 1013 70 10000 0 0 14:43 09.08.2022
706 Clear 22 1013 62 10000 3.09 110 10:53 09.08.2022
707 Clear 23 1014 65 10000 3.6 250 08:52 09.08.2022
708 Clear 24 1014 64 10000 4.12 130 07:54 09.08.2022
709 Clear 27 1014 56 10000 4.63 260 04:43 09.08.2022
710 Clear 31 1015 52 10000 5.14 260 23:58 08.08.2022
711 Clear 31 1015 51 10000 5.14 260 23:24 08.08.2022
712 Clear 31 1016 50 10000 5.66 260 22:38 08.08.2022
713 Clear 31 1016 50 10000 5.14 280 21:40 08.08.2022
714 Clear 29 1017 56 10000 4.63 120 20:34 08.08.2022
715 Clear 28 1017 57 10000 3.6 120 19:34 08.08.2022
716 Clear 25 1022 64 10000 0 0 17:56 08.08.2022
717 Clear 20 1013 68 10000 1.54 100 15:48 08.08.2022
718 Clear 20 1013 75 10000 1.54 100 15:28 08.08.2022
719 Clear 21 1013 65 10000 2.06 250 12:30 08.08.2022
720 Clear 21 1013 72 10000 2.57 140 10:28 08.08.2022
721 Clear 24 1013 60 10000 3.09 100 07:51 08.08.2022
722 Clear 29 1012 42 10000 5.66 150 03:42 08.08.2022
723 Clear 33 1015 36 10000 6.69 260 23:28 07.08.2022
724 Clear 33 1015 37 10000 4.63 260 21:41 07.08.2022
725 Clear 33 1017 39 10000 3.09 230 20:55 07.08.2022
726 Clear 31 1016 40 10000 5.14 270 20:18 07.08.2022
727 Clear 30 1017 43 10000 4.12 150 19:51 07.08.2022
728 Clear 27 1017 52 10000 2.06 240 18:49 07.08.2022
729 Clear 24 1013 63 10000 1.54 330 17:31 07.08.2022
730 Clear 21 1013 70 10000 0 0 16:52 07.08.2022
731 Clear 22 1012 61 10000 1.54 250 15:29 07.08.2022
732 Clear 23 1012 47 10000 0 0 13:58 07.08.2022
733 Clear 22 1012 66 10000 1.54 330 12:40 07.08.2022
734 Clear 22 1012 65 10000 2.06 190 10:48 07.08.2022
735 Clear 22 1012 65 10000 2.06 190 10:20 07.08.2022
736 Clear 28 1011 46 10000 8.23 240 04:37 07.08.2022
737 Clear 31 1011 43 10000 8.75 270 02:18 07.08.2022
738 Clear 31 1016 52 10000 6.17 250 22:34 06.08.2022
739 Clear 31 1016 52 10000 5.66 260 21:52 06.08.2022
740 Clear 28 1017 59 10000 3.09 260 19:46 06.08.2022
741 Clear 26 1018 62 10000 2.06 170 18:49 06.08.2022
742 Clear 22 1014 75 10000 0 0 17:45 06.08.2022
743 Clear 20 1014 86 10000 2.06 230 16:24 06.08.2022
744 Clear 20 1013 75 10000 1.54 70 13:51 06.08.2022
745 Clear 20 1013 75 10000 1.54 100 12:38 06.08.2022
746 Clear 20 1013 78 10000 2.06 90 11:21 06.08.2022
747 Clear 21 1014 73 10000 2.06 110 09:41 06.08.2022
748 Clear 22 1013 70 10000 3.09 230 07:28 06.08.2022
749 Clear 29 1016 50 10000 7.2 260 01:47 06.08.2022
750 Clear 29 1017 50 10000 7.2 260 22:37 05.08.2022
751 Clear 29 1017 50 10000 5.66 260 21:34 05.08.2022
752 Clear 26 1017 58 10000 2.57 280 19:22 05.08.2022
753 Clear 25 1018 65 10000 3.09 120 18:44 05.08.2022
754 Clear 21 1019 77 10000 0.89 226 16:55 05.08.2022
755 Clear 21 1017 79 10000 2.06 150 16:37 05.08.2022
756 Clouds 20 1014 78 10000 1.54 260 15:21 05.08.2022
757 Clear 21 1017 77 10000 2.06 190 13:43 05.08.2022
758 Clear 21 1017 77 10000 2.06 190 13:22 05.08.2022
759 Clear 21 1013 76 10000 1.54 270 12:24 05.08.2022
760 Clear 21 1014 77 10000 4.12 120 10:30 05.08.2022
761 Clear 22 1013 74 10000 0 0 07:58 05.08.2022
762 Clear 23 1013 72 10000 4.63 260 05:30 05.08.2022
763 Clear 27 1013 61 10000 5.66 270 00:30 05.08.2022
764 Clear 28 1016 57 10000 6.17 270 22:25 04.08.2022
765 Clear 27 1017 58 10000 5.66 260 21:25 04.08.2022
766 Clear 27 1017 55 10000 4.63 260 20:42 04.08.2022
767 Clear 26 1017 61 10000 2.57 240 19:37 04.08.2022
768 Clear 24 1016 70 10000 1.54 0 18:36 04.08.2022
769 Clear 22 1014 77 10000 1.54 0 17:37 04.08.2022
770 Clear 20 1012 82 10000 3.09 270 14:18 04.08.2022
771 Clear 20 1013 81 10000 1.54 270 12:44 04.08.2022
772 Clear 20 1013 82 10000 3.09 260 10:51 04.08.2022
773 Clear 21 1013 77 10000 3.09 270 07:53 04.08.2022
774 Clear 23 1012 72 10000 4.63 260 05:46 04.08.2022
775 Clear 28 1012 56 10000 5.66 260 02:29 04.08.2022
776 Clear 29 1012 55 10000 6.17 260 23:45 03.08.2022
777 Clear 29 1013 54 10000 4.63 240 22:30 03.08.2022
778 Clear 27 1014 60 10000 4.12 200 20:50 03.08.2022
779 Clear 25 1014 66 10000 3.09 280 19:44 03.08.2022
780 Clear 23 1015 73 10000 2.57 250 18:36 03.08.2022
781 Clear 19 1014 85 10000 2.57 240 16:25 03.08.2022
782 Clear 19 1014 84 10000 2.06 250 15:32 03.08.2022
783 Clear 20 1014 78 10000 2.57 270 12:41 03.08.2022
784 Clouds 20 1015 75 10000 3.6 120 08:54 03.08.2022
785 Clear 24 1014 61 10000 5.66 250 04:47 03.08.2022
786 Clear 26 1014 59 10000 7.2 270 03:52 03.08.2022
787 Clear 29 1015 51 10000 7.72 260 01:45 03.08.2022
788 Clear 29 1015 52 10000 6.69 260 23:41 02.08.2022
789 Clear 29 1016 53 10000 3.6 160 21:59 02.08.2022
790 Clear 29 1016 55 10000 6.17 250 21:40 02.08.2022
791 Clear 28 1017 58 10000 5.14 260 20:20 02.08.2022
792 Clear 21 1016 80 10000 3.6 270 16:49 02.08.2022
793 Clear 20 1016 81 10000 2.57 280 13:40 02.08.2022
794 Clear 20 1016 82 10000 2.57 120 10:34 02.08.2022
795 Clouds 21 1016 80 10000 4.63 110 08:29 02.08.2022
796 Clouds 21 1016 79 10000 4.63 230 07:50 02.08.2022
797 Clear 24 1015 64 10000 5.66 250 04:56 02.08.2022
798 Clear 29 1014 47 10000 6.17 250 02:20 02.08.2022
799 Clear 30 1015 51 10000 6.69 250 23:23 01.08.2022
800 Clouds 29 1016 52 10000 4.63 260 21:42 01.08.2022
801 Clear 28 1017 57 10000 4.12 260 20:19 01.08.2022
802 Clear 25 1017 61 10000 4.63 260 18:55 01.08.2022
803 Clear 23 1016 68 10000 1.54 280 16:58 01.08.2022
804 Clear 22 1016 74 10000 3.6 270 16:39 01.08.2022
805 Clear 20 1016 79 10000 2.57 260 15:45 01.08.2022
806 Clear 21 1016 76 10000 0 0 14:57 01.08.2022
807 Clear 21 1016 76 10000 2.57 320 13:32 01.08.2022
808 Clear 22 1017 70 10000 1.54 340 11:18 01.08.2022
809 Clouds 22 1017 69 10000 3.09 230 09:34 01.08.2022
810 Clouds 23 1016 66 10000 4.12 250 07:37 01.08.2022
811 Clouds 25 1015 56 10000 7.2 260 04:43 01.08.2022
812 Clear 28 1015 54 10000 6.17 260 02:24 01.08.2022
813 Clouds 29 1016 54 10000 4.63 250 22:54 31.07.2022
814 Clouds 29 1016 55 10000 4.63 250 22:35 31.07.2022
815 Clouds 28 1016 52 10000 4.12 260 20:46 31.07.2022
816 Clear 26 1016 57 10000 2.06 110 18:52 31.07.2022
817 Clouds 23 1016 68 10000 2.06 120 17:34 31.07.2022
818 Clear 21 1016 78 10000 0 0 14:57 31.07.2022
819 Clear 21 1015 78 10000 2.06 30 13:21 31.07.2022
820 Clouds 21 1015 80 10000 2.06 140 11:44 31.07.2022
821 Clouds 21 1016 82 10000 4.12 120 09:18 31.07.2022
822 Clear 23 1014 75 10000 3.6 280 06:31 31.07.2022
823 Clear 26 1013 63 10000 3.6 230 02:56 31.07.2022
824 Clear 29 1013 58 10000 5.14 270 23:23 30.07.2022
825 Clear 27 1014 64 10000 5.14 260 22:19 30.07.2022
826 Clear 27 1014 66 10000 3.6 260 21:40 30.07.2022
827 Clear 24 1015 74 10000 1.54 110 20:51 30.07.2022
828 Clear 23 1015 78 10000 2.57 110 19:57 30.07.2022
829 Clear 21 1015 79 10000 2.57 100 18:26 30.07.2022
830 Clear 20 1014 83 10000 3.09 130 16:54 30.07.2022
831 Clear 19 1013 81 10000 1.54 210 15:35 30.07.2022
832 Clear 19 1013 82 10000 1.54 100 14:32 30.07.2022
833 Clear 19 1013 80 10000 2.06 150 12:43 30.07.2022
834 Clear 20 1013 79 10000 2.06 120 11:55 30.07.2022
835 Clear 20 1013 79 10000 3.09 140 10:25 30.07.2022
836 Clear 20 1014 79 10000 2.57 140 09:45 30.07.2022
837 Clear 21 1013 77 10000 4.63 140 07:47 30.07.2022
838 Clear 27 1011 56 10000 6.17 250 02:34 30.07.2022
839 Clear 28 1011 53 10000 5.66 240 01:43 30.07.2022
840 Clear 28 1013 51 10000 4.63 250 21:39 29.07.2022
841 Clear 28 1013 51 10000 2.57 150 20:59 29.07.2022
842 Clear 25 1013 62 10000 4.12 130 19:48 29.07.2022
843 Clear 22 1013 75 10000 2.06 150 17:52 29.07.2022
844 Clear 18 1013 85 10000 1.54 150 15:19 29.07.2022
845 Clear 19 1012 83 10000 1.54 130 12:59 29.07.2022
846 Clear 19 1013 81 10000 2.57 100 10:35 29.07.2022
847 Clear 20 1013 80 10000 3.6 110 08:49 29.07.2022
848 Clear 21 1013 77 10000 3.6 250 07:40 29.07.2022
849 Clear 27 1011 53 10000 5.14 240 01:47 29.07.2022
850 Clear 28 1013 47 10000 5.14 130 22:49 28.07.2022
851 Clear 27 1013 57 10000 1.79 226 21:00 28.07.2022
852 Clear 25 1014 64 10000 4.12 120 20:30 28.07.2022
853 Clear 23 1014 73 10000 3.09 240 19:42 28.07.2022
854 Clouds 21 1014 81 10000 3.09 230 18:50 28.07.2022
855 Clear 19 1014 83 10000 3.09 140 17:43 28.07.2022
856 Clear 18 1013 86 10000 0 0 16:51 28.07.2022
857 Clear 17 1013 85 10000 2.57 250 15:32 28.07.2022
858 Clear 18 1012 85 10000 2.06 310 13:29 28.07.2022
859 Clear 18 1014 81 10000 2.57 110 10:37 28.07.2022
860 Clouds 20 1014 74 10000 6.69 270 06:45 28.07.2022
861 Clear 22 1014 67 10000 6.17 260 05:31 28.07.2022
862 Clear 28 1013 53 10000 7.2 260 01:23 28.07.2022
863 Clear 28 1014 55 10000 4.63 250 22:41 27.07.2022
864 Clear 26 1015 57 10000 4.63 230 21:29 27.07.2022
865 Clouds 23 1016 71 10000 3.09 240 19:43 27.07.2022
866 Clouds 20 1016 81 10000 2.57 270 18:39 27.07.2022
867 Clouds 18 1015 85 10000 2.06 0 15:52 27.07.2022
868 Clouds 17 1015 85 10000 2.06 0 15:20 27.07.2022
869 Clouds 17 1015 85 10000 2.06 250 14:40 27.07.2022
870 Clouds 17 1015 87 10000 2.06 140 12:50 27.07.2022
871 Clouds 18 1015 79 10000 0 0 08:55 27.07.2022
872 Clear 19 1015 77 10000 4.63 240 07:24 27.07.2022
873 Clear 26 1013 61 10000 6.17 260 02:42 27.07.2022
874 Clear 27 1014 59 10000 5.14 270 22:39 26.07.2022
875 Clear 26 1015 61 10000 5.14 260 21:23 26.07.2022
876 Clear 26 1015 63 10000 3.6 240 20:47 26.07.2022
877 Haze 21 1015 78 8047 2.57 240 18:46 26.07.2022
878 Haze 21 1015 77 8047 2.57 240 18:20 26.07.2022
879 Haze 19 1014 84 9656 2.06 260 16:46 26.07.2022
880 Haze 18 1014 85 10000 2.06 260 15:42 26.07.2022
881 Clouds 18 1013 85 10000 0 0 13:59 26.07.2022
882 Clouds 18 1014 85 10000 2.06 320 11:40 26.07.2022
883 Clouds 18 1014 84 10000 3.6 140 09:35 26.07.2022
884 Clouds 19 1014 84 10000 2.06 280 07:56 26.07.2022
885 Clear 27 1012 62 10000 7.2 270 01:21 26.07.2022
886 Clear 28 1012 59 10000 5.66 260 23:37 25.07.2022
887 Clear 27 1013 60 10000 4.63 230 22:33 25.07.2022
888 Clear 27 1014 62 10000 4.63 270 21:43 25.07.2022
889 Clear 26 1014 65 10000 3.6 210 20:42 25.07.2022
890 Haze 23 1014 70 9656 2.57 260 19:51 25.07.2022
891 Haze 22 1014 73 9656 2.57 260 19:20 25.07.2022
892 Haze 20 1014 79 10000 2.06 90 17:35 25.07.2022
893 Haze 19 1014 83 10000 2.06 200 16:40 25.07.2022
894 Clouds 19 1013 84 10000 1.54 320 12:58 25.07.2022
895 Clouds 19 1014 83 10000 2.57 0 10:47 25.07.2022
896 Clear 19 1014 82 10000 3.09 270 07:29 25.07.2022
897 Clear 28 1012 62 10000 6.17 260 00:38 25.07.2022
898 Clear 28 1012 61 10000 6.17 260 23:45 24.07.2022
899 Clear 27 1012 60 10000 5.14 240 22:43 24.07.2022
900 Clear 26 1013 63 10000 3.6 240 21:33 24.07.2022
901 Clear 26 1013 68 10000 4.12 240 20:58 24.07.2022
902 Haze 25 1013 71 9656 3.09 260 20:37 24.07.2022
903 Haze 21 1013 79 9656 2.57 220 19:18 24.07.2022
904 Haze 20 1013 84 8047 2.57 250 17:56 24.07.2022
905 Haze 19 1013 87 9656 0 0 15:54 24.07.2022
906 Haze 19 1012 88 10000 2.57 170 14:47 24.07.2022
907 Clouds 19 1012 87 10000 3.09 150 13:49 24.07.2022
908 Clouds 19 1012 84 10000 2.06 160 12:28 24.07.2022
909 Clouds 19 1012 83 10000 1.54 190 11:30 24.07.2022
910 Clouds 19 1013 84 10000 3.09 250 09:48 24.07.2022
911 Clouds 19 1013 84 10000 2.57 240 08:22 24.07.2022
912 Clouds 20 1012 83 10000 3.6 180 07:41 24.07.2022
913 Clouds 23 1010 71 10000 7.72 250 03:18 24.07.2022
914 Clear 28 1011 57 10000 4.63 240 23:25 23.07.2022
915 Clouds 25 1013 64 10000 3.09 220 20:47 23.07.2022
916 Haze 22 1013 71 10000 3.6 220 19:30 23.07.2022
917 Haze 21 1013 74 10000 2.06 190 18:40 23.07.2022
918 Clouds 20 1012 77 10000 3.09 170 17:28 23.07.2022
919 Clouds 19 1012 82 10000 2.06 0 16:29 23.07.2022
920 Clouds 19 1011 82 10000 2.06 110 15:22 23.07.2022
921 Clouds 19 1012 84 10000 0.89 184 14:55 23.07.2022
922 Clouds 19 1011 83 10000 2.06 140 14:24 23.07.2022
923 Clouds 19 1012 84 10000 3.09 120 11:56 23.07.2022
924 Clouds 20 1011 83 10000 2.57 130 10:44 23.07.2022
925 Clouds 19 1011 84 10000 2.06 0 09:53 23.07.2022
926 Clear 20 1012 82 10000 3.09 140 08:24 23.07.2022
927 Clear 26 1009 62 10000 5.66 260 03:38 23.07.2022
928 Clear 29 1011 52 10000 5.66 260 00:39 23.07.2022
929 Clear 27 1013 56 10000 4.12 260 21:41 22.07.2022
930 Clear 25 1013 61 10000 3.6 260 20:33 22.07.2022
931 Haze 23 1013 70 10000 2.57 120 19:32 22.07.2022
932 Clouds 21 1012 83 10000 1.95 211 18:23 22.07.2022
933 Haze 18 1013 87 8047 3.09 120 16:46 22.07.2022
934 Clear 18 1012 88 10000 2.57 110 14:20 22.07.2022
935 Clear 18 1012 91 10000 2.06 190 10:59 22.07.2022
936 Clear 19 1013 83 10000 3.09 110 09:25 22.07.2022
937 Clear 20 1013 80 10000 3.09 230 08:27 22.07.2022
938 Clear 24 1013 66 10000 5.14 280 04:48 22.07.2022
939 Clear 29 1013 54 10000 6.17 180 00:40 22.07.2022
940 Clear 29 1014 50 10000 5.14 260 22:25 21.07.2022
941 Clear 28 1015 52 10000 4.63 110 20:48 21.07.2022
942 Clear 25 1016 58 10000 3.09 270 19:23 21.07.2022
943 Clear 21 1015 79 10000 2.06 290 17:39 21.07.2022
944 Clear 21 1015 78 10000 2.06 290 17:19 21.07.2022
945 Clear 18 1015 90 10000 0 0 14:55 21.07.2022
946 Clear 18 1015 86 10000 2.57 280 14:29 21.07.2022
947 Clear 19 1015 80 10000 2.57 330 12:28 21.07.2022
948 Clear 20 1015 77 10000 0 0 10:56 21.07.2022
949 Clear 20 1016 79 10000 3.09 110 09:27 21.07.2022
950 Clear 20 1016 74 10000 3.6 110 08:49 21.07.2022
951 Clear 21 1016 68 10000 3.6 250 07:42 21.07.2022
952 Clear 24 1015 56 10000 6.17 270 04:46 21.07.2022
953 Clear 30 1017 44 10000 5.66 210 00:43 21.07.2022
954 Clear 30 1018 52 10000 4.63 190 22:22 20.07.2022
955 Clear 28 1019 55 10000 4.63 270 20:55 20.07.2022
956 Clear 27 1019 59 10000 3.09 240 19:52 20.07.2022
957 Clear 26 1018 59 10000 3.09 240 19:24 20.07.2022
958 Clear 25 1018 62 10000 1.54 180 18:34 20.07.2022
959 Clear 24 1018 66 10000 0 0 18:00 20.07.2022
960 Mist 21 1017 79 10000 2.57 140 16:45 20.07.2022
961 Mist 19 1017 81 10000 2.06 250 15:32 20.07.2022
962 Clear 19 1016 82 10000 2.06 250 14:20 20.07.2022
963 Clear 20 1016 77 10000 2.06 90 11:37 20.07.2022
964 Clear 20 1015 82 10000 3.09 120 09:41 20.07.2022
965 Clear 26 1014 50 10000 5.14 260 04:36 20.07.2022
966 Clear 31 1015 38 10000 5.66 250 00:52 20.07.2022
967 Clear 31 1015 43 10000 5.66 260 23:41 19.07.2022
968 Clear 31 1016 47 10000 6.17 270 22:33 19.07.2022
969 Clear 30 1016 51 10000 5.14 270 21:46 19.07.2022
970 Clear 29 1017 53 10000 5.14 250 20:48 19.07.2022
971 Haze 27 1016 58 10000 5.14 260 19:21 19.07.2022
972 Fog 25 1016 64 10000 4.12 260 18:31 19.07.2022
973 Fog 24 1016 70 10000 2.57 260 17:46 19.07.2022
974 Fog 19 1015 76 10000 1.54 290 14:58 19.07.2022
975 Fog 19 1015 78 10000 2.06 290 11:58 19.07.2022
976 Fog 19 1016 78 10000 1.54 0 11:18 19.07.2022
977 Clear 20 1016 80 10000 3.6 130 09:44 19.07.2022
978 Clear 21 1016 77 10000 2.57 150 08:42 19.07.2022
979 Clear 22 1016 74 10000 3.09 150 07:19 19.07.2022
980 Clear 23 1015 67 10000 6.17 120 05:48 19.07.2022
981 Clear 24 1015 63 10000 3.6 210 04:59 19.07.2022
982 Clear 29 1014 52 10000 2.06 0 01:58 19.07.2022
983 Clear 30 1015 56 10000 6.17 270 23:50 18.07.2022
984 Clear 30 1015 55 10000 6.17 270 23:19 18.07.2022
985 Clear 30 1015 55 10000 6.69 260 22:23 18.07.2022
986 Clear 29 1015 55 10000 5.66 240 21:20 18.07.2022
987 Clear 28 1015 59 10000 2.57 250 19:54 18.07.2022
988 Clear 25 1015 68 10000 2.06 70 18:24 18.07.2022
989 Clear 22 1014 79 10000 2.57 200 16:30 18.07.2022
990 Clear 20 1014 81 10000 2.06 160 15:26 18.07.2022
991 Clouds 21 1013 79 10000 2.06 320 13:31 18.07.2022
992 Clear 21 1012 77 10000 3.6 300 11:34 18.07.2022
993 Clear 21 1012 78 10000 2.57 120 09:55 18.07.2022
994 Clear 21 1013 77 10000 3.09 150 07:54 18.07.2022
995 Clear 23 1012 69 10000 5.14 190 05:25 18.07.2022
996 Clear 29 1011 55 10000 8.75 250 22:57 17.07.2022
997 Clear 30 1011 52 10000 8.23 250 22:31 17.07.2022
998 Clear 29 1011 50 10000 6.17 210 21:40 17.07.2022
999 Clear 30 1011 51 10000 3.6 340 20:46 17.07.2022
1000 Clear 26 1012 64 10000 5.14 180 19:50 17.07.2022
1001 Clear 25 1012 67 10000 5.14 180 19:24 17.07.2022
1002 Mist 24 1012 68 10000 2.57 180 17:54 17.07.2022
1003 Mist 22 1012 76 10000 2.06 0 17:36 17.07.2022
1004 Mist 20 1011 82 10000 4.63 120 16:45 17.07.2022
1005 Mist 19 1011 90 10000 4.63 120 16:22 17.07.2022
1006 Mist 19 1010 84 10000 2.06 320 13:58 17.07.2022
1007 Clear 18 1010 90 10000 1.54 280 12:56 17.07.2022
1008 Clear 19 1011 86 10000 4.12 250 10:21 17.07.2022
1009 Clear 20 1012 84 10000 0 0 07:55 17.07.2022
1010 Clear 28 1011 54 10000 5.14 260 02:36 17.07.2022
1011 Haze 29 1012 54 10000 5.66 260 00:33 17.07.2022
1012 Haze 29 1012 57 10000 6.17 250 23:18 16.07.2022
1013 Haze 28 1013 59 10000 4.12 110 20:53 16.07.2022
1014 Haze 25 1013 66 10000 3.6 260 18:59 16.07.2022
1015 Haze 22 1013 78 9656 3.09 260 17:48 16.07.2022
1016 Mist 18 1013 90 8047 3.09 250 16:23 16.07.2022
1017 Mist 18 1013 87 10000 2.57 260 13:47 16.07.2022
1018 Clear 19 1014 85 10000 2.06 240 10:35 16.07.2022
1019 Clear 19 1014 84 10000 2.57 130 09:29 16.07.2022
1020 Clear 19 1014 83 10000 2.57 300 08:42 16.07.2022
1021 Clear 20 1014 81 10000 3.6 130 07:51 16.07.2022
1022 Haze 25 1012 64 10000 5.14 250 03:40 16.07.2022
1023 Haze 28 1012 61 10000 5.14 260 01:59 16.07.2022
1024 Clear 29 1014 56 10000 5.66 250 23:21 15.07.2022
1025 Haze 28 1014 58 10000 6.69 250 22:37 15.07.2022
1026 Haze 27 1014 59 10000 4.63 240 21:18 15.07.2022
1027 Haze 25 1015 68 10000 3.09 290 19:51 15.07.2022
1028 Haze 22 1015 77 10000 2.57 270 18:35 15.07.2022
1029 Haze 20 1015 83 10000 2.57 250 17:34 15.07.2022
1030 Mist 17 1014 88 10000 2.06 150 14:45 15.07.2022
1031 Clear 18 1014 85 10000 3.09 250 12:48 15.07.2022
1032 Clear 18 1014 84 10000 2.06 240 10:54 15.07.2022
1033 Clear 19 1015 82 10000 3.6 220 08:49 15.07.2022
1034 Clear 21 1013 74 10000 1.54 250 05:55 15.07.2022
1035 Clear 26 1013 60 10000 6.17 240 00:52 15.07.2022
1036 Clear 26 1013 61 10000 6.17 250 23:36 14.07.2022
1037 Clear 26 1013 60 10000 5.66 250 22:42 14.07.2022
1038 Clear 25 1014 61 10000 4.12 260 21:43 14.07.2022
1039 Clear 26 1014 62 10000 4.12 260 21:25 14.07.2022
1040 Clear 25 1014 63 10000 5.66 260 20:43 14.07.2022
1041 Clear 24 1014 66 10000 5.66 260 20:20 14.07.2022
1042 Clouds 22 1015 74 10000 2.06 250 18:52 14.07.2022
1043 Clear 18 1014 84 10000 3.09 270 16:22 14.07.2022
1044 Clouds 17 1014 86 10000 2.57 250 15:30 14.07.2022
1045 Clouds 17 1014 87 10000 2.06 260 13:53 14.07.2022
1046 Clouds 17 1014 88 10000 1.54 220 12:58 14.07.2022
1047 Clear 17 1014 85 10000 2.06 250 11:47 14.07.2022
1048 Clear 17 1014 85 10000 2.06 250 11:23 14.07.2022
1049 Clear 17 1014 84 10000 3.09 260 10:24 14.07.2022
1050 Clouds 18 1014 83 10000 4.63 100 07:50 14.07.2022
1051 Clear 26 1013 57 10000 8.23 270 01:26 14.07.2022
1052 Clear 26 1013 60 10000 8.23 260 00:53 14.07.2022
1053 Clear 26 1014 59 10000 6.69 270 22:57 13.07.2022
1054 Clear 26 1014 60 10000 6.69 270 22:22 13.07.2022
1055 Clear 25 1015 64 10000 5.66 270 21:19 13.07.2022
1056 Clear 23 1015 68 10000 2.06 160 19:58 13.07.2022
1057 Haze 18 1015 83 9656 2.06 150 17:54 13.07.2022
1058 Mist 17 1015 86 9656 3.09 140 16:47 13.07.2022
1059 Fog 16 1014 86 10000 3.09 140 15:43 13.07.2022
1060 Clouds 17 1013 85 10000 2.57 250 13:24 13.07.2022
1061 Clouds 17 1015 84 10000 2.06 290 10:47 13.07.2022
1062 Clouds 17 1015 84 10000 2.06 290 10:28 13.07.2022
1063 Clouds 17 1015 84 10000 4.12 280 09:27 13.07.2022
1064 Clouds 18 1014 82 10000 3.6 270 07:53 13.07.2022
1065 Clear 24 1011 61 10000 6.69 250 03:34 13.07.2022
1066 Clear 26 1013 55 10000 6.17 220 00:24 13.07.2022
1067 Clear 25 1014 60 10000 5.14 260 22:19 12.07.2022
1068 Clear 24 1014 60 10000 5.66 210 21:36 12.07.2022
1069 Clear 23 1014 65 10000 4.12 250 20:42 12.07.2022
1070 Haze 20 1014 73 9656 4.12 120 19:44 12.07.2022
1071 Haze 19 1014 78 9656 2.06 0 18:25 12.07.2022
1072 Haze 17 1014 84 8047 3.6 150 16:20 12.07.2022
1073 Clouds 17 1013 84 10000 2.57 260 14:31 12.07.2022
1074 Clouds 17 1013 84 10000 2.57 290 13:34 12.07.2022
1075 Clouds 17 1014 85 10000 2.57 130 11:48 12.07.2022
1076 Clouds 17 1014 86 10000 2.57 110 10:25 12.07.2022
1077 Clouds 17 1014 85 10000 4.12 260 08:46 12.07.2022
1078 Clouds 18 1014 80 10000 4.63 260 07:48 12.07.2022
1079 Clear 20 1012 75 10000 5.14 130 05:45 12.07.2022
1080 Clear 22 1012 69 10000 6.17 110 04:46 12.07.2022
1081 Clear 27 1012 59 10000 2.57 250 00:54 12.07.2022
1082 Clear 27 1013 57 10000 5.66 270 22:43 11.07.2022
1083 Haze 25 1014 64 10000 4.12 250 20:56 11.07.2022
1084 Clear 25 1014 63 10000 4.12 250 20:32 11.07.2022
1085 Clear 22 1014 72 10000 3.09 250 19:18 11.07.2022
1086 Haze 21 1014 77 9656 3.09 270 18:29 11.07.2022
1087 Mist 18 1014 87 8047 2.06 0 16:30 11.07.2022
1088 Mist 17 1014 88 10000 2.06 230 15:28 11.07.2022
1089 Clouds 17 1014 89 10000 2.06 180 13:19 11.07.2022
1090 Clouds 18 1014 87 10000 3.09 110 11:23 11.07.2022
1091 Clouds 19 1015 79 10000 3.09 260 09:55 11.07.2022
1092 Clear 19 1015 79 10000 3.09 100 09:35 11.07.2022
1093 Clear 20 1015 82 10000 2.57 240 08:32 11.07.2022
1094 Clear 29 1015 51 10000 5.66 260 01:20 11.07.2022
1095 Clear 30 1016 55 10000 6.69 270 23:54 10.07.2022
1096 Fog 29 1016 55 10000 6.17 260 22:47 10.07.2022
1097 Clear 28 1017 56 10000 5.14 250 20:56 10.07.2022
1098 Clear 28 1017 56 10000 5.14 250 20:36 10.07.2022
1099 Clear 25 1018 62 10000 4.12 270 19:38 10.07.2022
1100 Clear 23 1018 65 10000 2.06 180 18:35 10.07.2022
1101 Clear 22 1018 75 10000 1.54 210 17:35 10.07.2022
1102 Clear 19 1017 83 10000 2.06 200 16:24 10.07.2022
1103 Clear 19 1017 83 10000 2.06 200 16:24 10.07.2022
1104 Clear 17 1017 86 10000 1.54 320 14:47 10.07.2022
1105 Clear 18 1017 81 10000 2.57 80 13:40 10.07.2022
1106 Clear 18 1017 84 10000 2.57 180 12:26 10.07.2022
1107 Clear 19 1018 73 10000 2.57 100 09:47 10.07.2022
1108 Clear 20 1018 75 10000 3.09 230 08:44 10.07.2022
1109 Clear 21 1017 65 10000 3.09 230 07:29 10.07.2022
1110 Clear 28 1017 50 10000 5.66 250 01:23 10.07.2022
1111 Clear 27 1018 57 10000 6.17 250 22:27 09.07.2022
1112 Clear 28 1019 54 10000 3.6 190 21:56 09.07.2022
1113 Clear 26 1019 62 10000 5.14 260 20:23 09.07.2022
1114 Haze 22 1020 73 8047 4.12 250 18:35 09.07.2022
1115 Haze 19 1020 85 8047 3.09 150 17:33 09.07.2022
1116 Mist 18 1019 89 6437 2.57 140 16:44 09.07.2022
1117 Mist 17 1019 89 8047 2.06 250 15:40 09.07.2022
1118 Mist 17 1018 87 8047 1.54 280 14:27 09.07.2022
1119 Mist 17 1018 87 10000 1.54 0 13:49 09.07.2022
1120 Mist 17 1018 89 10000 1.54 190 12:45 09.07.2022
1121 Mist 17 1019 90 9656 2.57 130 11:22 09.07.2022
1122 Mist 18 1019 88 8047 2.57 240 10:22 09.07.2022
1123 Clear 19 1018 81 10000 4.12 270 07:45 09.07.2022
1124 Clear 22 1016 71 10000 0.89 254 04:58 09.07.2022
1125 Clear 26 1016 59 10000 6.69 260 02:33 09.07.2022
1126 Clear 28 1017 57 10000 3.13 290 22:54 08.07.2022
1127 Clear 27 1017 57 10000 3.6 200 21:58 08.07.2022
1128 Clear 25 1018 64 10000 3.6 150 20:41 08.07.2022
1129 Clouds 23 1017 69 10000 2.06 0 19:53 08.07.2022
1130 Haze 20 1018 81 10000 3.09 150 18:24 08.07.2022
1131 Mist 18 1017 87 10000 2.57 0 16:48 08.07.2022
1132 Clouds 17 1016 88 10000 2.06 230 14:53 08.07.2022
1133 Clear 17 1016 87 10000 3.09 270 13:41 08.07.2022
1134 Clear 18 1016 85 10000 0 0 11:51 08.07.2022
1135 Clear 18 1016 83 10000 2.06 220 10:37 08.07.2022
1136 Clear 19 1016 81 10000 3.6 120 08:37 08.07.2022
1137 Clear 20 1015 76 10000 4.63 130 06:50 08.07.2022
1138 Clear 28 1014 54 10000 7.72 260 01:31 08.07.2022
1139 Clear 28 1014 56 10000 5.66 250 23:30 07.07.2022
1140 Clear 28 1015 57 10000 5.66 260 22:35 07.07.2022
1141 Clear 27 1015 58 10000 4.12 260 20:36 07.07.2022
1142 Clear 23 1015 68 10000 1.54 0 18:22 07.07.2022
1143 Clear 20 1015 80 10000 0 0 16:57 07.07.2022
1144 Clear 17 1014 84 10000 0 0 14:56 07.07.2022
1145 Clear 17 1014 84 10000 2.06 150 13:25 07.07.2022
1146 Clear 17 1014 84 10000 2.57 90 12:37 07.07.2022
1147 Clear 17 1014 85 10000 2.57 90 12:18 07.07.2022
1148 Clear 18 1014 84 10000 2.57 140 11:29 07.07.2022
1149 Clear 18 1013 83 10000 3.09 180 10:42 07.07.2022
1150 Clear 18 1013 82 10000 3.09 180 10:24 07.07.2022
1151 Clear 19 1013 78 10000 3.6 230 07:22 07.07.2022
1152 Clear 25 1012 62 10000 5.14 210 02:55 07.07.2022
1153 Clear 26 1014 62 10000 4.47 218 23:37 06.07.2022
1154 Clear 26 1014 63 10000 2.57 190 23:18 06.07.2022
1155 Clear 26 1014 64 10000 3.58 256 22:56 06.07.2022
1156 Clear 26 1015 61 10000 4.63 250 22:38 06.07.2022
1157 Clear 24 1015 65 10000 4.63 240 21:27 06.07.2022
1158 Clouds 22 1015 70 10000 3.09 250 19:35 06.07.2022
1159 Clouds 20 1016 79 10000 3.6 250 18:21 06.07.2022
1160 Clouds 18 1015 83 10000 2.06 110 16:19 06.07.2022
1161 Clouds 18 1014 88 10000 4.12 230 14:54 06.07.2022
1162 Clouds 18 1014 87 10000 4.12 230 12:40 06.07.2022
1163 Clear 18 1014 87 10000 3.6 240 11:49 06.07.2022
1164 Clear 18 1014 86 10000 3.09 240 10:18 06.07.2022
1165 Clear 20 1014 81 10000 5.14 250 07:46 06.07.2022
1166 Clear 20 1014 79 10000 5.14 250 07:23 06.07.2022
1167 Clear 24 1013 62 10000 6.69 250 03:24 06.07.2022
1168 Clear 26 1014 56 10000 5.14 260 22:45 05.07.2022
1169 Clear 26 1014 57 10000 4.63 250 21:53 05.07.2022
1170 Clear 24 1015 59 10000 4.63 250 20:39 05.07.2022
1171 Haze 23 1015 65 10000 4.12 230 19:43 05.07.2022
1172 Haze 22 1015 66 10000 3.09 90 19:22 05.07.2022
1173 Haze 20 1015 76 10000 1.54 110 17:47 05.07.2022
1174 Haze 19 1014 81 4023 2.06 160 16:54 05.07.2022
1175 Clear 17 1014 84 10000 1.54 30 15:31 05.07.2022
1176 Smoke 17 1014 82 10000 1.54 360 14:28 05.07.2022
1177 Clear 17 1014 82 10000 1.54 320 12:43 05.07.2022
1178 Clouds 17 1014 82 10000 0 0 11:49 05.07.2022
1179 Haze 17 1014 80 9656 2.06 320 10:40 05.07.2022
1180 Haze 18 1014 79 3219 3.6 120 09:23 05.07.2022
1181 Haze 18 1014 77 9656 4.63 120 07:47 05.07.2022
1182 Clear 20 1013 72 10000 5.14 250 05:29 05.07.2022
1183 Clear 22 1013 67 10000 6.17 250 04:24 05.07.2022
1184 Clear 25 1013 58 10000 5.66 250 00:26 05.07.2022
1185 Clear 25 1014 56 10000 6.17 220 23:31 04.07.2022
1186 Clear 25 1014 58 10000 5.66 260 22:27 04.07.2022
1187 Clear 24 1014 59 10000 5.66 240 21:46 04.07.2022
1188 Clear 24 1014 60 10000 2.06 170 20:53 04.07.2022
1189 Clear 23 1014 61 10000 4.63 250 20:34 04.07.2022
1190 Clear 23 1015 63 10000 3.09 140 19:55 04.07.2022
1191 Clouds 22 1015 65 10000 3.6 170 19:35 04.07.2022
1192 Clouds 19 1014 77 10000 3.09 180 17:58 04.07.2022
1193 Clouds 17 1014 83 10000 0 0 15:58 04.07.2022
1194 Clouds 16 1014 81 10000 2.06 100 15:33 04.07.2022
1195 Clear 16 1013 81 10000 1.54 20 13:29 04.07.2022
1196 Clear 16 1013 81 10000 1.54 0 12:30 04.07.2022
1197 Clear 17 1013 79 10000 1.54 240 10:34 04.07.2022
1198 Clear 17 1014 78 10000 3.09 260 09:52 04.07.2022
1199 Clear 18 1013 74 10000 4.63 220 07:37 04.07.2022
1200 Clear 21 1012 66 10000 6.17 260 04:57 04.07.2022
1201 Clear 25 1013 57 10000 6.17 270 00:39 04.07.2022
1202 Clear 25 1013 59 10000 6.17 260 22:59 03.07.2022
1203 Clear 24 1014 62 10000 3.09 210 20:58 03.07.2022
1204 Clear 23 1014 61 10000 5.66 240 20:31 03.07.2022
1205 Clouds 22 1014 64 10000 4.12 130 19:28 03.07.2022
1206 Clouds 21 1014 70 10000 4.12 170 18:43 03.07.2022
1207 Clouds 19 1014 75 10000 2.57 0 17:44 03.07.2022
1208 Clouds 17 1013 83 10000 0 0 15:55 03.07.2022
1209 Clouds 17 1013 85 10000 1.54 40 14:59 03.07.2022
1210 Clouds 17 1013 81 10000 0 0 14:20 03.07.2022
1211 Clouds 17 1013 82 10000 1.54 240 13:48 03.07.2022
1212 Clear 17 1013 80 10000 2.06 90 12:33 03.07.2022
1213 Clear 17 1013 80 10000 2.06 190 11:29 03.07.2022
1214 Clear 17 1013 80 10000 3.09 130 10:39 03.07.2022
1215 Clear 17 1013 80 10000 2.57 100 09:55 03.07.2022
1216 Clear 19 1013 73 10000 4.12 260 07:35 03.07.2022
1217 Clear 23 1012 61 10000 6.69 290 04:22 03.07.2022
1218 Clear 27 1013 54 10000 6.69 270 00:23 03.07.2022
1219 Clear 27 1013 54 10000 5.14 270 22:35 02.07.2022
1220 Clear 26 1014 55 10000 5.66 170 21:38 02.07.2022
1221 Clear 24 1014 61 10000 4.63 150 19:52 02.07.2022
1222 Clear 23 1014 64 10000 4.63 150 19:23 02.07.2022
1223 Clear 21 1015 78 10000 3.6 240 17:58 02.07.2022
1224 Clear 20 1014 79 10000 2.06 220 17:36 02.07.2022
1225 Clear 17 1014 86 10000 2.06 70 15:28 02.07.2022
1226 Clear 17 1014 83 10000 3.09 250 12:22 02.07.2022
1227 Clear 18 1014 80 10000 2.57 250 11:27 02.07.2022
1228 Clear 18 1014 79 10000 3.09 100 10:46 02.07.2022
1229 Clear 19 1014 80 10000 3.09 250 09:49 02.07.2022
1230 Clear 19 1014 77 10000 3.6 250 08:36 02.07.2022
1231 Clear 19 1014 77 10000 3.6 250 08:18 02.07.2022
1232 Clear 26 1013 53 10000 5.66 270 02:52 02.07.2022
1233 Clear 28 1014 52 10000 5.14 240 00:27 02.07.2022
1234 Clear 28 1015 53 10000 3.09 250 22:59 01.07.2022
1235 Clear 28 1015 54 10000 5.14 240 22:19 01.07.2022
1236 Clear 27 1015 57 10000 4.12 100 21:37 01.07.2022
1237 Clear 27 1016 58 10000 0.45 199 20:57 01.07.2022
1238 Haze 24 1016 68 10000 3.6 210 19:47 01.07.2022
1239 Haze 22 1016 74 8047 2.57 190 18:42 01.07.2022
1240 Mist 19 1016 84 10000 2.06 130 16:38 01.07.2022
1241 Clear 17 1015 86 10000 2.06 100 14:21 01.07.2022
1242 Clear 18 1015 85 10000 2.57 80 13:23 01.07.2022
1243 Clear 18 1015 82 10000 3.09 110 10:53 01.07.2022
1244 Clear 19 1015 82 10000 3.09 110 10:19 01.07.2022
1245 Clear 21 1014 69 10000 4.63 250 06:20 01.07.2022
1246 Clear 28 1014 57 10000 3.6 270 01:57 01.07.2022
1247 Clear 29 1015 53 10000 5.66 260 23:34 30.06.2022
1248 Clear 29 1016 55 10000 5.66 250 22:50 30.06.2022
1249 Clear 29 1016 53 10000 5.66 250 22:31 30.06.2022
1250 Haze 28 1016 57 2414 4.63 260 21:53 30.06.2022
1251 Clear 27 1017 56 10000 4.12 240 20:45 30.06.2022
1252 Clear 26 1017 57 10000 4.12 240 20:18 30.06.2022
1253 Clear 25 1017 61 10000 2.06 0 19:47 30.06.2022
1254 Haze 24 1017 66 10000 1.54 0 18:49 30.06.2022
1255 Haze 22 1017 74 10000 2.57 0 17:53 30.06.2022
1256 Haze 21 1017 80 9656 2.57 0 17:18 30.06.2022
1257 Mist 19 1016 87 6437 2.57 300 15:56 30.06.2022
1258 Mist 18 1016 85 10000 2.57 130 13:58 30.06.2022
1259 Mist 18 1016 84 10000 2.57 260 13:20 30.06.2022
1260 Clear 19 1016 83 10000 3.09 260 12:33 30.06.2022
1261 Clear 19 1016 81 10000 2.57 290 10:49 30.06.2022
1262 Mist 20 1017 82 10000 4.12 120 09:47 30.06.2022
1263 Mist 20 1017 83 10000 4.12 120 08:31 30.06.2022
1264 Mist 21 1017 81 10000 4.12 260 07:41 30.06.2022
1265 Clear 23 1015 70 10000 5.66 260 05:45 30.06.2022
1266 Haze 29 1016 51 10000 4.63 270 23:39 29.06.2022
1267 Clear 29 1016 50 10000 6.17 180 22:42 29.06.2022
1268 Clear 29 1017 51 10000 6.17 180 22:20 29.06.2022
1269 Clear 30 1017 46 10000 1.54 210 20:54 29.06.2022
1270 Clear 28 1017 50 10000 4.63 210 20:32 29.06.2022
1271 Clear 27 1017 53 10000 4.63 130 19:31 29.06.2022
1272 Haze 23 1017 73 9656 2.06 100 17:39 29.06.2022
1273 Haze 20 1016 83 8047 2.57 70 16:31 29.06.2022
1274 Clear 18 1015 73 10000 1.54 190 13:58 29.06.2022
1275 Clear 19 1016 71 10000 2.57 130 12:38 29.06.2022
1276 Clear 21 1016 71 10000 2.06 250 10:20 29.06.2022
1277 Clear 21 1016 68 10000 2.57 230 09:31 29.06.2022
1278 Clear 21 1016 70 10000 2.57 250 07:23 29.06.2022
1279 Clear 25 1014 62 10000 5.14 250 04:49 29.06.2022
1280 Clear 32 1015 41 10000 1.34 262 00:55 29.06.2022
1281 Clear 31 1015 42 10000 4.63 250 00:35 29.06.2022
1282 Clear 32 1016 43 10000 5.14 260 22:53 28.06.2022
1283 Clear 32 1016 42 10000 5.14 260 22:21 28.06.2022
1284 Clear 32 1016 44 10000 5.14 260 21:50 28.06.2022
1285 Clear 32 1016 43 10000 5.14 260 21:30 28.06.2022
1286 Haze 30 1016 47 10000 3.6 260 20:27 28.06.2022
1287 Fog 29 1016 54 10000 3.6 250 19:32 28.06.2022
1288 Fog 27 1016 58 10000 3.6 260 18:44 28.06.2022
1289 Fog 24 1016 70 10000 1.54 250 17:38 28.06.2022
1290 Mist 19 1015 87 10000 0 0 15:56 28.06.2022
1291 Fog 20 1016 74 10000 2.57 240 15:21 28.06.2022
1292 Mist 20 1015 76 10000 3.09 240 14:20 28.06.2022
1293 Mist 20 1015 76 10000 1.54 210 13:50 28.06.2022
1294 Mist 21 1015 69 10000 2.06 200 12:54 28.06.2022
1295 Clear 21 1016 70 10000 0 0 10:57 28.06.2022
1296 Smoke 21 1016 79 10000 3.09 130 09:28 28.06.2022
1297 Smoke 22 1016 73 10000 4.12 100 08:43 28.06.2022
1298 Clear 23 1016 62 10000 4.12 240 07:42 28.06.2022
1299 Clear 25 1015 53 10000 0 0 05:58 28.06.2022
1300 Clear 34 1015 38 10000 4.63 220 00:56 28.06.2022
1301 Clear 34 1015 34 10000 5.66 180 23:37 27.06.2022
1302 Clear 35 1015 35 10000 6.17 180 22:52 27.06.2022
1303 Clear 33 1016 43 10000 4.12 130 21:34 27.06.2022
1304 Clear 33 1016 44 10000 3.6 110 20:52 27.06.2022
1305 Haze 29 1016 58 10000 3.6 250 19:31 27.06.2022
1306 Haze 26 1016 63 10000 3.09 260 18:25 27.06.2022
1307 Mist 22 1016 74 10000 3.09 290 16:19 27.06.2022
1308 Mist 21 1016 72 10000 3.09 260 15:22 27.06.2022
1309 Clear 20 1016 77 10000 2.57 270 13:36 27.06.2022
1310 Clear 20 1016 74 10000 1.54 220 12:56 27.06.2022
1311 Clear 18 1017 77 10000 2.57 250 10:34 27.06.2022
1312 Clear 19 1017 76 10000 3.09 90 09:20 27.06.2022
1313 Clear 19 1017 73 10000 2.57 120 08:29 27.06.2022
1314 Clear 21 1015 67 10000 6.69 110 06:38 27.06.2022
1315 Clear 27 1014 52 10000 5.14 270 03:55 27.06.2022
1316 Clear 31 1014 46 10000 2.06 240 00:56 27.06.2022
1317 Fog 31 1015 48 10000 6.17 260 22:18 26.06.2022
1318 Haze 30 1015 49 10000 4.63 270 20:44 26.06.2022
1319 Haze 27 1015 61 10000 3.09 210 19:42 26.06.2022
1320 Haze 24 1016 68 10000 3.09 240 18:31 26.06.2022
1321 Mist 20 1015 78 9656 2.57 320 16:47 26.06.2022
1322 Mist 17 1015 86 9656 2.06 100 15:26 26.06.2022
1323 Mist 18 1014 73 10000 1.54 250 13:53 26.06.2022
1324 Mist 18 1014 77 10000 2.06 210 13:20 26.06.2022
1325 Mist 18 1014 75 10000 2.06 220 11:26 26.06.2022
1326 Mist 19 1014 77 10000 3.09 240 10:28 26.06.2022
1327 Clear 19 1015 75 10000 2.57 120 09:34 26.06.2022
1328 Clear 20 1014 73 10000 3.09 260 07:45 26.06.2022
1329 Clear 29 1012 45 10000 6.69 260 02:28 26.06.2022
1330 Clear 30 1012 42 10000 7.2 260 00:21 26.06.2022
1331 Clear 30 1013 42 10000 6.69 260 23:51 25.06.2022
1332 Clear 31 1013 43 10000 6.69 260 23:24 25.06.2022
1333 Clear 30 1013 42 10000 5.66 260 22:27 25.06.2022
1334 Clear 30 1013 44 10000 4.63 250 21:46 25.06.2022
1335 Clear 29 1013 43 10000 4.63 250 21:20 25.06.2022
1336 Clear 28 1013 45 10000 4.12 260 20:30 25.06.2022
1337 Clear 28 1014 47 10000 2.57 240 19:54 25.06.2022
1338 Clear 23 1014 61 10000 2.06 220 18:19 25.06.2022
1339 Haze 22 1014 66 8047 1.54 220 17:25 25.06.2022
1340 Mist 17 1013 85 8047 2.06 200 15:42 25.06.2022
1341 Mist 17 1013 69 10000 2.06 270 13:51 25.06.2022
1342 Mist 17 1012 75 8047 2.57 270 12:39 25.06.2022
1343 Mist 18 1013 75 6437 4.12 240 11:34 25.06.2022
1344 Mist 18 1013 69 10000 2.06 240 09:22 25.06.2022
1345 Mist 18 1013 72 10000 3.6 130 08:46 25.06.2022
1346 Mist 18 1013 71 10000 3.6 130 08:46 25.06.2022
1347 Clouds 19 1013 71 10000 4.63 260 08:19 25.06.2022
1348 Clear 24 1011 53 10000 6.17 250 05:26 25.06.2022
1349 Clear 30 1011 38 10000 6.69 260 00:44 25.06.2022
1350 Clear 30 1011 38 10000 6.69 260 00:44 25.06.2022
1351 Clear 32 1011 39 10000 7.2 270 23:18 24.06.2022
1352 Clear 32 1012 36 10000 4.63 270 21:57 24.06.2022
1353 Clear 31 1012 41 10000 5.14 250 21:19 24.06.2022
1354 Clear 29 1012 45 10000 4.12 260 20:20 24.06.2022
1355 Clear 27 1013 54 10000 3.6 260 19:23 24.06.2022
1356 Mist 26 1013 61 10000 3.09 260 18:50 24.06.2022
1357 Mist 25 1013 63 10000 3.09 260 18:30 24.06.2022
1358 Haze 24 1013 66 8047 3.09 200 17:46 24.06.2022
1359 Mist 19 1012 82 6437 3.09 260 15:56 24.06.2022
1360 Mist 18 1012 83 10000 2.06 260 14:29 24.06.2022
1361 Mist 18 1012 82 10000 1.54 250 13:55 24.06.2022
1362 Clear 18 1012 78 10000 3.09 250 12:26 24.06.2022
1363 Clear 18 1012 74 10000 3.09 260 11:40 24.06.2022
1364 Clear 19 1012 78 10000 2.57 120 10:22 24.06.2022
1365 Clear 19 1012 71 10000 4.12 120 09:41 24.06.2022
1366 Clear 20 1012 64 10000 2.57 230 08:52 24.06.2022
1367 Clear 21 1012 65 10000 4.12 240 07:33 24.06.2022
1368 Clear 22 1011 60 10000 6.17 260 06:42 24.06.2022
1369 Clear 23 1011 59 10000 6.17 260 06:18 24.06.2022
1370 Clear 28 1010 39 10000 7.2 260 03:33 24.06.2022
1371 Clear 31 1011 43 10000 3.6 210 22:59 23.06.2022
1372 Clear 31 1012 44 10000 5.66 260 22:40 23.06.2022
1373 Clear 30 1012 53 10000 1.54 0 20:58 23.06.2022
1374 Haze 29 1012 53 10000 4.63 260 20:35 23.06.2022
1375 Mist 27 1012 60 10000 4.63 210 19:34 23.06.2022
1376 Mist 24 1012 70 10000 2.57 260 17:52 23.06.2022
1377 Mist 23 1012 73 10000 2.06 230 17:23 23.06.2022
1378 Mist 18 1013 86 9656 3.6 230 15:50 23.06.2022
1379 Mist 18 1013 86 8047 3.6 230 15:24 23.06.2022
1380 Clouds 19 1012 76 10000 3.6 240 13:45 23.06.2022
1381 Clear 20 1012 74 10000 3.09 250 11:27 23.06.2022
1382 Clear 20 1013 71 10000 4.12 250 10:37 23.06.2022
1383 Clear 20 1013 73 10000 4.63 260 09:18 23.06.2022
1384 Clear 26 1012 53 10000 6.69 250 03:40 23.06.2022
1385 Clear 30 1012 50 10000 6.69 260 00:27 23.06.2022
1386 Clouds 28 1013 54 10000 6.69 260 23:41 22.06.2022
1387 Clear 28 1013 56 10000 5.14 260 22:48 22.06.2022
1388 Clear 28 1014 57 10000 5.14 260 22:48 22.06.2022
1389 Thunderstorm 27 1014 61 10000 5.14 250 21:22 22.06.2022
1390 Clouds 26 1014 68 8047 5.14 260 20:45 22.06.2022
1391 Clouds 25 1013 62 8047 3.09 290 19:58 22.06.2022
1392 Haze 24 1014 71 10000 4.12 270 18:50 22.06.2022
1393 Haze 21 1014 78 10000 4.63 280 17:29 22.06.2022
1394 Thunderstorm 19 1014 76 10000 4.63 270 16:37 22.06.2022
1395 Clouds 18 1013 83 10000 2.06 290 15:27 22.06.2022
1396 Thunderstorm 18 1013 83 10000 3.09 280 14:31 22.06.2022
1397 Rain 18 1013 77 10000 3.6 270 13:44 22.06.2022
1398 Mist 18 1013 75 10000 3.6 270 13:23 22.06.2022
1399 Clouds 19 1013 75 10000 3.6 250 11:50 22.06.2022
1400 Clear 19 1014 77 10000 3.6 270 10:58 22.06.2022
1401 Clouds 19 1014 78 10000 3.6 270 10:58 22.06.2022
1402 Clear 19 1014 77 10000 3.6 270 10:20 22.06.2022
1403 Clear 20 1014 72 10000 3.6 250 08:48 22.06.2022
1404 Clear 21 1014 65 10000 3.6 270 06:21 22.06.2022
1405 Clear 28 1012 47 10000 5.66 170 01:50 22.06.2022
1406 Clear 29 1012 44 10000 1.79 275 00:56 22.06.2022
1407 Clear 29 1013 44 10000 5.66 190 22:40 21.06.2022
1408 Clear 28 1013 47 10000 4.63 110 20:40 21.06.2022
1409 Clear 25 1013 54 10000 4.63 110 19:18 21.06.2022
1410 Clear 22 1013 72 10000 3.6 140 17:44 21.06.2022
1411 Clear 21 1012 78 10000 2.06 110 16:36 21.06.2022
1412 Clear 19 1011 62 10000 0 0 11:56 21.06.2022
1413 Clear 20 1011 61 10000 2.57 100 10:33 21.06.2022
1414 Clear 21 1011 59 10000 2.06 340 09:20 21.06.2022
1415 Clear 22 1010 56 10000 4.12 110 07:40 21.06.2022
1416 Clear 27 1009 38 10000 5.14 240 04:43 21.06.2022
1417 Clear 31 1011 30 10000 7.72 270 00:21 21.06.2022
1418 Clear 31 1012 31 10000 7.2 270 22:21 20.06.2022
1419 Clear 31 1012 30 10000 6.17 260 21:36 20.06.2022
1420 Clear 30 1013 31 10000 5.14 260 20:28 20.06.2022
1421 Clear 29 1013 38 10000 2.57 0 19:35 20.06.2022
1422 Clear 25 1014 43 10000 1.54 350 18:25 20.06.2022
1423 Clear 23 1014 56 10000 2.57 140 17:49 20.06.2022
1424 Clear 19 1013 63 10000 0 0 16:26 20.06.2022
1425 Smoke 18 1013 62 10000 2.06 320 15:20 20.06.2022
1426 Clear 18 1013 64 10000 1.54 100 12:18 20.06.2022
1427 Clear 18 1013 69 10000 1.54 100 10:21 20.06.2022
1428 Clear 18 1013 69 10000 1.54 100 10:21 20.06.2022
1429 Clear 18 1013 74 10000 2.57 200 08:54 20.06.2022
1430 Clear 19 1013 72 10000 2.57 240 07:52 20.06.2022
1431 Clear 21 1013 61 10000 4.12 140 05:21 20.06.2022
1432 Clear 25 1013 45 10000 7.2 230 01:33 20.06.2022
1433 Clear 26 1014 50 10000 4.12 260 23:57 19.06.2022
1434 Clear 25 1015 50 10000 7.72 260 22:43 19.06.2022
1435 Clear 25 1015 53 10000 6.17 240 21:45 19.06.2022
1436 Clear 25 1015 52 10000 6.17 240 21:26 19.06.2022
1437 Clear 24 1015 53 10000 6.17 240 20:30 19.06.2022
1438 Clear 23 1016 56 10000 4.63 250 19:46 19.06.2022
1439 Clear 21 1016 59 10000 2.57 250 18:42 19.06.2022
1440 Clear 20 1016 66 10000 1.54 240 17:48 19.06.2022
1441 Clear 19 1016 67 10000 1.54 240 17:21 19.06.2022
1442 Clear 17 1016 74 10000 1.54 30 16:34 19.06.2022
1443 Clear 16 1015 77 10000 2.06 0 15:38 19.06.2022
1444 Clear 15 1016 77 10000 1.54 330 14:56 19.06.2022
1445 Clear 15 1015 81 10000 0 0 13:58 19.06.2022
1446 Clear 15 1014 77 10000 0 0 12:56 19.06.2022
1447 Clear 16 1014 77 10000 2.06 180 10:54 19.06.2022
1448 Clear 16 1014 75 10000 3.09 210 09:40 19.06.2022
1449 Clear 17 1014 71 10000 3.09 220 08:47 19.06.2022
1450 Clear 17 1013 69 10000 4.12 240 07:51 19.06.2022
1451 Clear 19 1013 61 10000 5.66 240 05:36 19.06.2022
1452 Clear 23 1013 56 10000 8.23 260 01:29 19.06.2022
1453 Clear 24 1013 57 10000 7.2 260 00:24 19.06.2022
1454 Clear 24 1013 52 10000 7.2 260 23:36 18.06.2022
1455 Clear 24 1013 53 10000 7.2 240 22:36 18.06.2022
1456 Clear 23 1013 53 10000 2.68 276 20:57 18.06.2022
1457 Clear 22 1013 55 10000 4.63 250 20:38 18.06.2022
1458 Clouds 21 1013 61 10000 3.6 250 19:38 18.06.2022
1459 Clouds 20 1013 65 10000 2.57 170 18:45 18.06.2022
1460 Clouds 18 1013 72 10000 1.54 0 17:35 18.06.2022
1461 Clouds 17 1013 77 10000 0 0 16:56 18.06.2022
1462 Clouds 16 1012 82 10000 2.06 100 15:33 18.06.2022
1463 Clouds 15 1012 82 10000 1.54 140 14:45 18.06.2022
1464 Clear 15 1011 80 10000 1.54 100 13:30 18.06.2022
1465 Clear 15 1011 81 10000 2.57 230 11:56 18.06.2022
1466 Clear 15 1011 82 10000 0 0 10:55 18.06.2022
1467 Clear 16 1011 79 10000 3.09 230 09:27 18.06.2022
1468 Clear 17 1011 78 10000 4.12 230 08:30 18.06.2022
1469 Clear 17 1011 76 10000 5.14 240 07:20 18.06.2022
1470 Clear 21 1010 63 10000 6.69 240 03:47 18.06.2022
1471 Clouds 23 1010 60 10000 7.72 250 01:26 18.06.2022
1472 Clear 24 1010 61 10000 7.72 250 00:49 18.06.2022
1473 Clouds 24 1010 59 10000 5.66 210 23:59 17.06.2022
1474 Clouds 24 1010 57 10000 7.72 250 23:24 17.06.2022
1475 Clouds 23 1011 63 10000 4.63 260 21:33 17.06.2022
1476 Clouds 22 1011 70 10000 3.6 200 20:26 17.06.2022
1477 Haze 19 1011 80 10000 2.57 210 18:59 17.06.2022
1478 Mist 18 1011 80 10000 2.57 200 17:46 17.06.2022
1479 Clouds 18 1010 79 10000 3.09 150 16:43 17.06.2022
1480 Clouds 18 1010 81 10000 3.09 150 16:19 17.06.2022
1481 Mist 18 1010 81 10000 3.6 130 15:37 17.06.2022
1482 Mist 18 1010 85 10000 3.6 150 14:22 17.06.2022
1483 Mist 18 1010 85 10000 3.6 150 13:51 17.06.2022
1484 Haze 18 1010 83 10000 3.6 150 13:31 17.06.2022
1485 Clouds 18 1010 86 10000 4.12 160 12:20 17.06.2022
1486 Clouds 18 1009 85 10000 2.57 140 11:49 17.06.2022
1487 Clouds 18 1009 86 10000 2.57 140 11:30 17.06.2022
1488 Clouds 18 1010 86 10000 3.09 200 08:45 17.06.2022
1489 Mist 18 1010 86 10000 3.09 200 08:24 17.06.2022
1490 Haze 19 1009 87 10000 4.12 230 06:35 17.06.2022
1491 Clouds 23 1008 72 10000 6.17 260 03:25 17.06.2022
1492 Clear 26 1008 63 10000 7.2 250 01:27 17.06.2022
1493 Haze 27 1009 61 10000 6.69 260 23:34 16.06.2022
1494 Clear 27 1009 60 10000 5.66 260 22:40 16.06.2022
1495 Clear 26 1010 64 10000 4.63 260 21:21 16.06.2022
1496 Clouds 25 1010 65 10000 4.12 270 20:50 16.06.2022
1497 Haze 24 1010 68 10000 2.57 110 20:21 16.06.2022
1498 Haze 22 1010 73 10000 3.09 220 19:31 16.06.2022
1499 Haze 20 1010 80 9656 2.57 130 17:54 16.06.2022
1500 Haze 19 1010 82 8047 2.57 140 17:33 16.06.2022
1501 Haze 19 1010 84 9656 2.06 180 16:24 16.06.2022
1502 Mist 18 1009 86 10000 2.06 140 15:21 16.06.2022
1503 Mist 18 1009 86 10000 1.54 140 14:27 16.06.2022
1504 Clouds 18 1010 85 10000 0 0 12:59 16.06.2022
1505 Clouds 18 1009 86 10000 2.06 100 12:35 16.06.2022
1506 Haze 18 1010 85 10000 2.06 90 11:49 16.06.2022
1507 Haze 19 1011 84 10000 3.09 130 10:42 16.06.2022
1508 Haze 19 1011 85 10000 3.09 140 09:43 16.06.2022
1509 Haze 19 1011 85 10000 3.09 140 09:20 16.06.2022
1510 Clouds 19 1011 86 10000 0 0 07:57 16.06.2022
1511 Clouds 19 1010 83 10000 3.09 240 06:51 16.06.2022
1512 Clouds 22 1009 74 10000 5.66 120 04:33 16.06.2022
1513 Clear 27 1009 61 10000 6.17 240 01:54 16.06.2022
1514 Clear 27 1009 60 10000 6.17 240 01:34 16.06.2022
1515 Clear 28 1009 57 10000 6.17 250 00:38 16.06.2022
1516 Clear 28 1009 57 10000 6.17 250 23:25 15.06.2022
1517 Clear 28 1010 57 10000 5.66 260 22:35 15.06.2022
1518 Clear 27 1010 60 10000 4.63 260 21:21 15.06.2022
1519 Clear 25 1011 60 10000 4.63 220 20:38 15.06.2022
1520 Clear 25 1011 64 10000 4.63 220 20:19 15.06.2022
1521 Clouds 22 1011 73 10000 1.54 250 19:19 15.06.2022
1522 Haze 19 1011 84 10000 2.57 190 17:55 15.06.2022
1523 Clouds 18 1012 86 10000 1.54 90 16:55 15.06.2022
1524 Mist 18 1010 86 10000 2.06 130 15:36 15.06.2022
1525 Clear 17 1009 87 10000 1.54 140 13:44 15.06.2022
1526 Clear 17 1009 87 10000 1.54 250 12:54 15.06.2022
1527 Clear 17 1009 86 10000 1.54 240 11:53 15.06.2022
1528 Clear 18 1010 83 10000 1.54 110 10:24 15.06.2022
1529 Clear 18 1010 83 10000 2.57 140 09:42 15.06.2022
1530 Clear 18 1011 83 10000 3.09 130 08:37 15.06.2022
1531 Clear 20 1009 78 10000 4.12 130 06:34 15.06.2022
1532 Clear 23 1009 67 10000 4.63 250 04:34 15.06.2022
1533 Clear 26 1010 59 10000 4.63 210 01:54 15.06.2022
1534 Haze 26 1011 59 4828 6.69 260 00:50 15.06.2022
1535 Clear 26 1011 58 10000 6.69 260 23:39 14.06.2022
1536 Clear 26 1011 57 10000 6.69 260 23:19 14.06.2022
1537 Clear 26 1012 56 10000 6.17 260 22:23 14.06.2022
1538 Clear 24 1012 58 10000 5.14 250 21:38 14.06.2022
1539 Clear 24 1012 61 10000 0.45 218 20:54 14.06.2022
1540 Clouds 23 1012 62 10000 4.12 240 20:28 14.06.2022
1541 Clouds 22 1013 66 10000 3.09 220 19:20 14.06.2022
1542 Clouds 20 1013 71 10000 3.09 120 18:20 14.06.2022
1543 Clouds 18 1012 80 10000 1.54 200 16:47 14.06.2022
1544 Clouds 18 1012 83 10000 2.06 170 15:50 14.06.2022
1545 Clouds 18 1012 83 10000 2.06 170 15:50 14.06.2022
1546 Clouds 17 1012 84 10000 2.06 170 15:28 14.06.2022
1547 Clouds 17 1011 83 10000 1.54 190 14:37 14.06.2022
1548 Clouds 17 1011 84 10000 2.06 80 13:46 14.06.2022
1549 Clouds 17 1011 83 10000 1.54 110 12:48 14.06.2022
1550 Clouds 17 1011 85 10000 3.09 130 11:41 14.06.2022
1551 Clouds 17 1011 84 10000 3.6 120 10:49 14.06.2022
1552 Clouds 17 1011 84 10000 3.6 120 10:49 14.06.2022
1553 Clouds 17 1011 83 10000 1.54 70 10:24 14.06.2022
1554 Haze 18 1011 82 10000 5.14 120 08:49 14.06.2022
1555 Clear 18 1011 83 10000 4.12 160 07:50 14.06.2022
1556 Clear 20 1010 78 10000 2.57 210 05:56 14.06.2022
1557 Clear 23 1010 67 10000 6.17 250 03:20 14.06.2022
1558 Clouds 25 1011 63 10000 6.69 270 01:31 14.06.2022
1559 Clouds 25 1011 63 10000 6.17 230 23:51 13.06.2022
1560 Clouds 25 1012 62 10000 6.17 240 22:27 13.06.2022
1561 Clouds 25 1012 62 10000 6.17 230 21:59 13.06.2022
1562 Clouds 23 1012 64 10000 4.12 170 20:43 13.06.2022
1563 Clouds 21 1012 69 10000 3.09 130 19:39 13.06.2022
1564 Clouds 20 1012 74 10000 3.09 140 18:45 13.06.2022
1565 Drizzle 19 1012 79 10000 2.57 90 17:52 13.06.2022
1566 Drizzle 19 1012 81 10000 2.57 90 17:18 13.06.2022
1567 Mist 18 1011 83 10000 3.09 110 15:53 13.06.2022
1568 Drizzle 18 1011 83 10000 3.09 90 14:47 13.06.2022
1569 Clouds 18 1011 82 10000 1.54 90 13:59 13.06.2022
1570 Clouds 18 1010 83 10000 3.09 110 13:23 13.06.2022
1571 Clouds 18 1011 83 10000 2.06 130 11:45 13.06.2022
1572 Clouds 18 1011 83 10000 3.6 150 10:36 13.06.2022
1573 Clouds 18 1011 82 10000 3.09 170 09:42 13.06.2022
1574 Clear 18 1011 83 10000 2.57 170 08:30 13.06.2022
1575 Clear 19 1011 78 10000 3.6 260 06:34 13.06.2022
1576 Clear 22 1009 68 10000 5.14 230 04:23 13.06.2022
1577 Clear 26 1010 54 10000 6.17 250 01:44 13.06.2022
1578 Clear 27 1010 53 10000 6.17 250 01:18 13.06.2022
1579 Clear 26 1011 56 10000 5.66 180 23:41 12.06.2022
1580 Clear 26 1012 59 10000 5.66 180 22:34 12.06.2022
1581 Haze 26 1012 61 9656 5.14 260 21:45 12.06.2022
1582 Haze 26 1012 62 10000 4.63 250 20:49 12.06.2022
1583 Haze 25 1012 67 10000 3.6 250 19:49 12.06.2022
1584 Haze 24 1011 68 9656 1.54 260 18:54 12.06.2022
1585 Haze 20 1012 80 6437 2.06 120 17:24 12.06.2022
1586 Mist 17 1011 88 8047 2.06 130 15:45 12.06.2022
1587 Mist 17 1011 85 10000 2.57 110 14:50 12.06.2022
1588 Mist 17 1011 85 9656 2.57 110 14:18 12.06.2022
1589 Mist 17 1011 85 10000 2.06 90 13:45 12.06.2022
1590 Mist 17 1011 85 10000 3.09 110 12:28 12.06.2022
1591 Clear 18 1012 81 10000 3.09 250 10:46 12.06.2022
1592 Clear 18 1012 80 10000 3.09 250 09:42 12.06.2022
1593 Clear 19 1012 81 10000 3.09 260 08:50 12.06.2022
1594 Clear 19 1012 78 10000 3.09 260 08:29 12.06.2022
1595 Clear 21 1012 72 10000 5.14 130 06:27 12.06.2022
1596 Clear 24 1012 57 10000 6.17 130 04:26 12.06.2022
1597 Clear 27 1012 55 10000 5.66 250 02:27 12.06.2022
1598 Clear 27 1012 54 10000 6.17 170 01:35 12.06.2022
1599 Clear 28 1013 53 10000 6.17 250 00:48 12.06.2022
1600 Clear 28 1012 53 10000 6.17 250 00:19 12.06.2022
1601 Clear 28 1013 56 10000 6.17 170 23:21 11.06.2022
1602 Haze 28 1013 55 10000 6.17 240 22:37 11.06.2022
1603 Haze 28 1013 55 10000 6.17 270 21:31 11.06.2022
1604 Haze 27 1013 59 10000 4.63 260 20:27 11.06.2022
1605 Haze 25 1014 69 10000 2.57 240 19:37 11.06.2022
1606 Haze 23 1014 69 6437 3.09 250 18:50 11.06.2022
1607 Haze 22 1014 72 8047 3.09 250 18:31 11.06.2022
1608 Haze 21 1013 82 8047 2.06 270 17:49 11.06.2022
1609 Haze 20 1013 84 8047 2.06 210 17:26 11.06.2022
1610 Mist 19 1013 90 6437 2.06 250 16:44 11.06.2022
1611 Mist 19 1013 89 6437 2.06 250 16:25 11.06.2022
1612 Haze 17 1013 92 10000 2.06 250 15:18 11.06.2022
1613 Clear 17 1013 88 10000 0 0 13:52 11.06.2022
1614 Mist 17 1013 85 10000 1.54 210 12:19 11.06.2022
1615 Mist 18 1014 87 10000 3.6 120 10:40 11.06.2022
1616 Clouds 18 1014 87 10000 3.09 120 09:42 11.06.2022
1617 Clouds 18 1014 86 10000 3.6 260 08:45 11.06.2022
1618 Clouds 20 1013 78 10000 5.14 120 06:47 11.06.2022
1619 Clear 21 1013 75 10000 2.57 290 05:58 11.06.2022
1620 Clear 25 1012 64 10000 5.14 160 03:45 11.06.2022
1621 Clear 27 1012 58 10000 5.66 260 01:52 11.06.2022
1622 Clear 28 1012 56 10000 5.66 260 01:26 11.06.2022
1623 Haze 29 1013 56 10000 5.14 250 23:29 10.06.2022
1624 Haze 28 1013 57 9656 5.66 270 22:29 10.06.2022
1625 Haze 27 1013 63 8047 4.63 190 21:47 10.06.2022
1626 Haze 25 1014 68 6437 4.63 120 20:39 10.06.2022
1627 Haze 25 1014 68 6437 4.63 120 20:39 10.06.2022
1628 Haze 25 1014 69 6437 4.63 120 20:21 10.06.2022
1629 Haze 24 1014 73 6437 5.14 120 19:19 10.06.2022
1630 Haze 23 1013 76 6437 3.6 210 18:55 10.06.2022
1631 Haze 22 1012 74 6437 2.57 230 17:55 10.06.2022
1632 Haze 21 1012 77 6437 3.09 250 17:32 10.06.2022
1633 Haze 20 1012 82 4828 2.57 290 16:47 10.06.2022
1634 Mist 17 1011 92 4828 2.06 0 15:40 10.06.2022
1635 Mist 17 1011 93 8047 0 0 14:34 10.06.2022
1636 Mist 17 1011 89 8047 1.54 250 13:23 10.06.2022
1637 Mist 17 1011 90 9656 0 0 11:59 10.06.2022
1638 Mist 18 1011 88 9656 2.06 150 11:25 10.06.2022
1639 Mist 18 1011 85 8047 2.06 140 10:35 10.06.2022
1640 Mist 18 1012 84 8047 2.57 140 09:21 10.06.2022
1641 Mist 19 1012 86 9656 1.54 240 07:57 10.06.2022
1642 Mist 19 1011 85 9656 4.12 130 06:49 10.06.2022
1643 Mist 19 1011 84 9656 4.12 130 06:30 10.06.2022
1644 Mist 20 1010 81 8047 4.63 130 05:31 10.06.2022
1645 Clear 25 1009 65 10000 4.63 280 02:46 10.06.2022
1646 Clear 27 1009 58 10000 5.14 260 01:37 10.06.2022
1647 Clear 28 1010 58 10000 4.63 230 23:58 09.06.2022
1648 Haze 28 1010 57 10000 5.66 250 22:43 09.06.2022
1649 Haze 27 1010 57 10000 4.63 240 21:44 09.06.2022
1650 Haze 27 1010 57 10000 4.63 240 21:25 09.06.2022
1651 Haze 26 1011 59 10000 3.09 250 20:40 09.06.2022
1652 Haze 24 1011 66 10000 2.06 190 19:51 09.06.2022
1653 Haze 20 960 77 9656 3.09 60 18:41 09.06.2022
1654 Haze 18 959 84 8047 2.57 120 17:55 09.06.2022
1655 Mist 18 1011 86 8047 3.09 140 16:28 09.06.2022
1656 Mist 17 1010 87 10000 3.09 20 15:40 09.06.2022
1657 Mist 17 1009 88 10000 2.57 150 14:33 09.06.2022
1658 Mist 17 1009 89 10000 2.57 120 13:44 09.06.2022
1659 Mist 17 1009 88 10000 2.57 120 13:20 09.06.2022
1660 Haze 17 1009 87 10000 3.6 130 11:43 09.06.2022
1661 Mist 17 1010 86 10000 4.12 140 10:36 09.06.2022
1662 Mist 17 1010 85 10000 4.12 150 09:40 09.06.2022
1663 Mist 17 1010 84 10000 4.12 150 09:21 09.06.2022
1664 Clouds 18 1009 85 10000 3.09 110 07:29 09.06.2022
1665 Clouds 21 1008 75 10000 5.66 130 04:47 09.06.2022
1666 Clear 26 1008 62 10000 5.14 250 01:42 09.06.2022
1667 Clear 26 1009 62 10000 5.66 180 23:24 08.06.2022
1668 Clear 25 1010 66 10000 5.14 270 22:45 08.06.2022
1669 Haze 25 1010 66 10000 4.63 260 22:25 08.06.2022
1670 Haze 24 1011 66 9656 5.66 260 21:45 08.06.2022
1671 Haze 24 1011 69 10000 4.12 270 20:33 08.06.2022
1672 Haze 21 1011 76 10000 4.12 260 19:47 08.06.2022
1673 Haze 19 1012 85 9656 3.6 150 18:49 08.06.2022
1674 Haze 19 1012 83 9656 3.6 150 18:22 08.06.2022
1675 Haze 18 1011 85 8047 2.57 20 16:30 08.06.2022
1676 Mist 18 1011 86 10000 1.54 140 14:49 08.06.2022
1677 Clouds 18 1010 86 10000 0.89 277 12:55 08.06.2022
1678 Clouds 18 1010 86 10000 0.89 277 12:55 08.06.2022
1679 Haze 18 1011 85 10000 3.09 140 11:50 08.06.2022
1680 Haze 18 1011 85 10000 3.09 140 11:22 08.06.2022
1681 Clouds 18 1012 86 10000 1.54 180 09:46 08.06.2022
1682 Clouds 18 1011 85 10000 3.09 130 09:19 08.06.2022
1683 Clear 18 1012 84 10000 3.09 130 07:32 08.06.2022
1684 Clear 20 1010 78 10000 4.12 140 05:20 08.06.2022
1685 Clear 25 1010 64 10000 5.14 260 02:28 08.06.2022
1686 Clear 26 1010 61 10000 5.14 250 23:42 07.06.2022
1687 Clear 26 1010 62 10000 5.14 250 23:24 07.06.2022
1688 Clear 26 1011 63 10000 5.14 260 22:39 07.06.2022
1689 Clouds 25 1011 63 10000 4.63 230 21:52 07.06.2022
1690 Clear 25 1011 64 10000 4.63 230 21:27 07.06.2022
1691 Clear 24 1011 67 10000 4.63 240 20:46 07.06.2022
1692 Clear 24 1011 67 10000 4.12 250 20:23 07.06.2022
1693 Haze 22 1011 73 9656 3.6 110 19:19 07.06.2022
1694 Haze 19 1012 84 9656 3.09 120 17:55 07.06.2022
1695 Haze 18 1011 86 6437 2.57 150 16:56 07.06.2022
1696 Haze 18 1011 86 9656 2.57 160 16:33 07.06.2022
1697 Mist 18 1011 86 10000 2.06 180 15:40 07.06.2022
1698 Mist 18 1011 85 10000 2.06 180 15:22 07.06.2022
1699 Haze 18 1010 86 10000 2.57 180 14:46 07.06.2022
1700 Clouds 18 1010 82 10000 2.57 140 13:50 07.06.2022
1701 Clouds 18 1010 83 10000 2.06 130 13:29 07.06.2022
1702 Clouds 17 1010 87 10000 0 0 12:39 07.06.2022
1703 Clouds 18 1010 86 10000 1.54 250 10:57 07.06.2022
1704 Clear 18 1010 85 10000 0 0 09:58 07.06.2022
1705 Clear 19 1010 83 10000 3.09 130 08:36 07.06.2022
1706 Clear 19 1010 81 10000 4.12 130 07:22 07.06.2022
1707 Clear 20 1009 77 10000 4.63 250 05:48 07.06.2022
1708 Clear 25 1009 65 10000 6.17 260 02:48 07.06.2022
1709 Clear 26 1010 61 10000 6.17 250 00:35 07.06.2022
1710 Clear 26 1010 59 10000 6.17 240 23:34 06.06.2022
1711 Clear 25 1011 62 10000 5.14 260 22:41 06.06.2022
1712 Clear 25 1011 59 10000 5.14 230 21:43 06.06.2022
1713 Clear 24 1012 64 10000 6.17 250 20:19 06.06.2022
1714 Clear 22 1012 67 10000 2.57 200 19:23 06.06.2022
1715 Clouds 21 1012 72 10000 3.09 170 18:46 06.06.2022
1716 Clouds 20 1012 76 10000 3.09 0 17:52 06.06.2022
1717 Clouds 18 1012 80 10000 3.09 90 16:48 06.06.2022
1718 Clouds 17 1012 83 10000 2.57 80 15:40 06.06.2022
1719 Clouds 17 1012 85 10000 3.6 100 14:57 06.06.2022
1720 Clouds 17 1011 87 10000 3.09 130 13:37 06.06.2022
1721 Clouds 17 1011 88 10000 4.12 110 12:44 06.06.2022
1722 Clouds 17 1011 87 10000 4.12 110 12:26 06.06.2022
1723 Clouds 17 1011 87 10000 2.57 140 11:45 06.06.2022
1724 Clear 18 1012 85 10000 2.06 0 09:46 06.06.2022
1725 Clear 19 1012 84 10000 2.57 170 08:36 06.06.2022
1726 Clear 19 1012 83 10000 4.12 180 07:43 06.06.2022
1727 Clear 19 1011 79 10000 4.12 110 06:44 06.06.2022
1728 Clear 22 1011 71 10000 4.12 210 04:36 06.06.2022
1729 Clear 25 1011 59 10000 5.14 240 01:30 06.06.2022
1730 Clear 25 1011 59 10000 6.69 230 00:55 06.06.2022
1731 Clear 25 1012 58 10000 6.69 230 00:33 06.06.2022
1732 Clear 25 1012 59 10000 1.54 0 22:58 05.06.2022
1733 Clear 24 1012 58 10000 5.14 240 22:19 05.06.2022
1734 Clouds 22 1013 63 10000 3.09 0 20:23 05.06.2022
1735 Clouds 20 1014 71 10000 2.06 230 18:57 05.06.2022
1736 Clouds 19 1014 72 10000 2.57 230 18:18 05.06.2022
1737 Clouds 19 1014 75 10000 2.57 200 17:38 05.06.2022
1738 Clouds 18 1013 78 10000 2.57 200 17:20 05.06.2022
1739 Clouds 17 1013 81 10000 0 0 16:47 05.06.2022
1740 Clouds 16 1013 86 10000 1.54 200 15:25 05.06.2022
1741 Clouds 16 1013 86 10000 0 0 14:21 05.06.2022
1742 Clouds 16 1013 87 10000 2.06 90 11:59 05.06.2022
1743 Clear 16 1013 84 10000 2.57 110 10:45 05.06.2022
1744 Clear 16 1013 84 10000 3.09 130 10:24 05.06.2022
1745 Clouds 16 1014 84 10000 2.57 100 09:42 05.06.2022
1746 Clouds 17 1014 83 10000 2.06 170 08:25 05.06.2022
1747 Clouds 17 1013 82 10000 3.09 240 06:25 05.06.2022
1748 Clouds 18 1013 80 10000 4.12 250 05:19 05.06.2022
1749 Clouds 21 1013 72 10000 5.66 250 02:48 05.06.2022
1750 Clouds 22 1013 68 10000 6.69 250 01:24 05.06.2022
1751 Clouds 22 1014 67 10000 5.14 240 23:36 04.06.2022
1752 Clouds 20 1014 71 10000 4.12 240 21:31 04.06.2022
1753 Clouds 19 1014 75 10000 3.6 130 19:46 04.06.2022
1754 Clouds 18 1013 78 10000 2.57 130 17:28 04.06.2022
1755 Clouds 17 1013 81 10000 3.09 100 16:22 04.06.2022
1756 Clouds 17 1013 81 10000 3.09 140 15:51 04.06.2022
1757 Clouds 17 1012 82 10000 2.57 100 14:22 04.06.2022
1758 Clouds 17 1012 84 10000 1.54 140 11:48 04.06.2022
1759 Clouds 17 1012 85 10000 0 0 10:57 04.06.2022
1760 Clouds 17 1013 84 10000 2.06 170 10:20 04.06.2022
1761 Clouds 17 1012 84 10000 2.57 130 09:41 04.06.2022
1762 Clouds 17 1012 83 10000 3.6 180 08:40 04.06.2022
1763 Clouds 17 1012 82 10000 3.09 230 07:27 04.06.2022
1764 Clouds 19 1011 75 10000 4.63 250 04:33 04.06.2022
1765 Clouds 19 1011 75 10000 4.63 250 04:33 04.06.2022
1766 Clouds 19 1011 75 10000 5.14 260 04:33 04.06.2022
1767 Clouds 19 1011 75 10000 5.14 260 04:33 04.06.2022
1768 Clouds 19 1011 75 10000 4.63 250 04:33 04.06.2022
1769 Clear 24 1011 61 10000 5.14 240 00:48 04.06.2022
1770 Clear 24 1011 60 10000 6.69 270 23:31 03.06.2022
1771 Clear 23 1011 62 10000 7.2 250 22:30 03.06.2022
1772 Clouds 21 1012 70 10000 1.54 210 20:52 03.06.2022
1773 Clouds 20 1012 71 10000 2.57 190 20:27 03.06.2022
1774 Clouds 17 1011 80 10000 2.57 160 17:39 03.06.2022
1775 Clouds 17 1011 81 10000 2.57 170 16:37 03.06.2022
1776 Clouds 17 1011 84 10000 2.57 100 15:18 03.06.2022
1777 Clouds 17 1010 86 10000 1.54 0 12:56 03.06.2022
1778 Clouds 17 1011 83 10000 2.57 230 10:54 03.06.2022
1779 Clouds 17 1011 83 10000 3.09 160 09:38 03.06.2022
1780 Clouds 17 1011 83 10000 2.57 170 08:45 03.06.2022
1781 Clouds 17 1011 83 10000 3.6 120 07:26 03.06.2022
1782 Clouds 17 1011 83 10000 4.12 170 06:32 03.06.2022
1783 Clouds 18 1010 78 10000 5.66 250 05:35 03.06.2022
1784 Clear 25 1010 58 10000 8.23 230 00:28 03.06.2022
1785 Clear 26 1010 54 10000 5.66 260 22:41 02.06.2022
1786 Clear 26 1011 56 10000 4.63 250 21:40 02.06.2022
1787 Clear 24 1011 60 10000 4.12 220 20:22 02.06.2022
1788 Haze 22 1011 63 10000 3.6 190 19:46 02.06.2022
1789 Haze 22 1011 66 10000 3.6 190 19:28 02.06.2022
1790 Haze 18 1012 81 9656 2.06 120 17:32 02.06.2022
1791 Haze 17 1011 85 10000 2.57 110 16:27 02.06.2022
1792 Clouds 16 1011 86 10000 2.06 140 14:20 02.06.2022
1793 Clouds 16 1011 85 10000 2.06 180 13:29 02.06.2022
1794 Clouds 16 1010 86 10000 2.06 100 12:21 02.06.2022
1795 Clouds 16 1011 84 10000 3.6 140 10:20 02.06.2022
1796 Clouds 17 1011 83 10000 4.63 100 09:28 02.06.2022
1797 Clear 17 1011 81 10000 4.12 100 08:27 02.06.2022
1798 Clear 18 1011 80 10000 4.63 110 07:33 02.06.2022
1799 Clear 20 1010 73 10000 4.63 120 05:29 02.06.2022
1800 Clear 24 1009 62 10000 6.17 200 03:45 02.06.2022
1801 Clear 27 1010 53 10000 7.2 250 23:52 01.06.2022
1802 Clear 28 1011 51 10000 5.14 270 22:54 01.06.2022
1803 Clear 27 1011 51 10000 4.12 240 21:39 01.06.2022
1804 Clear 26 1011 54 10000 4.12 240 21:20 01.06.2022
1805 Clear 26 1012 54 10000 4.12 260 20:37 01.06.2022
1806 Clear 23 1012 58 10000 2.57 160 19:31 01.06.2022
1807 Clear 20 1012 69 10000 0 0 17:57 01.06.2022
1808 Clear 17 1012 81 10000 1.54 100 16:41 01.06.2022
1809 Clear 15 1011 83 10000 1.54 90 15:37 01.06.2022
1810 Clear 15 1011 78 10000 0 0 13:57 01.06.2022
1811 Clear 16 1011 73 10000 1.54 260 12:29 01.06.2022
1812 Clear 16 1011 79 10000 2.06 230 10:37 01.06.2022
1813 Clear 17 1011 78 10000 2.57 120 09:25 01.06.2022
1814 Clear 17 1011 78 10000 0 0 07:56 01.06.2022
1815 Clear 18 1010 74 10000 3.09 130 06:41 01.06.2022
1816 Clear 24 1009 51 10000 5.14 240 01:30 01.06.2022
1817 Clear 25 1010 53 10000 6.17 270 23:41 31.05.2022
1818 Clear 24 1010 54 10000 6.17 250 22:38 31.05.2022
1819 Haze 23 1011 58 10000 6.17 250 21:46 31.05.2022
1820 Clear 23 1011 61 10000 0.89 233 20:57 31.05.2022
1821 Clear 22 1011 62 10000 5.14 260 20:33 31.05.2022
1822 Clear 20 1010 64 10000 0.89 303 18:57 31.05.2022
1823 Clouds 19 1011 72 10000 3.09 0 18:19 31.05.2022
1824 Haze 18 1011 74 10000 3.6 120 17:35 31.05.2022
1825 Haze 15 1010 80 8047 2.57 100 15:42 31.05.2022
1826 Clear 14 1009 79 10000 1.54 110 14:36 31.05.2022
1827 Clear 15 1009 78 10000 2.06 100 12:39 31.05.2022
1828 Clear 15 1009 78 10000 2.06 100 12:18 31.05.2022
1829 Clear 15 1009 78 10000 0 0 09:53 31.05.2022
1830 Clear 16 1009 74 10000 3.09 190 07:42 31.05.2022
1831 Clear 18 1008 68 10000 4.63 140 05:25 31.05.2022
1832 Clear 22 1009 56 10000 7.72 250 02:51 31.05.2022
1833 Clear 23 1009 60 10000 6.69 250 23:39 30.05.2022
1834 Clear 23 1010 61 10000 6.69 250 23:18 30.05.2022
1835 Clear 23 1010 60 10000 7.2 240 22:32 30.05.2022
1836 Clear 23 1010 61 10000 6.69 230 21:37 30.05.2022
1837 Clear 22 1011 57 10000 5.66 260 20:41 30.05.2022
1838 Clear 21 1011 62 10000 4.12 250 19:40 30.05.2022
1839 Clouds 18 1011 70 10000 2.57 170 17:48 30.05.2022
1840 Clouds 17 1011 74 10000 2.57 170 17:20 30.05.2022
1841 Clouds 15 1010 84 10000 2.57 80 15:51 30.05.2022
1842 Clouds 15 1009 84 10000 2.57 150 13:21 30.05.2022
1843 Clouds 15 1010 83 10000 3.6 110 11:30 30.05.2022
1844 Clear 16 1011 78 10000 1.54 100 09:45 30.05.2022
1845 Clear 17 1009 75 10000 4.12 110 07:34 30.05.2022
1846 Clear 18 1009 75 10000 0 0 05:54 30.05.2022
1847 Clear 21 1008 62 10000 6.17 210 03:22 30.05.2022
1848 Clear 23 1010 57 10000 5.14 270 00:18 30.05.2022
1849 Clear 22 1010 57 10000 6.17 150 22:40 29.05.2022
1850 Clear 22 1010 59 10000 5.66 270 21:44 29.05.2022
1851 Clear 21 1011 66 10000 5.14 240 20:21 29.05.2022
1852 Clouds 20 1011 67 10000 4.63 270 19:28 29.05.2022
1853 Clouds 18 1010 73 10000 0 0 17:56 29.05.2022
1854 Clouds 15 1010 83 10000 1.54 130 16:22 29.05.2022
1855 Clouds 15 1009 85 10000 2.06 180 15:43 29.05.2022
1856 Clouds 14 1009 87 10000 2.06 150 14:54 29.05.2022
1857 Clear 14 1010 84 10000 1.54 150 12:33 29.05.2022
1858 Clouds 15 1011 84 10000 2.57 100 11:20 29.05.2022
1859 Clear 15 1011 84 10000 1.54 130 10:29 29.05.2022
1860 Clear 16 1012 83 10000 0 0 07:59 29.05.2022
1861 Clouds 17 1012 77 10000 5.66 270 04:58 29.05.2022
1862 Clouds 18 1012 76 10000 5.66 270 04:36 29.05.2022
1863 Clouds 20 1013 66 10000 6.17 250 01:28 29.05.2022
1864 Clouds 20 1014 64 10000 5.66 260 23:48 28.05.2022
1865 Clouds 20 1014 65 10000 5.66 260 23:19 28.05.2022
1866 Clouds 19 1015 69 10000 4.12 250 21:53 28.05.2022
1867 Clouds 19 1015 72 10000 3.09 250 20:58 28.05.2022
1868 Clouds 18 1016 75 10000 3.09 250 19:20 28.05.2022
1869 Clouds 17 1015 77 10000 2.06 280 18:24 28.05.2022
1870 Clouds 16 1015 80 10000 2.57 140 17:33 28.05.2022
1871 Clouds 16 1014 83 10000 2.06 140 15:56 28.05.2022
1872 Clouds 16 1014 83 10000 2.57 260 15:38 28.05.2022
1873 Clouds 15 1014 86 10000 2.57 250 13:38 28.05.2022
1874 Clouds 15 1014 88 10000 3.6 240 12:43 28.05.2022
1875 Clear 15 1014 88 10000 3.6 230 11:37 28.05.2022
1876 Clear 15 1014 86 10000 3.09 220 10:39 28.05.2022
1877 Clear 15 1014 86 10000 0 0 09:55 28.05.2022
1878 Clouds 15 1015 79 10000 5.66 240 08:33 28.05.2022
1879 Clear 16 1015 79 10000 5.66 260 06:50 28.05.2022
1880 Clear 17 1015 74 10000 5.66 240 05:24 28.05.2022
1881 Clear 21 1015 64 10000 7.72 250 02:27 28.05.2022
1882 Clear 23 1016 58 10000 2.57 0 23:59 27.05.2022
1883 Clouds 23 1017 57 10000 5.14 260 22:49 27.05.2022
1884 Clear 22 1017 60 10000 5.14 220 21:35 27.05.2022
1885 Clouds 21 1018 63 10000 4.63 270 20:46 27.05.2022
1886 Clouds 20 1018 65 10000 4.63 270 20:21 27.05.2022
1887 Clouds 19 1018 66 10000 3.6 250 19:38 27.05.2022
1888 Clouds 18 1018 70 10000 3.09 0 19:20 27.05.2022
1889 Clouds 17 1017 76 10000 2.57 250 17:26 27.05.2022
1890 Clouds 16 1016 80 10000 1.54 280 15:57 27.05.2022
1891 Clouds 16 1016 79 10000 2.57 340 15:20 27.05.2022
1892 Clouds 16 1016 82 10000 3.09 340 13:41 27.05.2022
1893 Clouds 16 1016 81 10000 4.12 280 12:28 27.05.2022
1894 Clouds 16 1016 81 10000 3.09 250 11:31 27.05.2022
1895 Clouds 16 1016 82 10000 2.57 230 10:47 27.05.2022
1896 Clouds 16 1016 82 10000 2.57 230 10:22 27.05.2022
1897 Clouds 16 1017 80 10000 2.06 250 09:31 27.05.2022
1898 Clouds 16 1017 80 10000 4.12 270 07:41 27.05.2022
1899 Clear 17 1016 76 10000 5.14 250 05:27 27.05.2022
1900 Clear 22 1014 64 10000 7.72 250 01:47 27.05.2022
1901 Clear 23 1014 63 10000 6.69 250 23:55 26.05.2022
1902 Clear 24 1014 62 10000 6.17 250 22:29 26.05.2022
1903 Haze 24 1014 62 10000 5.14 230 21:34 26.05.2022
1904 Haze 22 1014 67 10000 3.6 260 19:51 26.05.2022
1905 Haze 21 1014 69 10000 3.6 260 19:19 26.05.2022
1906 Haze 18 1014 76 9656 1.54 0 17:36 26.05.2022
1907 Haze 17 1014 81 8047 2.06 220 16:36 26.05.2022
1908 Haze 16 1013 80 8047 2.57 240 15:41 26.05.2022
1909 Haze 16 1013 85 9656 2.06 0 14:21 26.05.2022
1910 Clouds 16 1013 85 10000 1.54 250 12:36 26.05.2022
1911 Clouds 16 1013 85 10000 2.06 250 11:23 26.05.2022
1912 Clouds 16 1013 78 10000 3.6 260 09:40 26.05.2022
1913 Clear 16 1014 77 10000 3.6 260 09:19 26.05.2022
1914 Clouds 16 1013 83 10000 2.06 210 07:51 26.05.2022
1915 Clear 20 1011 72 10000 5.14 250 03:53 26.05.2022
1916 Haze 24 1012 60 10000 6.17 180 00:33 26.05.2022
1917 Haze 25 1012 59 8047 4.63 260 23:39 25.05.2022
1918 Haze 24 1012 60 8047 5.66 270 21:56 25.05.2022
1919 Haze 24 1012 62 8047 5.66 270 21:31 25.05.2022
1920 Haze 24 1012 63 9656 5.14 260 20:35 25.05.2022
1921 Haze 23 1012 66 8047 4.63 260 19:21 25.05.2022
1922 Haze 19 1012 76 6437 3.09 250 17:40 25.05.2022
1923 Haze 17 1011 82 6437 1.54 0 16:37 25.05.2022
1924 Haze 16 1011 88 6437 0 0 15:54 25.05.2022
1925 Haze 15 1011 85 10000 1.54 340 14:51 25.05.2022
1926 Mist 15 1011 85 8047 1.54 340 14:33 25.05.2022
1927 Haze 16 1011 84 8047 1.54 50 13:45 25.05.2022
1928 Haze 16 1011 84 8047 2.06 40 12:38 25.05.2022
1929 Mist 16 1011 83 8047 2.57 120 10:43 25.05.2022
1930 Mist 16 1011 84 8047 2.57 130 09:54 25.05.2022
1931 Clear 16 1011 84 10000 0.89 233 08:37 25.05.2022
1932 Clear 16 1011 86 10000 1.9 218 07:23 25.05.2022
1933 Clear 19 1010 73 10000 4.63 250 04:22 25.05.2022
1934 Clear 24 1009 60 10000 6.17 240 00:19 25.05.2022
1935 Clear 24 1010 60 10000 5.66 270 23:43 24.05.2022
1936 Clear 24 1011 60 10000 5.66 280 22:33 24.05.2022
1937 Clear 24 1011 61 10000 4.12 250 21:41 24.05.2022
1938 Clear 23 1011 62 10000 4.12 250 21:21 24.05.2022
1939 Clear 22 1011 64 10000 3.6 250 20:23 24.05.2022
1940 Haze 19 1011 69 8047 2.06 220 18:56 24.05.2022
1941 Haze 19 1011 69 8047 2.06 220 18:56 24.05.2022
1942 Haze 16 1011 79 8047 1.54 60 16:58 24.05.2022
1943 Haze 16 1011 81 8047 2.06 340 16:28 24.05.2022
1944 Clouds 15 1010 85 10000 0 0 14:59 24.05.2022
1945 Clouds 15 1011 82 10000 2.57 110 14:25 24.05.2022
1946 Clouds 15 1010 83 10000 1.54 0 13:18 24.05.2022
1947 Clouds 15 1011 82 10000 2.57 130 11:49 24.05.2022
1948 Clouds 15 1012 82 10000 2.57 150 09:47 24.05.2022
1949 Clouds 15 1012 81 10000 3.6 130 08:51 24.05.2022
1950 Clouds 16 1012 82 10000 0 0 06:58 24.05.2022
1951 Clouds 17 1011 78 10000 2.57 270 04:59 24.05.2022
1952 Clear 20 1011 67 10000 6.17 260 02:42 24.05.2022
1953 Clear 21 1011 66 10000 5.14 270 01:43 24.05.2022
1954 Clouds 21 1012 63 10000 4.63 230 23:44 23.05.2022
1955 Clouds 20 1013 63 10000 4.12 260 22:22 23.05.2022
1956 Clouds 19 1014 70 10000 4.12 230 21:41 23.05.2022
1957 Haze 17 1014 75 10000 4.63 210 20:45 23.05.2022
1958 Clouds 16 1014 79 10000 3.6 160 19:44 23.05.2022
1959 Clouds 16 1014 79 10000 3.6 160 19:18 23.05.2022
1960 Haze 16 1014 76 10000 2.57 0 18:37 23.05.2022
1961 Clouds 15 1014 81 10000 0 0 17:56 23.05.2022
1962 Haze 14 1014 84 10000 2.06 160 15:54 23.05.2022
1963 Clouds 14 1014 87 10000 0 0 13:56 23.05.2022
1964 Clear 14 1015 86 10000 2.06 240 11:41 23.05.2022
1965 Clear 14 1015 85 10000 2.06 250 10:44 23.05.2022
1966 Clear 14 1015 78 10000 1.54 230 09:47 23.05.2022
1967 Clear 14 1016 84 10000 2.57 270 08:46 23.05.2022
1968 Clear 14 1016 84 10000 2.57 270 08:46 23.05.2022
1969 Clear 15 1016 81 10000 3.6 240 06:49 23.05.2022
1970 Clear 15 1016 80 10000 3.6 240 06:31 23.05.2022
1971 Clear 20 1014 64 10000 7.2 250 02:55 23.05.2022
1972 Clear 21 1015 62 10000 6.69 230 01:52 23.05.2022
1973 Clear 21 1015 61 10000 6.69 230 01:26 23.05.2022
1974 Clear 22 1016 64 10000 6.69 240 22:49 22.05.2022
1975 Clear 21 1016 64 10000 6.69 240 22:22 22.05.2022
1976 Clear 21 1016 66 10000 5.66 260 21:51 22.05.2022
1977 Clouds 21 1016 66 10000 5.14 270 20:43 22.05.2022
1978 Clouds 20 1017 67 10000 5.14 270 20:22 22.05.2022
1979 Clouds 19 1017 69 10000 5.14 260 19:19 22.05.2022
1980 Clear 18 1017 72 10000 3.09 260 18:46 22.05.2022
1981 Clear 18 1017 74 10000 3.09 260 18:21 22.05.2022
1982 Mist 15 1017 84 10000 2.06 260 16:57 22.05.2022
1983 Mist 13 1016 87 10000 2.06 260 15:34 22.05.2022
1984 Clear 13 1016 89 10000 3.09 270 14:47 22.05.2022
1985 Clear 14 1016 86 10000 2.57 260 13:21 22.05.2022
1986 Clear 14 1016 87 10000 2.06 260 12:45 22.05.2022
1987 Clear 14 1016 89 10000 0 0 10:55 22.05.2022
1988 Clear 15 1017 83 10000 3.09 260 09:38 22.05.2022
1989 Clouds 15 1017 82 10000 3.6 250 07:52 22.05.2022
1990 Clouds 16 1017 82 10000 3.6 250 07:20 22.05.2022
1991 Clouds 17 1015 77 10000 5.14 250 04:49 22.05.2022
1992 Clear 21 1014 61 10000 6.17 260 01:20 22.05.2022
1993 Clouds 21 1014 59 10000 6.17 250 00:26 22.05.2022
1994 Clouds 21 1015 59 10000 5.66 230 23:47 21.05.2022
1995 Clouds 20 1015 64 10000 5.14 250 22:24 21.05.2022
1996 Clouds 19 1015 67 10000 4.63 230 21:39 21.05.2022
1997 Clouds 19 1015 70 10000 3.6 240 20:48 21.05.2022
1998 Clouds 19 1015 71 10000 3.6 240 20:21 21.05.2022
1999 Clouds 18 1014 74 10000 4.12 210 19:25 21.05.2022
2000 Clouds 17 1013 82 10000 2.57 130 17:38 21.05.2022
2001 Clouds 15 1012 86 10000 2.57 250 15:44 21.05.2022
2002 Clouds 15 1012 87 10000 2.06 200 14:37 21.05.2022
2003 Clouds 15 1012 87 10000 2.06 260 13:41 21.05.2022
2004 Clouds 15 1012 87 10000 2.06 260 12:41 21.05.2022
2005 Clouds 15 1012 88 10000 3.09 240 11:56 21.05.2022
2006 Clouds 16 1012 84 10000 2.57 240 10:22 21.05.2022
2007 Clouds 16 1012 83 10000 2.57 240 09:38 21.05.2022
2008 Clouds 16 1012 85 10000 2.57 230 08:52 21.05.2022
2009 Clouds 16 1011 86 10000 2.08 202 06:28 21.05.2022
2010 Haze 17 1010 83 10000 3.6 250 03:48 21.05.2022
2011 Clouds 19 1010 73 10000 5.66 270 23:50 20.05.2022
2012 Clouds 19 1010 69 10000 6.17 140 22:42 20.05.2022
2013 Clouds 19 1010 71 10000 6.17 140 22:23 20.05.2022
2014 Clouds 19 1010 70 10000 4.63 140 21:41 20.05.2022
2015 Clouds 18 1009 70 10000 4.12 130 20:54 20.05.2022
2016 Clouds 18 1010 76 10000 3.6 110 19:58 20.05.2022
2017 Clouds 17 1010 78 10000 3.6 110 19:26 20.05.2022
2018 Clouds 16 1009 80 10000 2.57 0 18:36 20.05.2022
2019 Haze 15 1009 87 10000 2.06 140 16:54 20.05.2022
2020 Haze 15 1009 85 10000 2.06 140 16:19 20.05.2022
2021 Clouds 15 1008 86 10000 3.09 130 15:44 20.05.2022
2022 Mist 14 1008 89 10000 3.6 150 14:30 20.05.2022
2023 Mist 14 1008 90 10000 3.6 110 13:55 20.05.2022
2024 Mist 15 1009 87 10000 4.12 140 11:34 20.05.2022
2025 Clouds 15 1010 85 10000 4.12 120 09:52 20.05.2022
2026 Clouds 15 1010 85 10000 3.09 140 08:44 20.05.2022
2027 Mist 16 1010 80 10000 3.6 200 06:50 20.05.2022
2028 Mist 16 1010 81 10000 3.6 200 06:31 20.05.2022
2029 Mist 17 1011 81 10000 5.14 190 04:42 20.05.2022
2030 Haze 20 1011 68 10000 6.17 190 00:48 20.05.2022
2031 Haze 19 1012 71 9656 4.63 250 22:47 19.05.2022
2032 Haze 20 1012 71 9656 4.12 250 22:20 19.05.2022
2033 Haze 18 1013 75 10000 3.6 240 21:48 19.05.2022
2034 Haze 19 1013 74 10000 3.6 240 21:22 19.05.2022
2035 Haze 18 1014 81 10000 2.57 270 20:34 19.05.2022
2036 Haze 16 1014 85 10000 2.57 80 19:50 19.05.2022
2037 Haze 16 1014 83 10000 2.06 220 18:22 19.05.2022
2038 Haze 15 1014 84 10000 0.45 269 16:51 19.05.2022
2039 Mist 15 1013 81 10000 2.57 0 15:19 19.05.2022
2040 Clouds 15 1013 86 10000 2.57 150 14:25 19.05.2022
2041 Haze 15 1013 85 9656 1.54 140 13:23 19.05.2022
2042 Haze 15 1014 85 9656 2.06 110 11:29 19.05.2022
2043 Clouds 15 1015 85 10000 2.06 170 09:29 19.05.2022
2044 Clouds 16 1015 85 10000 2.57 240 07:52 19.05.2022
2045 Clear 16 1015 81 10000 4.12 130 06:18 19.05.2022
2046 Clear 16 1015 80 10000 4.12 130 06:18 19.05.2022
2047 Clear 22 1014 64 10000 6.17 270 02:27 19.05.2022
2048 Clear 23 1014 60 10000 6.69 260 00:40 19.05.2022
2049 Clouds 22 1015 61 10000 5.14 270 22:51 18.05.2022
2050 Clear 22 1015 61 10000 5.14 270 22:24 18.05.2022
2051 Clear 21 1016 65 10000 4.63 260 21:30 18.05.2022
2052 Clouds 19 1016 71 10000 4.63 270 20:50 18.05.2022
2053 Clouds 19 1017 70 10000 4.63 270 20:18 18.05.2022
2054 Clouds 19 1017 71 10000 4.63 270 20:18 18.05.2022
2055 Haze 16 1017 79 10000 2.06 100 18:33 18.05.2022
2056 Haze 16 1017 79 10000 2.06 100 18:33 18.05.2022
2057 Haze 16 1017 80 10000 2.57 130 17:41 18.05.2022
2058 Haze 16 1017 79 10000 2.57 130 17:23 18.05.2022
2059 Haze 15 1016 82 10000 2.57 170 16:34 18.05.2022
2060 Clouds 15 1016 80 10000 3.09 170 15:42 18.05.2022
2061 Clouds 15 1015 86 10000 2.57 140 14:48 18.05.2022
2062 Haze 15 1015 85 10000 3.09 90 13:44 18.05.2022
2063 Clouds 15 1015 84 10000 2.57 110 12:51 18.05.2022
2064 Clouds 15 1016 84 10000 1.54 230 11:37 18.05.2022
2065 Clouds 15 1016 84 10000 1.54 230 11:19 18.05.2022
2066 Clear 14 1015 86 10000 2.06 250 09:56 18.05.2022
2067 Clear 15 1015 78 10000 2.57 240 07:54 18.05.2022
2068 Clear 16 1015 79 10000 2.57 250 06:49 18.05.2022
2069 Clear 21 1014 66 10000 5.66 260 02:23 18.05.2022
2070 Clear 22 1015 61 10000 6.69 260 00:26 18.05.2022
2071 Clouds 22 1015 58 10000 5.66 240 22:47 17.05.2022
2072 Clouds 20 1016 65 10000 4.12 240 21:20 17.05.2022
2073 Clouds 19 1016 69 10000 3.09 150 20:30 17.05.2022
2074 Clouds 17 1016 74 10000 3.09 150 19:29 17.05.2022
2075 Haze 16 1016 79 10000 3.09 130 17:53 17.05.2022
2076 Haze 16 1016 79 10000 3.09 130 17:22 17.05.2022
2077 Haze 15 1015 79 4828 3.09 130 16:34 17.05.2022
2078 Clouds 15 1014 83 10000 3.6 90 15:43 17.05.2022
2079 Smoke 15 1014 79 10000 1.54 190 14:31 17.05.2022
2080 Clouds 15 1014 84 10000 2.06 330 13:54 17.05.2022
2081 Clouds 15 1014 82 10000 0 0 12:32 17.05.2022
2082 Clear 15 1014 78 10000 2.57 180 09:53 17.05.2022
2083 Clear 15 1014 77 10000 2.06 140 08:44 17.05.2022
2084 Clear 16 1013 74 10000 2.57 170 07:40 17.05.2022
2085 Clear 18 1012 72 10000 4.63 260 04:33 17.05.2022
2086 Clear 23 1013 62 10000 6.17 190 00:47 17.05.2022
2087 Clear 22 1014 59 10000 6.17 260 22:45 16.05.2022
2088 Clear 22 1014 62 10000 6.17 260 22:18 16.05.2022
2089 Clear 22 1014 63 10000 2.57 220 20:56 16.05.2022
2090 Clear 21 1014 63 10000 5.14 240 20:24 16.05.2022
2091 Clouds 19 1015 69 10000 3.09 180 18:39 16.05.2022
2092 Clouds 16 1015 79 10000 2.57 120 16:41 16.05.2022
2093 Clouds 15 1013 83 10000 3.6 130 14:48 16.05.2022
2094 Clouds 16 1014 83 10000 3.6 130 13:27 16.05.2022
2095 Clouds 15 1014 86 10000 3.09 140 12:34 16.05.2022
2096 Clear 16 1014 80 10000 2.57 140 10:34 16.05.2022
2097 Clear 17 1014 73 10000 4.12 110 07:47 16.05.2022
2098 Clear 20 1012 54 10000 4.12 110 05:40 16.05.2022
2099 Clear 27 1013 42 10000 6.69 260 00:44 16.05.2022
2100 Fog 27 1013 45 10000 5.66 260 22:42 15.05.2022
2101 Clear 28 1013 37 10000 4.12 210 21:57 15.05.2022
2102 Clear 28 1013 37 10000 6.69 250 21:36 15.05.2022
2103 Clear 27 1013 38 10000 3.6 150 20:38 15.05.2022
2104 Clear 24 1013 47 10000 2.06 0 18:39 15.05.2022
2105 Clear 20 1013 57 10000 0 0 16:54 15.05.2022
2106 Clear 18 1012 59 10000 1.54 260 14:29 15.05.2022
2107 Clear 19 1012 57 10000 2.06 260 13:45 15.05.2022
2108 Clear 20 1013 54 10000 0 0 11:55 15.05.2022
2109 Clear 20 1013 51 10000 0 0 10:47 15.05.2022
2110 Clear 21 1013 47 10000 2.57 230 09:51 15.05.2022
2111 Clear 23 1013 39 10000 2.06 250 07:23 15.05.2022
2112 Clear 23 1012 37 10000 2.06 230 06:55 15.05.2022
2113 Clear 28 1012 29 10000 5.66 250 03:38 15.05.2022
2114 Clear 32 1013 22 10000 5.14 270 00:26 15.05.2022
2115 Clear 31 1013 24 10000 5.66 270 23:37 14.05.2022
2116 Clear 31 1014 30 10000 4.63 260 21:51 14.05.2022
2117 Clear 31 1014 29 10000 4.63 260 21:26 14.05.2022
2118 Clear 30 1014 29 10000 5.66 260 20:28 14.05.2022
2119 Clear 28 1015 25 10000 1.54 140 19:21 14.05.2022
2120 Clear 28 1015 27 10000 0.45 9 18:58 14.05.2022
2121 Clear 24 1015 38 10000 2.06 120 17:53 14.05.2022
2122 Clear 19 1014 61 10000 2.57 110 16:23 14.05.2022
2123 Clear 19 1014 50 10000 2.06 90 14:41 14.05.2022
2124 Clear 19 1014 51 10000 2.06 90 14:22 14.05.2022
2125 Clear 19 1014 40 10000 2.57 80 11:48 14.05.2022
2126 Clear 19 1014 42 10000 3.09 90 10:45 14.05.2022
2127 Clear 19 1014 43 10000 3.09 90 10:19 14.05.2022
2128 Clear 20 1014 40 10000 2.06 310 09:34 14.05.2022
2129 Clear 21 1014 46 10000 1.54 220 07:43 14.05.2022
2130 Clear 24 1013 37 10000 4.12 200 05:21 14.05.2022
2131 Clear 29 1014 24 10000 5.14 210 01:57 14.05.2022
2132 Clear 29 1015 27 10000 6.69 260 23:28 13.05.2022
2133 Clear 30 1015 25 10000 1.34 201 22:56 13.05.2022
2134 Clear 30 1016 21 10000 4.63 270 22:22 13.05.2022
2135 Clear 28 1016 24 10000 4.63 260 21:24 13.05.2022
2136 Clear 28 1017 24 10000 4.12 260 20:43 13.05.2022
2137 Clear 28 1017 24 10000 4.12 260 20:43 13.05.2022
2138 Clear 27 1017 25 10000 4.12 260 20:22 13.05.2022
2139 Clear 25 1017 29 10000 3.09 270 19:21 13.05.2022
2140 Clear 22 1017 29 10000 3.09 10 17:50 13.05.2022
2141 Clear 21 1017 30 10000 3.09 10 17:24 13.05.2022
2142 Clear 18 1016 43 10000 0 0 15:53 13.05.2022
2143 Clear 17 1016 45 10000 1.54 130 14:47 13.05.2022
2144 Clear 18 1016 37 10000 0 0 12:58 13.05.2022
2145 Clear 18 1016 44 10000 1.54 120 12:25 13.05.2022
2146 Clear 18 1017 39 10000 2.57 110 10:35 13.05.2022
2147 Clear 19 1017 40 10000 2.57 300 09:29 13.05.2022
2148 Clear 19 1018 40 10000 2.06 230 08:20 13.05.2022
2149 Clear 19 1018 41 10000 2.57 220 07:31 13.05.2022
2150 Clear 20 1017 39 10000 5.66 260 05:58 13.05.2022
2151 Clear 26 1018 26 10000 10.29 270 01:49 13.05.2022
2152 Clear 25 1019 26 10000 7.2 260 23:44 12.05.2022
2153 Clear 26 1020 25 10000 6.17 260 22:43 12.05.2022
2154 Smoke 25 1020 24 10000 4.63 260 21:46 12.05.2022
2155 Clear 24 1021 25 10000 3.6 260 20:23 12.05.2022
2156 Clear 21 1021 30 10000 2.57 110 18:41 12.05.2022
2157 Clear 17 1022 41 10000 0 0 16:58 12.05.2022
2158 Clear 14 1021 48 10000 3.09 0 15:50 12.05.2022
2159 Clear 13 1021 46 10000 2.57 40 14:20 12.05.2022
2160 Clear 13 1021 47 10000 2.06 50 13:24 12.05.2022
2161 Clear 15 1021 44 10000 3.09 320 10:43 12.05.2022
2162 Clear 15 1021 39 10000 5.66 310 09:19 12.05.2022
2163 Clear 15 1021 40 10000 7.2 270 08:41 12.05.2022
2164 Clear 16 1021 40 10000 7.72 280 07:37 12.05.2022
2165 Clear 17 1020 35 10000 8.75 280 05:35 12.05.2022
2166 Clear 19 1020 37 10000 12.35 270 02:49 12.05.2022
2167 Clear 20 1019 35 10000 11.32 270 00:33 12.05.2022
2168 Clear 20 1020 32 10000 10.8 280 22:33 11.05.2022
2169 Clear 19 1020 33 10000 8.75 260 21:33 11.05.2022
2170 Clear 19 1020 36 10000 6.69 330 20:55 11.05.2022
2171 Clear 16 1020 46 10000 4.63 330 18:27 11.05.2022
2172 Clear 13 1019 62 10000 1.54 50 16:51 11.05.2022
2173 Clear 13 1019 62 10000 1.54 50 16:51 11.05.2022
2174 Clear 10 1018 71 10000 0 0 14:58 11.05.2022
2175 Clear 11 1018 65 10000 1.54 360 14:38 11.05.2022
2176 Clear 11 1018 66 10000 1.54 360 14:18 11.05.2022
2177 Clear 11 1017 74 10000 2.57 110 11:52 11.05.2022
2178 Clear 12 1018 71 10000 2.06 90 10:32 11.05.2022
2179 Clear 12 1018 64 10000 3.09 240 08:40 11.05.2022
2180 Clear 14 1017 61 10000 10.29 260 05:28 11.05.2022
2181 Clear 20 1018 39 10000 9.77 250 00:43 11.05.2022
2182 Clear 20 1018 43 10000 7.2 260 22:31 10.05.2022
2183 Clear 20 1018 46 10000 3.58 292 21:56 10.05.2022
2184 Clear 19 1019 47 10000 4.63 260 20:57 10.05.2022
2185 Clear 18 1018 48 10000 3.6 220 19:37 10.05.2022
2186 Clear 16 1018 57 10000 0 0 17:58 10.05.2022
2187 Clear 15 1018 60 10000 1.54 130 17:21 10.05.2022
2188 Clear 11 1017 72 10000 0 0 15:31 10.05.2022
2189 Clear 11 1016 76 10000 2.06 90 12:45 10.05.2022
2190 Clear 11 1016 76 10000 1.54 50 11:51 10.05.2022
2191 Clear 11 1016 77 10000 1.54 110 11:20 10.05.2022
2192 Clear 12 1016 74 10000 1.54 10 10:53 10.05.2022
2193 Clear 12 1015 70 10000 3.09 280 09:26 10.05.2022
2194 Clear 13 1015 69 10000 6.69 270 07:22 10.05.2022
2195 Clear 17 1014 52 10000 3.6 260 03:57 10.05.2022
2196 Clear 19 1014 49 10000 7.2 260 01:18 10.05.2022
2197 Clear 19 1015 51 10000 2.57 250 22:57 09.05.2022
2198 Clear 19 1015 51 10000 6.69 250 21:51 09.05.2022
2199 Clear 19 1015 50 10000 4.63 240 20:54 09.05.2022
2200 Clouds 18 1015 52 10000 3.09 210 19:29 09.05.2022
2201 Clear 16 1015 62 10000 3.09 0 17:52 09.05.2022
2202 Clouds 13 1014 66 10000 3.6 340 16:38 09.05.2022
2203 Smoke 12 1014 67 10000 3.09 20 15:52 09.05.2022
2204 Smoke 12 1013 71 10000 3.09 20 15:27 09.05.2022
2205 Smoke 12 1013 77 10000 2.06 350 14:31 09.05.2022
2206 Clear 12 1012 79 10000 2.57 40 13:50 09.05.2022
2207 Clear 12 1012 77 10000 3.09 50 12:26 09.05.2022
2208 Clear 13 1012 76 10000 2.57 70 11:43 09.05.2022
2209 Clear 13 1012 74 10000 2.57 100 10:44 09.05.2022
2210 Clouds 13 1012 75 10000 4.12 90 09:38 09.05.2022
2211 Clear 14 1012 77 10000 3.09 130 07:54 09.05.2022
2212 Clear 18 1011 61 10000 9.26 260 03:40 09.05.2022
2213 Clear 19 1012 61 10000 8.23 250 00:21 09.05.2022
2214 Clear 19 1012 62 10000 5.14 170 22:57 08.05.2022
2215 Clouds 19 1012 62 10000 6.17 220 22:22 08.05.2022
2216 Clouds 18 1013 70 10000 5.14 190 20:37 08.05.2022
2217 Clouds 18 1013 73 10000 3.6 240 19:53 08.05.2022
2218 Clouds 17 1012 76 10000 4.12 200 18:57 08.05.2022
2219 Haze 17 1012 77 9656 4.12 200 18:24 08.05.2022
2220 Clouds 16 1012 83 10000 2.57 240 16:59 08.05.2022
2221 Clouds 15 1011 82 10000 3.09 260 15:41 08.05.2022
2222 Clouds 15 1011 82 10000 3.09 260 15:20 08.05.2022
2223 Clouds 15 1011 82 10000 3.09 260 15:20 08.05.2022
2224 Clouds 16 1011 79 10000 1.54 290 12:41 08.05.2022
2225 Clouds 16 1011 77 10000 2.06 360 10:34 08.05.2022
2226 Clouds 15 1011 78 10000 0 0 09:59 08.05.2022
2227 Clear 16 1012 76 10000 2.57 170 09:33 08.05.2022
2228 Clear 16 1012 73 10000 5.66 120 07:33 08.05.2022
2229 Clear 19 1011 69 10000 5.14 210 04:24 08.05.2022
2230 Clear 20 1011 66 10000 5.66 190 03:20 08.05.2022
2231 Clear 23 1012 61 10000 6.17 260 00:29 08.05.2022
2232 Clear 24 1012 58 10000 5.66 240 23:53 07.05.2022
2233 Clear 23 1013 59 10000 5.14 250 22:57 07.05.2022
2234 Clear 23 1013 59 10000 5.14 250 22:33 07.05.2022
2235 Clear 23 1013 61 10000 5.14 260 21:44 07.05.2022
2236 Clear 22 1014 62 10000 2.57 250 20:56 07.05.2022
2237 Clear 21 1014 64 10000 2.57 0 19:59 07.05.2022
2238 Clouds 19 1014 73 10000 2.57 150 18:38 07.05.2022
2239 Clouds 15 1014 88 10000 0 0 15:58 07.05.2022
2240 Clouds 15 1013 85 10000 2.57 110 14:44 07.05.2022
2241 Clear 16 1013 84 10000 0 0 10:59 07.05.2022
2242 Clear 16 1014 82 10000 1.54 200 09:38 07.05.2022
2243 Clear 17 1014 77 10000 2.57 230 07:54 07.05.2022
2244 Clear 18 1014 74 10000 3.09 250 06:44 07.05.2022
2245 Clear 19 1013 66 10000 3.6 270 05:34 07.05.2022
2246 Clear 22 1013 55 10000 4.63 260 03:32 07.05.2022
2247 Clear 25 1015 54 10000 5.66 180 23:38 06.05.2022
2248 Clear 25 1015 54 10000 5.14 260 22:32 06.05.2022
2249 Clear 24 1015 55 10000 4.63 240 21:47 06.05.2022
2250 Clear 24 1016 52 10000 3.6 260 20:35 06.05.2022
2251 Clear 22 1015 56 10000 2.57 270 19:42 06.05.2022
2252 Clear 21 1015 59 10000 2.57 270 19:18 06.05.2022
2253 Haze 20 1016 67 9656 3.09 130 18:24 06.05.2022
2254 Haze 17 1015 78 10000 0 0 16:57 06.05.2022
2255 Clear 16 1015 77 10000 1.54 110 15:47 06.05.2022
2256 Clear 15 1015 72 10000 1.54 40 14:54 06.05.2022
2257 Clear 15 1015 80 10000 1.54 30 13:26 06.05.2022
2258 Clear 15 1015 79 10000 1.54 90 12:40 06.05.2022
2259 Clear 16 1015 73 10000 0 0 11:45 06.05.2022
2260 Clear 16 1016 77 10000 0 0 10:34 06.05.2022
2261 Clear 16 1016 75 10000 2.06 240 09:46 06.05.2022
2262 Clouds 17 1016 76 10000 3.09 250 08:43 06.05.2022
2263 Clouds 19 1016 68 10000 3.6 240 06:50 06.05.2022
2264 Fog 20 1015 65 10000 6.17 270 05:48 06.05.2022
2265 Clear 24 1015 50 10000 6.17 250 02:51 06.05.2022
2266 Clear 24 1015 51 10000 5.66 260 01:31 06.05.2022
2267 Clear 24 1016 59 10000 6.69 260 22:45 05.05.2022
2268 Haze 23 1017 60 9656 5.14 260 21:31 05.05.2022
2269 Haze 22 1017 64 8047 4.12 200 20:26 05.05.2022
2270 Haze 18 1017 83 6437 1.54 250 18:36 05.05.2022
2271 Mist 15 1016 87 6437 1.54 280 16:40 05.05.2022
2272 Mist 14 1015 89 8047 2.06 240 14:53 05.05.2022
2273 Mist 14 1015 86 10000 2.06 270 13:25 05.05.2022
2274 Clouds 15 1015 88 10000 2.06 260 12:53 05.05.2022
2275 Clear 15 1015 79 10000 1.54 250 10:52 05.05.2022
2276 Clear 16 1015 75 10000 2.06 170 09:40 05.05.2022
2277 Clear 17 1014 67 10000 4.12 250 07:36 05.05.2022
2278 Clear 20 1013 64 10000 3.6 240 05:42 05.05.2022
2279 Clear 24 1013 54 10000 0.89 229 01:59 05.05.2022
2280 Clear 25 1013 55 10000 6.69 250 01:32 05.05.2022
2281 Clear 26 1013 53 10000 1.34 300 23:53 04.05.2022
2282 Clear 25 1014 53 10000 5.66 270 22:46 04.05.2022
2283 Clear 24 1014 56 10000 4.63 260 21:54 04.05.2022
2284 Clear 24 1014 57 10000 4.63 260 21:29 04.05.2022
2285 Clear 22 1015 59 10000 3.6 210 20:27 04.05.2022
2286 Clear 22 1015 61 10000 1.34 196 19:55 04.05.2022
2287 Clear 20 1015 67 10000 2.57 210 19:24 04.05.2022
2288 Haze 18 1015 75 10000 2.06 0 18:22 04.05.2022
2289 Haze 17 1015 75 10000 1.54 0 17:58 04.05.2022
2290 Mist 14 1014 87 10000 2.06 100 15:42 04.05.2022
2291 Mist 13 1014 88 10000 2.06 100 15:24 04.05.2022
2292 Clouds 13 1013 86 10000 2.06 90 14:21 04.05.2022
2293 Clouds 13 1013 86 10000 1.54 0 13:49 04.05.2022
2294 Clear 14 1013 84 10000 0 0 12:34 04.05.2022
2295 Clear 14 1014 84 10000 0 0 10:43 04.05.2022
2296 Clear 14 1014 83 10000 1.54 0 09:45 04.05.2022
2297 Clear 15 1014 82 10000 1.54 200 08:49 04.05.2022
2298 Clear 15 1013 80 10000 1.54 200 07:33 04.05.2022
2299 Clear 20 1012 66 10000 3.09 260 02:59 04.05.2022
2300 Clear 21 1012 62 10000 7.2 260 01:41 04.05.2022
2301 Clouds 21 1013 62 10000 5.14 230 22:54 03.05.2022
2302 Clouds 20 1014 61 10000 4.12 260 21:47 03.05.2022
2303 Clouds 20 1014 64 10000 4.12 260 21:20 03.05.2022
2304 Clouds 19 1014 65 10000 4.63 130 20:38 03.05.2022
2305 Clouds 18 1014 70 10000 2.57 140 18:55 03.05.2022
2306 Clouds 18 1014 73 10000 2.06 130 18:37 03.05.2022
2307 Clouds 16 1014 77 10000 2.06 180 17:19 03.05.2022
2308 Clouds 15 1013 83 10000 2.06 140 15:48 03.05.2022
2309 Clouds 15 1012 83 10000 2.06 110 14:22 03.05.2022
2310 Clouds 15 1013 82 10000 2.06 150 12:31 03.05.2022
2311 Clouds 15 1013 82 10000 2.06 130 11:23 03.05.2022
2312 Clouds 14 1014 84 10000 0 0 10:25 03.05.2022
2313 Clear 14 1013 83 10000 1.54 150 08:18 03.05.2022
2314 Clear 15 1013 80 10000 3.09 270 06:45 03.05.2022
2315 Clouds 21 1012 63 10000 7.72 270 01:56 03.05.2022
2316 Clouds 22 1014 60 10000 5.66 230 22:47 02.05.2022
2317 Clouds 21 1014 61 10000 5.66 230 22:28 02.05.2022
2318 Clouds 20 1015 63 10000 5.14 220 21:27 02.05.2022
2319 Clouds 18 1016 72 10000 3.6 180 19:22 02.05.2022
2320 Clouds 17 1015 74 10000 3.09 200 18:25 02.05.2022
2321 Clouds 16 1015 77 10000 2.57 140 17:38 02.05.2022
2322 Clouds 16 1015 78 10000 3.09 0 16:37 02.05.2022
2323 Clouds 15 1014 76 10000 2.57 150 15:41 02.05.2022
2324 Clouds 15 1013 79 10000 3.6 190 14:27 02.05.2022
2325 Clouds 15 1013 76 10000 2.06 160 13:19 02.05.2022
2326 Clouds 16 1014 79 10000 2.57 120 11:41 02.05.2022
2327 Clouds 16 1014 79 10000 3.09 120 09:42 02.05.2022
2328 Clouds 16 1013 78 10000 3.6 150 08:20 02.05.2022
2329 Clouds 16 1012 75 10000 3.09 180 06:31 02.05.2022
2330 Clear 22 1010 59 10000 5.66 210 00:44 02.05.2022
2331 Clear 22 1010 59 10000 5.66 210 00:21 02.05.2022
2332 Clear 23 1010 60 10000 4.02 292 22:54 01.05.2022
2333 Clear 22 1011 57 10000 5.14 190 21:42 01.05.2022
2334 Clear 20 1011 62 10000 4.12 250 20:30 01.05.2022
2335 Clouds 19 1011 67 10000 3.09 0 19:21 01.05.2022
2336 Clouds 18 1010 71 10000 2.57 160 18:52 01.05.2022
2337 Clouds 17 1010 77 10000 2.57 150 17:49 01.05.2022
2338 Clouds 15 1010 82 10000 2.57 130 16:37 01.05.2022
2339 Mist 14 1009 85 10000 1.54 170 15:51 01.05.2022
2340 Mist 13 1009 84 10000 0 0 14:45 01.05.2022
2341 Mist 14 1009 83 10000 2.06 100 12:24 01.05.2022
2342 Clear 15 1011 78 10000 2.06 360 10:22 01.05.2022
2343 Clear 15 1011 77 10000 0 0 08:50 01.05.2022
2344 Clear 16 1011 68 10000 2.57 90 06:50 01.05.2022
2345 Clear 24 1010 50 10000 3.09 270 01:56 01.05.2022
2346 Clear 25 1012 48 10000 4.63 250 22:51 30.04.2022
2347 Clear 24 1013 50 10000 4.63 260 21:33 30.04.2022
2348 Clear 23 1014 53 10000 4.63 270 20:19 30.04.2022
2349 Clear 21 1013 57 10000 4.12 260 19:25 30.04.2022
2350 Clear 17 1014 73 10000 1.54 310 17:32 30.04.2022
2351 Clouds 13 1013 82 10000 0.31 164 15:53 30.04.2022
2352 Clear 13 1014 81 10000 0 0 15:19 30.04.2022
2353 Clear 13 1014 83 10000 0 0 14:19 30.04.2022
2354 Clear 13 1014 86 10000 0 0 11:58 30.04.2022
2355 Clear 14 1015 81 10000 0 0 11:31 30.04.2022
2356 Clear 14 1015 84 10000 1.54 100 10:25 30.04.2022
2357 Clear 15 1015 81 10000 3.09 130 08:25 30.04.2022
2358 Clear 17 1013 72 10000 2.06 260 04:58 30.04.2022
2359 Clear 23 1014 51 10000 6.69 250 00:25 30.04.2022
2360 Clear 23 1015 51 10000 3.6 200 22:56 29.04.2022
2361 Clear 21 1016 51 10000 6.17 260 22:21 29.04.2022
2362 Clear 20 1016 55 10000 6.17 260 21:26 29.04.2022
2363 Clear 19 1017 56 10000 3.6 230 20:24 29.04.2022
2364 Clouds 18 1017 61 10000 2.57 0 19:28 29.04.2022
2365 Haze 15 1017 76 8047 2.06 60 17:37 29.04.2022
2366 Clouds 13 1016 81 10000 2.06 70 16:43 29.04.2022
2367 Clouds 12 1016 82 10000 1.54 80 14:38 29.04.2022
2368 Clear 11 1015 82 10000 0 0 13:52 29.04.2022
2369 Clear 12 1015 82 10000 1.54 140 12:38 29.04.2022
2370 Clear 12 1015 82 10000 3.09 130 10:56 29.04.2022
2371 Clear 13 1015 78 10000 3.6 240 07:58 29.04.2022
2372 Clear 14 1015 77 10000 3.6 240 07:26 29.04.2022
2373 Clear 14 1015 75 10000 3.6 240 06:33 29.04.2022
2374 Clear 18 1014 62 10000 8.23 260 02:50 29.04.2022
2375 Clouds 19 1015 61 10000 6.69 260 00:18 29.04.2022
2376 Clouds 19 1015 62 10000 6.17 250 23:26 28.04.2022
2377 Clouds 19 1016 62 10000 6.17 250 22:37 28.04.2022
2378 Clouds 18 1016 65 10000 5.66 270 21:44 28.04.2022
2379 Clouds 17 1017 67 10000 6.69 250 20:49 28.04.2022
2380 Clouds 17 1016 68 10000 3.6 180 19:57 28.04.2022
2381 Clouds 17 1016 68 10000 3.6 180 19:39 28.04.2022
2382 Clouds 16 1016 69 10000 3.09 220 19:19 28.04.2022
2383 Clouds 15 1016 77 10000 3.09 80 17:56 28.04.2022
2384 Clouds 14 1015 81 10000 2.57 300 16:59 28.04.2022
2385 Haze 14 1015 79 10000 3.6 310 16:21 28.04.2022
2386 Clouds 14 1015 79 10000 4.12 260 15:56 28.04.2022
2387 Clouds 14 1015 81 10000 4.12 260 15:21 28.04.2022
2388 Clouds 14 1015 81 10000 3.6 90 13:43 28.04.2022
2389 Clouds 14 1015 78 10000 4.12 110 12:34 28.04.2022
2390 Clouds 14 1015 82 10000 3.6 130 11:51 28.04.2022
2391 Clouds 14 1015 83 10000 4.12 140 10:30 28.04.2022
2392 Clouds 14 1015 85 10000 2.06 180 09:51 28.04.2022
2393 Clouds 14 1015 84 10000 2.06 240 08:20 28.04.2022
2394 Clouds 15 1015 81 10000 0 0 06:56 28.04.2022
2395 Clear 15 1014 75 10000 0.89 157 05:54 28.04.2022
2396 Clear 17 1014 71 10000 4.63 270 04:44 28.04.2022
2397 Clear 19 1014 66 10000 5.66 210 03:40 28.04.2022
2398 Clouds 22 1014 59 10000 6.69 250 23:52 27.04.2022
2399 Clouds 22 1014 58 10000 4.63 130 22:34 27.04.2022
2400 Clouds 22 1015 56 10000 5.14 220 21:51 27.04.2022
2401 Clouds 21 1015 56 10000 2.57 100 20:56 27.04.2022
2402 Clouds 20 1015 59 10000 4.12 120 20:34 27.04.2022
2403 Clouds 20 1015 59 10000 4.12 120 20:34 27.04.2022
2404 Clouds 19 1015 63 10000 3.6 140 19:37 27.04.2022
2405 Clouds 18 1015 67 10000 5.14 80 18:52 27.04.2022
2406 Clouds 17 1015 71 10000 5.14 80 18:22 27.04.2022
2407 Haze 15 1014 77 9656 4.12 150 16:27 27.04.2022
2408 Clouds 13 1013 84 10000 3.09 110 14:26 27.04.2022
2409 Clear 14 1013 73 10000 3.09 200 11:45 27.04.2022
2410 Clear 14 1013 74 10000 3.09 200 11:20 27.04.2022
2411 Clear 16 1013 73 10000 6.69 230 08:58 27.04.2022
2412 Clear 16 1013 71 10000 3.09 260 07:18 27.04.2022
2413 Clear 20 1011 57 10000 4.12 240 04:21 27.04.2022
2414 Clear 24 1011 46 10000 5.66 260 01:31 27.04.2022
2415 Clear 25 1012 44 10000 5.66 260 00:36 27.04.2022
2416 Clear 26 1012 35 10000 4.63 210 23:25 26.04.2022
2417 Clear 26 1012 35 10000 0.89 299 22:58 26.04.2022
2418 Clear 26 1013 36 10000 5.14 270 22:39 26.04.2022
2419 Clear 25 1013 41 10000 4.12 140 21:35 26.04.2022
2420 Clear 24 1014 40 10000 4.12 150 20:41 26.04.2022
2421 Clear 23 1014 44 10000 2.57 100 19:53 26.04.2022
2422 Clear 22 1014 46 10000 2.57 100 19:32 26.04.2022
2423 Clear 20 1014 55 10000 2.06 100 18:45 26.04.2022
2424 Clear 19 1014 55 10000 0 0 17:59 26.04.2022
2425 Clear 16 1013 71 10000 2.57 80 16:49 26.04.2022
2426 Clear 16 1013 53 10000 2.06 80 14:27 26.04.2022
2427 Clear 17 1013 55 10000 1.54 90 13:33 26.04.2022
2428 Clear 17 1013 48 10000 2.06 170 11:55 26.04.2022
2429 Clear 18 1014 46 10000 1.54 210 10:37 26.04.2022
2430 Clear 19 1013 38 10000 2.06 230 09:25 26.04.2022
2431 Clear 21 1013 30 10000 3.09 280 07:38 26.04.2022
2432 Clear 24 1013 29 10000 5.14 260 04:33 26.04.2022
2433 Clear 28 1013 24 10000 7.72 260 01:30 26.04.2022
2434 Clear 28 1014 22 10000 6.17 250 00:26 26.04.2022
2435 Clear 29 1015 20 10000 7.2 260 22:36 25.04.2022
2436 Clear 30 1015 18 10000 5.14 260 21:42 25.04.2022
2437 Clear 29 1016 18 10000 3.6 120 20:40 25.04.2022
2438 Clear 26 1016 22 10000 1.54 0 18:58 25.04.2022
2439 Clear 23 1016 34 10000 2.06 70 17:54 25.04.2022
2440 Clear 20 1015 43 10000 1.54 30 16:59 25.04.2022
2441 Clear 17 1015 34 10000 2.06 50 15:29 25.04.2022
2442 Clear 17 1015 40 10000 2.57 50 14:46 25.04.2022
2443 Clear 18 1015 38 10000 2.06 40 13:35 25.04.2022
2444 Clear 18 1015 38 10000 2.57 80 11:43 25.04.2022
2445 Clear 19 1015 38 10000 1.54 90 10:26 25.04.2022
2446 Clear 19 1016 38 10000 3.09 240 08:46 25.04.2022
2447 Clear 21 1015 32 10000 5.14 270 06:45 25.04.2022
2448 Clear 23 1014 33 10000 8.75 260 04:33 25.04.2022
2449 Clear 28 1014 21 10000 4.63 190 00:58 25.04.2022
2450 Clear 30 1015 20 10000 5.66 240 23:51 24.04.2022
2451 Clear 29 1016 18 10000 4.63 250 22:49 24.04.2022
2452 Clear 29 1016 19 10000 4.63 250 22:29 24.04.2022
2453 Clear 28 1016 19 10000 4.12 220 21:41 24.04.2022
2454 Clear 28 1017 20 10000 4.12 220 21:18 24.04.2022
2455 Clear 27 1017 23 10000 2.06 160 20:35 24.04.2022
2456 Clear 26 1017 28 10000 2.06 0 19:48 24.04.2022
2457 Clear 22 1016 36 10000 2.57 80 18:20 24.04.2022
2458 Clear 19 1016 46 10000 2.06 10 17:29 24.04.2022
2459 Clear 19 1016 52 10000 0 0 16:59 24.04.2022
2460 Haze 16 1015 57 9656 2.06 80 16:35 24.04.2022
2461 Haze 16 1016 52 9656 0.45 74 15:55 24.04.2022
2462 Clear 16 1015 52 10000 4.12 220 15:31 24.04.2022
2463 Clear 16 1015 52 10000 4.12 220 15:31 24.04.2022
2464 Clear 16 1015 54 10000 0.45 341 13:58 24.04.2022
2465 Clear 16 1015 55 10000 1.54 100 13:25 24.04.2022
2466 Clear 16 1015 55 10000 1.54 100 13:25 24.04.2022
2467 Clear 17 1015 50 10000 2.06 70 12:32 24.04.2022
2468 Clear 17 1015 49 10000 4.12 280 11:33 24.04.2022
2469 Clear 17 1016 49 10000 2.57 290 10:27 24.04.2022
2470 Clear 18 1015 53 10000 3.6 260 09:26 24.04.2022
2471 Clear 18 1015 54 10000 2.57 270 06:45 24.04.2022
2472 Clear 21 1015 50 10000 7.72 250 03:55 24.04.2022
2473 Clear 22 1015 50 10000 7.2 240 01:38 24.04.2022
2474 Clear 22 1015 50 10000 7.2 240 01:38 24.04.2022
2475 Clear 22 1016 53 10000 9.26 260 00:29 24.04.2022
2476 Clear 22 1017 51 10000 7.2 260 23:44 23.04.2022
2477 Clear 22 1017 53 10000 6.17 250 23:21 23.04.2022
2478 Clear 22 1018 55 10000 4.63 270 21:51 23.04.2022
2479 Clear 21 1018 54 10000 4.63 270 21:33 23.04.2022
2480 Clear 20 1019 57 10000 4.12 260 20:51 23.04.2022
2481 Clear 18 1019 61 10000 1.54 0 19:47 23.04.2022
2482 Clear 18 1019 63 10000 1.54 0 19:19 23.04.2022
2483 Clear 17 1019 69 10000 2.06 0 18:52 23.04.2022
2484 Clouds 15 1019 79 10000 2.57 70 17:51 23.04.2022
2485 Clouds 14 1019 79 10000 2.57 70 17:26 23.04.2022
2486 Clouds 13 1019 78 10000 2.06 130 16:41 23.04.2022
2487 Clouds 11 1019 84 10000 3.09 60 15:20 23.04.2022
2488 Clear 11 1018 80 10000 3.09 100 12:44 23.04.2022
2489 Clear 12 1018 79 10000 3.09 70 10:44 23.04.2022
2490 Clear 12 1018 79 10000 2.57 70 09:33 23.04.2022
2491 Clear 14 1017 76 10000 5.66 260 06:32 23.04.2022
2492 Clear 16 1016 64 10000 2.57 250 03:54 23.04.2022
2493 Clear 18 1015 59 10000 3.09 250 00:57 23.04.2022
2494 Clear 18 1016 59 10000 12.35 250 23:29 22.04.2022
2495 Clear 18 1017 61 10000 12.35 250 22:20 22.04.2022
2496 Clouds 18 1017 60 10000 11.32 260 21:43 22.04.2022
2497 Clouds 17 1017 65 10000 11.32 270 20:47 22.04.2022
2498 Clouds 17 1017 66 10000 11.32 270 20:27 22.04.2022
2499 Clouds 16 1017 69 10000 8.75 270 19:20 22.04.2022
2500 Clear 15 1016 73 10000 4.63 260 18:41 22.04.2022
2501 Clouds 14 1016 79 10000 4.63 270 17:40 22.04.2022
2502 Clouds 13 1015 84 10000 5.14 280 16:46 22.04.2022
2503 Clouds 12 1015 88 10000 9.77 270 15:42 22.04.2022
2504 Clouds 12 1014 89 10000 6.69 250 14:46 22.04.2022
2505 Clouds 13 1015 91 10000 5.14 260 13:50 22.04.2022
2506 Clouds 13 1014 92 10000 4.12 280 12:58 22.04.2022
2507 Clouds 13 1014 92 10000 6.17 240 11:50 22.04.2022
2508 Clouds 13 1014 91 10000 6.17 240 11:22 22.04.2022
2509 Mist 13 1015 92 9656 6.69 250 10:50 22.04.2022
2510 Rain 13 1015 91 9656 4.63 250 10:30 22.04.2022
2511 Rain 14 1015 90 2012 6.17 230 09:50 22.04.2022
2512 Rain 15 1015 85 10000 5.66 210 08:50 22.04.2022
2513 Clear 15 1016 86 10000 4.63 230 07:20 22.04.2022
2514 Clouds 17 1016 73 10000 6.69 250 03:30 22.04.2022
2515 Clear 19 1016 64 10000 7.72 250 00:52 22.04.2022
2516 Clear 19 1017 60 10000 7.2 250 23:25 21.04.2022
2517 Clear 19 1017 56 10000 8.75 260 22:29 21.04.2022
2518 Clear 19 1018 55 10000 7.2 230 20:43 21.04.2022
2519 Clear 18 1018 57 10000 7.2 230 20:24 21.04.2022
2520 Clear 16 1017 65 10000 2.57 140 18:44 21.04.2022
2521 Clear 16 1017 67 10000 2.57 140 18:18 21.04.2022
2522 Clear 13 1017 78 10000 1.54 100 16:47 21.04.2022
2523 Clear 11 1016 82 10000 1.54 100 15:22 21.04.2022
2524 Clear 11 1016 83 10000 2.06 0 14:50 21.04.2022
2525 Clear 11 1016 83 10000 2.06 350 13:24 21.04.2022
2526 Clear 11 1016 84 10000 0 0 12:59 21.04.2022
2527 Clear 12 1016 83 10000 1.54 0 10:57 21.04.2022
2528 Clear 12 1017 78 10000 5.66 240 08:57 21.04.2022
2529 Clear 13 1017 77 10000 6.17 230 07:49 21.04.2022
2530 Clear 14 1016 71 10000 7.2 250 05:44 21.04.2022
2531 Clear 17 1015 60 10000 7.2 260 03:33 21.04.2022
2532 Clear 18 1015 60 10000 5.14 250 02:48 21.04.2022
2533 Clear 18 1015 60 10000 5.14 250 02:48 21.04.2022
2534 Clear 19 1015 57 10000 6.69 170 01:41 21.04.2022
2535 Clear 20 1016 58 10000 5.14 240 23:51 20.04.2022
2536 Clear 20 1016 60 10000 5.14 240 23:23 20.04.2022
2537 Clear 20 1016 62 10000 7.2 240 22:51 20.04.2022
2538 Clouds 19 1016 63 10000 7.2 240 22:32 20.04.2022
2539 Clouds 19 1016 63 10000 7.2 240 22:32 20.04.2022
2540 Clouds 19 1016 64 10000 6.69 240 21:33 20.04.2022
2541 Clouds 19 1016 66 10000 5.66 160 20:41 20.04.2022
2542 Clouds 18 1016 67 10000 5.14 140 19:53 20.04.2022
2543 Clouds 17 1016 69 10000 5.14 140 19:25 20.04.2022
2544 Clouds 17 1016 73 10000 4.63 150 18:26 20.04.2022
2545 Clear 15 1016 80 10000 4.12 130 16:58 20.04.2022
2546 Clear 14 1015 82 10000 3.09 100 16:38 20.04.2022
2547 Clouds 14 1015 84 10000 1.54 80 14:48 20.04.2022
2548 Clouds 14 1015 83 10000 2.06 0 11:56 20.04.2022
2549 Clouds 14 1015 82 10000 3.09 130 11:33 20.04.2022
2550 Clouds 14 1015 82 10000 3.6 100 10:29 20.04.2022
2551 Clear 14 1014 83 10000 3.6 140 09:27 20.04.2022
2552 Clear 14 1013 84 10000 2.57 200 08:24 20.04.2022
2553 Clear 15 1013 82 10000 3.6 240 07:43 20.04.2022
2554 Clear 17 1012 74 10000 5.66 260 04:49 20.04.2022
2555 Clear 21 1013 58 10000 6.17 210 01:20 20.04.2022
2556 Clear 22 1014 54 10000 6.17 240 00:20 20.04.2022
2557 Clear 22 1014 55 10000 7.2 250 22:44 19.04.2022
2558 Clear 21 1014 56 10000 7.2 250 22:22 19.04.2022
2559 Clear 21 1015 57 10000 7.2 250 21:38 19.04.2022
2560 Clear 21 1015 56 10000 4.12 260 20:56 19.04.2022
2561 Clear 21 1015 57 10000 4.12 260 20:36 19.04.2022
2562 Clear 19 1015 60 10000 3.09 0 19:31 19.04.2022
2563 Clear 18 1015 67 10000 2.06 230 18:26 19.04.2022
2564 Clear 15 1014 78 10000 2.57 110 16:47 19.04.2022
2565 Clear 14 1014 78 10000 2.06 180 16:24 19.04.2022
2566 Clear 14 1014 78 10000 2.57 150 15:23 19.04.2022
2567 Clear 14 1014 77 10000 0 0 14:40 19.04.2022
2568 Clear 14 1014 75 10000 2.57 130 12:52 19.04.2022
2569 Clear 14 1014 73 10000 2.57 130 12:29 19.04.2022
2570 Clear 15 1015 75 10000 3.09 260 11:23 19.04.2022
2571 Clear 16 1015 69 10000 3.6 230 09:28 19.04.2022
2572 Clear 17 1015 68 10000 6.17 250 07:37 19.04.2022
2573 Clear 19 1015 60 10000 6.69 240 04:23 19.04.2022
2574 Clear 22 1016 56 10000 5.66 270 01:24 19.04.2022
2575 Clear 23 1016 54 10000 4.63 260 23:44 18.04.2022
2576 Clear 23 1017 53 10000 2.24 173 21:57 18.04.2022
2577 Clear 22 1017 55 10000 4.12 270 21:25 18.04.2022
2578 Clear 22 1017 56 10000 4.12 210 20:39 18.04.2022
2579 Clear 21 1017 58 10000 1.34 225 19:59 18.04.2022
2580 Clear 20 1017 61 10000 2.57 0 19:32 18.04.2022
2581 Clear 18 1017 66 10000 1.54 110 18:43 18.04.2022
2582 Clear 16 1017 75 10000 2.06 110 17:40 18.04.2022
2583 Clear 15 1017 80 10000 2.06 110 17:19 18.04.2022
2584 Clear 14 1017 85 10000 0 0 16:38 18.04.2022
2585 Clear 12 1017 85 10000 1.54 50 15:30 18.04.2022
2586 Clear 13 1017 83 10000 0 0 14:22 18.04.2022
2587 Clear 13 1017 76 10000 0 0 12:54 18.04.2022
2588 Clear 13 1017 79 10000 0 0 12:23 18.04.2022
2589 Clear 13 1017 84 10000 2.06 70 10:46 18.04.2022
2590 Clouds 14 1017 83 10000 5.14 270 09:32 18.04.2022
2591 Clouds 14 1018 81 10000 4.63 240 08:46 18.04.2022
2592 Clear 15 1017 73 10000 3.6 120 06:52 18.04.2022
2593 Clear 20 1017 61 10000 6.17 260 02:45 18.04.2022
2594 Clear 21 1019 59 10000 7.2 270 23:23 17.04.2022
2595 Clear 21 1019 59 10000 5.66 250 22:37 17.04.2022
2596 Clear 20 1020 61 10000 5.14 240 21:34 17.04.2022
2597 Clouds 20 1021 63 10000 5.14 260 20:52 17.04.2022
2598 Clouds 19 1021 66 10000 5.14 260 20:19 17.04.2022
2599 Clouds 17 1022 73 10000 0.89 214 18:58 17.04.2022
2600 Clear 15 1022 80 10000 0.45 247 17:31 17.04.2022
2601 Clouds 13 1021 87 10000 2.06 20 15:37 17.04.2022
2602 Clouds 13 1021 88 10000 3.6 260 14:46 17.04.2022
2603 Clouds 13 1021 88 10000 2.57 230 13:37 17.04.2022
2604 Clouds 13 1021 87 10000 3.6 250 12:49 17.04.2022
2605 Clouds 13 1020 86 10000 2.57 230 10:59 17.04.2022
2606 Clear 13 1020 85 10000 3.6 250 10:30 17.04.2022
2607 Clear 13 1020 86 10000 0 0 09:57 17.04.2022
2608 Clear 13 1020 84 10000 4.63 260 09:21 17.04.2022
2609 Clear 13 1020 85 10000 4.63 270 08:41 17.04.2022
2610 Clear 14 1019 81 10000 7.72 250 06:32 17.04.2022
2611 Clouds 19 1018 66 10000 11.32 250 02:31 17.04.2022
2612 Clouds 19 1019 66 10000 11.32 250 00:43 17.04.2022
2613 Clear 19 1020 62 10000 7.2 270 23:41 16.04.2022
2614 Clouds 18 1020 65 10000 5.14 260 21:54 16.04.2022
2615 Clouds 18 1020 65 10000 5.14 260 21:19 16.04.2022
2616 Clouds 17 1020 70 10000 5.14 240 19:33 16.04.2022
2617 Clouds 15 1019 74 10000 5.66 290 18:45 16.04.2022
2618 Clouds 14 1019 82 10000 4.63 290 17:21 16.04.2022
2619 Clouds 13 1018 84 10000 3.6 270 16:31 16.04.2022
2620 Clouds 13 1017 85 10000 2.57 170 15:23 16.04.2022
2621 Clouds 13 1017 83 10000 1.54 40 14:43 16.04.2022
2622 Clouds 13 1017 86 10000 2.57 310 13:55 16.04.2022
2623 Clouds 13 1017 88 10000 2.57 310 13:24 16.04.2022
2624 Clear 13 1017 88 10000 2.06 230 11:58 16.04.2022
2625 Clouds 13 1017 89 10000 3.09 230 10:37 16.04.2022
2626 Clear 13 1016 87 10000 3.09 210 09:39 16.04.2022
2627 Clear 13 1016 85 10000 2.57 120 08:54 16.04.2022
2628 Clear 14 1016 83 10000 3.6 240 07:31 16.04.2022
2629 Clear 15 1015 76 10000 2.57 180 06:18 16.04.2022
2630 Clear 20 1014 60 10000 1.54 0 01:53 16.04.2022
2631 Clear 21 1014 58 10000 8.23 250 00:19 16.04.2022
2632 Clear 21 1014 57 10000 5.66 240 22:52 15.04.2022
2633 Clear 21 1015 58 10000 5.66 240 22:31 15.04.2022
2634 Clear 20 1015 55 10000 4.63 220 21:35 15.04.2022
2635 Clear 20 1016 55 10000 0.89 242 20:55 15.04.2022
2636 Clear 19 1016 58 10000 2.06 120 19:52 15.04.2022
2637 Clear 18 1016 60 10000 2.06 160 19:33 15.04.2022
2638 Clear 17 1016 67 10000 3.6 150 18:45 15.04.2022
2639 Clear 16 1016 68 10000 3.6 150 18:23 15.04.2022
2640 Clear 14 1016 74 10000 2.57 20 17:29 15.04.2022
2641 Clear 12 1015 78 10000 2.06 110 16:26 15.04.2022
2642 Clouds 11 1015 80 10000 2.06 80 15:59 15.04.2022
2643 Clouds 11 1014 82 10000 2.06 80 14:30 15.04.2022
2644 Clear 12 1014 82 10000 2.06 100 13:23 15.04.2022
2645 Clear 12 1014 82 10000 1.54 110 12:40 15.04.2022
2646 Clear 12 1014 79 10000 2.06 120 11:54 15.04.2022
2647 Clear 12 1014 75 10000 0 0 10:53 15.04.2022
2648 Clear 13 1015 75 10000 2.06 250 10:24 15.04.2022
2649 Clear 13 1015 78 10000 4.12 260 09:38 15.04.2022
2650 Clear 13 1015 73 10000 4.12 260 09:18 15.04.2022
2651 Clear 14 1014 68 10000 6.69 280 06:56 15.04.2022
2652 Clear 15 1014 63 10000 7.2 280 05:57 15.04.2022
2653 Clear 20 1014 43 10000 7.2 260 01:49 15.04.2022
2654 Clear 21 1015 46 10000 6.69 260 23:30 14.04.2022
2655 Clear 20 1016 50 10000 6.69 260 22:47 14.04.2022
2656 Clear 20 1016 49 10000 6.69 260 22:28 14.04.2022
2657 Clear 20 1016 45 10000 2.57 230 21:57 14.04.2022
2658 Clear 19 1017 45 10000 5.14 260 20:35 14.04.2022
2659 Clear 18 1017 48 10000 2.57 110 19:22 14.04.2022
2660 Clear 16 1017 53 10000 2.06 90 18:18 14.04.2022
2661 Clear 14 1017 61 10000 1.54 70 17:28 14.04.2022
2662 Clear 12 1017 71 10000 1.54 0 16:33 14.04.2022
2663 Clear 11 1016 75 10000 3.09 80 14:28 14.04.2022
2664 Clear 11 1017 75 10000 2.57 100 13:45 14.04.2022
2665 Clear 11 1017 74 10000 2.06 130 12:51 14.04.2022
2666 Clear 12 1017 76 10000 2.06 130 12:31 14.04.2022
2667 Clear 12 1018 75 10000 1.54 130 11:24 14.04.2022
2668 Clear 12 1018 76 10000 3.09 250 10:41 14.04.2022
2669 Clear 12 1018 71 10000 0 0 09:57 14.04.2022
2670 Clear 13 1018 72 10000 5.14 250 08:54 14.04.2022
2671 Clear 13 1018 62 10000 4.63 280 06:53 14.04.2022
2672 Clear 18 1018 37 10000 6.17 250 03:28 14.04.2022
2673 Clear 20 1019 30 10000 6.17 280 23:25 13.04.2022
2674 Clear 20 1020 32 10000 7.2 270 22:20 13.04.2022
2675 Clear 19 1020 31 10000 6.69 250 21:36 13.04.2022
2676 Clear 19 1020 25 10000 5.14 130 20:22 13.04.2022
2677 Clear 18 1020 25 10000 4.12 30 19:36 13.04.2022
2678 Clear 16 1020 31 10000 5.14 330 18:27 13.04.2022
2679 Clear 13 1019 37 10000 5.14 340 17:24 13.04.2022
2680 Clear 12 1019 39 10000 7.72 300 16:37 13.04.2022
2681 Clear 11 1019 36 10000 6.69 320 15:41 13.04.2022
2682 Clear 11 1018 35 10000 6.69 340 14:51 13.04.2022
2683 Clear 12 1018 32 10000 6.69 340 14:28 13.04.2022
2684 Clear 12 1018 32 10000 5.66 320 13:29 13.04.2022
2685 Clear 13 1018 30 10000 5.66 300 12:30 13.04.2022
2686 Clear 13 1019 27 10000 8.23 360 10:55 13.04.2022
2687 Clear 14 1019 25 10000 6.69 360 09:45 13.04.2022
2688 Clear 14 1019 24 10000 5.66 350 08:43 13.04.2022
2689 Clear 14 1018 23 10000 5.66 350 07:18 13.04.2022
2690 Clear 14 1018 22 10000 5.14 360 06:46 13.04.2022
2691 Clear 15 1018 22 10000 5.14 360 06:18 13.04.2022
2692 Clear 19 1016 25 10000 12.35 260 00:24 13.04.2022
2693 Haze 19 1016 25 10000 12.35 260 23:46 12.04.2022
2694 Clear 19 1017 21 10000 10.29 340 22:20 12.04.2022
2695 Clear 18 1017 22 10000 9.26 340 21:39 12.04.2022
2696 Clear 17 1017 24 10000 9.26 330 20:42 12.04.2022
2697 Clear 16 1016 27 10000 4.63 340 19:54 12.04.2022
2698 Clear 16 1016 29 10000 12.35 330 19:33 12.04.2022
2699 Clear 14 1016 34 10000 11.32 330 18:50 12.04.2022
2700 Clear 14 1016 34 10000 11.32 330 18:50 12.04.2022
2701 Clear 12 1016 40 10000 7.72 360 17:34 12.04.2022
2702 Clear 11 1015 45 10000 9.26 340 16:32 12.04.2022
2703 Clear 10 1014 46 10000 9.26 330 15:33 12.04.2022
2704 Clouds 11 1013 46 10000 10.29 340 14:33 12.04.2022
2705 Clouds 11 1013 50 10000 7.2 360 13:39 12.04.2022
2706 Clouds 12 1013 56 10000 2.57 360 12:59 12.04.2022
2707 Clouds 13 1012 63 10000 6.17 360 11:47 12.04.2022
2708 Clouds 13 1012 61 10000 6.17 360 11:24 12.04.2022
2709 Clouds 13 1011 79 10000 8.75 270 09:25 12.04.2022
2710 Clouds 13 1011 79 10000 8.23 270 08:26 12.04.2022
2711 Clouds 14 1010 81 10000 11.32 270 06:33 12.04.2022
2712 Clouds 15 1010 80 10000 8.23 250 05:38 12.04.2022
2713 Clouds 18 1011 65 10000 10.29 250 01:47 12.04.2022
2714 Clouds 18 1012 66 10000 6.69 270 23:20 11.04.2022
2715 Clouds 18 1013 66 10000 6.17 220 21:50 11.04.2022
2716 Clouds 18 1013 66 10000 6.17 220 21:18 11.04.2022
2717 Clouds 18 1013 68 10000 5.14 220 20:30 11.04.2022
2718 Clouds 18 1014 72 10000 3.6 210 19:58 11.04.2022
2719 Mist 17 1014 73 10000 4.63 210 19:25 11.04.2022
2720 Clouds 17 1013 75 10000 2.57 240 18:52 11.04.2022
2721 Clouds 16 1013 80 10000 2.57 210 17:57 11.04.2022
2722 Clouds 16 1013 81 10000 4.12 200 17:30 11.04.2022
2723 Clouds 15 1012 83 10000 2.06 250 16:25 11.04.2022
2724 Clouds 15 1011 82 10000 1.54 210 14:40 11.04.2022
2725 Clouds 15 1011 82 10000 0 0 13:19 11.04.2022
2726 Clouds 15 1011 81 10000 1.54 310 12:36 11.04.2022
2727 Clouds 15 1011 81 10000 2.57 330 11:54 11.04.2022
2728 Clouds 15 1011 82 10000 1.54 180 10:35 11.04.2022
2729 Clouds 15 1011 80 10000 2.57 340 09:34 11.04.2022
2730 Clouds 16 1011 79 10000 2.57 270 07:24 11.04.2022
2731 Clouds 19 1010 64 10000 5.14 200 03:19 11.04.2022
2732 Clouds 21 1012 56 10000 6.69 250 23:22 10.04.2022
2733 Clouds 21 1012 58 10000 5.14 250 22:26 10.04.2022
2734 Clouds 20 1013 60 10000 5.14 250 21:35 10.04.2022
2735 Clouds 20 1013 63 10000 5.14 240 20:50 10.04.2022
2736 Clouds 19 1012 64 10000 3.6 130 19:53 10.04.2022
2737 Clouds 18 1012 66 10000 3.6 130 19:30 10.04.2022
2738 Clouds 18 1012 71 10000 3.09 190 18:46 10.04.2022
2739 Clouds 17 1012 73 10000 3.09 190 18:20 10.04.2022
2740 Haze 17 1012 75 9656 3.09 220 17:41 10.04.2022
2741 Haze 16 1011 81 9656 1.54 140 16:47 10.04.2022
2742 Clouds 15 1011 83 10000 2.06 150 15:37 10.04.2022
2743 Clouds 15 1010 79 10000 2.57 140 14:37 10.04.2022
2744 Haze 16 1010 82 10000 3.09 130 12:50 10.04.2022
2745 Haze 16 1010 81 10000 3.09 130 12:26 10.04.2022
2746 Mist 16 1010 78 10000 4.63 120 11:29 10.04.2022
2747 Clouds 16 1010 79 10000 1.54 170 10:57 10.04.2022
2748 Mist 16 1011 79 10000 4.12 110 10:22 10.04.2022
2749 Mist 16 1011 79 10000 3.09 140 09:40 10.04.2022
2750 Mist 17 1011 81 10000 5.14 120 08:25 10.04.2022
2751 Haze 17 1011 77 10000 5.14 130 07:47 10.04.2022
2752 Clear 18 1010 71 10000 3.6 130 06:19 10.04.2022
2753 Clear 24 1008 47 10000 5.66 240 02:48 10.04.2022
2754 Clear 27 1008 41 10000 5.66 260 00:51 10.04.2022
2755 Clear 27 1009 42 10000 4.63 250 23:50 09.04.2022
2756 Clear 27 1010 47 10000 5.66 260 22:50 09.04.2022
2757 Clear 26 1010 42 10000 5.14 250 21:48 09.04.2022
2758 Clear 27 1010 41 10000 0.45 56 20:57 09.04.2022
2759 Clear 26 1010 40 10000 4.63 150 20:26 09.04.2022
2760 Clear 26 1010 39 10000 4.12 120 19:42 09.04.2022
2761 Clear 25 1010 40 10000 4.12 120 19:18 09.04.2022
2762 Clear 25 1010 40 10000 4.12 120 19:18 09.04.2022
2763 Clear 25 1010 40 10000 4.12 120 19:18 09.04.2022
2764 Clear 23 1010 46 10000 4.12 100 18:21 09.04.2022
2765 Clear 21 1010 56 10000 4.63 90 17:40 09.04.2022
2766 Clear 19 1010 63 10000 2.06 90 16:53 09.04.2022
2767 Clear 19 1009 44 10000 0 0 15:59 09.04.2022
2768 Clear 19 1009 53 10000 0 0 15:41 09.04.2022
2769 Clear 20 1009 46 10000 2.06 360 14:44 09.04.2022
2770 Clear 20 1009 46 10000 2.06 360 14:44 09.04.2022
2771 Clear 20 1009 45 10000 2.06 360 14:23 09.04.2022
2772 Clear 21 1009 46 10000 0.45 42 13:21 09.04.2022
2773 Clear 21 1009 44 10000 1.54 200 12:51 09.04.2022
2774 Clear 21 1010 43 10000 2.06 290 11:40 09.04.2022
2775 Clear 22 1010 38 10000 2.06 110 10:21 09.04.2022
2776 Clear 23 1010 36 10000 3.09 250 09:52 09.04.2022
2777 Clear 24 1011 28 10000 3.09 260 08:57 09.04.2022
2778 Clear 24 1011 28 10000 3.6 250 07:32 09.04.2022
2779 Clear 32 1010 18 10000 7.72 260 03:21 09.04.2022
2780 Clear 35 1012 12 10000 6.17 270 00:30 09.04.2022
2781 Clear 36 1013 13 10000 3.09 270 22:58 08.04.2022
2782 Clear 35 1014 11 10000 4.63 210 21:34 08.04.2022
2783 Clear 34 1015 13 10000 2.06 0 20:41 08.04.2022
2784 Clear 33 1015 14 10000 2.06 0 19:41 08.04.2022
2785 Clear 29 1015 16 10000 1.54 20 18:34 08.04.2022
2786 Clear 26 1015 21 10000 2.06 50 17:55 08.04.2022
2787 Clear 25 1015 29 10000 2.06 50 17:27 08.04.2022
2788 Clear 23 1014 32 10000 3.09 310 16:51 08.04.2022
2789 Clear 22 1014 25 10000 3.09 310 16:22 08.04.2022
2790 Clear 21 1014 23 10000 2.06 20 15:28 08.04.2022
2791 Clear 22 1014 25 10000 2.06 70 14:40 08.04.2022
2792 Clear 23 1014 20 10000 1.34 323 13:55 08.04.2022
2793 Clear 23 1014 23 10000 2.06 360 13:30 08.04.2022
2794 Clear 23 1014 23 10000 1.54 330 12:42 08.04.2022
2795 Clear 24 1016 22 10000 0 0 10:56 08.04.2022
2796 Clear 24 1015 22 10000 2.06 10 09:41 08.04.2022
2797 Clear 25 1016 23 10000 0 0 08:59 08.04.2022
2798 Clear 25 1015 26 10000 2.57 120 07:42 08.04.2022
2799 Clear 25 1014 25 10000 0 0 06:44 08.04.2022
2800 Clear 33 1015 16 10000 5.66 270 02:29 08.04.2022
2801 Clear 35 1015 15 10000 6.17 270 00:28 08.04.2022
2802 Clear 35 1016 15 10000 4.63 210 23:42 07.04.2022
2803 Clear 35 1017 16 10000 3.6 200 22:41 07.04.2022
2804 Clear 34 1017 15 10000 3.6 200 22:22 07.04.2022
2805 Clear 34 1018 17 10000 0.89 168 21:58 07.04.2022
2806 Clear 33 1018 17 10000 4.12 220 21:28 07.04.2022
2807 Clear 32 1019 21 10000 2.57 110 20:42 07.04.2022
2808 Clear 30 1019 25 10000 1.54 0 19:25 07.04.2022
2809 Clear 23 1019 43 10000 1.54 350 17:28 07.04.2022
2810 Clear 22 1020 39 10000 0.45 79 16:59 07.04.2022
2811 Clear 20 1019 46 10000 2.06 340 16:33 07.04.2022
2812 Clear 20 1018 51 10000 2.57 40 15:40 07.04.2022
2813 Fog 20 1018 48 10000 1.54 290 13:52 07.04.2022
2814 Fog 20 1017 57 10000 1.54 290 13:23 07.04.2022
2815 Clear 20 1017 56 10000 3.09 250 11:52 07.04.2022
2816 Clear 20 1018 57 10000 1.54 300 10:46 07.04.2022
2817 Clear 20 1018 58 10000 2.06 330 08:43 07.04.2022
2818 Clear 21 1017 61 10000 1.1 293 06:59 07.04.2022
2819 Clear 23 1016 51 10000 2.06 0 05:21 07.04.2022
2820 Clear 28 1014 42 10000 6.17 260 02:34 07.04.2022
2821 Clear 30 1015 43 10000 6.17 260 00:43 07.04.2022
2822 Clear 31 1015 40 10000 5.14 270 23:36 06.04.2022
2823 Clear 31 1015 39 10000 4.12 250 22:44 06.04.2022
2824 Clear 31 1015 39 10000 4.12 250 22:20 06.04.2022
2825 Fog 29 1016 46 10000 5.14 260 20:47 06.04.2022
2826 Fog 27 1016 50 10000 4.63 260 20:00 06.04.2022
2827 Clear 25 1015 52 10000 2.06 130 19:24 06.04.2022
2828 Haze 23 1015 61 10000 1.54 0 18:48 06.04.2022
2829 Mist 18 1015 78 8047 1.54 130 17:36 06.04.2022
2830 Mist 17 1015 88 8047 0 0 16:58 06.04.2022
2831 Mist 15 1014 86 9656 1.54 120 16:34 06.04.2022
2832 Mist 15 1014 81 9656 1.54 120 15:44 06.04.2022
2833 Clear 16 1013 75 10000 1.54 70 13:53 06.04.2022
2834 Clear 16 1013 84 10000 2.57 80 12:30 06.04.2022
2835 Clear 16 1013 83 10000 2.06 130 11:44 06.04.2022
2836 Clear 16 1013 82 10000 2.57 110 10:37 06.04.2022
2837 Clear 16 1013 78 10000 2.57 110 10:18 06.04.2022
2838 Clear 17 1013 81 10000 3.09 80 09:25 06.04.2022
2839 Clear 17 1012 83 10000 3.6 110 08:25 06.04.2022
2840 Clear 18 1012 75 10000 2.57 150 06:45 06.04.2022
2841 Clear 25 1011 53 10000 4.63 260 01:44 06.04.2022
2842 Clear 26 1012 55 10000 4.12 240 23:50 05.04.2022
2843 Clear 24 1012 61 10000 0 0 21:59 05.04.2022
2844 Clear 24 1013 58 10000 6.17 300 21:18 05.04.2022
2845 Clear 24 1013 58 10000 6.17 300 21:18 05.04.2022
2846 Clear 22 1014 64 10000 2.57 0 20:25 05.04.2022
2847 Clear 19 1013 73 10000 4.12 320 18:53 05.04.2022
2848 Haze 16 1014 82 9656 2.57 190 17:30 05.04.2022
2849 Mist 16 1013 79 10000 4.12 290 16:45 05.04.2022
2850 Clear 16 1013 73 10000 5.14 300 15:52 05.04.2022
2851 Clear 16 1013 73 10000 5.14 300 15:31 05.04.2022
2852 Clear 15 1013 77 10000 1.54 0 14:18 05.04.2022
2853 Clear 15 1013 85 10000 0 0 12:55 05.04.2022
2854 Clear 15 1014 78 10000 2.06 250 11:49 05.04.2022
2855 Clear 15 1014 79 10000 2.06 250 11:31 05.04.2022
2856 Clear 15 1014 79 10000 3.6 110 09:42 05.04.2022
2857 Clear 15 1014 75 10000 3.09 90 08:52 05.04.2022
2858 Clear 16 1013 78 10000 4.63 110 06:43 05.04.2022
2859 Clear 21 1013 63 10000 6.17 260 00:39 05.04.2022
2860 Clear 20 1013 63 10000 4.63 260 22:41 04.04.2022
2861 Clear 20 1014 64 10000 4.63 260 22:19 04.04.2022
2862 Haze 19 1015 65 9656 4.12 250 21:21 04.04.2022
2863 Haze 19 1015 68 9656 3.6 270 20:49 04.04.2022
2864 Haze 17 1015 70 9656 2.06 0 19:44 04.04.2022
2865 Haze 16 1015 72 9656 2.06 0 19:25 04.04.2022
2866 Mist 14 1014 81 10000 0 0 17:55 04.04.2022
2867 Haze 13 1013 86 10000 2.06 90 16:36 04.04.2022
2868 Haze 13 1013 88 10000 2.06 270 15:43 04.04.2022
2869 Haze 13 1013 87 10000 2.06 270 15:25 04.04.2022
2870 Mist 13 1013 89 10000 1.54 240 14:46 04.04.2022
2871 Mist 13 1013 89 10000 2.57 320 13:22 04.04.2022
2872 Haze 13 1013 90 10000 2.06 270 11:55 04.04.2022
2873 Haze 13 1013 90 10000 2.06 270 11:28 04.04.2022
2874 Clouds 14 1013 88 10000 5.66 270 08:36 04.04.2022
2875 Clouds 16 1012 79 10000 6.17 250 04:18 04.04.2022
2876 Clouds 19 1013 66 10000 7.2 250 00:44 04.04.2022
2877 Clouds 19 1015 67 10000 5.66 250 22:40 03.04.2022
2878 Clouds 18 1015 67 10000 6.69 250 21:45 03.04.2022
2879 Clouds 17 1016 71 10000 4.63 250 20:55 03.04.2022
2880 Clouds 16 1016 77 10000 5.14 260 19:50 03.04.2022
2881 Clouds 15 1016 83 10000 4.12 250 18:32 03.04.2022
2882 Clouds 15 1016 85 10000 4.12 250 17:47 03.04.2022
2883 Clouds 14 1015 87 10000 4.63 270 16:57 03.04.2022
2884 Clouds 14 1015 87 10000 4.63 270 16:39 03.04.2022
2885 Clouds 14 1015 86 10000 4.63 270 14:52 03.04.2022
2886 Clouds 14 1015 88 10000 5.14 280 13:53 03.04.2022
2887 Clouds 14 1016 87 10000 4.63 270 12:46 03.04.2022
2888 Clouds 14 1016 85 10000 6.17 270 11:29 03.04.2022
2889 Clouds 15 1016 83 10000 4.12 260 09:38 03.04.2022
2890 Clouds 15 1017 83 10000 5.14 270 08:36 03.04.2022
2891 Clouds 15 1016 81 10000 5.66 250 05:42 03.04.2022
2892 Clouds 17 1016 75 10000 3.13 250 02:53 03.04.2022
2893 Clouds 18 1017 71 10000 5.14 260 23:21 02.04.2022
2894 Clouds 18 1017 70 10000 3.6 180 22:38 02.04.2022
2895 Clouds 17 1018 71 10000 2.57 210 21:49 02.04.2022
2896 Clouds 17 1018 73 10000 2.57 210 21:19 02.04.2022
2897 Clouds 16 1018 77 10000 3.6 210 20:35 02.04.2022
2898 Mist 14 1017 84 10000 4.63 270 18:27 02.04.2022
2899 Clouds 14 1016 85 10000 3.09 220 17:53 02.04.2022
2900 Clouds 13 1016 87 10000 3.09 140 16:30 02.04.2022
2901 Mist 13 1015 88 10000 3.09 140 15:23 02.04.2022
2902 Clouds 13 1015 90 10000 3.09 250 14:51 02.04.2022
2903 Clouds 13 1015 90 10000 3.6 240 13:57 02.04.2022
2904 Clouds 13 1015 90 10000 4.12 240 13:23 02.04.2022
2905 Clouds 13 1014 90 10000 0 0 11:54 02.04.2022
2906 Clear 13 1015 87 10000 2.06 80 09:48 02.04.2022
2907 Clear 14 1014 83 10000 2.57 240 07:33 02.04.2022
2908 Clear 17 1013 75 10000 2.57 250 03:59 02.04.2022
2909 Clear 21 1012 63 10000 6.17 260 00:27 02.04.2022
2910 Clear 21 1012 63 10000 5.66 260 23:53 01.04.2022
2911 Clouds 20 1013 62 10000 4.63 250 22:34 01.04.2022
2912 Clouds 18 1014 66 10000 3.09 250 20:54 01.04.2022
2913 Clouds 18 1013 69 10000 3.09 250 20:32 01.04.2022
2914 Clear 17 1014 73 10000 3.6 260 19:39 01.04.2022
2915 Clear 17 1014 77 10000 3.6 260 19:18 01.04.2022
2916 Clouds 16 1013 80 10000 3.09 270 18:35 01.04.2022
2917 Clouds 14 1013 86 10000 3.09 270 17:36 01.04.2022
2918 Clear 12 1011 85 10000 1.54 310 15:46 01.04.2022
2919 Smoke 12 1011 88 10000 1.54 330 14:51 01.04.2022
2920 Clear 12 1011 89 10000 1.54 310 13:39 01.04.2022
2921 Clouds 13 1011 89 10000 1.54 310 12:33 01.04.2022
2922 Clouds 13 1012 88 10000 1.54 290 11:47 01.04.2022
2923 Clouds 13 1012 87 10000 2.06 270 10:49 01.04.2022
2924 Clouds 14 1011 87 10000 2.06 320 09:35 01.04.2022
2925 Clouds 14 1011 87 10000 3.09 300 07:24 01.04.2022
2926 Clouds 15 1011 82 10000 0 0 04:57 01.04.2022
2927 Clouds 15 1011 80 10000 4.12 250 04:39 01.04.2022
2928 Clouds 16 1011 76 10000 4.63 270 02:37 01.04.2022
2929 Clouds 17 1011 73 10000 4.63 270 01:33 01.04.2022
2930 Clouds 17 1012 70 10000 4.63 250 22:27 31.03.2022
2931 Clouds 17 1013 70 10000 4.12 250 21:39 31.03.2022
2932 Clouds 17 1013 73 10000 4.12 260 20:51 31.03.2022
2933 Clouds 17 1013 74 10000 3.6 260 20:28 31.03.2022
2934 Clouds 16 1014 78 10000 3.09 160 19:29 31.03.2022
2935 Clouds 15 1013 80 10000 2.06 210 18:33 31.03.2022
2936 Clouds 14 1013 86 10000 2.06 110 16:47 31.03.2022
2937 Clouds 14 1013 87 10000 1.54 110 15:55 31.03.2022
2938 Clouds 14 1013 87 10000 1.54 90 15:26 31.03.2022
2939 Clouds 14 1013 88 10000 2.57 150 14:45 31.03.2022
2940 Clouds 14 1013 88 10000 2.57 110 13:42 31.03.2022
2941 Haze 14 1014 87 10000 3.6 150 11:31 31.03.2022
2942 Haze 14 1014 86 10000 2.57 150 10:26 31.03.2022
2943 Clouds 14 1015 87 10000 1.54 90 09:39 31.03.2022
2944 Clouds 14 1015 88 10000 1.54 190 07:48 31.03.2022
2945 Clear 17 1015 75 10000 5.66 240 03:30 31.03.2022
2946 Clear 20 1017 64 10000 7.72 250 23:25 30.03.2022
2947 Clouds 20 1018 62 10000 5.66 260 21:57 30.03.2022
2948 Clear 19 1018 61 10000 5.66 260 21:31 30.03.2022
2949 Clear 19 1018 61 10000 4.12 220 20:44 30.03.2022
2950 Clouds 18 1019 65 10000 2.06 250 19:48 30.03.2022
2951 Clouds 16 1019 74 10000 2.57 0 18:41 30.03.2022
2952 Clouds 14 1019 83 10000 1.54 0 17:51 30.03.2022
2953 Clouds 13 1019 86 10000 1.54 0 17:20 30.03.2022
2954 Clouds 13 1019 86 10000 2.57 80 16:40 30.03.2022
2955 Clouds 12 1018 88 10000 1.54 0 15:59 30.03.2022
2956 Clouds 12 1018 88 10000 2.57 30 14:36 30.03.2022
2957 Clouds 12 1019 90 10000 2.06 350 13:22 30.03.2022
2958 Clouds 12 1019 90 10000 1.54 180 12:22 30.03.2022
2959 Clear 12 1018 86 10000 1.54 90 10:48 30.03.2022
2960 Clear 12 1018 91 10000 1.54 110 09:55 30.03.2022
2961 Clear 13 1018 90 10000 1.54 190 08:21 30.03.2022
2962 Clear 13 1017 87 10000 2.57 200 07:28 30.03.2022
2963 Clouds 14 1016 82 10000 3.09 230 05:40 30.03.2022
2964 Clear 18 1015 62 10000 6.69 250 02:32 30.03.2022
2965 Clear 19 1015 65 10000 6.69 250 22:42 29.03.2022
2966 Clear 18 1015 67 10000 6.69 240 21:49 29.03.2022
2967 Clear 18 1015 68 10000 6.69 240 21:28 29.03.2022
2968 Clear 17 1015 72 10000 7.72 330 20:25 29.03.2022
2969 Clouds 15 1014 76 10000 5.14 270 19:32 29.03.2022
2970 Clear 14 1013 86 10000 4.12 240 18:53 29.03.2022
2971 Clear 13 1013 88 10000 2.06 170 17:52 29.03.2022
2972 Clear 12 1013 92 10000 2.06 170 17:18 29.03.2022
2973 Clear 11 1012 91 10000 3.6 270 16:52 29.03.2022
2974 Mist 10 1012 92 8047 1.54 330 15:29 29.03.2022
2975 Clear 11 1011 93 10000 2.06 300 14:43 29.03.2022
2976 Clear 11 1011 93 10000 2.06 300 14:43 29.03.2022
2977 Clear 11 1010 94 10000 1.54 320 13:35 29.03.2022
2978 Clear 11 1010 94 10000 0 0 12:22 29.03.2022
2979 Clouds 11 1009 93 10000 1.54 120 11:18 29.03.2022
2980 Clouds 12 1009 93 10000 2.06 270 09:58 29.03.2022
2981 Clouds 12 1009 91 10000 4.12 260 08:44 29.03.2022
2982 Clouds 13 1008 91 10000 2.57 250 06:48 29.03.2022
2983 Rain 13 1008 86 2816 3.6 190 02:52 29.03.2022
2984 Clouds 16 1010 78 10000 3.6 140 23:37 28.03.2022
2985 Clouds 15 1010 87 10000 3.09 0 22:57 28.03.2022
2986 Clouds 14 1010 89 10000 3.09 0 22:33 28.03.2022
2987 Mist 13 1010 91 9656 4.12 250 21:43 28.03.2022
2988 Mist 13 1011 91 4023 4.63 240 20:35 28.03.2022
2989 Rain 13 1011 89 4828 9.77 200 19:48 28.03.2022
2990 Rain 13 1010 88 4828 9.77 200 19:48 28.03.2022
2991 Rain 13 1010 88 2816 9.26 140 19:30 28.03.2022
2992 Rain 14 1010 85 9656 8.75 120 18:50 28.03.2022
2993 Clouds 14 1010 80 10000 7.72 130 17:41 28.03.2022
2994 Clouds 14 1011 80 9656 6.69 120 16:56 28.03.2022
2995 Clouds 14 1010 75 10000 6.17 100 15:22 28.03.2022
2996 Clouds 14 1010 76 10000 7.72 120 14:24 28.03.2022
2997 Clouds 14 1011 75 10000 5.66 110 13:19 28.03.2022
2998 Drizzle 14 1012 75 10000 5.66 130 11:52 28.03.2022
2999 Clouds 14 1013 74 10000 4.12 130 09:58 28.03.2022
3000 Clouds 14 1013 74 10000 5.14 140 09:21 28.03.2022
3001 Clouds 14 1013 73 10000 5.14 160 08:39 28.03.2022
3002 Clouds 14 1013 73 10000 5.14 160 08:18 28.03.2022
3003 Clouds 14 1013 76 10000 3.6 170 06:55 28.03.2022
3004 Clear 18 1011 62 10000 6.17 260 02:20 28.03.2022
3005 Clear 20 1012 57 10000 5.66 190 22:36 27.03.2022
3006 Clear 20 1013 57 10000 6.17 150 21:47 27.03.2022
3007 Clear 19 1013 58 10000 6.17 150 21:26 27.03.2022
3008 Clear 18 1013 62 10000 3.6 150 20:41 27.03.2022
3009 Clouds 17 1013 67 10000 5.66 140 19:37 27.03.2022
3010 Clouds 15 1013 73 10000 4.63 140 18:44 27.03.2022
3011 Clouds 15 1013 75 10000 4.63 140 18:23 27.03.2022
3012 Clouds 15 1013 75 10000 4.63 140 18:23 27.03.2022
3013 Clouds 15 1013 75 10000 4.63 140 18:23 27.03.2022
3014 Clouds 14 1012 75 10000 5.14 100 17:36 27.03.2022
3015 Clouds 13 1012 81 10000 3.09 90 15:51 27.03.2022
3016 Clouds 13 1012 84 10000 2.51 163 13:59 27.03.2022
3017 Clouds 13 1012 83 10000 3.6 120 13:21 27.03.2022
3018 Mist 13 1013 85 10000 3.6 170 11:35 27.03.2022
3019 Mist 13 1013 87 10000 3.6 140 09:49 27.03.2022
3020 Clouds 13 1013 86 10000 3.6 100 07:39 27.03.2022
3021 Clear 17 1011 72 10000 4.63 130 04:25 27.03.2022
3022 Clear 23 1011 52 10000 6.17 250 00:26 27.03.2022
3023 Clear 24 1012 51 10000 4.63 250 22:52 26.03.2022
3024 Clear 24 1012 50 10000 4.63 250 22:22 26.03.2022
3025 Fog 23 1013 53 10000 5.66 140 21:30 26.03.2022
3026 Haze 21 1015 66 9656 3.09 260 19:38 26.03.2022
3027 Haze 19 1015 71 8047 2.57 220 18:44 26.03.2022
3028 Haze 18 1014 75 4828 1.54 150 17:41 26.03.2022
3029 Mist 15 1014 87 4828 1.54 0 16:40 26.03.2022
3030 Mist 13 1014 86 8047 1.54 230 15:43 26.03.2022
3031 Mist 13 1014 89 10000 1.54 250 13:57 26.03.2022
3032 Mist 13 1014 89 10000 1.54 250 13:36 26.03.2022
3033 Mist 13 1014 90 10000 1.54 100 12:18 26.03.2022
3034 Mist 14 1016 86 10000 2.06 250 10:49 26.03.2022
3035 Mist 14 1016 81 10000 4.12 120 09:19 26.03.2022
3036 Clouds 16 1015 53 10000 1.06 202 06:56 26.03.2022
3037 Clear 18 1014 63 10000 2.57 230 05:49 26.03.2022
3038 Haze 22 1014 53 10000 5.66 260 02:34 26.03.2022
3039 Fog 27 1015 47 10000 5.14 270 22:47 25.03.2022
3040 Clear 27 1016 43 10000 2.57 220 20:58 25.03.2022
3041 Clear 26 1016 48 10000 4.12 260 20:26 25.03.2022
3042 Clear 26 1016 48 10000 4.12 260 20:26 25.03.2022
3043 Fog 24 1017 51 10000 3.09 0 19:19 25.03.2022
3044 Haze 24 1017 55 8047 2.06 260 18:36 25.03.2022
3045 Mist 22 1017 53 4828 3.6 250 17:34 25.03.2022
3046 Mist 18 1017 70 4828 1.54 260 16:29 25.03.2022
3047 Mist 15 1017 81 1207 3.09 260 15:37 25.03.2022
3048 Fog 17 1016 70 805 1.54 280 13:32 25.03.2022
3049 Fog 17 1016 73 805 2.06 350 11:25 25.03.2022
3050 Fog 17 1017 80 10000 2.57 120 09:43 25.03.2022
3051 Mist 18 1017 68 10000 0 0 08:56 25.03.2022
3052 Mist 18 1017 66 10000 2.06 240 07:46 25.03.2022
3053 Mist 19 1017 69 10000 2.06 240 07:19 25.03.2022
3054 Fog 22 1015 49 10000 4.12 250 03:45 25.03.2022
3055 Clear 28 1015 41 10000 5.66 260 23:49 24.03.2022
3056 Clear 28 1016 40 10000 5.66 270 22:24 24.03.2022
3057 Clear 28 1016 40 10000 5.66 270 22:24 24.03.2022
3058 Fog 27 1017 42 10000 4.12 250 21:24 24.03.2022
3059 Clear 27 1018 38 10000 2.06 250 19:50 24.03.2022
3060 Clear 25 1018 43 10000 1.54 0 18:45 24.03.2022
3061 Clear 22 1018 46 10000 2.57 250 17:36 24.03.2022
3062 Fog 19 1018 63 10000 3.6 250 16:39 24.03.2022
3063 Fog 17 1017 58 10000 1.54 280 14:53 24.03.2022
3064 Fog 17 1017 65 10000 1.54 280 14:32 24.03.2022
3065 Fog 17 1017 65 10000 1.54 310 13:36 24.03.2022
3066 Fog 17 1018 62 10000 1.54 280 12:35 24.03.2022
3067 Clear 17 1018 62 10000 2.06 250 11:31 24.03.2022
3068 Clear 17 1019 62 10000 2.06 250 09:34 24.03.2022
3069 Clear 18 1019 55 10000 3.6 250 08:39 24.03.2022
3070 Clear 20 1019 47 10000 3.09 250 05:45 24.03.2022
3071 Clear 27 1018 28 10000 7.72 250 00:47 24.03.2022
3072 Clear 29 1019 27 10000 5.14 280 22:23 23.03.2022
3073 Clear 29 1020 28 10000 5.66 260 21:24 23.03.2022
3074 Clear 29 1020 26 10000 3.6 210 20:46 23.03.2022
3075 Clear 28 1021 27 10000 3.6 130 19:33 23.03.2022
3076 Clear 25 1021 31 10000 4.63 80 18:19 23.03.2022
3077 Clear 23 1020 37 10000 3.09 50 17:26 23.03.2022
3078 Clear 19 1020 48 10000 2.06 60 16:18 23.03.2022
3079 Clear 17 1019 49 10000 2.57 100 14:49 23.03.2022
3080 Clear 17 1018 48 10000 1.54 90 13:34 23.03.2022
3081 Clear 18 1018 51 10000 1.54 60 11:38 23.03.2022
3082 Clear 19 1018 46 10000 2.57 50 08:51 23.03.2022
3083 Clear 19 1018 48 10000 1.54 230 06:26 23.03.2022
3084 Clear 21 1017 44 10000 5.14 260 03:52 23.03.2022
3085 Clear 27 1017 29 10000 6.69 270 00:29 23.03.2022
3086 Clear 27 1017 29 10000 6.69 270 00:28 23.03.2022
3087 Clear 28 1018 27 10000 5.66 250 22:25 22.03.2022
3088 Clear 28 1018 27 10000 5.14 260 21:29 22.03.2022
3089 Clear 28 1018 30 10000 4.12 150 20:34 22.03.2022
3090 Clear 26 1019 36 10000 3.09 260 19:31 22.03.2022
3091 Clear 25 1019 36 10000 0.45 267 18:54 22.03.2022
3092 Clear 22 1019 50 10000 2.57 270 17:44 22.03.2022
3093 Clear 19 1019 51 10000 2.57 270 17:18 22.03.2022
3094 Clear 17 1018 53 10000 4.63 210 15:52 22.03.2022
3095 Clear 16 1018 57 10000 4.63 210 15:21 22.03.2022
3096 Clear 16 1017 60 10000 0 0 14:46 22.03.2022
3097 Clear 15 1017 60 10000 0 0 14:24 22.03.2022
3098 Clear 15 1017 60 10000 2.57 210 12:46 22.03.2022
3099 Clear 16 1017 60 10000 2.06 110 11:36 22.03.2022
3100 Clear 15 1017 63 10000 2.06 100 10:23 22.03.2022
3101 Clear 15 1017 59 10000 0 0 07:57 22.03.2022
3102 Clear 17 1017 66 10000 2.06 150 05:20 22.03.2022
3103 Clear 18 1016 57 10000 4.12 240 03:41 22.03.2022
3104 Clear 24 1017 46 10000 4.63 250 23:49 21.03.2022
3105 Clear 23 1018 44 10000 4.63 130 21:58 21.03.2022
3106 Clear 23 1019 46 10000 3.6 280 20:47 21.03.2022
3107 Clear 22 1019 45 10000 3.6 280 20:27 21.03.2022
3108 Clear 22 1019 48 10000 0.45 313 19:58 21.03.2022
3109 Clear 20 1019 53 10000 4.63 110 19:27 21.03.2022
3110 Clear 18 1019 61 10000 3.09 140 18:18 21.03.2022
3111 Clear 16 1019 68 10000 3.6 120 17:18 21.03.2022
3112 Clear 15 1019 74 10000 3.6 90 16:42 21.03.2022
3113 Clear 13 1018 74 10000 2.57 110 15:52 21.03.2022
3114 Clear 12 1018 73 10000 2.57 110 15:19 21.03.2022
3115 Clear 13 1018 73 10000 0 0 13:58 21.03.2022
3116 Clear 13 1018 71 10000 2.57 140 12:35 21.03.2022
3117 Clear 13 1017 69 10000 3.09 100 11:52 21.03.2022
3118 Clear 14 1017 64 10000 2.06 0 10:40 21.03.2022
3119 Clear 17 1017 36 10000 4.63 320 08:30 21.03.2022
3120 Clear 16 1017 38 10000 5.66 330 06:48 21.03.2022
3121 Clear 20 1015 37 10000 12.86 270 02:52 21.03.2022
3122 Clear 22 1014 35 10000 12.86 270 00:19 21.03.2022
3123 Clear 22 1015 38 10000 10.8 260 22:44 20.03.2022
3124 Clear 21 1015 43 10000 11.83 270 21:52 20.03.2022
3125 Clear 21 1015 43 10000 11.83 270 21:29 20.03.2022
3126 Clear 21 1015 41 10000 7.2 330 20:43 20.03.2022
3127 Clear 20 1016 45 10000 3.6 280 19:59 20.03.2022
3128 Clear 19 1016 44 10000 9.26 340 19:34 20.03.2022
3129 Clear 17 1015 54 10000 6.17 330 18:34 20.03.2022
3130 Clear 16 1015 64 10000 6.69 290 17:35 20.03.2022
3131 Clear 15 1015 69 10000 1.54 0 16:57 20.03.2022
3132 Clear 12 1014 77 10000 4.63 260 15:35 20.03.2022
3133 Clear 12 1013 79 10000 5.14 270 14:35 20.03.2022
3134 Clear 12 1012 90 10000 3.09 260 12:42 20.03.2022
3135 Clouds 12 1012 90 10000 3.6 270 11:32 20.03.2022
3136 Mist 13 1013 90 10000 6.69 270 09:39 20.03.2022
3137 Mist 13 1014 88 10000 6.17 260 07:49 20.03.2022
3138 Clouds 14 1014 82 10000 4.12 250 05:48 20.03.2022
3139 Clouds 15 1014 73 10000 6.17 270 02:45 20.03.2022
3140 Clouds 17 1015 69 10000 6.69 250 00:48 20.03.2022
3141 Clear 19 1015 63 10000 5.14 260 23:20 19.03.2022
3142 Clouds 19 1017 62 10000 5.66 250 21:32 19.03.2022
3143 Clouds 19 1016 65 10000 1.79 200 20:58 19.03.2022
3144 Clouds 18 1017 67 10000 4.12 150 19:21 19.03.2022
3145 Clouds 17 1018 75 10000 4.12 130 18:25 19.03.2022
3146 Haze 16 1017 78 9656 2.57 150 17:41 19.03.2022
3147 Clear 14 1017 81 10000 0 0 16:29 19.03.2022
3148 Clear 13 1017 82 10000 2.06 160 15:20 19.03.2022
3149 Clear 13 1016 81 10000 3.09 250 13:35 19.03.2022
3150 Clear 14 1016 77 10000 2.57 90 12:42 19.03.2022
3151 Clear 14 1016 71 10000 2.06 100 11:54 19.03.2022
3152 Clear 14 1016 72 10000 2.06 100 11:33 19.03.2022
3153 Clear 16 1017 67 10000 2.06 180 08:23 19.03.2022
3154 Clear 18 1016 55 10000 5.66 270 04:23 19.03.2022
3155 Clear 22 1015 44 10000 4.12 180 02:30 19.03.2022
3156 Clear 25 1016 35 10000 4.12 260 23:46 18.03.2022
3157 Clear 25 1017 38 10000 5.14 260 22:36 18.03.2022
3158 Clear 25 1017 38 10000 0.89 221 21:56 18.03.2022
3159 Clear 24 1018 39 10000 2.57 190 19:57 18.03.2022
3160 Clear 22 1018 38 10000 2.57 0 19:23 18.03.2022
3161 Clear 21 1018 39 10000 2.06 130 18:34 18.03.2022
3162 Clear 17 1017 60 10000 2.06 80 16:52 18.03.2022
3163 Clear 15 1017 57 10000 3.09 110 15:52 18.03.2022
3164 Clear 15 1016 51 10000 2.57 80 14:25 18.03.2022
3165 Clear 15 1016 52 10000 1.54 110 13:18 18.03.2022
3166 Clear 16 1016 60 10000 0 0 11:29 18.03.2022
3167 Clear 16 1017 48 10000 2.57 250 09:52 18.03.2022
3168 Clear 17 1017 49 10000 3.6 240 08:45 18.03.2022
3169 Clear 17 1017 41 10000 3.09 260 06:45 18.03.2022
3170 Clear 17 1017 41 10000 3.09 260 06:45 18.03.2022
3171 Clear 19 1016 39 10000 3.6 250 04:38 18.03.2022
3172 Clear 24 1016 33 10000 8.75 270 00:55 18.03.2022
3173 Clear 25 1016 33 10000 7.2 270 23:52 17.03.2022
3174 Clear 25 1017 33 10000 7.2 270 23:52 17.03.2022
3175 Clear 25 1017 33 10000 7.2 270 23:52 17.03.2022
3176 Clear 25 1017 33 10000 7.2 270 23:52 17.03.2022
3177 Clear 25 1016 33 10000 7.2 270 23:52 17.03.2022
3178 Clear 26 1017 30 10000 6.69 250 22:44 17.03.2022
3179 Clear 26 1017 28 10000 6.69 250 22:18 17.03.2022
3180 Clear 26 1018 26 10000 4.12 260 21:27 17.03.2022
3181 Clear 26 1018 29 10000 3.6 150 20:53 17.03.2022
3182 Clear 25 1019 31 10000 3.6 150 20:19 17.03.2022
3183 Clear 24 1019 37 10000 2.57 260 19:37 17.03.2022
3184 Clear 23 1019 42 10000 3.09 250 18:51 17.03.2022
3185 Clear 19 1018 62 10000 4.12 260 17:28 17.03.2022
3186 Haze 15 1018 74 10000 2.57 260 16:20 17.03.2022
3187 Fog 15 1017 69 10000 3.6 290 15:43 17.03.2022
3188 Clear 14 1017 65 10000 0 0 14:59 17.03.2022
3189 Clear 15 1017 64 10000 3.6 280 13:45 17.03.2022
3190 Clear 15 1017 65 10000 3.6 340 12:46 17.03.2022
3191 Clear 15 1017 71 10000 2.68 52 11:33 17.03.2022
3192 Clear 15 1017 71 10000 3.6 100 10:43 17.03.2022
3193 Clear 15 1017 69 10000 3.6 100 09:36 17.03.2022
3194 Clear 17 1017 57 10000 3.6 100 08:19 17.03.2022
3195 Clear 19 1016 42 10000 5.66 360 05:51 17.03.2022
3196 Clear 20 1015 40 10000 6.17 330 04:40 17.03.2022
3197 Clear 25 1014 32 10000 9.26 260 00:27 17.03.2022
3198 Clear 24 1014 42 10000 4.02 240 22:56 16.03.2022
3199 Clear 24 1015 41 10000 8.23 270 22:36 16.03.2022
3200 Clear 24 1015 45 10000 2.57 260 21:56 16.03.2022
3201 Clear 23 1017 47 10000 7.2 290 20:40 16.03.2022
3202 Clear 20 1018 62 10000 7.2 280 19:23 16.03.2022
3203 Haze 20 1018 66 10000 7.2 330 18:42 16.03.2022
3204 Haze 18 1017 79 9656 3.6 130 17:50 16.03.2022
3205 Haze 16 1018 81 9656 3.6 130 17:31 16.03.2022
3206 Mist 15 1017 84 8047 3.6 300 16:35 16.03.2022
3207 Clouds 13 1016 78 10000 1.54 120 14:58 16.03.2022
3208 Mist 14 1016 82 9656 3.09 20 13:36 16.03.2022
3209 Clouds 14 1016 80 10000 2.06 110 12:56 16.03.2022
3210 Clear 14 1017 78 10000 0 0 11:24 16.03.2022
3211 Clear 15 1017 78 10000 1.54 90 10:37 16.03.2022
3212 Clear 15 1017 72 10000 0 0 09:57 16.03.2022
3213 Clear 15 1018 75 10000 2.06 90 08:24 16.03.2022
3214 Clear 19 1018 60 10000 3.09 250 02:46 16.03.2022
3215 Clear 23 1019 50 10000 3.13 254 22:58 15.03.2022
3216 Clear 23 1020 50 10000 8.23 260 22:36 15.03.2022
3217 Clear 23 1020 52 10000 6.69 250 21:19 15.03.2022
3218 Clear 22 1022 54 10000 3.6 260 19:47 15.03.2022
3219 Clear 20 1022 58 10000 2.06 200 18:35 15.03.2022
3220 Mist 15 1021 73 10000 1.54 100 16:42 15.03.2022
3221 Clear 14 1021 72 10000 1.54 140 15:42 15.03.2022
3222 Clear 14 1020 69 10000 2.06 70 14:54 15.03.2022
3223 Clear 13 1020 72 10000 0 0 13:57 15.03.2022
3224 Clear 13 1020 76 10000 2.57 100 13:24 15.03.2022
3225 Clear 13 1021 81 10000 2.57 70 11:34 15.03.2022
3226 Clear 14 1021 79 10000 0 0 10:55 15.03.2022
3227 Clear 15 1022 69 10000 2.57 70 09:29 15.03.2022
3228 Clear 15 1021 71 10000 3.6 110 08:32 15.03.2022
3229 Clear 15 1021 70 10000 1.54 120 07:39 15.03.2022
3230 Clear 16 1021 66 10000 2.57 290 06:32 15.03.2022
3231 Clear 21 1020 57 10000 2.06 260 01:57 15.03.2022
3232 Clear 23 1020 52 10000 5.66 270 23:31 14.03.2022
3233 Clear 23 1021 51 10000 6.17 260 22:52 14.03.2022
3234 Clear 23 1021 50 10000 3.09 270 21:56 14.03.2022
3235 Clear 22 1022 50 10000 5.66 260 21:18 14.03.2022
3236 Clear 21 1023 51 10000 2.06 0 20:30 14.03.2022
3237 Clear 19 1023 56 10000 3.09 80 19:33 14.03.2022
3238 Clear 17 1023 66 10000 2.57 90 18:20 14.03.2022
3239 Clear 15 1023 77 10000 3.6 90 17:42 14.03.2022
3240 Clear 13 1022 81 10000 3.09 70 16:37 14.03.2022
3241 Clouds 12 1021 86 10000 1.54 100 14:58 14.03.2022
3242 Clouds 12 1021 88 10000 1.54 0 13:59 14.03.2022
3243 Clouds 12 1020 86 10000 3.09 100 11:27 14.03.2022
3244 Clear 13 1020 88 10000 2.06 80 09:58 14.03.2022
3245 Clear 13 1020 88 10000 2.06 80 09:58 14.03.2022
3246 Clouds 13 1021 88 10000 4.63 120 09:38 14.03.2022
3247 Clouds 13 1021 86 10000 4.63 120 09:18 14.03.2022
3248 Clear 13 1021 86 10000 2.06 100 08:46 14.03.2022
3249 Clear 14 1020 71 10000 2.06 110 07:19 14.03.2022
3250 Clear 16 1018 64 10000 3.6 240 03:36 14.03.2022
3251 Clear 19 1018 50 10000 6.17 240 01:46 14.03.2022
3252 Clear 20 1018 48 10000 6.17 210 00:35 14.03.2022
3253 Clear 20 1019 50 10000 6.17 250 21:55 13.03.2022
3254 Clear 20 1019 48 10000 6.17 250 21:26 13.03.2022
3255 Clear 19 1020 47 10000 3.09 260 20:46 13.03.2022
3256 Clear 19 1020 46 10000 3.09 260 20:23 13.03.2022
3257 Clear 19 1021 49 10000 2.57 160 19:42 13.03.2022
3258 Clear 18 1020 49 10000 2.57 160 19:23 13.03.2022
3259 Clear 18 1021 49 10000 2.57 160 19:23 13.03.2022
3260 Clear 18 1021 49 10000 2.57 160 19:23 13.03.2022
3261 Clear 17 1021 53 10000 2.06 30 18:49 13.03.2022
3262 Clear 17 1021 56 10000 2.06 30 18:26 13.03.2022
3263 Clear 15 1021 64 10000 2.06 30 17:39 13.03.2022
3264 Clear 13 1020 69 10000 2.06 0 16:48 13.03.2022
3265 Clear 12 1020 73 10000 2.06 0 16:27 13.03.2022
3266 Clear 11 1020 65 10000 3.09 120 15:43 13.03.2022
3267 Mist 11 1019 67 10000 3.09 90 14:49 13.03.2022
3268 Mist 12 1019 59 10000 2.06 80 13:30 13.03.2022
3269 Mist 12 1019 61 10000 1.54 40 12:26 13.03.2022
3270 Clear 13 1019 59 10000 0 0 11:51 13.03.2022
3271 Clear 13 1019 61 10000 0 0 11:25 13.03.2022
3272 Clear 13 1019 61 10000 2.06 80 10:44 13.03.2022
3273 Clear 14 1019 54 10000 2.57 250 09:43 13.03.2022
3274 Clear 14 1019 58 10000 2.57 250 09:20 13.03.2022
3275 Clear 14 1019 50 10000 3.6 240 08:39 13.03.2022
3276 Clear 15 1019 47 10000 3.09 250 07:37 13.03.2022
3277 Clear 16 1019 43 10000 4.12 250 05:39 13.03.2022
3278 Clear 21 1019 26 10000 7.72 270 01:48 13.03.2022
3279 Clear 23 1020 19 10000 8.23 260 23:30 12.03.2022
3280 Clear 24 1022 17 10000 5.66 260 21:48 12.03.2022
3281 Clear 23 1023 19 10000 3.09 260 20:27 12.03.2022
3282 Clear 23 1023 19 10000 1.54 340 19:46 12.03.2022
3283 Clear 20 1023 21 10000 2.06 210 18:47 12.03.2022
3284 Clear 20 1023 22 10000 2.06 210 18:20 12.03.2022
3285 Clear 14 1023 34 10000 2.06 30 16:32 12.03.2022
3286 Clear 14 1023 29 10000 2.06 30 15:55 12.03.2022
3287 Clear 12 1023 30 10000 2.57 60 15:22 12.03.2022
3288 Clear 13 1023 29 10000 2.57 60 15:22 12.03.2022
3289 Clear 13 1023 29 10000 2.06 360 13:55 12.03.2022
3290 Clear 13 1023 31 10000 2.06 60 12:33 12.03.2022
3291 Clear 13 1023 32 10000 1.54 360 11:55 12.03.2022
3292 Clear 13 1024 32 10000 2.06 30 11:34 12.03.2022
3293 Clear 13 1024 32 10000 2.06 30 11:34 12.03.2022
3294 Clear 13 1025 31 10000 2.57 90 10:43 12.03.2022
3295 Clear 14 1024 33 10000 2.57 50 09:44 12.03.2022
3296 Clear 14 1025 32 10000 1.54 360 08:41 12.03.2022
3297 Clear 14 1024 34 10000 1.54 50 06:44 12.03.2022
3298 Clear 20 1024 21 10000 6.69 260 01:44 12.03.2022
3299 Clear 22 1025 15 10000 5.14 270 23:51 11.03.2022
3300 Clear 22 1025 16 10000 5.66 260 22:45 11.03.2022
3301 Clear 22 1026 15 10000 4.63 260 21:26 11.03.2022
3302 Clear 22 1026 15 10000 3.13 253 20:51 11.03.2022
3303 Clear 21 1026 15 10000 3.6 220 20:28 11.03.2022
3304 Clear 20 1026 18 10000 2.57 260 19:36 11.03.2022
3305 Clear 19 1026 21 10000 2.57 150 18:43 11.03.2022
3306 Clear 15 1026 38 10000 0 0 17:26 11.03.2022
3307 Clear 13 1025 45 10000 2.06 350 16:26 11.03.2022
3308 Clear 12 1024 44 10000 2.06 40 15:52 11.03.2022
3309 Clear 11 1023 53 10000 3.09 170 14:18 11.03.2022
3310 Clear 12 1022 52 10000 3.6 340 12:43 11.03.2022
3311 Clear 12 1022 51 10000 3.6 340 12:20 11.03.2022
3312 Clear 13 1022 48 10000 2.57 0 11:40 11.03.2022
3313 Clear 13 1021 64 10000 2.57 100 09:37 11.03.2022
3314 Clear 13 1020 67 10000 2.57 60 08:40 11.03.2022
3315 Clear 14 1020 61 10000 2.06 350 07:49 11.03.2022
3316 Clear 13 1020 49 10000 2.06 120 06:59 11.03.2022
3317 Clear 14 1019 64 10000 2.57 240 05:20 11.03.2022
3318 Clear 17 1016 65 10000 4.12 240 02:45 11.03.2022
3319 Clear 19 1015 55 10000 7.72 190 22:51 10.03.2022
3320 Clear 19 1014 55 10000 7.72 190 22:27 10.03.2022
3321 Clear 19 1015 57 10000 8.75 220 21:26 10.03.2022
3322 Clear 19 1015 58 10000 7.72 330 20:45 10.03.2022
3323 Clear 17 1015 60 10000 3.6 290 19:22 10.03.2022
3324 Clear 16 1015 65 10000 2.06 140 18:39 10.03.2022
3325 Clear 14 1014 76 10000 1.54 0 16:54 10.03.2022
3326 Clouds 11 1014 81 10000 0 0 15:41 10.03.2022
3327 Clouds 12 1013 82 10000 1.54 0 14:24 10.03.2022
3328 Clouds 12 1012 82 10000 3.6 100 12:50 10.03.2022
3329 Clouds 12 1013 82 10000 3.09 140 11:39 10.03.2022
3330 Clouds 12 1013 82 10000 3.6 100 10:19 10.03.2022
3331 Clouds 13 1014 85 10000 3.09 140 08:48 10.03.2022
3332 Clouds 13 1014 82 10000 2.06 170 06:36 10.03.2022
3333 Clear 14 1013 74 10000 5.14 190 03:42 10.03.2022
3334 Clear 19 1013 57 10000 6.17 250 00:23 10.03.2022
3335 Clear 20 1014 47 10000 4.63 200 22:46 09.03.2022
3336 Clear 19 1015 46 10000 4.12 250 21:48 09.03.2022
3337 Clear 19 1016 45 10000 4.12 250 21:23 09.03.2022
3338 Clear 17 1017 46 10000 4.63 150 19:40 09.03.2022
3339 Clear 15 1017 54 10000 3.09 130 18:19 09.03.2022
3340 Clear 13 1016 52 10000 3.09 90 17:26 09.03.2022
3341 Smoke 11 1016 56 10000 3.09 90 16:23 09.03.2022
3342 Smoke 10 1016 57 10000 2.06 90 14:32 09.03.2022
3343 Smoke 10 1016 51 10000 2.06 100 13:52 09.03.2022
3344 Smoke 10 1016 58 10000 2.06 90 12:36 09.03.2022
3345 Smoke 11 1016 53 10000 2.57 80 11:48 09.03.2022
3346 Smoke 11 1016 53 10000 2.57 80 11:18 09.03.2022
3347 Clear 12 1016 56 10000 2.57 340 09:45 09.03.2022
3348 Clear 12 1016 49 10000 3.6 250 08:47 09.03.2022
3349 Clear 13 1017 43 10000 2.57 300 06:51 09.03.2022
3350 Clear 18 1017 32 10000 7.2 260 01:54 09.03.2022
3351 Clear 21 1017 26 10000 7.72 260 00:26 09.03.2022
3352 Clear 21 1019 20 10000 6.17 240 22:46 08.03.2022
3353 Clear 21 1020 20 10000 5.14 270 21:52 08.03.2022
3354 Clear 21 1020 19 10000 5.14 270 21:22 08.03.2022
3355 Clear 21 1020 19 10000 5.14 270 21:22 08.03.2022
3356 Clear 20 1021 20 10000 5.14 250 20:24 08.03.2022
3357 Clear 19 1021 21 10000 3.6 250 19:24 08.03.2022
3358 Clear 17 1022 26 10000 2.06 340 18:23 08.03.2022
3359 Clear 14 1022 39 10000 0 0 16:56 08.03.2022
3360 Clear 11 1022 38 10000 0 0 14:58 08.03.2022
3361 Clear 11 1021 41 10000 0 0 13:54 08.03.2022
3362 Clear 11 1021 43 10000 1.54 310 12:28 08.03.2022
3363 Clear 11 1021 45 10000 1.54 20 11:43 08.03.2022
3364 Clear 12 1022 45 10000 1.54 310 10:29 08.03.2022
3365 Clear 13 1022 47 10000 0.45 356 08:58 08.03.2022
3366 Clear 14 1021 51 10000 2.57 130 06:31 08.03.2022
3367 Clear 15 1021 54 10000 5.66 250 03:48 08.03.2022
3368 Clear 20 1022 32 10000 8.23 30 22:53 07.03.2022
3369 Clear 20 1023 28 10000 6.17 30 21:45 07.03.2022
3370 Clear 20 1023 29 10000 6.17 30 21:27 07.03.2022
3371 Clear 19 1024 32 10000 7.72 30 20:38 07.03.2022
3372 Clear 18 1024 37 10000 2.06 110 19:50 07.03.2022
3373 Clear 17 1024 41 10000 2.06 110 19:24 07.03.2022
3374 Clear 16 1024 48 10000 2.06 110 18:38 07.03.2022
3375 Clear 12 1024 58 10000 3.09 50 17:33 07.03.2022
3376 Clear 11 1024 61 10000 2.06 50 16:55 07.03.2022
3377 Clear 8 1023 69 10000 1.54 20 14:57 07.03.2022
3378 Smoke 8 1023 67 10000 2.06 50 12:48 07.03.2022
3379 Smoke 8 1023 67 10000 2.06 50 12:20 07.03.2022
3380 Clear 9 1024 64 10000 1.54 310 10:35 07.03.2022
3381 Clear 10 1024 63 10000 2.57 360 08:35 07.03.2022
3382 Clear 13 1023 56 10000 2.57 220 02:58 07.03.2022
3383 Clear 16 1022 42 10000 6.17 260 00:22 07.03.2022
3384 Clear 17 1022 43 10000 6.69 250 23:29 06.03.2022
3385 Clear 17 1023 40 10000 5.66 240 22:32 06.03.2022
3386 Clear 16 1023 40 10000 3.6 150 21:45 06.03.2022
3387 Clear 15 1024 45 10000 2.57 110 20:30 06.03.2022
3388 Clear 15 1024 51 10000 2.06 0 19:50 06.03.2022
3389 Clear 13 1024 58 10000 3.09 50 18:51 06.03.2022
3390 Clear 11 1023 67 10000 1.54 0 17:54 06.03.2022
3391 Clear 10 1023 67 10000 3.09 0 17:20 06.03.2022
3392 Clear 8 1022 71 10000 2.06 260 16:41 06.03.2022
3393 Clear 7 1021 67 10000 2.06 40 15:37 06.03.2022
3394 Clear 7 1021 71 10000 2.06 40 14:49 06.03.2022
3395 Clear 7 1021 71 10000 2.06 40 14:30 06.03.2022
3396 Clear 7 1020 66 10000 2.06 350 12:44 06.03.2022
3397 Clear 7 1021 70 10000 4.12 260 11:56 06.03.2022
3398 Clear 8 1020 64 10000 4.63 340 10:52 06.03.2022
3399 Clear 9 1020 61 10000 4.12 340 09:43 06.03.2022
3400 Clear 9 1020 64 10000 2.57 230 08:29 06.03.2022
3401 Clear 10 1019 63 10000 3.09 340 07:34 06.03.2022
3402 Clear 11 1017 73 10000 8.23 270 04:46 06.03.2022
3403 Clouds 13 1017 60 10000 14.92 270 00:44 06.03.2022
3404 Clouds 14 1017 60 10000 14.92 270 00:25 06.03.2022
3405 Clouds 14 1016 53 10000 15.95 250 23:20 05.03.2022
3406 Clouds 14 1017 54 10000 12.86 250 22:43 05.03.2022
3407 Clouds 14 1018 53 10000 13.38 260 21:45 05.03.2022
3408 Clouds 14 1018 53 10000 13.38 260 21:20 05.03.2022
3409 Clear 13 1019 56 10000 10.29 270 19:24 05.03.2022
3410 Clouds 13 1019 58 10000 6.17 280 18:51 05.03.2022
3411 Clouds 12 1018 68 10000 2.57 330 17:53 05.03.2022
3412 Clouds 10 1018 78 10000 2.57 330 16:32 05.03.2022
3413 Clouds 9 1017 81 10000 3.6 300 15:31 05.03.2022
3414 Clouds 9 1016 81 10000 1.54 220 14:44 05.03.2022
3415 Clouds 10 1016 80 10000 1.54 220 14:26 05.03.2022
3416 Clouds 10 1016 78 10000 8.23 260 13:20 05.03.2022
3417 Clouds 11 1017 81 10000 6.17 240 11:48 05.03.2022
3418 Clouds 11 1017 81 10000 6.17 240 11:18 05.03.2022
3419 Clouds 11 1018 82 10000 5.14 160 09:59 05.03.2022
3420 Clouds 12 1018 82 10000 6.17 140 08:59 05.03.2022
3421 Clouds 12 1018 85 10000 7.2 240 07:37 05.03.2022
3422 Clouds 12 1017 83 10000 9.26 250 05:43 05.03.2022
3423 Clouds 15 1016 73 10000 9.26 260 02:27 05.03.2022
3424 Clouds 16 1015 68 10000 7.2 250 23:37 04.03.2022
3425 Clouds 16 1015 67 10000 7.2 250 22:42 04.03.2022
3426 Clouds 16 1015 64 10000 8.23 260 21:48 04.03.2022
3427 Clouds 16 1015 62 10000 5.66 260 20:54 04.03.2022
3428 Clouds 17 1015 60 10000 5.66 260 20:24 04.03.2022
3429 Clouds 16 1014 60 10000 4.63 270 19:36 04.03.2022
3430 Clouds 16 1014 61 10000 2.06 0 18:44 04.03.2022
3431 Haze 14 1013 71 9656 2.06 10 17:32 04.03.2022
3432 Haze 12 1013 82 9656 0 0 16:54 04.03.2022
3433 Clouds 11 1012 84 10000 2.57 40 15:29 04.03.2022
3434 Clear 11 1012 84 10000 3.09 60 14:29 04.03.2022
3435 Clear 12 1011 82 10000 0 0 13:26 04.03.2022
3436 Clear 12 1011 82 10000 1.54 110 13:26 04.03.2022
3437 Clear 13 1012 83 10000 2.57 170 11:46 04.03.2022
3438 Clouds 13 1012 84 10000 3.09 140 10:52 04.03.2022
3439 Clouds 14 1012 83 10000 4.12 130 09:52 04.03.2022
3440 Clouds 14 1013 82 10000 3.6 210 08:39 04.03.2022
3441 Clouds 14 1013 79 10000 5.66 110 07:36 04.03.2022
3442 Clouds 15 1013 75 10000 3.09 160 03:56 04.03.2022
3443 Clear 19 1012 57 10000 6.17 190 00:38 04.03.2022
3444 Clear 20 1013 53 10000 6.17 180 22:28 03.03.2022
3445 Clear 20 1014 51 10000 5.14 260 21:45 03.03.2022
3446 Clear 20 1014 50 10000 5.14 260 21:26 03.03.2022
3447 Haze 19 1014 55 8047 4.12 200 20:18 03.03.2022
3448 Haze 17 1015 59 6437 3.6 200 18:55 03.03.2022
3449 Haze 17 1014 59 4828 2.57 160 18:24 03.03.2022
3450 Mist 15 1014 60 4828 2.06 110 17:31 03.03.2022
3451 Mist 13 1014 63 10000 3.09 130 16:26 03.03.2022
3452 Mist 13 1013 62 10000 2.57 120 15:32 03.03.2022
3453 Mist 13 1013 68 10000 3.6 70 14:43 03.03.2022
3454 Mist 13 1013 67 10000 3.6 70 14:24 03.03.2022
3455 Fog 14 1013 64 10000 2.06 100 12:27 03.03.2022
3456 Clear 15 1014 55 10000 2.57 40 10:49 03.03.2022
3457 Clear 15 1015 51 10000 2.06 0 09:56 03.03.2022
3458 Clear 15 1015 63 10000 4.12 110 08:34 03.03.2022
3459 Clear 17 1014 44 10000 2.57 220 06:38 03.03.2022
3460 Clear 18 1014 40 10000 2.06 250 05:20 03.03.2022
3461 Clear 26 1015 24 10000 5.14 260 23:45 02.03.2022
3462 Clear 27 1016 24 10000 5.66 260 22:54 02.03.2022
3463 Clear 27 1016 26 10000 5.66 260 22:31 02.03.2022
3464 Clear 26 1017 20 10000 2.06 140 20:59 02.03.2022
3465 Clear 26 1017 19 10000 2.06 160 20:25 02.03.2022
3466 Clear 25 1017 20 10000 1.54 0 19:38 02.03.2022
3467 Clear 24 1017 20 10000 1.54 0 19:18 02.03.2022
3468 Clear 21 1018 25 10000 2.57 0 18:31 02.03.2022
3469 Clear 19 1017 29 10000 1.54 30 17:42 02.03.2022
3470 Clear 18 1017 37 10000 1.54 100 16:52 02.03.2022
3471 Clear 17 1016 31 10000 0 0 15:59 02.03.2022
3472 Smoke 15 1016 44 10000 2.06 80 14:29 02.03.2022
3473 Smoke 17 1016 39 10000 1.54 10 12:56 02.03.2022
3474 Smoke 16 1017 43 10000 0 0 12:34 02.03.2022
3475 Clear 16 1017 38 10000 0 0 11:27 02.03.2022
3476 Clear 17 1018 35 10000 1.54 100 10:39 02.03.2022
3477 Clear 17 1018 35 10000 3.6 100 09:37 02.03.2022
3478 Clear 17 1018 36 10000 2.06 0 08:36 02.03.2022
3479 Clear 17 1018 38 10000 2.06 130 07:23 02.03.2022
3480 Clear 18 1018 38 10000 1.54 0 05:42 02.03.2022
3481 Clear 27 1016 19 10000 5.66 230 00:42 02.03.2022
3482 Clear 27 1016 19 10000 6.17 240 23:35 01.03.2022
3483 Clear 28 1017 21 10000 5.14 260 22:40 01.03.2022
3484 Clear 29 1018 21 10000 5.14 260 21:53 01.03.2022
3485 Clear 28 1018 15 10000 6.17 250 20:44 01.03.2022
3486 Clear 28 1018 15 10000 3.09 0 20:22 01.03.2022
3487 Clear 25 1018 17 10000 0 0 18:59 01.03.2022
3488 Clear 23 1019 26 10000 2.57 240 18:25 01.03.2022
3489 Clear 22 1019 27 10000 2.06 120 17:55 01.03.2022
3490 Clear 18 1018 32 10000 2.57 50 16:39 01.03.2022
3491 Smoke 15 1018 32 10000 2.57 60 15:49 01.03.2022
3492 Clear 16 1018 34 10000 1.54 20 14:54 01.03.2022
3493 Clear 16 1018 34 10000 2.24 352 14:33 01.03.2022
3494 Clear 16 1018 33 10000 1.54 40 13:26 01.03.2022
3495 Clear 16 1018 31 10000 2.06 80 12:38 01.03.2022
3496 Clear 16 1018 29 10000 4.63 250 11:44 01.03.2022
3497 Clear 17 1018 31 10000 4.12 350 09:53 01.03.2022
3498 Clear 18 1018 32 10000 6.17 340 08:36 01.03.2022
3499 Clear 19 1019 26 10000 6.17 350 07:35 01.03.2022
3500 Clear 21 1017 34 10000 2.57 270 03:29 01.03.2022
3501 Clear 27 1017 21 10000 3.6 210 00:58 01.03.2022
3502 Clear 27 1017 19 10000 8.23 20 23:48 28.02.2022
3503 Clouds 27 1018 20 10000 7.72 20 22:52 28.02.2022
3504 Clear 27 1019 13 10000 10.29 30 21:48 28.02.2022
3505 Clear 27 1019 13 10000 10.29 30 21:48 28.02.2022
3506 Haze 26 1019 13 10000 10.29 30 21:24 28.02.2022
3507 Clear 25 1021 15 10000 2.06 190 19:52 28.02.2022
3508 Clear 24 1021 15 10000 2.06 190 19:22 28.02.2022
3509 Clear 22 1021 18 10000 0 0 18:36 28.02.2022
3510 Clear 17 1021 30 10000 2.06 110 17:23 28.02.2022
3511 Clear 14 1020 30 10000 2.06 70 16:32 28.02.2022
3512 Clear 13 1020 27 10000 2.06 90 15:23 28.02.2022
3513 Smoke 14 1020 28 10000 2.57 90 14:31 28.02.2022
3514 Clear 14 1020 28 10000 2.06 30 13:34 28.02.2022
3515 Clear 14 1021 28 10000 1.54 60 12:37 28.02.2022
3516 Clear 14 1021 29 10000 0 0 11:44 28.02.2022
3517 Clear 14 1022 31 10000 2.06 50 10:48 28.02.2022
3518 Clear 15 1022 32 10000 2.06 50 10:19 28.02.2022
3519 Clear 15 1022 30 10000 2.06 150 09:31 28.02.2022
3520 Clear 16 1022 29 10000 0.45 356 08:29 28.02.2022
3521 Clear 16 1022 27 10000 3.6 130 07:20 28.02.2022
3522 Clear 16 1022 29 10000 1.54 0 04:44 28.02.2022
3523 Clear 17 1022 29 10000 1.54 0 04:23 28.02.2022
3524 Clear 23 1022 15 10000 6.17 260 23:27 27.02.2022
3525 Clear 23 1023 15 10000 3.09 230 22:33 27.02.2022
3526 Clear 23 1024 14 10000 1.79 255 21:51 27.02.2022
3527 Clear 22 1025 14 10000 1.79 271 20:59 27.02.2022
3528 Clear 22 1025 13 10000 2.06 100 20:27 27.02.2022
3529 Clear 21 1025 15 10000 1.34 67 19:57 27.02.2022
3530 Clear 19 1025 16 10000 2.57 30 19:26 27.02.2022
3531 Clear 18 1026 16 10000 3.09 10 18:47 27.02.2022
3532 Clear 16 1026 26 10000 2.06 0 17:56 27.02.2022
3533 Clear 13 1025 27 10000 2.06 90 16:54 27.02.2022
3534 Clear 11 1025 29 10000 2.06 90 16:21 27.02.2022
3535 Clear 12 1025 26 10000 3.6 350 13:34 27.02.2022
3536 Clear 12 1025 26 10000 3.6 10 12:33 27.02.2022
3537 Clear 13 1026 27 10000 0.89 279 10:59 27.02.2022
3538 Clear 13 1026 28 10000 2.57 110 10:20 27.02.2022
3539 Clear 13 1026 32 10000 2.57 70 09:50 27.02.2022
3540 Clear 12 1026 33 10000 2.57 70 09:20 27.02.2022
3541 Clear 13 1026 33 10000 2.06 20 08:20 27.02.2022
3542 Clear 13 1026 33 10000 2.06 20 08:20 27.02.2022
3543 Clear 14 1025 38 10000 3.09 350 05:38 27.02.2022
3544 Clear 18 1024 29 10000 4.12 270 02:35 27.02.2022
3545 Clear 20 1024 23 10000 5.66 290 23:30 26.02.2022
3546 Clear 20 1024 24 10000 5.66 290 23:30 26.02.2022
3547 Clear 20 1025 22 10000 5.14 260 22:31 26.02.2022
3548 Clear 20 1026 19 10000 4.12 250 21:19 26.02.2022
3549 Clear 19 1026 20 10000 2.57 200 20:33 26.02.2022
3550 Clear 18 1026 21 10000 2.57 160 19:52 26.02.2022
3551 Clear 18 1026 23 10000 2.57 160 19:31 26.02.2022
3552 Clear 14 1026 35 10000 1.54 90 17:55 26.02.2022
3553 Clear 12 1026 38 10000 1.54 100 17:30 26.02.2022
3554 Clear 10 1025 44 10000 1.54 90 16:34 26.02.2022
3555 Clear 9 1024 43 10000 0 0 15:26 26.02.2022
3556 Clear 9 1025 43 10000 0 0 14:58 26.02.2022
3557 Clear 9 1024 45 10000 2.06 50 14:39 26.02.2022
3558 Clear 9 1023 45 10000 2.06 80 13:46 26.02.2022
3559 Clear 9 1023 47 10000 2.06 60 12:53 26.02.2022
3560 Clear 9 1023 48 10000 2.57 60 11:39 26.02.2022
3561 Clear 10 1023 47 10000 0 0 10:59 26.02.2022
3562 Clear 10 1023 51 10000 1.54 40 09:28 26.02.2022
3563 Clear 10 1023 56 10000 2.06 0 08:21 26.02.2022
3564 Clear 12 1022 52 10000 5.14 270 04:22 26.02.2022
3565 Clear 18 1021 31 10000 5.66 250 23:50 25.02.2022
3566 Clear 18 1022 24 10000 4.63 240 22:31 25.02.2022
3567 Clear 17 1023 24 10000 4.12 260 21:30 25.02.2022
3568 Clear 17 1023 25 10000 2.06 0 20:34 25.02.2022
3569 Clear 16 1023 27 10000 0.89 149 19:56 25.02.2022
3570 Clear 11 1023 44 10000 1.54 70 17:54 25.02.2022
3571 Clear 9 1022 46 10000 1.54 60 16:48 25.02.2022
3572 Clear 7 1022 47 10000 0 0 15:50 25.02.2022
3573 Clear 7 1022 49 10000 0 0 15:23 25.02.2022
3574 Clear 7 1022 47 10000 0 0 14:55 25.02.2022
3575 Clear 7 1022 49 10000 1.54 340 14:24 25.02.2022
3576 Clear 7 1022 48 10000 2.06 70 13:30 25.02.2022
3577 Clear 7 1022 48 10000 2.57 60 12:21 25.02.2022
3578 Clear 8 1022 46 10000 2.06 40 11:21 25.02.2022
3579 Clear 8 1023 48 10000 1.54 50 10:23 25.02.2022
3580 Clear 8 1023 49 10000 3.09 300 09:45 25.02.2022
3581 Clear 8 1023 46 10000 3.09 300 08:22 25.02.2022
3582 Clear 9 1023 50 10000 3.09 300 06:56 25.02.2022
3583 Clear 10 1023 49 10000 6.69 270 05:41 25.02.2022
3584 Clear 12 1022 43 10000 8.23 260 02:46 25.02.2022
3585 Clear 16 1024 22 10000 4.63 240 22:47 24.02.2022
3586 Clear 15 1025 20 10000 4.63 260 21:51 24.02.2022
3587 Clear 15 1025 20 10000 4.63 260 21:30 24.02.2022
3588 Clear 15 1026 21 10000 2.57 200 20:47 24.02.2022
3589 Clear 13 1026 26 10000 2.06 130 19:32 24.02.2022
3590 Clear 11 1026 33 10000 2.57 0 18:21 24.02.2022
3591 Clear 10 1026 39 10000 1.54 110 17:58 24.02.2022
3592 Clear 9 1026 42 10000 1.54 0 17:21 24.02.2022
3593 Clear 6 1025 46 10000 2.57 300 16:28 24.02.2022
3594 Clear 6 1024 45 10000 1.54 80 15:44 24.02.2022
3595 Clear 5 1024 43 10000 1.54 120 14:50 24.02.2022
3596 Clear 6 1024 48 10000 1.54 120 14:19 24.02.2022
3597 Clear 6 1023 47 10000 2.57 20 13:39 24.02.2022
3598 Clear 6 1023 47 10000 2.57 20 13:39 24.02.2022
3599 Clear 7 1023 45 10000 1.79 39 11:56 24.02.2022
3600 Clear 7 1022 43 10000 4.12 360 10:39 24.02.2022
3601 Clear 7 1022 44 10000 4.63 360 08:46 24.02.2022
3602 Clear 8 1022 44 10000 4.63 360 08:22 24.02.2022
3603 Clear 9 1020 40 10000 4.63 330 05:52 24.02.2022
3604 Clouds 12 1016 35 10000 2.06 280 00:32 24.02.2022
3605 Clouds 13 1015 35 10000 8.23 330 22:38 23.02.2022
3606 Clear 13 1016 35 10000 6.17 260 21:34 23.02.2022
3607 Clear 12 1016 38 10000 5.14 260 20:30 23.02.2022
3608 Clear 12 1016 43 10000 5.14 320 19:44 23.02.2022
3609 Clear 10 1016 52 10000 6.69 340 18:32 23.02.2022
3610 Clear 8 1015 69 10000 3.09 340 17:30 23.02.2022
3611 Clear 7 1013 74 10000 3.6 310 14:34 23.02.2022
3612 Clouds 7 1013 72 10000 0 0 12:42 23.02.2022
3613 Clouds 8 1013 71 10000 5.66 300 11:34 23.02.2022
3614 Clouds 8 1013 70 10000 6.17 280 10:31 23.02.2022
3615 Clouds 8 1014 73 10000 0 0 08:59 23.02.2022
3616 Clouds 9 1014 67 10000 3.6 270 07:58 23.02.2022
3617 Clouds 11 1013 69 10000 10.8 260 03:49 23.02.2022
3618 Clouds 14 1013 57 10000 9.77 240 00:28 23.02.2022
3619 Clear 14 1014 56 10000 11.83 250 23:36 22.02.2022
3620 Clear 14 1014 56 10000 11.83 260 22:32 22.02.2022
3621 Haze 15 1015 58 4023 10.29 250 21:49 22.02.2022
3622 Clouds 14 1015 60 10000 10.29 250 21:30 22.02.2022
3623 Clouds 14 1016 61 10000 10.29 260 20:55 22.02.2022
3624 Clouds 14 1016 62 10000 10.29 260 20:30 22.02.2022
3625 Clouds 14 1016 63 10000 5.66 260 19:42 22.02.2022
3626 Clouds 13 1016 63 10000 5.66 260 19:23 22.02.2022
3627 Clouds 12 1016 74 10000 4.63 250 17:49 22.02.2022
3628 Clear 12 1016 76 10000 4.63 250 17:23 22.02.2022
3629 Clouds 11 1015 79 10000 5.14 250 16:41 22.02.2022
3630 Clouds 10 1015 79 10000 4.63 250 15:44 22.02.2022
3631 Clouds 10 1015 79 10000 4.63 250 15:44 22.02.2022
3632 Clouds 11 1015 79 10000 5.14 240 14:44 22.02.2022
3633 Clouds 11 1015 79 10000 4.63 120 12:44 22.02.2022
3634 Clouds 11 1016 76 10000 3.6 240 10:52 22.02.2022
3635 Clouds 11 1016 74 10000 4.12 120 08:48 22.02.2022
3636 Clouds 12 1016 71 10000 4.12 140 07:27 22.02.2022
3637 Clouds 12 1016 72 10000 3.09 200 05:57 22.02.2022
3638 Clear 13 1015 67 10000 4.12 180 02:45 22.02.2022
3639 Clear 15 1014 61 10000 8.23 240 22:46 21.02.2022
3640 Clouds 15 1015 61 10000 7.72 260 21:46 21.02.2022
3641 Clouds 15 1015 65 10000 8.75 270 20:36 21.02.2022
3642 Clouds 14 1015 68 10000 4.63 130 18:46 21.02.2022
3643 Clouds 13 1015 74 10000 3.09 140 17:36 21.02.2022
3644 Clear 11 1014 78 10000 2.57 140 15:25 21.02.2022
3645 Clouds 12 1013 77 10000 2.57 100 14:22 21.02.2022
3646 Clouds 12 1014 77 10000 2.06 90 13:30 21.02.2022
3647 Clouds 12 1014 77 10000 2.57 110 12:24 21.02.2022
3648 Clouds 12 1015 76 10000 2.57 150 11:20 21.02.2022
3649 Clouds 12 1015 79 10000 2.57 0 09:50 21.02.2022
3650 Clouds 12 1015 81 10000 3.09 200 05:35 21.02.2022
3651 Clear 17 1014 65 10000 7.72 230 00:18 21.02.2022
3652 Clear 19 1014 58 10000 5.66 260 22:27 20.02.2022
3653 Clear 19 1015 57 10000 3.6 240 21:42 20.02.2022
3654 Clear 19 1015 56 10000 0.89 212 20:59 20.02.2022
3655 Haze 18 1016 61 9656 2.57 250 20:41 20.02.2022
3656 Haze 17 1016 64 8047 2.57 200 19:42 20.02.2022
3657 Haze 15 1016 70 6437 0 0 18:52 20.02.2022
3658 Haze 15 1016 71 6437 1.54 140 18:32 20.02.2022
3659 Haze 13 1016 75 6437 0 0 17:52 20.02.2022
3660 Mist 11 1015 77 4828 0 0 15:54 20.02.2022
3661 Mist 10 1015 74 10000 1.54 100 14:52 20.02.2022
3662 Mist 11 1015 75 10000 0 0 13:33 20.02.2022
3663 Clear 11 1016 71 10000 1.54 210 12:34 20.02.2022
3664 Clear 12 1017 72 10000 2.57 240 10:47 20.02.2022
3665 Clear 12 1017 72 10000 2.57 240 10:20 20.02.2022
3666 Clear 13 1016 65 10000 3.09 100 08:51 20.02.2022
3667 Clear 21 1016 36 10000 7.2 260 00:55 20.02.2022
3668 Clear 22 1016 32 10000 7.2 260 00:30 20.02.2022
3669 Clear 23 1017 29 10000 6.17 260 23:18 19.02.2022
3670 Clear 23 1017 31 10000 5.14 260 22:22 19.02.2022
3671 Clear 23 1019 27 10000 5.66 280 21:34 19.02.2022
3672 Clear 21 1020 28 10000 1.54 0 19:54 19.02.2022
3673 Clear 21 1020 26 10000 1.54 0 19:33 19.02.2022
3674 Clear 19 1020 32 10000 0 0 18:35 19.02.2022
3675 Clear 16 1020 37 10000 0 0 17:37 19.02.2022
3676 Clear 12 1020 46 10000 1.54 90 16:34 19.02.2022
3677 Clear 13 1019 41 10000 1.54 110 15:19 19.02.2022
3678 Clear 13 1019 42 10000 0 0 14:52 19.02.2022
3679 Clear 13 1019 44 10000 1.54 40 13:45 19.02.2022
3680 Clear 13 1020 45 10000 2.06 80 11:39 19.02.2022
3681 Clear 14 1021 42 10000 2.57 50 09:57 19.02.2022
3682 Clear 14 1021 47 10000 1.54 60 07:55 19.02.2022
3683 Clear 16 1021 48 10000 5.66 270 04:32 19.02.2022
3684 Clear 23 1021 25 10000 5.66 260 23:38 18.02.2022
3685 Clear 22 1022 19 10000 4.12 260 21:54 18.02.2022
3686 Clear 22 1023 20 10000 3.09 250 20:57 18.02.2022
3687 Clear 21 1024 22 10000 0 0 19:54 18.02.2022
3688 Clear 18 1024 28 10000 1.54 70 18:50 18.02.2022
3689 Clear 17 1024 27 10000 1.54 70 18:22 18.02.2022
3690 Clear 16 1025 29 10000 0 0 17:55 18.02.2022
3691 Clear 11 1024 40 10000 2.06 40 15:23 18.02.2022
3692 Clear 12 1023 41 10000 2.06 60 13:55 18.02.2022
3693 Clear 12 1023 41 10000 2.06 60 13:25 18.02.2022
3694 Clear 11 1024 45 10000 2.06 80 12:40 18.02.2022
3695 Clear 12 1024 40 10000 1.54 240 11:40 18.02.2022
3696 Clear 13 1024 38 10000 1.54 0 10:23 18.02.2022
3697 Clear 14 1026 42 10000 1.31 29 06:58 18.02.2022
3698 Clear 14 1024 49 10000 5.66 260 05:41 18.02.2022
3699 Clear 21 1023 22 10000 6.17 270 23:43 17.02.2022
3700 Clear 21 1025 22 10000 4.12 210 21:46 17.02.2022
3701 Clear 20 1025 23 10000 4.12 210 21:20 17.02.2022
3702 Clear 20 1025 27 10000 3.6 260 20:39 17.02.2022
3703 Clear 19 1025 31 10000 4.12 120 19:50 17.02.2022
3704 Clear 17 1025 43 10000 2.57 130 18:54 17.02.2022
3705 Clear 15 1024 58 10000 6.69 350 17:55 17.02.2022
3706 Clear 13 1023 64 10000 2.06 0 16:43 17.02.2022
3707 Clear 11 1023 75 10000 2.06 20 15:40 17.02.2022
3708 Clear 11 1022 72 10000 2.06 330 14:28 17.02.2022
3709 Clear 11 1021 78 10000 0.45 67 12:50 17.02.2022
3710 Clear 10 1022 80 10000 1.54 10 11:27 17.02.2022
3711 Clear 11 1021 82 10000 3.6 50 09:18 17.02.2022
3712 Clear 12 1018 74 10000 2.57 170 04:41 17.02.2022
3713 Clear 18 1015 48 10000 6.17 230 23:21 16.02.2022
3714 Clear 17 1016 42 10000 3.6 120 21:45 16.02.2022
3715 Clear 16 1016 44 10000 4.12 130 20:19 16.02.2022
3716 Clear 14 1016 54 10000 3.09 100 18:43 16.02.2022
3717 Clear 12 1016 63 10000 2.06 0 17:53 16.02.2022
3718 Clear 9 1014 64 10000 1.54 0 15:55 16.02.2022
3719 Clear 9 1013 60 10000 3.09 330 15:20 16.02.2022
3720 Clear 9 1012 63 10000 5.14 280 13:31 16.02.2022
3721 Clear 9 1012 60 10000 3.09 310 12:20 16.02.2022
3722 Clear 9 1012 62 10000 3.09 300 11:35 16.02.2022
3723 Clear 10 1012 62 10000 4.12 300 10:34 16.02.2022
3724 Clouds 10 1011 65 10000 3.44 328 08:58 16.02.2022
3725 Clouds 10 1011 59 10000 5.14 310 06:43 16.02.2022
3726 Clouds 15 1008 59 10000 10.8 260 23:46 15.02.2022
3727 Clouds 15 1009 64 10000 10.8 270 22:34 15.02.2022
3728 Clouds 15 1010 66 10000 7.2 250 21:49 15.02.2022
3729 Clouds 15 1010 69 10000 7.2 250 21:29 15.02.2022
3730 Clouds 15 1011 72 10000 6.69 260 20:56 15.02.2022
3731 Clouds 15 1011 77 10000 3.84 188 19:59 15.02.2022
3732 Clouds 14 1012 76 10000 5.14 260 19:33 15.02.2022
3733 Clouds 14 1012 78 10000 5.14 260 18:24 15.02.2022
3734 Clouds 14 1012 78 10000 6.17 140 17:52 15.02.2022
3735 Clouds 13 1012 79 10000 6.17 140 17:26 15.02.2022
3736 Clouds 13 1012 80 10000 5.14 130 15:34 15.02.2022
3737 Clouds 13 1012 83 10000 3.09 150 13:49 15.02.2022
3738 Clouds 13 1012 83 10000 3.09 150 13:25 15.02.2022
3739 Clouds 13 1014 85 10000 3.09 150 11:41 15.02.2022
3740 Clouds 13 1014 85 10000 3.09 150 11:41 15.02.2022
3741 Clouds 13 1014 85 10000 3.6 120 10:19 15.02.2022
3742 Clear 13 1014 86 10000 4.12 250 07:41 15.02.2022
3743 Clear 14 1014 81 10000 4.63 230 06:36 15.02.2022
3744 Fog 23 1016 37 10000 4.12 270 23:34 14.02.2022
3745 Clear 24 1016 38 10000 1.79 256 21:55 14.02.2022
3746 Clear 24 1018 30 10000 5.14 230 20:52 14.02.2022
3747 Clear 23 1019 21 10000 2.06 100 19:46 14.02.2022
3748 Clear 22 1019 22 10000 2.06 100 19:28 14.02.2022
3749 Clear 20 1019 31 10000 2.57 120 18:23 14.02.2022
3750 Clear 17 1019 39 10000 1.54 70 17:27 14.02.2022
3751 Fog 16 1019 39 10000 1.54 300 16:33 14.02.2022
3752 Clear 16 1019 38 10000 1.54 280 14:43 14.02.2022
3753 Clear 16 1019 37 10000 0 0 13:34 14.02.2022
3754 Clear 18 1020 24 10000 1.37 60 12:58 14.02.2022
3755 Clear 18 1019 27 10000 0.62 32 11:57 14.02.2022
3756 Clear 17 1020 39 10000 1.54 70 11:38 14.02.2022
3757 Clear 18 1020 37 10000 2.06 70 10:18 14.02.2022
3758 Clear 19 1020 37 10000 3.09 250 07:49 14.02.2022
3759 Clear 19 1020 35 10000 3.09 250 07:24 14.02.2022
3760 Clear 29 1021 15 10000 5.14 270 22:48 13.02.2022
3761 Clear 29 1021 16 10000 5.14 270 22:30 13.02.2022
3762 Clear 29 1021 14 10000 4.63 260 21:59 13.02.2022
3763 Clear 29 1022 13 10000 4.63 260 21:23 13.02.2022
3764 Clear 28 1023 16 10000 3.09 110 20:27 13.02.2022
3765 Clear 25 1023 17 10000 0 0 19:18 13.02.2022
3766 Clear 24 1023 24 10000 3.09 60 18:41 13.02.2022
3767 Clear 19 1023 28 10000 2.06 70 17:32 13.02.2022
3768 Clear 17 1021 26 10000 1.54 80 15:51 13.02.2022
3769 Clear 18 1021 23 10000 2.06 90 14:50 13.02.2022
3770 Clear 18 1021 23 10000 3.09 50 13:29 13.02.2022
3771 Clear 19 1021 23 10000 3.6 40 12:42 13.02.2022
3772 Clear 19 1021 23 10000 3.09 40 10:44 13.02.2022
3773 Clear 20 1021 22 10000 3.09 40 10:25 13.02.2022
3774 Clear 20 1021 27 10000 1.54 20 08:57 13.02.2022
3775 Clear 24 1019 30 10000 3.6 270 02:50 13.02.2022
3776 Clear 30 1018 14 10000 5.14 250 00:33 13.02.2022
3777 Clear 30 1019 11 10000 2.57 110 22:56 12.02.2022
3778 Clear 30 1019 11 10000 2.57 110 22:32 12.02.2022
3779 Clear 30 1020 13 10000 2.57 90 21:18 12.02.2022
3780 Clear 29 1020 16 10000 3.09 0 20:25 12.02.2022
3781 Clear 25 1021 24 10000 3.6 50 18:54 12.02.2022
3782 Clear 23 1021 27 10000 3.6 50 18:36 12.02.2022
3783 Clear 22 1020 29 10000 2.57 80 17:55 12.02.2022
3784 Clear 19 1021 34 10000 0.45 23 16:54 12.02.2022
3785 Clear 17 1019 40 10000 3.6 40 16:18 12.02.2022
3786 Clear 17 1018 38 10000 2.06 50 15:23 12.02.2022
3787 Clear 17 1017 37 10000 2.57 20 14:30 12.02.2022
3788 Clear 17 1017 39 10000 2.06 50 12:26 12.02.2022
3789 Clear 18 1017 35 10000 2.57 70 10:34 12.02.2022
3790 Clear 18 1017 36 10000 1.54 110 09:38 12.02.2022
3791 Clear 19 1016 38 10000 1.54 40 08:48 12.02.2022
3792 Clear 19 1016 38 10000 1.54 40 08:48 12.02.2022
3793 Clear 19 1016 36 10000 2.06 90 07:50 12.02.2022
3794 Clear 19 1015 39 10000 2.06 90 05:31 12.02.2022
3795 Clear 24 1014 34 10000 4.12 270 02:20 12.02.2022
3796 Clear 25 1015 28 10000 4.12 260 01:44 12.02.2022
3797 Clear 28 1015 24 10000 5.14 250 22:27 11.02.2022
3798 Clear 28 1016 26 10000 4.63 260 21:45 11.02.2022
3799 Clear 27 1017 23 10000 2.06 140 20:38 11.02.2022
3800 Clear 25 1017 27 10000 2.06 120 19:33 11.02.2022
3801 Clear 25 1017 28 10000 0 0 18:58 11.02.2022
3802 Clear 19 1017 38 10000 2.06 80 17:28 11.02.2022
3803 Clear 19 1017 37 10000 0 0 16:58 11.02.2022
3804 Clear 17 1016 34 10000 0 0 15:55 11.02.2022
3805 Clear 16 1016 41 10000 3.09 90 14:38 11.02.2022
3806 Clear 17 1016 41 10000 3.09 90 14:20 11.02.2022
3807 Clear 18 1016 36 10000 2.57 50 13:52 11.02.2022
3808 Clear 17 1016 38 10000 2.57 50 13:34 11.02.2022
3809 Clear 18 1016 36 10000 1.54 350 11:32 11.02.2022
3810 Clear 19 1017 37 10000 3.09 90 09:45 11.02.2022
3811 Clear 19 1017 39 10000 2.57 60 08:40 11.02.2022
3812 Clear 19 1017 40 10000 2.57 60 08:22 11.02.2022
3813 Clear 20 1017 39 10000 1.54 170 06:33 11.02.2022
3814 Clear 25 1016 32 10000 0 0 02:26 11.02.2022
3815 Clear 28 1016 26 10000 5.66 40 00:47 11.02.2022
3816 Clear 28 1017 22 10000 8.23 20 22:49 10.02.2022
3817 Clear 28 1018 18 10000 3.6 190 21:45 10.02.2022
3818 Clear 28 1019 20 10000 0.45 219 20:57 10.02.2022
3819 Clear 27 1019 20 10000 3.09 180 20:30 10.02.2022
3820 Clear 26 1019 22 10000 3.6 180 19:25 10.02.2022
3821 Clear 25 1018 22 10000 8.23 20 18:44 10.02.2022
3822 Clear 20 1018 36 10000 1.54 90 17:26 10.02.2022
3823 Clear 20 1017 34 10000 0 0 16:50 10.02.2022
3824 Clear 20 1017 40 10000 2.06 150 15:49 10.02.2022
3825 Clear 20 1016 32 10000 13.38 30 15:29 10.02.2022
3826 Clear 20 1017 25 10000 11.32 60 14:47 10.02.2022
3827 Clear 20 1017 26 10000 11.32 60 14:23 10.02.2022
3828 Clear 19 1017 34 10000 0 0 13:26 10.02.2022
3829 Clear 20 1017 32 10000 4.63 60 12:27 10.02.2022
3830 Clear 20 1017 29 10000 5.14 40 11:33 10.02.2022
3831 Clear 20 1017 28 10000 2.06 350 10:44 10.02.2022
3832 Clear 20 1017 31 10000 1.54 0 09:57 10.02.2022
3833 Clear 20 1017 30 10000 2.06 20 09:23 10.02.2022
3834 Clear 21 1016 27 10000 3.09 60 07:19 10.02.2022
3835 Clear 21 1016 23 10000 2.06 0 04:23 10.02.2022
3836 Clear 26 1016 25 10000 4.63 260 01:48 10.02.2022
3837 Clear 28 1016 20 10000 4.63 260 00:47 10.02.2022
3838 Clear 28 1016 19 10000 4.63 260 00:27 10.02.2022
3839 Clear 29 1016 13 10000 5.66 250 23:22 09.02.2022
3840 Clear 29 1017 12 10000 5.14 240 22:35 09.02.2022
3841 Clear 29 1018 13 10000 3.09 230 21:50 09.02.2022
3842 Clear 29 1018 13 10000 3.09 230 21:29 09.02.2022
3843 Clear 28 1019 14 10000 3.09 180 20:47 09.02.2022
3844 Clear 27 1019 15 10000 3.09 180 20:24 09.02.2022
3845 Clear 26 1020 18 10000 2.06 110 19:46 09.02.2022
3846 Clear 25 1020 18 10000 2.06 110 19:27 09.02.2022
3847 Clear 20 1019 30 10000 1.54 0 17:37 09.02.2022
3848 Clear 17 1019 32 10000 2.57 0 16:34 09.02.2022
3849 Clear 16 1019 29 10000 4.12 250 15:50 09.02.2022
3850 Clear 17 1018 32 10000 2.06 70 14:35 09.02.2022
3851 Clear 17 1018 39 10000 1.54 90 12:28 09.02.2022
3852 Clear 18 1019 32 10000 1.54 0 10:51 09.02.2022
3853 Clear 18 1019 30 10000 1.79 37 10:26 09.02.2022
3854 Clear 17 1019 37 10000 3.6 300 09:35 09.02.2022
3855 Clouds 19 1019 27 10000 2.07 10 08:59 09.02.2022
3856 Clouds 19 1021 28 10000 0.89 354 07:53 09.02.2022
3857 Clear 18 1020 33 10000 4.12 260 05:30 09.02.2022
3858 Clear 19 1020 34 10000 4.63 260 03:50 09.02.2022
3859 Clear 25 1019 19 10000 1.54 0 00:39 09.02.2022
3860 Clear 26 1019 18 10000 4.63 270 23:31 08.02.2022
3861 Clear 26 1020 18 10000 4.12 270 22:46 08.02.2022
3862 Clear 26 1020 16 10000 4.12 270 22:21 08.02.2022
3863 Clear 26 1022 15 10000 3.09 230 21:39 08.02.2022
3864 Clear 25 1022 15 10000 3.09 230 21:20 08.02.2022
3865 Clear 24 1022 16 10000 1.54 0 20:43 08.02.2022
3866 Clear 23 1023 18 10000 2.57 50 19:46 08.02.2022
3867 Clear 20 1023 27 10000 2.06 50 18:38 08.02.2022
3868 Clear 18 1022 26 10000 2.57 70 17:40 08.02.2022
3869 Clear 14 1022 33 10000 2.57 70 16:29 08.02.2022
3870 Clear 14 1022 30 10000 2.06 120 15:29 08.02.2022
3871 Clear 14 1022 29 10000 2.57 70 14:32 08.02.2022
3872 Clear 15 1022 28 10000 1.54 10 13:20 08.02.2022
3873 Clear 15 1023 28 10000 2.06 10 11:33 08.02.2022
3874 Clear 15 1023 29 10000 2.06 340 10:23 08.02.2022
3875 Clear 16 1024 30 10000 2.06 360 09:44 08.02.2022
3876 Clear 16 1024 32 10000 2.57 90 07:51 08.02.2022
3877 Clear 17 1023 34 10000 2.06 80 05:40 08.02.2022
3878 Clear 18 1023 31 10000 1.54 260 04:39 08.02.2022
3879 Clear 18 1023 34 10000 1.54 260 04:21 08.02.2022
3880 Clear 19 985 35 10000 3.09 240 03:36 08.02.2022
3881 Clear 19 985 33 10000 3.09 240 03:18 08.02.2022
3882 Clear 20 1023 32 10000 2.06 277 02:59 08.02.2022
3883 Clear 21 1023 31 10000 4.12 260 02:36 08.02.2022
3884 Clear 22 1023 25 10000 4.12 260 02:18 08.02.2022
3885 Clear 23 1023 21 10000 4.63 260 01:44 08.02.2022
3886 Clear 24 1023 17 10000 4.63 260 01:24 08.02.2022
3887 Clear 24 1023 15 10000 4.63 260 00:54 08.02.2022
3888 Clear 25 1023 15 10000 2.57 280 23:57 07.02.2022
3889 Clear 25 1023 14 10000 4.63 260 23:39 07.02.2022
3890 Clear 25 1023 14 10000 4.63 260 23:18 07.02.2022
3891 Clear 25 1024 14 10000 5.14 270 22:42 07.02.2022
3892 Clear 25 1024 14 10000 5.14 270 22:18 07.02.2022
3893 Clear 25 1025 15 10000 4.63 240 21:43 07.02.2022
3894 Clear 25 1025 15 10000 4.63 240 21:25 07.02.2022
3895 Clear 24 1026 16 10000 2.06 200 20:41 07.02.2022
3896 Clear 23 1026 19 10000 1.54 30 19:54 07.02.2022
3897 Clear 22 1026 19 10000 2.06 110 19:36 07.02.2022
3898 Clear 19 1026 31 10000 0 0 18:18 07.02.2022
3899 Clear 15 1025 33 10000 2.57 60 16:53 07.02.2022
3900 Clear 14 1025 33 10000 2.57 60 16:20 07.02.2022
3901 Clear 14 1024 34 10000 2.57 360 15:48 07.02.2022
3902 Clear 14 1024 32 10000 1.54 330 13:36 07.02.2022
3903 Clear 15 1024 30 10000 1.54 330 13:18 07.02.2022
3904 Clear 15 1024 26 10000 2.25 18 11:58 07.02.2022
3905 Clear 15 1024 32 10000 0 0 11:37 07.02.2022
3906 Clear 16 1024 29 10000 0.45 359 10:52 07.02.2022
3907 Clear 15 1024 33 10000 0 0 10:32 07.02.2022
3908 Clear 16 1024 31 10000 0 0 09:53 07.02.2022
3909 Clear 16 1024 32 10000 0 0 09:18 07.02.2022
3910 Clear 16 1024 32 10000 0 0 08:39 07.02.2022
3911 Clear 17 1023 35 10000 0 0 07:19 07.02.2022
3912 Clear 17 1022 34 10000 0 0 06:34 07.02.2022
3913 Clear 18 1021 42 10000 1.54 280 03:27 07.02.2022
3914 Clear 23 1020 26 10000 0 0 00:45 07.02.2022
3915 Clear 24 1020 25 10000 1.34 246 23:49 06.02.2022
3916 Clear 25 1020 21 10000 0.45 269 22:49 06.02.2022
3917 Clear 24 1021 19 10000 0 0 21:56 06.02.2022
3918 Clear 24 1021 19 10000 0 0 21:35 06.02.2022
3919 Clear 24 1022 19 10000 1.34 236 20:55 06.02.2022
3920 Clear 23 1022 20 10000 0.89 213 20:32 06.02.2022
3921 Clear 21 1022 20 10000 0 0 19:40 06.02.2022
3922 Clear 19 1022 29 10000 0 0 18:41 06.02.2022
3923 Clear 17 1023 28 10000 0.45 354 17:58 06.02.2022
3924 Clear 14 1022 37 10000 0 0 17:21 06.02.2022
3925 Clear 13 1021 33 10000 0 0 16:48 06.02.2022
3926 Clear 12 1021 37 10000 0 0 15:50 06.02.2022
3927 Clear 12 1021 38 10000 0 0 15:27 06.02.2022
3928 Clear 12 1021 37 10000 0.45 352 14:50 06.02.2022
3929 Clear 13 1020 37 10000 0 0 13:28 06.02.2022
3930 Clear 14 1022 27 10000 1.91 8 12:59 06.02.2022
3931 Clear 13 1020 36 10000 0 0 11:39 06.02.2022
3932 Clear 13 1020 35 10000 0 0 10:31 06.02.2022
3933 Clear 13 1021 40 10000 0 0 09:25 06.02.2022
3934 Clear 13 1021 41 10000 0 0 08:41 06.02.2022
3935 Clear 14 1020 42 10000 0 0 05:36 06.02.2022
3936 Clear 16 1020 42 10000 0 0 03:31 06.02.2022
3937 Clear 18 1020 35 10000 2.57 280 02:24 06.02.2022
3938 Clear 21 1020 19 10000 0 0 00:30 06.02.2022
3939 Clear 22 1020 19 10000 1.34 304 23:18 05.02.2022
3940 Clear 21 1022 18 10000 1.54 0 21:38 05.02.2022
3941 Clear 20 1023 18 10000 0 0 20:25 05.02.2022
3942 Clear 19 1023 20 10000 0 0 19:50 05.02.2022
3943 Clear 18 1023 22 10000 0 0 19:27 05.02.2022
3944 Clear 15 1024 30 10000 0.45 67 18:23 05.02.2022
3945 Clear 13 1024 30 10000 0 0 17:31 05.02.2022
3946 Clear 10 1023 34 10000 0 0 15:43 05.02.2022
3947 Clear 10 1023 34 10000 0 0 15:25 05.02.2022
3948 Clear 11 1024 31 10000 0 0 13:22 05.02.2022
3949 Clear 10 1024 32 10000 0 0 12:42 05.02.2022
3950 Clear 11 1025 32 10000 0 0 11:18 05.02.2022
3951 Clear 12 1025 34 10000 0 0 10:43 05.02.2022
3952 Clear 12 1026 34 10000 0 0 09:49 05.02.2022
3953 Clear 13 1026 34 10000 0 0 08:21 05.02.2022
3954 Clear 13 1026 32 10000 0.89 337 06:58 05.02.2022
3955 Clear 14 1025 30 10000 0 0 05:44 05.02.2022
3956 Clear 18 1025 30 10000 2.06 0 01:47 05.02.2022
3957 Clear 19 1025 27 10000 1.34 265 01:18 05.02.2022
3958 Clear 20 1025 21 10000 0 0 00:36 05.02.2022
3959 Clear 20 1026 19 10000 1.54 280 23:33 04.02.2022
3960 Clear 20 1027 20 10000 1.34 248 22:28 04.02.2022
3961 Clear 19 1027 21 10000 0 0 21:36 04.02.2022
3962 Clear 19 1028 21 10000 0 0 21:18 04.02.2022
3963 Clear 18 1028 23 10000 0 0 20:28 04.02.2022
3964 Clear 15 1029 34 10000 0 0 18:30 04.02.2022
3965 Clear 10 1027 42 10000 0 0 15:57 04.02.2022
3966 Clear 11 1027 39 10000 0 0 15:18 04.02.2022
3967 Clear 10 1027 44 10000 0 0 14:26 04.02.2022
3968 Clear 11 1027 47 10000 0 0 12:43 04.02.2022
3969 Clear 11 1027 48 10000 0 0 11:44 04.02.2022
3970 Clear 11 1026 50 10000 0 0 10:51 04.02.2022
3971 Clear 12 1026 47 10000 0 0 09:31 04.02.2022
3972 Clear 12 1026 53 10000 0 0 07:35 04.02.2022
3973 Clear 14 1023 49 10000 0 0 03:28 04.02.2022
3974 Clear 15 1023 42 10000 2.06 260 02:33 04.02.2022
3975 Clear 19 1022 22 10000 0.45 302 23:34 03.02.2022
3976 Clear 19 1022 24 10000 0.45 242 22:48 03.02.2022
3977 Clear 18 1023 18 10000 0 0 21:51 03.02.2022
3978 Clear 18 1023 18 10000 0 0 21:18 03.02.2022
3979 Clear 17 1023 21 10000 1.54 120 20:21 03.02.2022
3980 Clear 16 1023 23 10000 1.54 0 19:36 03.02.2022
3981 Clear 15 1023 30 10000 0 0 18:50 03.02.2022
3982 Clear 13 1023 32 10000 0.45 342 17:51 03.02.2022
3983 Clear 10 1022 40 10000 0 0 16:46 03.02.2022
3984 Clear 10 1021 35 10000 1.32 14 14:59 03.02.2022
3985 Clear 9 1020 36 10000 0 0 13:19 03.02.2022
3986 Clear 10 1020 35 10000 0 0 11:44 03.02.2022
3987 Clear 11 1020 29 10000 1.54 330 08:55 03.02.2022
3988 Clear 12 1020 34 10000 0 0 07:41 03.02.2022
3989 Clear 18 1015 25 10000 0 0 00:35 03.02.2022
3990 Clear 18 1015 20 10000 0 0 23:47 02.02.2022
3991 Clear 18 1015 26 10000 0.45 244 22:38 02.02.2022
3992 Clear 17 1016 25 10000 0.45 302 21:45 02.02.2022
3993 Clear 17 1016 25 10000 0.89 154 21:27 02.02.2022
3994 Clear 17 1016 29 10000 0 0 20:24 02.02.2022
3995 Clear 16 1016 31 10000 1.34 263 19:46 02.02.2022
3996 Clear 15 1017 42 10000 0.34 5 18:56 02.02.2022
3997 Clear 14 1016 44 10000 0 0 18:24 02.02.2022
3998 Clear 11 1015 55 10000 0 0 17:20 02.02.2022
3999 Haze 11 1015 61 9656 0 0 16:54 02.02.2022
4000 Haze 9 1014 61 9656 0 0 15:23 02.02.2022
4001 Mist 10 1013 57 9656 0 0 12:30 02.02.2022
4002 Clear 10 1013 61 10000 0 0 11:48 02.02.2022
4003 Clear 10 1013 64 10000 0 0 11:30 02.02.2022
4004 Clear 10 1013 64 10000 0 0 11:30 02.02.2022
4005 Clear 11 1012 82 10000 0 0 08:30 02.02.2022
4006 Clear 14 1010 73 10000 1.54 280 02:44 02.02.2022
4007 Clouds 17 1011 58 10000 0 0 22:33 01.02.2022
4008 Clouds 16 1013 64 10000 1.54 160 20:51 01.02.2022
4009 Mist 14 1013 74 10000 2.57 0 19:23 01.02.2022
4010 Haze 12 1013 83 6437 1.54 0 17:34 01.02.2022
4011 Haze 10 1013 86 8047 1.54 80 16:21 01.02.2022
4012 Mist 11 1014 88 9656 1.54 0 12:57 01.02.2022
4013 Mist 11 1014 87 8047 0 0 12:21 01.02.2022
4014 Mist 11 1015 84 8047 0 0 08:52 01.02.2022
4015 Clear 15 1016 64 10000 1.54 260 02:20 01.02.2022
4016 Clear 17 1017 47 10000 0 0 23:38 31.01.2022
4017 Clear 17 1018 51 10000 0.45 231 22:42 31.01.2022
4018 Clear 16 1019 52 10000 0 0 21:35 31.01.2022
4019 Clear 15 1020 52 10000 1.54 0 20:35 31.01.2022
4020 Clear 15 1020 54 10000 0.45 5 19:58 31.01.2022
4021 Clear 14 1021 56 10000 0 0 18:47 31.01.2022
4022 Clouds 14 1020 61 10000 1.01 62 17:57 31.01.2022
4023 Clear 11 1020 62 10000 0 0 17:24 31.01.2022
4024 Clear 10 1020 61 10000 0 0 16:25 31.01.2022
4025 Clear 10 1020 64 10000 0 0 14:53 31.01.2022
4026 Clear 10 1020 65 10000 0 0 13:35 31.01.2022
4027 Fog 10 1021 67 10000 0 0 12:38 31.01.2022
4028 Fog 11 1021 67 10000 0 0 11:31 31.01.2022
4029 Fog 11 1021 67 10000 0 0 10:48 31.01.2022
4030 Clear 12 1022 67 10000 0 0 09:38 31.01.2022
4031 Clouds 12 1021 58 10000 1.37 113 08:56 31.01.2022
4032 Clear 12 1022 68 10000 0 0 08:20 31.01.2022
4033 Clear 12 1022 67 10000 0 0 07:43 31.01.2022
4034 Clear 13 1021 67 10000 0 0 05:33 31.01.2022
4035 Clear 19 1020 53 10000 2.06 250 00:43 31.01.2022
4036 Clear 21 1020 34 10000 2.06 260 22:34 30.01.2022
4037 Clear 21 1020 24 10000 1.54 0 21:47 30.01.2022
4038 Clear 20 1020 27 10000 1.54 0 21:26 30.01.2022
4039 Clear 21 1020 23 10000 0.89 157 20:55 30.01.2022
4040 Clear 20 1021 26 10000 1.54 0 20:31 30.01.2022
4041 Clear 19 1021 24 10000 0.45 5 19:58 30.01.2022
4042 Clear 18 1021 31 10000 2.06 100 19:23 30.01.2022
4043 Clear 16 1021 37 10000 2.06 100 18:35 30.01.2022
4044 Clear 13 1021 40 10000 0 0 17:40 30.01.2022
4045 Clear 12 1021 41 10000 0 0 17:19 30.01.2022
4046 Clear 11 1021 41 10000 0 0 16:36 30.01.2022
4047 Clear 11 1021 40 10000 0 0 16:18 30.01.2022
4048 Clear 11 1020 38 10000 0 0 15:45 30.01.2022
4049 Clear 11 1020 38 10000 0 0 15:25 30.01.2022
4050 Clear 11 1019 36 10000 0 0 14:44 30.01.2022
4051 Clear 12 1019 33 10000 0 0 12:46 30.01.2022
4052 Clear 12 1019 34 10000 0 0 11:53 30.01.2022
4053 Clear 13 1019 30 10000 0 0 10:27 30.01.2022
4054 Clear 13 1019 30 10000 0 0 09:48 30.01.2022
4055 Clear 14 1019 28 10000 0 0 08:48 30.01.2022
4056 Clear 14 1019 33 10000 1.34 68 06:55 30.01.2022
4057 Clear 18 1018 27 10000 0 0 01:55 30.01.2022
4058 Clouds 19 1019 23 10000 0 0 00:19 30.01.2022
4059 Clouds 19 1019 22 10000 2.66 283 22:58 29.01.2022
4060 Clear 19 1020 26 10000 1.54 10 21:47 29.01.2022
4061 Clear 18 1020 26 10000 1.54 10 21:23 29.01.2022
4062 Clouds 17 1021 27 10000 0 0 20:22 29.01.2022
4063 Clear 16 1022 26 10000 0 0 19:33 29.01.2022
4064 Clear 15 1022 31 10000 0 0 18:52 29.01.2022
4065 Clear 14 1022 30 10000 0 0 18:18 29.01.2022
4066 Clear 13 1021 30 10000 0 0 17:28 29.01.2022
4067 Clear 13 1021 28 10000 1.54 30 15:50 29.01.2022
4068 Clear 12 1021 24 10000 1.54 20 14:23 29.01.2022
4069 Clear 13 1020 24 10000 0 0 13:42 29.01.2022
4070 Clear 13 1020 24 10000 0 0 13:23 29.01.2022
4071 Clear 13 1021 28 10000 0 0 11:47 29.01.2022
4072 Clouds 13 1021 26 10000 0.45 347 10:54 29.01.2022
4073 Clear 13 1022 27 10000 0 0 08:43 29.01.2022
4074 Clear 15 1022 23 10000 0 0 06:55 29.01.2022
4075 Clear 22 1022 11 10000 1.54 0 00:35 29.01.2022
4076 Clear 22 1022 12 10000 1.54 0 23:51 28.01.2022
4077 Clear 22 1023 13 10000 2.57 0 22:50 28.01.2022
4078 Clear 22 1023 12 10000 2.57 0 22:21 28.01.2022
4079 Clear 21 1024 13 10000 2.57 80 21:36 28.01.2022
4080 Clear 20 1025 18 10000 3.09 50 20:29 28.01.2022
4081 Clear 18 1026 26 10000 0 0 19:29 28.01.2022
4082 Clear 17 1026 30 10000 0 0 18:42 28.01.2022
4083 Clear 14 1025 31 10000 1.54 40 16:46 28.01.2022
4084 Clouds 14 1024 30 10000 0.45 347 15:18 28.01.2022
4085 Clear 14 1023 34 10000 0 0 13:50 28.01.2022
4086 Clear 13 1023 46 10000 0 0 12:29 28.01.2022
4087 Clear 13 1024 51 10000 0 0 10:49 28.01.2022
4088 Fog 14 1023 47 10000 0 0 09:52 28.01.2022
4089 Clear 14 1023 49 10000 0 0 07:44 28.01.2022
4090 Clear 14 1023 50 10000 0 0 06:44 28.01.2022
4091 Clear 15 1022 32 10000 0 0 03:56 28.01.2022
4092 Fog 18 1021 42 10000 0 0 02:31 28.01.2022
4093 Clear 18 1021 45 10000 0.45 281 01:59 28.01.2022
4094 Clear 19 1021 39 10000 1.54 250 01:31 28.01.2022
4095 Clear 21 1021 26 10000 1.54 0 22:48 27.01.2022
4096 Clear 21 1022 20 10000 0 0 21:46 27.01.2022
4097 Clear 20 1022 18 10000 0 0 21:28 27.01.2022
4098 Clear 19 1023 20 10000 0 0 20:25 27.01.2022
4099 Clear 15 1023 34 10000 0 0 18:26 27.01.2022
4100 Clear 13 1022 36 10000 0 0 17:34 27.01.2022
4101 Clear 11 1020 36 10000 0 0 14:35 27.01.2022
4102 Clear 11 1020 39 10000 0 0 13:26 27.01.2022
4103 Clear 11 1021 43 10000 1.54 0 12:39 27.01.2022
4104 Clear 12 1021 45 10000 0 0 10:23 27.01.2022
4105 Mist 13 1021 39 10000 1.54 30 08:52 27.01.2022
4106 Mist 13 1021 40 10000 1.54 30 08:30 27.01.2022
4107 Mist 13 1021 39 10000 1.54 30 08:30 27.01.2022
4108 Clear 14 1019 47 10000 0 0 05:49 27.01.2022
4109 Clear 18 1018 47 10000 0 0 01:46 27.01.2022
4110 Clear 21 1019 22 10000 1.54 0 22:44 26.01.2022
4111 Clear 21 1019 23 10000 0 0 21:55 26.01.2022
4112 Clear 20 1020 24 10000 0 0 21:31 26.01.2022
4113 Clear 19 1021 27 10000 0 0 20:35 26.01.2022
4114 Clear 18 1021 34 10000 0 0 19:55 26.01.2022
4115 Clear 17 1021 39 10000 0 0 19:20 26.01.2022
4116 Clear 16 1021 51 10000 0.45 334 18:40 26.01.2022
4117 Haze 13 1021 58 9656 0 0 17:49 26.01.2022
4118 Haze 12 1021 64 9656 0 0 17:21 26.01.2022
4119 Clear 10 1020 64 10000 0 0 16:27 26.01.2022
4120 Clear 10 1019 66 10000 0 0 15:47 26.01.2022
4121 Mist 11 1018 71 10000 0 0 13:24 26.01.2022
4122 Mist 11 1018 69 9656 0 0 11:48 26.01.2022
4123 Mist 12 1018 69 9656 0 0 10:27 26.01.2022
4124 Mist 12 1018 70 8047 0 0 09:45 26.01.2022
4125 Mist 12 1018 77 8047 0 0 07:37 26.01.2022
4126 Clear 17 1015 63 10000 1.54 250 01:54 26.01.2022
4127 Clear 19 1015 49 10000 1.34 226 23:56 25.01.2022
4128 Clear 20 1014 47 10000 0.45 283 22:56 25.01.2022
4129 Clear 19 1015 44 10000 1.54 0 22:21 25.01.2022
4130 Clear 19 1015 44 10000 0 0 21:52 25.01.2022
4131 Clear 18 1016 46 10000 1.79 291 20:46 25.01.2022
4132 Clear 18 1016 46 10000 0.89 246 20:46 25.01.2022
4133 Clear 17 1016 48 10000 2.24 227 20:23 25.01.2022
4134 Haze 16 1016 53 10000 0 0 19:50 25.01.2022
4135 Haze 14 1016 62 10000 0 0 18:32 25.01.2022
4136 Mist 12 1016 64 10000 0 0 17:43 25.01.2022
4137 Mist 11 1015 76 10000 0 0 16:35 25.01.2022
4138 Mist 11 1015 77 10000 0 0 15:49 25.01.2022
4139 Fog 11 1015 79 10000 0 0 15:31 25.01.2022
4140 Fog 11 1015 77 402 0 0 14:57 25.01.2022
4141 Fog 11 1015 82 3219 0 0 13:42 25.01.2022
4142 Mist 12 1016 80 4023 0 0 10:42 25.01.2022
4143 Mist 12 1016 81 8047 1.54 100 08:37 25.01.2022
4144 Mist 13 1017 77 9656 0 0 07:29 25.01.2022
4145 Clear 13 1017 73 10000 0 0 06:49 25.01.2022
4146 Clear 14 1017 76 10000 0 0 05:22 25.01.2022
4147 Clear 21 1016 41 10000 2.06 0 23:37 24.01.2022
4148 Clear 21 1016 36 10000 2.06 0 23:18 24.01.2022
4149 Clear 21 1016 40 10000 0.45 267 22:59 24.01.2022
4150 Clear 21 1017 34 10000 1.34 213 22:41 24.01.2022
4151 Clear 21 1017 31 10000 0 0 21:53 24.01.2022
4152 Clear 21 1017 31 10000 0 0 21:53 24.01.2022
4153 Clear 21 1018 31 10000 0 0 21:28 24.01.2022
4154 Clear 20 1018 29 10000 0 0 20:30 24.01.2022
4155 Clear 19 1019 31 10000 2.06 0 19:50 24.01.2022
4156 Clear 18 1019 33 10000 2.06 0 19:24 24.01.2022
4157 Clear 16 1019 43 10000 2.06 140 18:18 24.01.2022
4158 Clear 14 1019 43 10000 0 0 17:24 24.01.2022
4159 Clear 13 1019 44 10000 0 0 16:52 24.01.2022
4160 Clear 12 1019 42 10000 0 0 16:19 24.01.2022
4161 Clear 13 1018 42 10000 0 0 14:43 24.01.2022
4162 Clear 14 1018 40 10000 0 0 13:24 24.01.2022
4163 Clear 14 1019 39 10000 0 0 12:23 24.01.2022
4164 Clear 15 1020 36 10000 0 0 10:30 24.01.2022
4165 Clear 15 1020 36 10000 0 0 10:30 24.01.2022
4166 Clear 15 1020 37 10000 0 0 09:48 24.01.2022
4167 Clear 15 1020 38 10000 0 0 08:41 24.01.2022
4168 Clear 15 1020 44 10000 0 0 06:40 24.01.2022
4169 Clear 21 1020 34 10000 2.06 250 01:31 24.01.2022
4170 Clear 22 1020 30 10000 2.57 260 00:38 24.01.2022
4171 Clear 22 1020 30 10000 2.57 260 00:20 24.01.2022
4172 Clear 23 1020 21 10000 2.06 250 22:37 23.01.2022
4173 Clear 22 1021 22 10000 0 0 21:50 23.01.2022
4174 Clear 22 1021 22 10000 0 0 21:26 23.01.2022
4175 Clear 22 1022 22 10000 0 0 20:45 23.01.2022
4176 Clear 21 1022 23 10000 0 0 19:54 23.01.2022
4177 Clear 19 1022 26 10000 1.54 90 18:52 23.01.2022
4178 Clear 17 1022 32 10000 0 0 17:50 23.01.2022
4179 Clear 14 1021 36 10000 0 0 16:48 23.01.2022
4180 Clear 13 1021 40 10000 0 0 15:18 23.01.2022
4181 Clear 13 1020 38 10000 1.54 20 14:31 23.01.2022
4182 Clear 14 1020 38 10000 1.54 20 14:31 23.01.2022
4183 Clear 14 1020 37 10000 0 0 13:27 23.01.2022
4184 Clear 14 1020 32 10000 0 0 12:36 23.01.2022
4185 Clear 14 1020 36 10000 0 0 12:18 23.01.2022
4186 Clear 14 1020 33 10000 0 0 11:24 23.01.2022
4187 Clear 15 1020 34 10000 0.89 20 10:43 23.01.2022
4188 Clear 15 1020 33 10000 0 0 10:19 23.01.2022
4189 Clear 16 1020 31 10000 0 0 09:19 23.01.2022
4190 Clear 16 1020 33 10000 0.89 3 05:58 23.01.2022
4191 Clear 20 1017 25 10000 4.02 360 01:54 23.01.2022
4192 Clear 21 1016 22 10000 2.57 0 01:34 23.01.2022
4193 Clear 21 1016 21 10000 1.54 0 00:41 23.01.2022
4194 Clear 21 1016 24 10000 3.13 19 23:57 22.01.2022
4195 Clear 21 1016 21 10000 1.34 16 22:47 22.01.2022
4196 Haze 21 1016 17 10000 1.54 260 21:38 22.01.2022
4197 Clear 20 1017 18 10000 0 0 20:24 22.01.2022
4198 Clear 19 1018 20 10000 0 0 19:34 22.01.2022
4199 Clear 18 1017 25 10000 1.54 0 18:36 22.01.2022
4200 Clouds 16 1017 26 10000 1.34 355 17:42 22.01.2022
4201 Clear 15 1017 31 10000 0.45 84 16:57 22.01.2022
4202 Clear 14 1017 32 10000 0 0 16:20 22.01.2022
4203 Clear 14 1017 32 10000 0 0 15:42 22.01.2022
4204 Clear 14 1016 31 10000 1.79 285 14:22 22.01.2022
4205 Clear 15 1016 29 10000 0.89 74 13:27 22.01.2022
4206 Clear 15 1016 27 10000 3.6 20 12:32 22.01.2022
4207 Clear 16 1016 30 10000 1.34 190 11:58 22.01.2022
4208 Clear 16 1017 26 10000 2.57 0 10:39 22.01.2022
4209 Clear 16 1016 27 10000 2.57 0 10:20 22.01.2022
4210 Clear 17 1016 28 10000 2.68 98 08:55 22.01.2022
4211 Clear 17 1016 25 10000 0 0 08:31 22.01.2022
4212 Clear 18 1015 25 10000 2.57 0 05:20 22.01.2022
4213 Clear 19 1015 32 10000 0.45 203 02:27 22.01.2022
4214 Clear 20 1014 48 10000 1.54 90 23:50 21.01.2022
4215 Clouds 21 1014 48 10000 0.89 243 22:59 21.01.2022
4216 Clear 20 1016 48 10000 0 0 21:18 21.01.2022
4217 Clear 17 1018 54 10000 0 0 19:30 21.01.2022
4218 Clear 14 1018 54 10000 0 0 17:50 21.01.2022
4219 Clear 13 1019 52 10000 1.75 87 15:56 21.01.2022
4220 Clear 13 1017 51 10000 1.76 78 14:58 21.01.2022
4221 Clear 12 1019 59 10000 0 0 12:48 21.01.2022
4222 Clear 14 1020 53 10000 0 0 11:29 21.01.2022
4223 Clear 14 1020 53 10000 0 0 10:47 21.01.2022
4224 Clear 15 1022 43 10000 0.87 34 08:59 21.01.2022
4225 Clear 15 1021 51 10000 0 0 08:20 21.01.2022
4226 Clear 20 1022 46 10000 0.89 194 01:55 21.01.2022
4227 Clear 24 1022 29 10000 3.09 270 22:51 20.01.2022
4228 Clear 23 1023 33 10000 1.54 250 21:49 20.01.2022
4229 Clear 23 1024 30 10000 1.54 250 21:27 20.01.2022
4230 Clear 20 1025 44 10000 0 0 19:55 20.01.2022
4231 Clear 19 1025 47 10000 0 0 19:18 20.01.2022
4232 Fog 15 1024 65 10000 0 0 17:37 20.01.2022
4233 Mist 13 1024 71 9656 0 0 16:32 20.01.2022
4234 Fog 13 1023 68 10000 0 0 15:32 20.01.2022
4235 Mist 13 1023 73 9656 0 0 14:38 20.01.2022
4236 Mist 13 1022 72 9656 0 0 13:18 20.01.2022
4237 Mist 13 1023 73 8047 0 0 12:30 20.01.2022
4238 Mist 13 1023 77 9656 0 0 11:20 20.01.2022
4239 Mist 13 1022 77 9656 0 0 10:19 20.01.2022
4240 Fog 13 1022 78 10000 0 0 09:19 20.01.2022
4241 Clear 13 1022 83 10000 0 0 07:24 20.01.2022
4242 Clouds 17 1020 70 10000 0 0 00:41 20.01.2022
4243 Clouds 17 1021 71 10000 0 0 22:50 19.01.2022
4244 Haze 17 1021 72 9656 0.89 292 21:44 19.01.2022
4245 Haze 17 1021 72 9656 2.06 290 21:22 19.01.2022
4246 Haze 16 1022 75 10000 1.54 290 20:45 19.01.2022
4247 Haze 15 1023 82 8047 0 0 19:27 19.01.2022
4248 Haze 13 1022 89 8047 0 0 17:52 19.01.2022
4249 Haze 13 1022 90 8047 0 0 17:32 19.01.2022
4250 Haze 12 1021 91 10000 0 0 16:27 19.01.2022
4251 Mist 11 1020 89 9656 0 0 13:42 19.01.2022
4252 Clouds 11 1020 88 10000 0 0 12:24 19.01.2022
4253 Mist 12 1020 89 9656 0 0 11:38 19.01.2022
4254 Clear 12 1020 90 10000 0 0 10:20 19.01.2022
4255 Clear 12 1020 90 10000 0 0 09:33 19.01.2022
4256 Clouds 13 1020 88 10000 2.06 260 06:35 19.01.2022
4257 Clouds 16 1018 77 10000 0 0 01:55 19.01.2022
4258 Clouds 17 1018 73 10000 0 0 23:19 18.01.2022
4259 Clouds 17 1018 71 10000 2.06 0 22:18 18.01.2022
4260 Clouds 17 1019 75 10000 1.79 230 20:55 18.01.2022
4261 Haze 16 1019 79 8047 0 0 19:54 18.01.2022
4262 Haze 16 1019 81 8047 0 0 19:36 18.01.2022
4263 Haze 15 1019 86 8047 0 0 18:38 18.01.2022
4264 Haze 14 1019 89 9656 0 0 17:57 18.01.2022
4265 Mist 13 1018 90 10000 0 0 16:40 18.01.2022
4266 Clouds 13 1018 90 10000 0 0 15:40 18.01.2022
4267 Clouds 13 1018 89 10000 0 0 15:20 18.01.2022
4268 Clouds 13 1018 89 10000 0 0 15:20 18.01.2022
4269 Haze 14 1018 90 10000 0 0 12:30 18.01.2022
4270 Clouds 14 1018 90 10000 0 0 10:46 18.01.2022
4271 Clouds 14 1018 91 10000 0 0 08:49 18.01.2022
4272 Haze 14 1018 89 1200 0 0 07:49 18.01.2022
4273 Haze 16 1017 81 10000 0 0 02:33 18.01.2022
4274 Clouds 17 1017 76 10000 0 0 23:38 17.01.2022
4275 Clouds 17 1018 76 10000 0 0 22:26 17.01.2022
4276 Clouds 17 1019 76 10000 1.54 0 21:33 17.01.2022
4277 Clouds 16 1020 82 10000 0.89 67 19:57 17.01.2022
4278 Clouds 15 1019 85 10000 0 0 18:30 17.01.2022
4279 Clouds 15 1019 83 10000 0.45 5 17:25 17.01.2022
4280 Mist 14 1018 80 6437 1.54 50 16:35 17.01.2022
4281 Mist 14 1017 76 4828 0 0 15:18 17.01.2022
4282 Clouds 15 1017 76 10000 0 0 14:43 17.01.2022
4283 Clouds 15 1017 74 9656 0 0 13:22 17.01.2022
4284 Clouds 15 1017 73 10000 2.57 100 12:55 17.01.2022
4285 Clouds 15 1017 70 10000 1.54 90 11:49 17.01.2022
4286 Clouds 15 1017 66 10000 0 0 10:21 17.01.2022
4287 Clouds 15 1017 66 10000 0 0 10:21 17.01.2022
4288 Clouds 16 1018 61 10000 0 0 09:34 17.01.2022
4289 Clouds 16 1018 57 10000 0 0 07:24 17.01.2022
4290 Clouds 18 1017 47 10000 0.89 212 02:59 17.01.2022
4291 Clouds 22 1016 32 10000 2.06 250 00:55 17.01.2022
4292 Clear 23 1017 30 10000 0 0 22:29 16.01.2022
4293 Clear 22 1019 23 10000 1.54 60 20:36 16.01.2022
4294 Clear 20 1019 30 10000 1.54 30 18:51 16.01.2022
4295 Clouds 18 1020 40 10000 0.45 335 17:59 16.01.2022
4296 Clear 16 1019 42 10000 1.54 360 17:21 16.01.2022
4297 Clouds 15 1018 39 10000 0 0 16:33 16.01.2022
4298 Clouds 16 1018 43 10000 0 0 14:31 16.01.2022
4299 Clouds 16 1018 45 10000 1.54 30 13:46 16.01.2022
4300 Clouds 16 1019 47 10000 1.54 360 12:46 16.01.2022
4301 Clouds 16 1019 50 10000 0 0 11:42 16.01.2022
4302 Clouds 16 1019 51 10000 0 0 10:54 16.01.2022
4303 Clouds 16 1019 50 10000 0 0 10:19 16.01.2022
4304 Clouds 17 1020 49 10000 0 0 09:40 16.01.2022
4305 Clouds 17 1020 49 10000 0 0 09:22 16.01.2022
4306 Clouds 17 1020 50 10000 0 0 07:33 16.01.2022
4307 Clouds 19 1019 37 10000 0 0 00:42 16.01.2022
4308 Clouds 19 1020 37 10000 0 0 23:49 15.01.2022
4309 Clouds 18 1021 59 10000 0 0 21:37 15.01.2022
4310 Clouds 17 1022 59 10000 0 0 21:19 15.01.2022
4311 Clouds 17 1022 63 10000 0 0 20:39 15.01.2022
4312 Clouds 16 1023 67 10000 0 0 19:29 15.01.2022
4313 Clouds 16 1023 67 10000 2.06 260 18:44 15.01.2022
4314 Clouds 15 1022 61 10000 0 0 17:25 15.01.2022
4315 Clear 15 1020 39 10000 0 0 15:50 15.01.2022
4316 Clear 16 1021 40 10000 0 0 13:52 15.01.2022
4317 Clear 16 1020 41 10000 0 0 11:46 15.01.2022
4318 Clear 16 1020 42 10000 0 0 10:36 15.01.2022
4319 Clear 17 1019 42 10000 0 0 07:48 15.01.2022
4320 Fog 23 1018 33 10000 0 0 23:50 14.01.2022
4321 Clear 23 1020 33 10000 0 0 21:52 14.01.2022
4322 Clear 22 1020 31 10000 0 0 20:37 14.01.2022
4323 Clear 21 1020 33 10000 0.45 5 19:58 14.01.2022
4324 Clear 18 1020 44 10000 0 0 18:48 14.01.2022
4325 Clear 16 1020 53 10000 0 0 17:57 14.01.2022
4326 Clear 14 1020 66 10000 0 0 16:48 14.01.2022
4327 Fog 14 1019 59 10000 0 0 15:37 14.01.2022
4328 Clear 14 1019 59 10000 0 0 14:38 14.01.2022
4329 Smoke 14 1019 61 10000 0 0 13:34 14.01.2022
4330 Clear 14 1020 63 10000 0 0 12:24 14.01.2022
4331 Clear 15 1020 65 10000 0 0 10:50 14.01.2022
4332 Clouds 16 1021 61 10000 0.69 137 08:54 14.01.2022
4333 Clear 16 1021 58 10000 0 0 08:20 14.01.2022
4334 Clouds 17 1022 55 10000 0 0 03:55 14.01.2022
4335 Clouds 20 1020 38 10000 0 0 00:50 14.01.2022
4336 Clouds 19 1021 40 10000 0 0 22:46 13.01.2022
4337 Clear 19 1022 39 10000 0 0 21:31 13.01.2022
4338 Clouds 19 1022 43 10000 1.06 152 20:56 13.01.2022
4339 Clear 18 1024 44 10000 0 0 19:40 13.01.2022
4340 Clear 17 1024 42 10000 0 0 19:21 13.01.2022
4341 Clear 16 1023 54 10000 0 0 17:48 13.01.2022
4342 Clear 16 1022 41 10000 0 0 16:20 13.01.2022
4343 Clear 16 1022 39 10000 0 0 15:37 13.01.2022
4344 Clear 16 1022 38 10000 1.54 130 14:40 13.01.2022
4345 Clear 16 1022 35 10000 0 0 12:37 13.01.2022
4346 Clear 17 1023 35 10000 0 0 10:23 13.01.2022
4347 Clouds 18 1023 29 10000 0.89 341 08:58 13.01.2022
4348 Clear 17 1023 36 10000 0 0 08:26 13.01.2022
4349 Clear 17 1023 36 10000 0 0 07:23 13.01.2022
4350 Clouds 17 1023 34 10000 1.78 5 05:59 13.01.2022
4351 Clear 17 1022 36 10000 0 0 05:19 13.01.2022
4352 Clear 20 1022 38 10000 0 0 01:56 13.01.2022
4353 Clear 22 1022 29 10000 1.54 30 00:54 13.01.2022
4354 Clear 24 1021 19 10000 0 0 23:49 12.01.2022
4355 Clear 24 1022 20 10000 0 0 23:19 12.01.2022
4356 Clear 24 1023 20 10000 0 0 21:57 12.01.2022
4357 Clear 23 1023 20 10000 0 0 21:22 12.01.2022
4358 Clear 23 1023 20 10000 0 0 21:22 12.01.2022
4359 Clear 23 1024 22 10000 0.89 360 20:56 12.01.2022
4360 Clear 20 1025 30 10000 1.54 20 19:43 12.01.2022
4361 Clear 17 1025 37 10000 2.06 0 18:42 12.01.2022
4362 Clear 14 1024 36 10000 1.54 10 17:21 12.01.2022
4363 Clear 13 1023 35 10000 0 0 16:32 12.01.2022
4364 Clear 14 1023 35 10000 0 0 14:48 12.01.2022
4365 Clear 14 1023 33 10000 0 0 13:24 12.01.2022
4366 Clear 15 1024 31 10000 0.45 32 10:56 12.01.2022
4367 Clear 16 1024 29 10000 1.54 20 08:43 12.01.2022
4368 Clear 16 1024 31 10000 0 0 07:50 12.01.2022
4369 Clear 16 1024 30 10000 0 0 07:31 12.01.2022
4370 Clear 24 1022 17 10000 0 0 23:53 11.01.2022
4371 Clear 25 1022 17 10000 0.45 228 22:56 11.01.2022
4372 Clear 24 1022 17 10000 1.54 0 22:23 11.01.2022
4373 Haze 23 1024 18 4023 0.89 169 20:56 11.01.2022
4374 Clear 22 1025 20 10000 0 0 20:20 11.01.2022
4375 Clear 18 1026 28 10000 0 0 18:43 11.01.2022
4376 Clear 15 1025 33 10000 0 0 17:35 11.01.2022
4377 Clear 13 1025 33 10000 0 0 16:38 11.01.2022
4378 Clear 13 1025 32 10000 1.34 332 15:56 11.01.2022
4379 Clear 13 1023 34 10000 2.06 20 14:43 11.01.2022
4380 Clear 13 1024 34 10000 1.54 30 13:56 11.01.2022
4381 Clear 13 1024 34 10000 1.54 30 13:36 11.01.2022
4382 Clear 13 1024 32 10000 1.54 20 12:51 11.01.2022
4383 Clear 13 1024 32 10000 1.54 20 12:22 11.01.2022
4384 Clear 14 1025 37 10000 0 0 10:24 11.01.2022
4385 Clear 15 1025 36 10000 0 0 07:35 11.01.2022
4386 Clear 20 1024 30 10000 0 0 01:47 11.01.2022
4387 Clear 22 1024 20 10000 1.54 0 00:22 11.01.2022
4388 Clear 22 1024 26 10000 1.54 0 23:37 10.01.2022
4389 Clear 21 1025 22 10000 0 0 22:19 10.01.2022
4390 Clear 21 1025 24 10000 0 0 21:54 10.01.2022
4391 Clear 20 1026 23 10000 0 0 21:31 10.01.2022
4392 Clear 20 1026 31 10000 0.45 360 20:58 10.01.2022
4393 Clear 19 1027 30 10000 0 0 20:29 10.01.2022
4394 Clear 18 1027 36 10000 0.45 360 19:47 10.01.2022
4395 Clear 17 1027 38 10000 1.54 360 19:22 10.01.2022
4396 Clear 16 1027 39 10000 1.54 20 18:54 10.01.2022
4397 Clear 15 1027 43 10000 1.54 20 18:34 10.01.2022
4398 Clear 13 1026 41 10000 0 0 16:43 10.01.2022
4399 Clouds 13 1027 44 10000 2.95 8 15:55 10.01.2022
4400 Clear 13 1026 40 10000 1.54 20 14:39 10.01.2022
4401 Clear 13 1026 39 10000 2.57 10 12:43 10.01.2022
4402 Clear 14 1026 40 10000 0 0 11:40 10.01.2022
4403 Clear 14 1027 39 10000 0 0 10:45 10.01.2022
4404 Clouds 14 1028 42 10000 0.45 340 08:57 10.01.2022
4405 Haze 15 1026 55 9656 0 0 05:51 10.01.2022
4406 Clear 19 1024 47 10000 0 0 01:35 10.01.2022
4407 Clear 21 1024 32 10000 0 0 00:44 10.01.2022
4408 Clear 22 1024 28 10000 0 0 00:19 10.01.2022
4409 Clear 22 1023 24 10000 0 0 22:43 09.01.2022
4410 Clear 22 1024 27 10000 0 0 21:47 09.01.2022
4411 Clear 21 1024 29 10000 0 0 21:25 09.01.2022
4412 Clear 21 1025 31 10000 0.45 219 20:58 09.01.2022
4413 Clear 21 1025 32 10000 0 0 20:39 09.01.2022
4414 Clear 20 1025 33 10000 0 0 20:21 09.01.2022
4415 Clear 19 1024 39 10000 0 0 19:38 09.01.2022
4416 Clear 17 1024 46 10000 0 0 19:18 09.01.2022
4417 Clear 16 1024 54 10000 0 0 18:37 09.01.2022
4418 Haze 13 1024 66 9656 0 0 17:48 09.01.2022
4419 Haze 11 1024 70 9656 0 0 17:29 09.01.2022
4420 Haze 10 1023 69 9656 1.54 30 16:43 09.01.2022
4421 Haze 10 1022 71 9656 0 0 15:46 09.01.2022
4422 Haze 10 1022 69 9656 0 0 15:25 09.01.2022
4423 Haze 10 1022 75 9656 0 0 14:39 09.01.2022
4424 Haze 10 1021 78 9656 0 0 13:48 09.01.2022
4425 Clouds 12 1021 66 10000 2 10 11:58 09.01.2022
4426 Mist 10 1022 77 6437 0 0 11:28 09.01.2022
4427 Clouds 11 1021 71 10000 1.34 24 09:55 09.01.2022
4428 Haze 11 1022 81 9656 0 0 09:20 09.01.2022
4429 Clouds 11 1021 80 10000 0.58 343 07:54 09.01.2022
4430 Clear 16 1017 66 10000 0 0 01:30 09.01.2022
4431 Clear 16 1017 64 10000 2.06 260 00:50 09.01.2022
4432 Clear 17 1017 61 10000 0 0 23:36 08.01.2022
4433 Clouds 17 1017 62 10000 0.45 214 22:56 08.01.2022
4434 Clouds 16 1018 63 10000 0 0 21:32 08.01.2022
4435 Clear 16 1019 62 10000 2.57 140 20:44 08.01.2022
4436 Clear 16 1019 62 10000 2.57 140 20:23 08.01.2022
4437 Clear 15 1019 68 10000 1.54 0 19:22 08.01.2022
4438 Mist 12 1018 83 6437 0 0 17:43 08.01.2022
4439 Mist 11 1017 84 6437 0 0 16:57 08.01.2022
4440 Mist 11 1017 83 8047 0 0 15:35 08.01.2022
4441 Clouds 11 1016 82 10000 0 0 14:33 08.01.2022
4442 Clouds 12 1015 84 10000 0 0 12:35 08.01.2022
4443 Mist 12 1015 87 10000 0 0 10:43 08.01.2022
4444 Mist 12 1015 88 10000 0 0 10:23 08.01.2022
4445 Mist 12 1015 88 10000 0 0 10:23 08.01.2022
4446 Mist 12 1015 88 9656 0 0 09:34 08.01.2022
4447 Mist 12 1015 88 9656 0 0 09:34 08.01.2022
4448 Haze 12 1015 88 8047 0 0 07:18 08.01.2022
4449 Haze 13 1013 80 4023 0 0 01:49 08.01.2022
4450 Haze 14 1013 77 3219 0 0 00:25 08.01.2022
4451 Haze 15 1013 76 4828 0 0 22:39 07.01.2022
4452 Mist 15 1015 75 2816 0 0 20:40 07.01.2022
4453 Mist 15 1015 74 3219 0 0 19:39 07.01.2022
4454 Mist 14 1015 74 1609 0 0 18:53 07.01.2022
4455 Mist 13 1015 75 1609 0 0 18:30 07.01.2022
4456 Fog 11 1014 84 805 0 0 17:25 07.01.2022
4457 Mist 11 1014 86 1207 0 0 16:22 07.01.2022
4458 Fog 12 1013 84 402 0 0 13:53 07.01.2022
4459 Fog 12 1013 82 402 0 0 13:19 07.01.2022
4460 Fog 12 1013 81 402 0 0 12:35 07.01.2022
4461 Mist 14 1014 72 8047 0 0 07:31 07.01.2022
4462 Clear 17 1013 55 10000 1.54 290 02:54 07.01.2022
4463 Clear 18 1013 59 10000 0.45 175 01:52 07.01.2022
4464 Clear 20 1013 50 10000 0 0 01:27 07.01.2022
4465 Clear 21 1013 51 10000 0.89 205 00:57 07.01.2022
4466 Clear 22 1013 47 10000 0 0 22:46 06.01.2022
4467 Fog 21 1015 49 10000 0 0 21:23 06.01.2022
4468 Haze 20 1016 48 10000 0 0 20:20 06.01.2022
4469 Haze 19 1017 48 10000 0 0 19:41 06.01.2022
4470 Mist 16 1016 58 6437 1.54 140 17:53 06.01.2022
4471 Mist 14 1016 68 10000 0 0 17:34 06.01.2022
4472 Mist 13 1016 66 10000 0 0 16:42 06.01.2022
4473 Mist 13 1016 64 10000 0 0 15:46 06.01.2022
4474 Mist 13 1016 65 10000 0 0 15:25 06.01.2022
4475 Mist 12 1016 70 10000 0 0 14:43 06.01.2022
4476 Mist 13 1016 67 10000 0 0 14:18 06.01.2022
4477 Mist 13 1016 68 10000 0 0 12:43 06.01.2022
4478 Mist 13 1016 65 10000 0 0 11:42 06.01.2022
4479 Mist 13 1016 62 10000 0 0 11:42 06.01.2022
4480 Mist 13 1016 62 10000 0 0 11:22 06.01.2022
4481 Haze 14 1016 61 9656 0 0 08:51 06.01.2022
4482 Clear 19 1016 55 10000 0 0 00:53 06.01.2022
4483 Clear 20 1017 46 10000 2.06 260 23:37 05.01.2022
4484 Clouds 21 1017 46 10000 0.89 255 22:56 05.01.2022
4485 Clear 20 1017 44 10000 0 0 22:32 05.01.2022
4486 Clear 20 1018 42 10000 0 0 21:48 05.01.2022
4487 Clouds 19 1019 43 10000 0.26 67 20:57 05.01.2022
4488 Clear 18 1020 45 10000 0 0 20:18 05.01.2022
4489 Clear 15 1020 58 10000 0 0 18:44 05.01.2022
4490 Clear 11 1020 74 10000 0 0 17:26 05.01.2022
4491 Clear 11 1020 75 10000 0 0 16:50 05.01.2022
4492 Clear 10 1020 74 10000 0 0 15:26 05.01.2022
4493 Clear 11 1020 72 10000 0 0 13:52 05.01.2022
4494 Clear 11 1020 73 10000 0 0 13:25 05.01.2022
4495 Clear 11 1021 74 10000 0 0 11:36 05.01.2022
4496 Clear 11 1022 78 10000 0 0 07:47 05.01.2022
4497 Clear 11 1022 82 10000 0 0 06:25 05.01.2022
4498 Clear 16 1022 56 10000 0.45 203 00:59 05.01.2022
4499 Clear 17 1022 48 10000 0 0 23:28 04.01.2022
4500 Clear 17 1023 49 10000 0.89 283 22:58 04.01.2022
4501 Clear 16 1024 57 10000 0 0 21:31 04.01.2022
4502 Clear 16 1024 57 10000 0 0 21:31 04.01.2022
4503 Clear 16 1024 57 10000 0 0 21:31 04.01.2022
4504 Clear 13 1025 57 10000 0 0 19:22 04.01.2022
4505 Clear 11 1024 65 10000 0 0 17:54 04.01.2022
4506 Clear 8 1024 67 10000 0 0 16:53 04.01.2022
4507 Clear 8 1024 69 10000 0 0 16:25 04.01.2022
4508 Clouds 9 1023 55 10000 0.68 34 14:54 04.01.2022
4509 Clear 8 1024 68 10000 0 0 14:35 04.01.2022
4510 Clear 8 1024 70 10000 0 0 13:40 04.01.2022
4511 Clear 9 1024 68 10000 0 0 10:52 04.01.2022
4512 Clear 9 1024 74 10000 0 0 09:47 04.01.2022
4513 Clear 10 1024 71 10000 0 0 08:35 04.01.2022
4514 Clear 12 1022 71 10000 0 0 03:39 04.01.2022
4515 Clear 16 1022 48 10000 1.54 270 00:42 04.01.2022
4516 Clear 17 1022 44 10000 1.54 0 23:41 03.01.2022
4517 Clear 17 1022 39 10000 0 0 22:21 03.01.2022
4518 Clear 17 1023 37 10000 0 0 21:35 03.01.2022
4519 Clear 16 1023 34 10000 0 0 20:28 03.01.2022
4520 Clear 13 1025 38 10000 0.85 220 18:54 03.01.2022
4521 Clear 12 1023 44 10000 0 0 18:29 03.01.2022
4522 Clear 9 1023 50 10000 0 0 17:18 03.01.2022
4523 Clear 7 1023 50 10000 1.54 360 16:28 03.01.2022
4524 Clear 8 1022 46 10000 1.54 20 14:31 03.01.2022
4525 Smoke 9 1022 48 10000 1.54 10 12:51 03.01.2022
4526 Smoke 9 1022 46 10000 0 0 11:50 03.01.2022
4527 Clear 9 1023 44 10000 0 0 10:37 03.01.2022
4528 Clear 10 1023 49 10000 0 0 08:54 03.01.2022
4529 Clear 10 1023 51 10000 0 0 07:51 03.01.2022
4530 Clear 14 1022 48 10000 3.09 260 02:28 03.01.2022
4531 Clear 18 1022 25 10000 1.54 0 23:22 02.01.2022
4532 Clear 17 1023 28 10000 0.45 45 22:56 02.01.2022
4533 Clear 17 1024 29 10000 1.54 70 21:52 02.01.2022
4534 Clear 16 1026 34 10000 1.54 0 20:50 02.01.2022
4535 Clear 15 1026 35 10000 1.54 0 20:29 02.01.2022
4536 Clear 13 1027 39 10000 0 0 19:31 02.01.2022
4537 Clear 13 1027 43 10000 0.88 8 18:55 02.01.2022
4538 Clear 11 1026 53 10000 0.87 13 17:56 02.01.2022
4539 Clear 10 1026 49 10000 1.54 10 17:38 02.01.2022
4540 Clear 9 1026 51 10000 1.54 10 17:20 02.01.2022
4541 Clear 8 1026 49 10000 2.06 10 16:27 02.01.2022
4542 Clear 8 1025 54 10000 0 0 14:41 02.01.2022
4543 Clear 8 1025 49 10000 0 0 13:25 02.01.2022
4544 Clear 9 1025 50 10000 0 0 12:31 02.01.2022
4545 Clear 9 1025 51 10000 1.54 360 11:41 02.01.2022
4546 Clear 9 1025 54 10000 0 0 10:53 02.01.2022
4547 Clear 9 1026 58 10000 1.54 350 09:56 02.01.2022
4548 Clear 10 1025 55 10000 0 0 07:34 02.01.2022
4549 Clear 12 1023 70 10000 1.54 0 02:51 02.01.2022
4550 Clear 16 1020 52 10000 2.06 110 23:42 01.01.2022
4551 Clear 16 1020 52 10000 2.06 110 23:23 01.01.2022
4552 Clear 16 1020 52 10000 1.54 0 22:25 01.01.2022
4553 Clear 15 1020 55 10000 0 0 21:44 01.01.2022
4554 Clear 15 1020 56 10000 0 0 21:21 01.01.2022
4555 Haze 15 1020 58 10000 0 0 20:20 01.01.2022
4556 Clear 14 1020 57 10000 0 0 19:33 01.01.2022
4557 Clear 12 1020 64 10000 0 0 18:29 01.01.2022
4558 Clouds 10 1019 69 10000 0 0 17:38 01.01.2022
4559 Clouds 8 1018 70 10000 0 0 16:34 01.01.2022
4560 Clouds 8 1017 72 10000 0 0 15:33 01.01.2022
4561 Clouds 8 1015 73 10000 0 0 14:22 01.01.2022
4562 Clouds 9 1015 73 10000 0 0 13:35 01.01.2022
4563 Clouds 9 1014 76 10000 0 0 12:18 01.01.2022
4564 Clouds 9 1014 79 10000 1.54 360 11:25 01.01.2022
4565 Haze 9 1013 80 10000 0 0 10:52 01.01.2022
4566 Haze 9 1012 76 6437 1.54 10 09:47 01.01.2022
4567 Clear 10 1011 72 10000 0 0 08:35 01.01.2022
4568 Clear 10 1011 79 10000 0.45 35 07:56 01.01.2022
4569 Clouds 10 1010 70 10000 0 0 07:37 01.01.2022
4570 Clouds 11 1009 71 10000 2.06 30 06:43 01.01.2022
4571 Clouds 11 1007 77 10000 0 0 04:39 01.01.2022
4572 Clear 12 1007 84 10000 0 0 03:52 01.01.2022
4573 Clouds 15 1006 77 10000 2.06 250 23:55 31.12.2021
4574 Clouds 15 1006 77 10000 1.54 0 22:25 31.12.2021
4575 Clear 15 1007 76 10000 2.06 270 21:47 31.12.2021
4576 Clear 14 1008 79 10000 0 0 19:48 31.12.2021
4577 Clear 14 1008 82 10000 0 0 19:28 31.12.2021
4578 Clear 10 1008 93 10000 0 0 17:56 31.12.2021
4579 Clear 10 1007 92 10000 1.54 60 17:26 31.12.2021
4580 Clear 10 1007 91 10000 0 0 16:52 31.12.2021
4581 Clear 9 1007 90 10000 0 0 16:18 31.12.2021
4582 Clear 9 1006 92 10000 0 0 15:50 31.12.2021
4583 Clear 9 1006 93 10000 0 0 15:27 31.12.2021
4584 Clear 9 1007 93 10000 0 0 14:41 31.12.2021
4585 Clear 9 1007 91 10000 0 0 13:55 31.12.2021
4586 Clear 9 1007 93 10000 1.79 345 12:53 31.12.2021
4587 Clear 9 1007 93 10000 0 0 12:26 31.12.2021
4588 Clear 10 1008 93 10000 1.54 360 11:42 31.12.2021
4589 Clear 10 1008 94 10000 1.88 7 10:58 31.12.2021
4590 Mist 10 1009 93 8047 0 0 10:29 31.12.2021
4591 Mist 11 1009 95 9656 0 0 09:35 31.12.2021
4592 Clouds 11 1010 94 10000 0.45 346 08:54 31.12.2021
4593 Clear 11 1009 94 10000 1.54 360 08:23 31.12.2021
4594 Clouds 11 1010 94 10000 0 0 06:24 31.12.2021
4595 Rain 13 1010 94 2816 2.57 110 23:23 30.12.2021
4596 Rain 12 1011 94 4023 1.54 0 22:32 30.12.2021
4597 Rain 12 1011 94 10000 3.09 70 21:41 30.12.2021
4598 Rain 12 1011 94 4828 2.57 70 21:22 30.12.2021
4599 Rain 12 1012 94 6437 3.09 0 20:43 30.12.2021
4600 Rain 12 1012 94 6437 3.09 0 20:23 30.12.2021
4601 Rain 12 1012 93 10000 4.12 80 19:43 30.12.2021
4602 Mist 12 1012 94 3219 3.6 90 18:29 30.12.2021
4603 Mist 11 1012 94 2414 0 0 17:38 30.12.2021
4604 Rain 11 1011 94 4828 2.57 0 15:58 30.12.2021
4605 Rain 11 1011 94 4023 1.54 0 15:39 30.12.2021
4606 Rain 11 1010 93 6437 4.12 90 14:37 30.12.2021
4607 Rain 11 1010 94 6437 4.12 100 13:32 30.12.2021
4608 Rain 11 1011 94 9656 3.09 0 12:29 30.12.2021
4609 Rain 11 1011 94 4828 3.6 90 10:50 30.12.2021
4610 Rain 11 1011 94 4828 3.09 0 09:56 30.12.2021
4611 Rain 11 1011 94 8047 1.79 76 08:56 30.12.2021
4612 Rain 12 1011 94 6437 1.54 0 06:52 30.12.2021
4613 Rain 10 1011 92 8047 3.09 60 03:42 30.12.2021
4614 Rain 10 1011 91 10000 2.06 0 02:42 30.12.2021
4615 Mist 11 1012 90 2414 3.6 90 23:43 29.12.2021
4616 Rain 11 1012 90 10000 3.09 90 23:22 29.12.2021
4617 Rain 11 1012 87 3219 3.09 0 22:21 29.12.2021
4618 Rain 11 1013 80 6437 3.6 140 21:33 29.12.2021
4619 Clouds 11 1013 79 10000 2.06 110 20:38 29.12.2021
4620 Clouds 11 1014 80 10000 1.54 0 19:48 29.12.2021
4621 Clouds 10 1013 81 10000 2.06 0 18:52 29.12.2021
4622 Clouds 9 1013 83 10000 0 0 17:56 29.12.2021
4623 Clouds 9 1013 85 10000 0 0 17:28 29.12.2021
4624 Clouds 8 1012 86 10000 2.06 70 16:41 29.12.2021
4625 Clouds 8 1012 86 10000 1.34 51 15:59 29.12.2021
4626 Clouds 8 1012 84 10000 2.06 0 14:24 29.12.2021
4627 Clouds 8 1013 84 10000 1.54 80 12:42 29.12.2021
4628 Clouds 8 1013 85 10000 0 0 11:49 29.12.2021
4629 Clouds 8 1013 85 10000 0 0 09:59 29.12.2021
4630 Clear 8 1012 83 10000 1.54 100 07:52 29.12.2021
4631 Clear 8 1011 83 10000 0 0 06:43 29.12.2021
4632 Clear 8 1011 82 10000 0 0 06:23 29.12.2021
4633 Clouds 9 1011 81 10000 0 0 05:42 29.12.2021
4634 Clouds 10 1011 71 10000 0 0 03:18 29.12.2021
4635 Clear 12 1010 60 10000 0.89 263 00:24 29.12.2021
4636 Clouds 12 1010 61 10000 0 0 23:47 28.12.2021
4637 Clouds 12 1010 60 10000 0 0 22:45 28.12.2021
4638 Clouds 12 1010 60 10000 0 0 22:24 28.12.2021
4639 Clouds 12 1011 62 10000 0.45 184 21:53 28.12.2021
4640 Clouds 12 1012 64 10000 1.54 0 20:48 28.12.2021
4641 Clear 11 1012 72 10000 2.57 100 19:44 28.12.2021
4642 Clear 10 1012 78 10000 0 0 18:44 28.12.2021
4643 Fog 10 1012 82 10000 0 0 18:23 28.12.2021
4644 Clouds 8 1011 89 10000 0 0 16:35 28.12.2021
4645 Clouds 8 1011 89 10000 0 0 15:52 28.12.2021
4646 Clouds 8 1012 89 10000 0 0 15:27 28.12.2021
4647 Clouds 8 1012 91 10000 0 0 14:53 28.12.2021
4648 Clouds 8 1012 90 10000 0 0 14:21 28.12.2021
4649 Clear 8 1012 89 10000 0 0 13:54 28.12.2021
4650 Clear 8 1012 89 10000 0 0 13:33 28.12.2021
4651 Clouds 8 1012 87 10000 5.66 280 12:55 28.12.2021
4652 Clear 8 1012 88 10000 0 0 12:18 28.12.2021
4653 Clear 9 1012 87 10000 0 0 09:30 28.12.2021
4654 Clear 10 1012 87 10000 0 0 07:33 28.12.2021
4655 Clouds 11 1012 91 10000 0 0 03:31 28.12.2021
4656 Mist 10 1015 87 4828 0 0 23:37 27.12.2021
4657 Clouds 11 1016 77 10000 2.06 280 22:20 27.12.2021
4658 Clouds 12 1017 67 10000 0.45 275 21:30 27.12.2021
4659 Clouds 12 1018 65 10000 0 0 20:32 27.12.2021
4660 Clear 12 1018 69 10000 1.54 0 19:47 27.12.2021
4661 Clouds 11 1019 76 10000 0.45 174 18:57 27.12.2021
4662 Clear 9 1018 83 10000 0 0 17:51 27.12.2021
4663 Clear 8 1018 85 10000 0 0 17:28 27.12.2021
4664 Clouds 7 1019 84 10000 0 0 15:54 27.12.2021
4665 Clouds 7 1019 85 10000 0 0 15:19 27.12.2021
4666 Clouds 7 1019 84 10000 2.06 100 14:22 27.12.2021
4667 Clouds 7 1019 83 10000 0 0 12:52 27.12.2021
4668 Clear 8 1019 82 10000 2.06 90 10:40 27.12.2021
4669 Clear 8 1019 82 10000 2.06 90 10:22 27.12.2021
4670 Clear 8 1019 81 10000 0 0 08:43 27.12.2021
4671 Clear 8 1019 78 10000 0 0 07:34 27.12.2021
4672 Clear 9 1019 76 10000 1.54 90 06:27 27.12.2021
4673 Clear 12 1018 63 10000 0.45 253 01:52 27.12.2021
4674 Clear 14 1017 54 10000 0 0 23:49 26.12.2021
4675 Clear 15 1017 54 10000 0 0 23:19 26.12.2021
4676 Clear 14 1019 61 10000 0 0 21:37 26.12.2021
4677 Clouds 13 1020 75 10000 0.45 223 19:57 26.12.2021
4678 Clear 11 1019 81 10000 0 0 18:46 26.12.2021
4679 Clear 11 1019 84 10000 0 0 18:22 26.12.2021
4680 Clear 8 1017 87 10000 0 0 15:54 26.12.2021
4681 Clear 9 1016 89 10000 0 0 13:51 26.12.2021
4682 Clear 9 1016 88 10000 0 0 13:32 26.12.2021
4683 Clouds 10 1016 91 10000 0 0 12:37 26.12.2021
4684 Clouds 10 1016 91 10000 0 0 12:37 26.12.2021
4685 Clouds 10 1015 91 10000 0 0 11:56 26.12.2021
4686 Mist 11 1015 92 8047 3.09 250 09:42 26.12.2021
4687 Mist 11 1015 93 4828 2.06 0 08:50 26.12.2021
4688 Rain 11 1015 93 4828 0 0 08:27 26.12.2021
4689 Mist 10 1015 86 9656 2.57 0 06:47 26.12.2021
4690 Mist 12 1015 83 10000 0.45 252 00:45 26.12.2021
4691 Clouds 12 1015 77 10000 1.54 0 23:49 25.12.2021
4692 Clouds 12 1015 77 10000 1.34 213 23:25 25.12.2021
4693 Clouds 13 1016 80 10000 0 0 22:21 25.12.2021
4694 Mist 12 1017 89 10000 0 0 20:36 25.12.2021
4695 Mist 12 1018 87 4828 0 0 19:20 25.12.2021
4696 Clouds 11 1018 88 10000 2.06 210 18:54 25.12.2021
4697 Mist 11 1018 92 4828 0 0 16:58 25.12.2021
4698 Mist 11 1017 92 4828 0 0 15:54 25.12.2021
4699 Clouds 11 1016 88 10000 1.54 100 14:25 25.12.2021
4700 Clouds 11 1016 89 10000 0 0 12:43 25.12.2021
4701 Mist 11 1016 90 10000 0 0 11:27 25.12.2021
4702 Mist 11 1017 91 10000 1.54 90 09:49 25.12.2021
4703 Clouds 11 1017 93 10000 0 0 07:54 25.12.2021
4704 Clouds 13 1014 83 10000 0 0 02:18 25.12.2021
4705 Clouds 15 1013 75 10000 1.54 250 00:30 25.12.2021
4706 Clouds 15 1013 74 10000 0 0 23:38 24.12.2021
4707 Mist 14 1012 89 10000 1.54 0 19:39 24.12.2021
4708 Clouds 14 1012 89 10000 1.54 0 19:20 24.12.2021
4709 Clouds 12 1009 91 10000 3.6 270 16:50 24.12.2021
4710 Rain 12 1009 92 10000 1.79 257 16:19 24.12.2021
4711 Rain 13 1009 92 2414 0 0 15:45 24.12.2021
4712 Mist 13 1008 92 9656 0.45 244 14:46 24.12.2021
4713 Mist 13 1008 92 9656 0 0 14:23 24.12.2021
4714 Mist 13 1008 93 10000 1.54 0 13:37 24.12.2021
4715 Mist 13 1009 93 4828 2.06 100 12:48 24.12.2021
4716 Mist 13 1009 93 8047 2.06 0 11:52 24.12.2021
4717 Mist 13 1009 93 10000 2.06 80 11:26 24.12.2021
4718 Clouds 12 1009 93 10000 2.57 110 10:53 24.12.2021
4719 Rain 12 1009 93 8047 1.54 120 10:22 24.12.2021
4720 Mist 12 1011 94 8047 2.06 0 08:25 24.12.2021
4721 Mist 12 1012 93 3219 0 0 07:50 24.12.2021
4722 Mist 12 1013 92 4023 3.09 0 02:52 24.12.2021
4723 Rain 12 1013 94 9656 0.45 5 00:19 24.12.2021
4724 Rain 12 1014 94 6437 0.89 5 23:23 23.12.2021
4725 Rain 12 1015 94 4023 1.54 100 22:39 23.12.2021
4726 Rain 13 1016 94 4023 2.06 80 22:20 23.12.2021
4727 Rain 12 1016 93 4828 3.09 90 21:33 23.12.2021
4728 Mist 12 1017 93 1609 0.45 10 20:20 23.12.2021
4729 Mist 12 1017 90 3219 2.06 0 18:37 23.12.2021
4730 Mist 12 1017 89 4828 2.06 0 17:57 23.12.2021
4731 Clouds 12 1017 87 10000 2.06 70 16:57 23.12.2021
4732 Clouds 12 1017 84 10000 2.06 70 16:25 23.12.2021
4733 Clouds 12 1017 85 9656 0 0 15:32 23.12.2021
4734 Rain 12 1017 86 10000 0 0 14:54 23.12.2021
4735 Clouds 12 1017 84 10000 0 0 14:36 23.12.2021
4736 Haze 13 1017 82 10000 1.54 130 13:22 23.12.2021
4737 Clouds 14 1017 70 10000 0 0 10:54 23.12.2021
4738 Clouds 14 1017 70 10000 0 0 09:49 23.12.2021
4739 Clouds 14 1017 69 10000 0 0 09:26 23.12.2021
4740 Clouds 14 1018 69 10000 0 0 08:25 23.12.2021
4741 Clouds 15 1016 61 10000 0 0 04:36 23.12.2021
4742 Clear 17 1017 51 10000 0 0 23:33 22.12.2021
4743 Clear 18 1017 46 10000 0 0 22:49 22.12.2021
4744 Clear 18 1018 45 10000 1.54 0 21:57 22.12.2021
4745 Clear 18 1018 42 10000 0 0 21:29 22.12.2021
4746 Clear 18 1019 41 10000 0 0 20:52 22.12.2021
4747 Clear 18 1019 39 10000 0 0 20:33 22.12.2021
4748 Clear 17 1020 40 10000 0 0 19:37 22.12.2021
4749 Clear 15 1020 50 10000 0 0 18:19 22.12.2021
4750 Clear 13 1020 60 10000 0 0 17:37 22.12.2021
4751 Clear 12 1019 57 10000 0 0 15:49 22.12.2021
4752 Clear 12 1019 56 10000 0 0 13:46 22.12.2021
4753 Clear 12 1019 59 10000 0 0 12:47 22.12.2021
4754 Clear 12 1020 60 10000 0 0 11:37 22.12.2021
4755 Mist 12 1020 64 10000 0 0 09:43 22.12.2021
4756 Clear 13 1021 61 10000 0 0 07:55 22.12.2021
4757 Clear 13 1020 65 10000 0 0 05:51 22.12.2021
4758 Clear 13 1020 66 10000 0 0 05:31 22.12.2021
4759 Clear 13 1019 67 10000 0 0 04:55 22.12.2021
4760 Clear 13 1020 67 10000 0 0 04:35 22.12.2021
4761 Clear 14 1019 65 10000 0 0 03:34 22.12.2021
4762 Clear 15 1019 58 10000 1.54 270 02:25 22.12.2021
4763 Clear 19 1018 42 10000 0.45 257 23:47 21.12.2021
4764 Clear 19 1019 28 10000 0 0 22:36 21.12.2021
4765 Clear 19 1019 30 10000 0 0 21:55 21.12.2021
4766 Clear 19 1019 31 10000 0 0 21:31 21.12.2021
4767 Clear 17 1021 45 10000 0 0 20:24 21.12.2021
4768 Clear 16 1021 47 10000 0 0 19:52 21.12.2021
4769 Clear 15 1021 49 10000 0 0 19:33 21.12.2021
4770 Clear 14 1021 53 10000 0 0 18:23 21.12.2021
4771 Clear 14 1020 50 10000 0 0 17:53 21.12.2021
4772 Clear 13 1020 45 10000 0 0 16:47 21.12.2021
4773 Clear 13 1020 49 10000 0 0 15:34 21.12.2021
4774 Clear 13 1020 49 10000 0 0 14:20 21.12.2021
4775 Clear 13 1019 48 10000 0 0 13:41 21.12.2021
4776 Clear 13 1019 49 10000 0 0 12:25 21.12.2021
4777 Haze 13 1020 53 9656 0 0 10:38 21.12.2021
4778 Haze 13 1020 52 9656 0 0 09:50 21.12.2021
4779 Clouds 14 1021 37 10000 0.54 290 08:55 21.12.2021
4780 Haze 13 1020 58 9656 0 0 07:43 21.12.2021
4781 Haze 13 1020 59 9656 0 0 07:20 21.12.2021
4782 Clear 14 1019 63 10000 0 0 03:24 21.12.2021
4783 Clear 16 1019 54 10000 0 0 01:25 21.12.2021
4784 Clear 17 1019 44 10000 0 0 23:54 20.12.2021
4785 Clear 18 1019 34 10000 0 0 22:35 20.12.2021
4786 Clear 17 1020 33 10000 0 0 21:52 20.12.2021
4787 Clear 17 1020 33 10000 0.45 21 21:24 20.12.2021
4788 Clear 17 1021 35 10000 1.54 90 20:54 20.12.2021
4789 Clear 16 1022 37 10000 0 0 20:23 20.12.2021
4790 Clear 15 1023 49 10000 0 0 19:38 20.12.2021
4791 Clear 14 1023 49 10000 0 0 19:19 20.12.2021
4792 Clear 13 1022 59 10000 0 0 18:32 20.12.2021
4793 Haze 10 1022 65 10000 0 0 17:50 20.12.2021
4794 Clear 8 1022 65 10000 0 0 16:47 20.12.2021
4795 Clouds 10 1021 43 10000 0.66 354 15:57 20.12.2021
4796 Clear 8 1021 65 10000 0 0 15:35 20.12.2021
4797 Clear 8 1021 68 10000 0 0 13:49 20.12.2021
4798 Mist 9 1021 67 10000 0 0 12:30 20.12.2021
4799 Mist 9 1021 71 10000 0 0 10:46 20.12.2021
4800 Clear 10 1021 69 10000 0 0 09:40 20.12.2021
4801 Clear 10 1021 71 10000 0 0 08:50 20.12.2021
4802 Clear 10 1021 69 10000 0 0 08:31 20.12.2021
4803 Clear 11 1021 68 10000 0 0 07:35 20.12.2021
4804 Clear 11 1021 70 10000 0 0 06:39 20.12.2021
4805 Clear 17 1019 53 10000 0.89 260 00:26 20.12.2021
4806 Clear 19 1019 40 10000 2.11 175 22:58 19.12.2021
4807 Clear 18 1019 39 10000 0.89 163 22:40 19.12.2021
4808 Clear 18 1020 30 10000 0.45 294 21:32 19.12.2021
4809 Clear 18 1020 27 10000 0 0 20:44 19.12.2021
4810 Clear 17 1021 28 10000 0 0 20:23 19.12.2021
4811 Clear 16 1021 31 10000 0 0 19:42 19.12.2021
4812 Clear 14 1021 40 10000 0 0 18:46 19.12.2021
4813 Clear 12 1020 43 10000 0 0 17:54 19.12.2021
4814 Clear 11 1020 47 10000 0 0 17:35 19.12.2021
4815 Clear 9 1020 52 10000 0 0 16:41 19.12.2021
4816 Clear 11 1019 37 10000 0.9 63 15:56 19.12.2021
4817 Clear 9 1019 49 10000 0 0 15:25 19.12.2021
4818 Clear 9 1019 49 10000 0 0 15:25 19.12.2021
4819 Clear 10 1019 49 10000 0 0 14:45 19.12.2021
4820 Clear 10 1019 46 10000 0 0 13:35 19.12.2021
4821 Clear 12 1018 37 10000 0.57 29 12:59 19.12.2021
4822 Clear 10 1019 46 10000 2.06 20 12:32 19.12.2021
4823 Clear 11 1019 46 10000 1.54 20 11:38 19.12.2021
4824 Clear 11 1019 47 10000 1.54 40 10:50 19.12.2021
4825 Clear 11 1019 44 10000 1.54 40 10:22 19.12.2021
4826 Clear 12 1020 47 10000 0 0 08:51 19.12.2021
4827 Clear 12 1020 52 10000 0 0 06:54 19.12.2021
4828 Clear 15 1019 60 10000 0 0 02:30 19.12.2021
4829 Clear 18 1020 42 10000 0.45 278 00:55 19.12.2021
4830 Clear 20 1019 31 10000 1.54 260 23:21 18.12.2021
4831 Clear 19 1020 30 10000 0 0 22:29 18.12.2021
4832 Clear 19 1021 25 10000 0 0 21:51 18.12.2021
4833 Clear 19 1021 24 10000 0.45 140 21:30 18.12.2021
4834 Clear 18 1022 26 10000 0.45 360 20:43 18.12.2021
4835 Clear 19 1022 26 10000 0 0 20:43 18.12.2021
4836 Clear 17 1022 28 10000 0 0 19:50 18.12.2021
4837 Clear 14 1022 43 10000 0 0 18:26 18.12.2021
4838 Clear 13 1022 41 10000 0 0 17:50 18.12.2021
4839 Clear 11 1022 50 10000 0 0 16:55 18.12.2021
4840 Clear 10 1022 49 10000 0 0 16:21 18.12.2021
4841 Clear 10 1022 50 10000 1.54 10 15:25 18.12.2021
4842 Clear 10 1021 50 10000 0 0 14:19 18.12.2021
4843 Clear 10 1021 55 10000 0 0 12:21 18.12.2021
4844 Clear 11 1021 55 10000 0 0 10:43 18.12.2021
4845 Clear 11 1022 54 10000 0 0 09:33 18.12.2021
4846 Clear 12 1021 53 10000 0 0 08:37 18.12.2021
4847 Clear 12 1021 52 10000 0 0 08:18 18.12.2021
4848 Clear 16 1019 61 10000 0 0 01:48 18.12.2021
4849 Clear 16 1019 60 10000 0 0 01:48 18.12.2021
4850 Clear 18 1019 46 10000 0 0 00:27 18.12.2021
4851 Clear 19 1019 45 10000 0 0 23:37 17.12.2021
4852 Clear 18 1020 50 10000 0 0 21:54 17.12.2021
4853 Clear 17 1020 55 10000 1.54 90 20:50 17.12.2021
4854 Clear 16 1021 58 10000 1.54 90 20:28 17.12.2021
4855 Clear 14 1021 72 10000 0 0 18:54 17.12.2021
4856 Clear 13 1021 77 10000 0 0 18:21 17.12.2021
4857 Clear 11 1020 83 10000 0 0 17:26 17.12.2021
4858 Haze 9 1019 84 10000 0 0 16:44 17.12.2021
4859 Haze 9 1019 84 10000 0 0 16:19 17.12.2021
4860 Haze 9 1019 86 10000 0 0 15:19 17.12.2021
4861 Haze 9 1019 86 10000 0 0 14:34 17.12.2021
4862 Haze 10 1019 87 10000 0 0 12:46 17.12.2021
4863 Haze 10 1019 89 10000 1.54 70 11:27 17.12.2021
4864 Haze 10 1019 89 10000 1.54 0 09:59 17.12.2021
4865 Mist 11 1019 90 9656 0.89 11 08:58 17.12.2021
4866 Haze 11 1019 89 10000 1.54 70 08:20 17.12.2021
4867 Mist 11 1018 90 6437 1.54 100 05:41 17.12.2021
4868 Mist 11 1018 85 4023 0 0 02:52 17.12.2021
4869 Clouds 13 1018 68 10000 1.54 0 23:20 16.12.2021
4870 Clear 14 1019 63 10000 1.34 293 22:24 16.12.2021
4871 Clear 14 1019 63 10000 0 0 22:23 16.12.2021
4872 Clear 14 1019 63 10000 1.34 293 22:23 16.12.2021
4873 Clear 14 1019 63 10000 1.34 293 22:23 16.12.2021
4874 Clear 14 1020 60 10000 0 0 21:44 16.12.2021
4875 Clear 13 1020 59 10000 0 0 20:55 16.12.2021
4876 Clouds 13 1021 58 10000 0 0 20:27 16.12.2021
4877 Clear 12 1022 59 10000 1.54 0 19:31 16.12.2021
4878 Clear 10 1021 67 10000 1.54 60 18:36 16.12.2021
4879 Clear 9 1021 70 10000 0 0 17:48 16.12.2021
4880 Clear 7 1022 73 10000 0 0 16:44 16.12.2021
4881 Clear 7 1022 73 10000 0 0 16:18 16.12.2021
4882 Clear 7 1021 73 10000 1.54 30 14:32 16.12.2021
4883 Clear 7 1022 74 10000 0 0 12:34 16.12.2021
4884 Clear 7 1022 73 10000 0 0 11:19 16.12.2021
4885 Clear 7 1022 73 10000 0 0 11:19 16.12.2021
4886 Clear 7 1023 69 10000 0 0 10:45 16.12.2021
4887 Clear 8 1023 68 10000 0 0 09:51 16.12.2021
4888 Clear 8 1023 71 10000 0 0 07:19 16.12.2021
4889 Clear 8 1024 69 10000 0 0 06:18 16.12.2021
4890 Clear 13 1022 53 10000 0.89 266 00:44 16.12.2021
4891 Clear 14 1022 47 10000 0.45 244 23:21 15.12.2021
4892 Clear 13 1022 49 10000 0 0 22:22 15.12.2021
4893 Clear 13 1023 50 10000 0 0 21:46 15.12.2021
4894 Clear 13 1023 51 10000 0 0 21:26 15.12.2021
4895 Clear 12 1024 63 10000 2.06 140 19:55 15.12.2021
4896 Clear 11 1025 65 10000 1.54 100 19:19 15.12.2021
4897 Clear 9 1024 72 10000 1.54 0 18:26 15.12.2021
4898 Clear 8 1024 76 10000 0 0 17:49 15.12.2021
4899 Clear 7 1024 79 10000 0 0 17:27 15.12.2021
4900 Clear 6 1023 80 10000 0 0 16:26 15.12.2021
4901 Mist 5 1022 79 8047 0 0 15:45 15.12.2021
4902 Mist 6 1022 80 8047 0 0 15:27 15.12.2021
4903 Clouds 6 1021 79 10000 1.23 348 13:59 15.12.2021
4904 Clear 6 1022 81 10000 0 0 12:24 15.12.2021
4905 Clear 6 1021 80 10000 0 0 10:24 15.12.2021
4906 Clear 7 1020 84 10000 0 0 08:48 15.12.2021
4907 Clear 8 1018 84 10000 0 0 06:45 15.12.2021
4908 Clouds 10 1012 87 9656 3.6 260 00:52 15.12.2021
4909 Mist 10 1012 88 8047 2.06 280 23:41 14.12.2021
4910 Rain 10 1012 90 10000 4.12 260 22:48 14.12.2021
4911 Mist 11 1011 92 10000 6.69 260 21:51 14.12.2021
4912 Rain 14 1010 93 10000 1.54 0 20:27 14.12.2021
4913 Rain 14 1011 94 6437 0 0 19:40 14.12.2021
4914 Mist 14 1012 94 2414 1.34 211 18:44 14.12.2021
4915 Rain 14 1012 94 402 0 0 17:58 14.12.2021
4916 Rain 14 1012 95 2012 2.06 0 17:28 14.12.2021
4917 Rain 14 1012 94 4023 2.57 0 16:38 14.12.2021
4918 Rain 13 1013 94 4023 2.57 0 15:26 14.12.2021
4919 Rain 13 1014 93 4828 2.57 0 13:31 14.12.2021
4920 Rain 12 1016 93 3219 2.06 0 11:58 14.12.2021
4921 Mist 12 1016 93 4023 2.57 80 11:23 14.12.2021
4922 Rain 12 1017 91 2816 0.89 329 09:57 14.12.2021
4923 Mist 12 1018 89 4828 3.6 100 09:35 14.12.2021
4924 Clouds 13 1018 82 10000 2.57 0 08:25 14.12.2021
4925 Clouds 13 1018 80 10000 0.89 348 07:43 14.12.2021
4926 Clouds 14 1018 70 10000 2.06 90 02:27 14.12.2021
4927 Clouds 14 1018 71 10000 0.45 53 22:56 13.12.2021
4928 Clouds 14 1019 65 10000 1.54 110 21:53 13.12.2021
4929 Clouds 14 1019 67 10000 0 0 21:18 13.12.2021
4930 Clouds 13 1020 68 10000 0.45 360 20:42 13.12.2021
4931 Clouds 13 1021 70 10000 2.57 110 19:52 13.12.2021
4932 Clouds 11 1020 73 10000 2.57 90 18:24 13.12.2021
4933 Clouds 11 1020 77 10000 2.57 80 17:26 13.12.2021
4934 Clouds 10 1019 82 10000 0 0 15:54 13.12.2021
4935 Clouds 9 1019 78 10000 0 0 15:32 13.12.2021
4936 Clouds 9 1018 82 10000 0 0 13:45 13.12.2021
4937 Clouds 9 1018 83 10000 0 0 12:49 13.12.2021
4938 Clouds 9 1018 84 10000 0 0 11:59 13.12.2021
4939 Clouds 9 1018 80 10000 0 0 11:35 13.12.2021
4940 Clouds 10 1018 79 10000 1.54 100 10:47 13.12.2021
4941 Clouds 10 1019 75 10000 0 0 09:41 13.12.2021
4942 Clear 10 1018 74 10000 0 0 07:53 13.12.2021
4943 Clear 11 1017 76 10000 0 0 05:36 13.12.2021
4944 Clear 13 1016 70 10000 0 0 03:30 13.12.2021
4945 Clear 18 1015 38 10000 0.45 277 23:26 12.12.2021
4946 Clear 18 1016 35 10000 0 0 21:50 12.12.2021
4947 Clear 17 1017 35 10000 0.45 301 20:28 12.12.2021
4948 Clear 14 1018 46 10000 0 0 18:43 12.12.2021
4949 Clear 12 1018 49 10000 0 0 17:46 12.12.2021
4950 Clear 9 1017 56 10000 0 0 16:28 12.12.2021
4951 Clear 9 1017 59 10000 0 0 15:51 12.12.2021
4952 Clear 9 1017 59 10000 0 0 15:26 12.12.2021
4953 Clear 9 1017 56 10000 0 0 14:37 12.12.2021
4954 Clear 9 1017 55 10000 0 0 13:34 12.12.2021
4955 Clear 10 1018 54 10000 1.54 20 12:32 12.12.2021
4956 Clear 10 1018 55 10000 0 0 11:44 12.12.2021
4957 Clear 10 1018 55 10000 0 0 11:25 12.12.2021
4958 Clear 10 1018 53 10000 0 0 10:32 12.12.2021
4959 Clear 11 1019 50 10000 1.54 30 09:39 12.12.2021
4960 Clear 11 1019 49 10000 1.54 30 08:38 12.12.2021
4961 Clear 12 1019 52 10000 0 0 06:34 12.12.2021
4962 Clear 12 1019 51 10000 0 0 05:22 12.12.2021
4963 Clear 13 1019 60 10000 2.06 220 03:57 12.12.2021
4964 Clear 18 1019 37 10000 0 0 00:36 12.12.2021
4965 Clear 19 1020 24 10000 0 0 22:24 11.12.2021
4966 Clear 19 1021 26 10000 2.06 50 21:52 11.12.2021
4967 Clear 18 1021 27 10000 2.06 50 21:21 11.12.2021
4968 Clear 16 1023 37 10000 2.06 10 19:40 11.12.2021
4969 Clear 15 1023 43 10000 0 0 18:53 11.12.2021
4970 Clear 14 1023 45 10000 0 0 18:30 11.12.2021
4971 Clear 12 1023 47 10000 0 0 17:41 11.12.2021
4972 Clouds 10 1022 49 10000 1.87 11 15:57 11.12.2021
4973 Clear 10 1022 53 10000 0 0 15:35 11.12.2021
4974 Clear 10 1022 62 10000 1.54 20 13:46 11.12.2021
4975 Clear 11 1021 62 10000 1.89 12 11:58 11.12.2021
4976 Clear 11 1022 63 10000 1.54 360 10:24 11.12.2021
4977 Clear 11 1022 69 10000 0 0 09:37 11.12.2021
4978 Clear 13 1021 74 10000 0 0 03:25 11.12.2021
4979 Clear 16 1019 58 10000 0 0 00:44 11.12.2021
4980 Clouds 17 1019 56 10000 2.57 0 23:40 10.12.2021
4981 Clouds 16 1019 57 10000 0 0 22:33 10.12.2021
4982 Clear 15 1019 60 10000 0 0 21:38 10.12.2021
4983 Clear 15 1020 60 10000 2.06 90 20:22 10.12.2021
4984 Clear 14 1020 68 10000 1.54 0 19:18 10.12.2021
4985 Clear 11 1019 80 10000 1.54 90 17:31 10.12.2021
4986 Clear 9 1018 82 10000 0 0 16:34 10.12.2021
4987 Clear 8 1017 83 10000 0 0 15:43 10.12.2021
4988 Clear 8 1017 82 10000 0 0 15:23 10.12.2021
4989 Clouds 9 1016 84 10000 1.61 12 13:53 10.12.2021
4990 Clear 9 1016 79 10000 0 0 13:31 10.12.2021
4991 Clear 9 1016 78 10000 0 0 12:51 10.12.2021
4992 Clear 10 1016 75 10000 0 0 11:36 10.12.2021
4993 Clear 10 1016 71 10000 0 0 10:56 10.12.2021
4994 Clear 10 1016 71 10000 2.06 0 09:36 10.12.2021
4995 Clear 11 1015 71 10000 0 0 07:25 10.12.2021
4996 Clouds 11 1013 81 10000 1.98 299 04:57 10.12.2021
4997 Clear 13 1013 82 10000 0 0 02:39 10.12.2021
4998 Clouds 14 1013 84 10000 3.09 260 23:40 09.12.2021
4999 Clouds 14 1013 84 10000 3.09 260 23:40 09.12.2021
5000 Clouds 14 1013 90 10000 2.57 260 22:41 09.12.2021
5001 Clouds 14 1013 89 10000 2.57 260 22:41 09.12.2021
5002 Rain 13 1013 90 10000 0.45 200 22:21 09.12.2021
5003 Rain 14 1014 91 9656 0 0 21:39 09.12.2021
5004 Rain 14 1014 90 10000 1.54 260 20:35 09.12.2021
5005 Clouds 14 1015 90 10000 1.34 207 19:43 09.12.2021
5006 Mist 14 1015 90 9656 3.09 0 19:20 09.12.2021
5007 Clouds 14 1015 88 10000 1.54 0 18:19 09.12.2021
5008 Clouds 14 1015 88 10000 2.06 0 17:48 09.12.2021
5009 Clouds 13 1015 88 10000 2.06 0 17:24 09.12.2021
5010 Clouds 13 1015 89 10000 1.54 250 16:36 09.12.2021
5011 Clouds 13 1014 90 10000 1.54 250 15:19 09.12.2021
5012 Clouds 13 1014 90 10000 0 0 14:36 09.12.2021
5013 Mist 14 1015 89 10000 0 0 12:48 09.12.2021
5014 Mist 14 1015 88 10000 0.45 232 12:24 09.12.2021
5015 Clouds 14 1015 89 10000 0 0 10:40 09.12.2021
5016 Haze 14 1016 90 10000 0 0 07:53 09.12.2021
5017 Clouds 14 1016 86 10000 0.45 203 03:58 09.12.2021
5018 Clear 17 1015 74 10000 2.57 250 01:43 09.12.2021
5019 Clear 19 1015 64 10000 1.79 223 23:38 08.12.2021
5020 Clear 19 1015 65 10000 1.34 211 22:59 08.12.2021
5021 Clear 19 1016 64 10000 3.13 253 22:37 08.12.2021
5022 Clear 19 1016 63 10000 0.45 302 21:39 08.12.2021
5023 Clear 19 1016 63 10000 0.89 242 21:39 08.12.2021
5024 Clear 18 1017 65 10000 0 0 20:58 08.12.2021
5025 Clear 18 1018 70 10000 1.54 200 19:57 08.12.2021
5026 Haze 17 1018 72 9656 0 0 19:29 08.12.2021
5027 Haze 15 1018 80 9656 1.54 0 18:28 08.12.2021
5028 Haze 13 1018 86 8047 0 0 17:24 08.12.2021
5029 Mist 11 1017 83 10000 0 0 15:45 08.12.2021
5030 Mist 11 1017 83 10000 0 0 15:23 08.12.2021
5031 Mist 11 1017 86 9656 0 0 14:26 08.12.2021
5032 Clear 12 1016 85 10000 0 0 10:53 08.12.2021
5033 Clear 12 1016 85 10000 0 0 10:28 08.12.2021
5034 Clouds 12 1016 86 10000 0.32 68 08:54 08.12.2021
5035 Clear 13 1016 86 10000 0 0 07:21 08.12.2021
5036 Haze 16 1015 70 10000 0 0 01:39 08.12.2021
5037 Haze 18 1014 66 10000 2.06 100 23:33 07.12.2021
5038 Haze 17 1015 70 8047 0 0 21:26 07.12.2021
5039 Haze 16 1015 74 8047 0 0 20:54 07.12.2021
5040 Haze 15 1016 83 6437 1.54 0 19:50 07.12.2021
5041 Haze 14 1015 85 6437 1.54 0 18:42 07.12.2021
5042 Haze 14 1015 88 8047 1.54 0 17:27 07.12.2021
5043 Clouds 13 1015 89 9656 0 0 16:58 07.12.2021
5044 Clouds 13 1015 89 9656 0 0 16:28 07.12.2021
5045 Clouds 13 1014 89 10000 1.9 75 14:57 07.12.2021
5046 Rain 14 1015 82 10000 0 0 13:53 07.12.2021
5047 Clouds 14 1015 80 10000 0 0 12:49 07.12.2021
5048 Clouds 14 1015 82 10000 0 0 11:25 07.12.2021
5049 Clouds 14 1016 80 10000 0 0 09:55 07.12.2021
5050 Haze 14 1016 82 10000 1.54 0 07:57 07.12.2021
5051 Haze 14 1016 85 8047 0 0 05:59 07.12.2021
5052 Haze 14 1016 85 8047 0 0 05:33 07.12.2021
5053 Haze 19 1016 68 4828 0 0 23:45 06.12.2021
5054 Haze 20 1017 62 4828 1.54 0 22:44 06.12.2021
5055 Haze 20 1017 60 4023 1.34 288 22:23 06.12.2021
5056 Haze 20 1017 58 4828 0.89 261 21:51 06.12.2021
5057 Haze 20 1018 51 4023 0 0 20:33 06.12.2021
5058 Haze 20 1018 56 4828 2.06 170 19:55 06.12.2021
5059 Haze 19 1019 58 4023 0 0 19:20 06.12.2021
5060 Haze 17 1019 64 4828 0 0 18:23 06.12.2021
5061 Mist 15 1019 68 4828 0 0 17:40 06.12.2021
5062 Mist 12 1018 84 4023 0 0 16:32 06.12.2021
5063 Mist 12 1017 75 4828 0 0 15:38 06.12.2021
5064 Mist 13 1017 75 6437 0 0 13:46 06.12.2021
5065 Mist 12 1017 80 4828 0 0 12:39 06.12.2021
5066 Mist 13 1018 80 4828 0 0 11:36 06.12.2021
5067 Mist 14 1017 76 6437 0 0 08:46 06.12.2021
5068 Mist 15 1017 75 6437 0 0 06:40 06.12.2021
5069 Haze 18 1017 67 4828 1.54 90 23:38 05.12.2021
5070 Haze 18 1019 72 4828 1.54 90 21:51 05.12.2021
5071 Haze 18 1019 72 4023 0 0 21:19 05.12.2021
5072 Mist 16 1020 74 3219 0 0 20:19 05.12.2021
5073 Mist 15 1020 81 2816 0 0 19:33 05.12.2021
5074 Mist 14 1021 88 2816 1.54 100 18:55 05.12.2021
5075 Mist 13 1021 88 3219 1.54 120 18:20 05.12.2021
5076 Mist 12 1021 89 3219 0 0 17:48 05.12.2021
5077 Mist 12 1020 88 4023 0 0 16:48 05.12.2021
5078 Mist 11 1020 86 4023 0 0 16:26 05.12.2021
5079 Mist 12 1020 88 4828 0 0 15:49 05.12.2021
5080 Mist 12 1020 87 4828 0 0 14:43 05.12.2021
5081 Mist 11 1020 87 4828 0 0 14:25 05.12.2021
5082 Mist 11 1020 86 4828 0 0 13:22 05.12.2021
5083 Mist 12 1020 84 4828 0 0 12:40 05.12.2021
5084 Mist 12 1020 84 4828 0 0 12:18 05.12.2021
5085 Mist 12 1020 84 6437 0 0 11:30 05.12.2021
5086 Mist 12 1020 87 10000 0 0 09:59 05.12.2021
5087 Haze 12 1021 86 9656 1.54 0 08:24 05.12.2021
5088 Haze 14 1020 83 10000 0 0 03:39 05.12.2021
5089 Haze 18 1020 67 6437 0.89 273 23:45 04.12.2021
5090 Haze 17 1021 66 4828 0 0 21:55 04.12.2021
5091 Haze 17 1021 68 4023 0.89 254 21:18 04.12.2021
5092 Haze 16 1022 72 3219 0 0 20:27 04.12.2021
5093 Haze 15 1022 77 3219 0 0 19:32 04.12.2021
5094 Haze 14 1022 80 3219 0 0 18:21 04.12.2021
5095 Haze 13 1021 82 3219 0 0 17:40 04.12.2021
5096 Haze 13 1021 83 3219 0 0 17:19 04.12.2021
5097 Haze 12 1021 82 4023 0 0 16:42 04.12.2021
5098 Haze 12 1021 84 4023 0 0 16:23 04.12.2021
5099 Haze 12 1020 87 9656 0 0 11:55 04.12.2021
5100 Haze 12 1020 84 8047 0 0 11:33 04.12.2021
5101 Haze 12 1020 84 8047 0 0 10:56 04.12.2021
5102 Haze 12 1020 87 10000 0 0 08:52 04.12.2021
5103 Haze 13 1020 88 10000 0 0 07:22 04.12.2021
5104 Haze 13 1019 85 9656 0 0 04:42 04.12.2021
5105 Haze 17 1018 70 8047 1.54 0 00:49 04.12.2021
5106 Haze 18 1018 68 6437 0 0 23:29 03.12.2021
5107 Haze 18 1018 67 4828 0.45 245 22:50 03.12.2021
5108 Haze 17 1019 68 3219 0 0 21:50 03.12.2021
5109 Haze 17 1019 70 2816 1.79 311 20:56 03.12.2021
5110 Haze 16 1020 75 2816 0 0 20:27 03.12.2021
5111 Haze 14 1021 80 2816 0 0 19:20 03.12.2021
5112 Haze 13 1021 83 2816 0 0 18:22 03.12.2021
5113 Haze 13 1021 85 2816 0 0 17:30 03.12.2021
5114 Mist 12 1019 84 4023 0 0 13:35 03.12.2021
5115 Haze 13 1020 84 4023 0 0 12:21 03.12.2021
5116 Haze 13 1020 83 4023 0 0 11:19 03.12.2021
5117 Haze 13 1020 86 4828 0 0 08:40 03.12.2021
5118 Haze 13 1020 86 6437 0 0 07:44 03.12.2021
5119 Haze 13 1020 86 8047 0 0 06:41 03.12.2021
5120 Haze 17 1019 70 6437 2.57 260 00:49 03.12.2021
5121 Haze 19 1019 63 10000 4.12 250 23:54 02.12.2021
5122 Haze 19 1019 71 6437 2.57 260 23:33 02.12.2021
5123 Haze 21 1020 60 4023 0 0 21:41 02.12.2021
5124 Haze 19 1020 68 3219 0 0 20:46 02.12.2021
5125 Haze 18 1020 70 3219 0 0 20:23 02.12.2021
5126 Mist 18 1021 74 2816 0 0 19:22 02.12.2021
5127 Mist 15 1021 85 1609 0 0 17:21 02.12.2021
5128 Mist 15 1020 67 1207 0 0 15:41 02.12.2021
5129 Mist 15 1019 63 1609 1.54 270 14:57 02.12.2021
5130 Fog 15 1019 69 402 0 0 13:44 02.12.2021
5131 Fog 15 1019 82 402 0 0 12:50 02.12.2021
5132 Fog 15 1019 80 402 0 0 11:52 02.12.2021
5133 Mist 16 1020 74 1207 1.54 100 09:27 02.12.2021
5134 Fog 16 1020 75 402 0 0 08:20 02.12.2021
5135 Haze 22 1017 52 4023 0 0 01:58 02.12.2021
5136 Haze 24 1017 46 4828 2.06 260 00:50 02.12.2021
5137 Haze 26 1017 35 4828 0 0 22:34 01.12.2021
5138 Haze 26 1017 39 8047 0.89 254 21:55 01.12.2021
5139 Haze 25 1019 41 4828 0 0 20:35 01.12.2021
5140 Haze 26 1019 41 4023 0 0 19:51 01.12.2021
5141 Haze 25 1020 32 6437 0 0 18:57 01.12.2021
5142 Fog 21 1019 41 805 0 0 17:39 01.12.2021
5143 Fog 16 1019 64 402 0 0 16:38 01.12.2021
5144 Mist 15 1018 62 6437 0 0 14:49 01.12.2021
5145 Mist 16 1017 58 8047 0 0 13:44 01.12.2021
5146 Mist 17 1017 54 6437 0 0 11:42 01.12.2021
5147 Mist 18 1017 52 6437 0 0 10:42 01.12.2021
5148 Clear 20 1018 32 10000 1.26 340 08:55 01.12.2021
5149 Mist 18 1017 56 6437 0 0 08:26 01.12.2021
5150 Mist 17 1017 58 6437 0 0 07:33 01.12.2021
5151 Haze 19 1017 62 9656 0 0 04:22 01.12.2021
5152 Haze 19 1016 57 9656 0 0 03:39 01.12.2021
5153 Haze 23 1016 53 6437 0 0 00:51 01.12.2021
5154 Haze 25 1015 40 4828 0 0 23:45 30.11.2021
5155 Haze 26 1016 41 4828 0.89 244 22:48 30.11.2021
5156 Haze 25 1016 43 8047 0 0 21:28 30.11.2021
5157 Haze 25 1018 37 8047 0 0 20:37 30.11.2021
5158 Haze 25 1018 42 9656 0 0 19:53 30.11.2021
5159 Haze 23 1019 46 9656 0 0 19:30 30.11.2021
5160 Haze 23 1019 46 9656 0 0 19:30 30.11.2021
5161 Haze 20 1019 58 9656 0 0 18:35 30.11.2021
5162 Fog 15 1018 76 10000 0 0 16:35 30.11.2021
5163 Fog 17 1017 46 201 0 0 14:58 30.11.2021
5164 Fog 15 1017 65 10000 0 0 14:19 30.11.2021
5165 Fog 15 1017 65 10000 0 0 14:19 30.11.2021
5166 Mist 15 1017 62 9656 0 0 13:25 30.11.2021
5167 Mist 16 1017 63 10000 0 0 12:45 30.11.2021
5168 Fog 17 1017 64 10000 0 0 11:27 30.11.2021
5169 Fog 17 1017 69 10000 0 0 10:56 30.11.2021
5170 Fog 17 1017 69 10000 0 0 10:31 30.11.2021
5171 Mist 17 1017 71 10000 0 0 08:52 30.11.2021
5172 Fog 17 1017 77 10000 0 0 08:20 30.11.2021
5173 Fog 17 1017 65 10000 0 0 07:47 30.11.2021
5174 Clear 19 1016 51 10000 1.54 260 02:41 30.11.2021
5175 Clear 21 1016 47 10000 0.45 215 01:41 30.11.2021
5176 Clear 24 1016 38 10000 0 0 00:20 30.11.2021
5177 Clear 25 1016 37 10000 0.45 256 23:24 29.11.2021
5178 Clear 25 1017 36 10000 0.89 308 22:55 29.11.2021
5179 Clear 25 1017 38 10000 1.54 250 22:33 29.11.2021
5180 Clear 25 1018 31 10000 0 0 21:29 29.11.2021
5181 Clear 25 1018 29 10000 0.45 215 20:59 29.11.2021
5182 Haze 24 1019 28 9656 0.45 295 20:32 29.11.2021
5183 Haze 23 1020 28 9656 0 0 19:56 29.11.2021
5184 Haze 23 1020 28 9656 0 0 19:36 29.11.2021
5185 Clear 23 1019 18 10000 0.99 198 18:51 29.11.2021
5186 Clear 21 1019 20 10000 0.38 226 17:55 29.11.2021
5187 Clear 20 1019 23 10000 0.28 9 17:18 29.11.2021
5188 Clear 18 1019 26 10000 0.52 47 16:29 29.11.2021
5189 Clear 18 1019 26 10000 0.55 47 15:52 29.11.2021
5190 Clear 18 1019 26 10000 0.68 52 14:43 29.11.2021
5191 Clear 18 1018 26 10000 0.73 53 13:34 29.11.2021
5192 Clear 19 1018 21 10000 0.75 17 12:42 29.11.2021
5193 Clear 19 1018 22 10000 0.8 28 11:41 29.11.2021
5194 Clear 19 1018 24 10000 0.86 50 10:58 29.11.2021
5195 Fog 13 1020 81 10000 0 0 09:36 29.11.2021
5196 Clear 15 1020 78 10000 0 0 06:22 29.11.2021
5197 Clear 18 1020 62 10000 0 0 03:46 29.11.2021
5198 Clear 24 1019 29 10000 1.54 0 00:43 29.11.2021
5199 Clear 25 1019 23 10000 1.54 0 23:44 28.11.2021
5200 Clear 25 1019 23 10000 1.54 0 23:24 28.11.2021
5201 Clear 24 1021 26 10000 0 0 21:53 28.11.2021
5202 Clear 24 1021 24 10000 0 0 21:26 28.11.2021
5203 Clear 23 1022 24 10000 0 0 20:35 28.11.2021
5204 Clear 20 1022 25 10000 0 0 19:28 28.11.2021
5205 Clear 16 1022 30 10000 0 0 18:35 28.11.2021
5206 Clear 12 1022 45 10000 0 0 17:56 28.11.2021
5207 Clear 12 1022 45 10000 0 0 17:32 28.11.2021
5208 Clear 10 1021 56 10000 0 0 16:44 28.11.2021
5209 Clear 10 1021 56 10000 0 0 16:22 28.11.2021
5210 Clear 10 1021 57 10000 0 0 15:33 28.11.2021
5211 Clear 10 1021 60 10000 0 0 14:49 28.11.2021
5212 Clear 10 1021 60 10000 0 0 13:49 28.11.2021
5213 Clear 11 1021 60 10000 0 0 12:54 28.11.2021
5214 Clear 11 1021 60 10000 0 0 11:19 28.11.2021
5215 Clear 12 1021 60 10000 0 0 10:22 28.11.2021
5216 Clear 13 1021 57 10000 1.54 110 09:40 28.11.2021
5217 Clear 13 1021 59 10000 0 0 08:19 28.11.2021
5218 Clear 24 1017 22 10000 3.6 250 00:40 28.11.2021
5219 Clear 24 1019 9 10000 0 0 21:45 27.11.2021
5220 Clear 21 1020 15 10000 0 0 19:50 27.11.2021
5221 Clear 17 1019 20 10000 0 0 18:20 27.11.2021
5222 Clouds 16 1018 13 10000 1.31 72 15:59 27.11.2021
5223 Clear 11 1017 29 10000 0 0 14:35 27.11.2021
5224 Clear 12 1017 25 10000 0 0 13:20 27.11.2021
5225 Clear 12 1017 27 10000 1.54 20 11:23 27.11.2021
5226 Clear 14 1017 24 10000 2.06 360 09:55 27.11.2021
5227 Clear 13 1018 34 10000 0 0 08:51 27.11.2021
5228 Clear 14 1018 47 10000 0 0 06:35 27.11.2021
5229 Clouds 17 1017 21 10000 0.95 13 03:57 27.11.2021
5230 Clear 24 1017 19 10000 1.54 250 00:23 27.11.2021
5231 Clear 25 1018 9 10000 1.54 0 22:41 26.11.2021
5232 Clear 25 1018 9 10000 1.54 0 22:20 26.11.2021
5233 Clear 24 1019 9 10000 1.54 0 21:23 26.11.2021
5234 Clear 23 1020 9 10000 0 0 20:40 26.11.2021
5235 Clear 21 1021 10 10000 1.54 100 19:55 26.11.2021
5236 Clear 18 1022 17 10000 0 0 18:47 26.11.2021
5237 Clear 13 1022 25 10000 0 0 17:40 26.11.2021
5238 Clear 13 1022 25 10000 0 0 17:20 26.11.2021
5239 Clear 10 1021 25 10000 0 0 15:22 26.11.2021
5240 Clear 14 1022 21 10000 0 0 13:35 26.11.2021
5241 Smoke 15 1022 23 10000 0 0 10:45 26.11.2021
5242 Smoke 15 1023 22 10000 0 0 09:54 26.11.2021
5243 Smoke 16 1023 20 10000 0 0 08:53 26.11.2021
5244 Smoke 16 1023 20 10000 0 0 08:20 26.11.2021
5245 Smoke 17 1024 19 10000 0 0 06:48 26.11.2021
5246 Smoke 17 1024 19 10000 0 0 06:24 26.11.2021
5247 Clear 19 1023 18 10000 0 0 03:47 26.11.2021
5248 Clear 23 1023 14 10000 0.89 236 00:57 26.11.2021
5249 Clear 24 1023 10 10000 2.24 254 22:43 25.11.2021
5250 Clear 23 1023 10 10000 0 0 21:21 25.11.2021
5251 Clear 22 1025 13 10000 0 0 19:55 25.11.2021
5252 Clear 20 1025 17 10000 0 0 18:45 25.11.2021
5253 Clouds 18 1025 20 10000 1.54 160 17:41 25.11.2021
5254 Clear 17 1025 27 10000 0 0 17:18 25.11.2021
5255 Clear 16 1025 24 10000 3.6 70 16:29 25.11.2021
5256 Clouds 15 1024 22 10000 1.89 6 14:59 25.11.2021
5257 Clouds 16 1023 19 10000 0.89 4 13:25 25.11.2021
5258 Clear 17 1023 16 10000 12.86 20 12:20 25.11.2021
5259 Clear 17 1022 19 10000 0 0 11:48 25.11.2021
5260 Clear 18 1022 16 10000 0.45 352 09:25 25.11.2021
5261 Clear 19 1021 30 10000 1.54 0 05:27 25.11.2021
5262 Clear 18 1019 49 10000 0 0 02:48 25.11.2021
5263 Clear 22 1018 50 10000 1.54 0 22:45 24.11.2021
5264 Clear 22 1018 49 10000 2.68 234 22:23 24.11.2021
5265 Clear 21 1018 51 10000 1.34 217 21:28 24.11.2021
5266 Haze 21 1019 54 10000 0.45 248 20:46 24.11.2021
5267 Haze 20 1019 56 10000 0.89 251 20:19 24.11.2021
5268 Clear 17 1019 70 10000 0 0 18:30 24.11.2021
5269 Clouds 16 1018 71 10000 0 0 17:53 24.11.2021
5270 Clear 12 1016 81 10000 0 0 15:39 24.11.2021
5271 Clear 13 1016 75 10000 0 0 14:47 24.11.2021
5272 Clear 13 1016 73 10000 0 0 14:20 24.11.2021
5273 Clear 14 1015 81 10000 0 0 12:34 24.11.2021
5274 Clear 14 1015 79 10000 1.54 90 11:21 24.11.2021
5275 Clear 14 1015 76 10000 1.54 90 10:48 24.11.2021
5276 Clear 14 1015 79 10000 1.54 90 10:22 24.11.2021
5277 Clear 14 1015 72 10000 0 0 07:54 24.11.2021
5278 Clouds 14 1014 64 10000 1.49 124 06:55 24.11.2021
5279 Clear 16 1013 68 10000 0 0 03:51 24.11.2021
5280 Clear 21 1013 40 10000 0.45 196 00:52 24.11.2021
5281 Clear 23 1014 38 10000 1.34 250 22:40 23.11.2021
5282 Clear 23 1014 39 10000 0 0 22:20 23.11.2021
5283 Clear 23 1015 38 10000 0.45 259 21:44 23.11.2021
5284 Clear 23 1015 39 10000 0 0 21:44 23.11.2021
5285 Clear 23 1015 38 10000 0 0 21:44 23.11.2021
5286 Clear 22 1016 37 10000 0 0 19:43 23.11.2021
5287 Clear 20 1016 38 10000 1.54 0 18:43 23.11.2021
5288 Clear 20 1016 38 10000 1.54 0 18:22 23.11.2021
5289 Clear 17 1015 41 10000 0 0 17:19 23.11.2021
5290 Clear 16 1015 44 10000 0 0 16:34 23.11.2021
5291 Haze 16 1015 43 8047 0 0 15:22 23.11.2021
5292 Clear 17 1015 40 10000 0 0 14:26 23.11.2021
5293 Clear 17 1015 37 10000 0 0 11:48 23.11.2021
5294 Clear 18 1015 35 10000 0 0 10:22 23.11.2021
5295 Clear 18 1015 33 10000 0 0 09:22 23.11.2021
5296 Clear 19 1016 34 10000 0 0 06:46 23.11.2021
5297 Clear 21 1015 26 10000 0.45 322 03:56 23.11.2021
5298 Clear 22 1015 20 10000 0.45 18 02:58 23.11.2021
5299 Clear 28 1016 13 10000 0 0 23:21 22.11.2021
5300 Clear 28 1016 13 10000 0 0 22:53 22.11.2021
5301 Clear 28 1016 13 10000 0.45 277 22:29 22.11.2021
5302 Clear 28 1017 13 10000 1.54 0 21:43 22.11.2021
5303 Clear 27 1018 15 10000 1.34 5 20:56 22.11.2021
5304 Clear 26 1019 17 10000 0.45 360 19:58 22.11.2021
5305 Clear 24 1019 17 10000 1.54 0 19:19 22.11.2021
5306 Clear 23 1019 16 10000 0 0 18:40 22.11.2021
5307 Clear 20 1019 21 10000 1.54 10 17:45 22.11.2021
5308 Clear 16 1019 25 10000 1.54 20 16:26 22.11.2021
5309 Clear 16 1018 23 10000 0 0 14:26 22.11.2021
5310 Clear 17 1019 22 10000 0.45 348 12:43 22.11.2021
5311 Clear 17 1019 24 10000 0 0 10:43 22.11.2021
5312 Clear 18 1020 22 10000 0 0 09:48 22.11.2021
5313 Clear 18 1020 24 10000 0 0 08:41 22.11.2021
5314 Clear 20 1019 22 10000 0 0 06:43 22.11.2021
5315 Clear 28 1018 12 10000 2.06 0 23:39 21.11.2021
5316 Clear 28 1018 13 10000 0.45 214 22:53 21.11.2021
5317 Clear 28 1018 13 10000 2.57 0 22:19 21.11.2021
5318 Clear 27 1019 19 10000 0 0 20:42 21.11.2021
5319 Clear 27 1019 21 10000 0 0 20:21 21.11.2021
5320 Haze 22 1019 41 9656 0 0 18:30 21.11.2021
5321 Clouds 22 1019 49 10000 0 0 17:39 21.11.2021
5322 Clear 20 1020 37 10000 2.24 37 16:52 21.11.2021
5323 Mist 17 1018 54 4828 0 0 14:47 21.11.2021
5324 Mist 17 1018 55 6437 0 0 13:54 21.11.2021
5325 Clouds 18 1018 40 10000 1.15 357 12:55 21.11.2021
5326 Clouds 18 1020 39 10000 1.34 40 11:58 21.11.2021
5327 Mist 16 1018 64 4828 0 0 11:36 21.11.2021
5328 Mist 16 1018 70 4828 0 0 10:19 21.11.2021
5329 Mist 15 1018 71 4828 0 0 09:25 21.11.2021
5330 Mist 16 1018 70 4828 0 0 08:31 21.11.2021
5331 Mist 16 1018 71 4828 0 0 07:50 21.11.2021
5332 Mist 15 1018 70 6437 0 0 06:23 21.11.2021
5333 Haze 15 1018 82 6437 0 0 05:39 21.11.2021
5334 Haze 15 1017 81 8047 0 0 03:21 21.11.2021
5335 Haze 15 1017 78 6437 0 0 02:54 21.11.2021
5336 Haze 17 1017 72 6437 1.54 250 01:25 21.11.2021
5337 Haze 18 1017 69 4828 1.54 0 00:41 21.11.2021
5338 Haze 19 1018 66 4828 1.54 0 21:55 20.11.2021
5339 Haze 18 1018 67 4023 0 0 21:30 20.11.2021
5340 Haze 16 1020 76 4023 0 0 19:46 20.11.2021
5341 Haze 15 1019 79 4023 0 0 18:45 20.11.2021
5342 Haze 15 1019 79 3219 0 0 18:19 20.11.2021
5343 Haze 14 1019 81 3219 1.54 0 17:22 20.11.2021
5344 Haze 13 1018 85 4828 0 0 14:55 20.11.2021
5345 Haze 13 1018 86 4828 0 0 14:28 20.11.2021
5346 Haze 13 1018 86 4828 0 0 13:46 20.11.2021
5347 Mist 13 1018 90 4828 0 0 11:26 20.11.2021
5348 Haze 13 1018 89 6437 1.54 170 09:57 20.11.2021
5349 Mist 13 1019 89 6437 0 0 08:40 20.11.2021
5350 Mist 14 1019 89 8047 0 0 06:50 20.11.2021
5351 Mist 14 1018 86 8047 0 0 05:18 20.11.2021
5352 Mist 14 1018 85 8047 1.54 270 04:49 20.11.2021
5353 Haze 17 1017 73 6437 2.06 270 00:43 20.11.2021
5354 Haze 18 1017 70 4828 0.45 239 23:57 19.11.2021
5355 Haze 19 1018 65 8047 0.89 225 22:53 19.11.2021
5356 Haze 19 1019 66 4023 0 0 21:28 19.11.2021
5357 Haze 18 1020 70 4023 0 0 20:43 19.11.2021
5358 Haze 18 1020 72 4023 0 0 20:25 19.11.2021
5359 Haze 17 1021 77 4023 0 0 19:46 19.11.2021
5360 Haze 15 1021 81 4023 0 0 18:48 19.11.2021
5361 Haze 14 1020 83 4023 0 0 17:45 19.11.2021
5362 Mist 14 1020 88 4023 0 0 16:43 19.11.2021
5363 Mist 13 1019 84 4828 0 0 15:21 19.11.2021
5364 Mist 14 1019 88 2414 2.57 330 11:54 19.11.2021
5365 Mist 14 1019 84 6437 0 0 10:25 19.11.2021
5366 Mist 14 1020 86 9656 0 0 08:37 19.11.2021
5367 Mist 14 1020 85 9656 0 0 06:29 19.11.2021
5368 Clouds 15 1019 85 10000 0 0 04:19 19.11.2021
5369 Clouds 20 1018 70 10000 3.09 220 23:55 18.11.2021
5370 Haze 20 1018 66 10000 2.06 260 23:29 18.11.2021
5371 Haze 20 1019 67 8047 0 0 21:41 18.11.2021
5372 Haze 19 1020 69 4828 1.54 260 20:46 18.11.2021
5373 Haze 19 1020 70 4828 1.54 260 20:28 18.11.2021
5374 Mist 18 1021 74 4023 0 0 19:43 18.11.2021
5375 Mist 17 1020 77 3219 0 0 18:40 18.11.2021
5376 Mist 15 1020 85 2816 0 0 17:54 18.11.2021
5377 Mist 14 1020 87 2414 0 0 17:35 18.11.2021
5378 Mist 14 1019 86 2414 0 0 16:43 18.11.2021
5379 Mist 13 1019 81 6437 0 0 15:23 18.11.2021
5380 Mist 14 1019 68 1200 0 0 13:21 18.11.2021
5381 Mist 14 1018 77 4828 0 0 11:45 18.11.2021
5382 Mist 14 1018 77 4828 0 0 11:26 18.11.2021
5383 Mist 14 1018 73 6437 0 0 10:55 18.11.2021
5384 Mist 14 1019 81 4828 0 0 09:32 18.11.2021
5385 Mist 14 1018 81 6437 0 0 07:34 18.11.2021
5386 Haze 15 1018 80 8047 0 0 05:47 18.11.2021
5387 Clear 16 1016 77 10000 2.57 270 02:46 18.11.2021
5388 Clear 18 1017 68 10000 2.06 260 01:22 18.11.2021
5389 Haze 20 1017 60 8047 0 0 22:41 17.11.2021
5390 Haze 20 1017 60 8047 0 0 22:20 17.11.2021
5391 Haze 19 1017 66 6437 2.06 250 21:37 17.11.2021
5392 Haze 18 1018 70 6437 1.54 250 20:18 17.11.2021
5393 Haze 15 1018 80 4828 0 0 17:48 17.11.2021
5394 Haze 14 1018 83 4828 0 0 17:23 17.11.2021
5395 Haze 13 1016 83 9656 0 0 14:47 17.11.2021
5396 Haze 14 1016 82 10000 0 0 12:40 17.11.2021
5397 Haze 14 1016 82 10000 0 0 11:42 17.11.2021
5398 Haze 14 1016 82 10000 1.54 110 10:28 17.11.2021
5399 Haze 14 1016 82 10000 1.54 110 09:24 17.11.2021
5400 Mist 14 1016 85 10000 0 0 07:43 17.11.2021
5401 Clear 15 1015 78 10000 0 0 03:50 17.11.2021
5402 Haze 18 1015 68 10000 1.54 0 01:21 17.11.2021
5403 Haze 20 1015 62 10000 1.54 270 23:18 16.11.2021
5404 Haze 20 1016 61 6437 0 0 21:23 16.11.2021
5405 Haze 19 1017 64 4828 0 0 20:18 16.11.2021
5406 Haze 18 1018 69 3219 0 0 18:54 16.11.2021
5407 Haze 16 1017 74 3219 0 0 18:35 16.11.2021
5408 Haze 15 1017 79 3219 0 0 17:40 16.11.2021
5409 Mist 15 1017 75 3219 0 0 16:39 16.11.2021
5410 Mist 15 1017 80 4023 0 0 15:53 16.11.2021
5411 Mist 14 1017 79 4828 0 0 15:29 16.11.2021
5412 Mist 16 1018 74 4828 0 0 12:29 16.11.2021
5413 Mist 16 1018 82 4828 0 0 09:49 16.11.2021
5414 Mist 17 1019 81 6437 0 0 08:46 16.11.2021
5415 Mist 17 1018 82 6437 0 0 07:34 16.11.2021
5416 Mist 22 1017 57 10000 0 0 02:50 16.11.2021
5417 Clear 27 1017 36 10000 0.45 264 23:23 15.11.2021
5418 Clear 27 1018 37 10000 0 0 22:39 15.11.2021
5419 Clear 27 1019 35 10000 1.54 0 21:54 15.11.2021
5420 Clear 27 1019 34 10000 1.54 0 21:29 15.11.2021
5421 Clear 27 1020 30 10000 0 0 20:26 15.11.2021
5422 Clear 24 1020 30 10000 0 0 18:49 15.11.2021
5423 Clear 21 1019 40 10000 0.2 185 16:56 15.11.2021
5424 Smoke 18 1019 52 10000 0 0 15:44 15.11.2021
5425 Smoke 18 1019 53 10000 0 0 15:25 15.11.2021
5426 Clear 18 1018 53 10000 0 0 13:49 15.11.2021
5427 Clear 18 1018 50 10000 0 0 12:18 15.11.2021
5428 Clear 20 1019 43 10000 1.54 100 09:30 15.11.2021
5429 Clear 20 1018 41 10000 0 0 07:59 15.11.2021
5430 Clear 21 1018 38 10000 0 0 05:25 15.11.2021
5431 Clear 29 1017 22 10000 2.06 260 00:33 15.11.2021
5432 Clear 30 1017 22 10000 1.54 0 22:39 14.11.2021
5433 Clear 30 1019 19 10000 0 0 21:18 14.11.2021
5434 Clear 27 1020 21 10000 0 0 19:18 14.11.2021
5435 Clear 27 1021 22 10000 0 0 18:54 14.11.2021
5436 Clear 25 1020 26 10000 0 0 18:36 14.11.2021
5437 Clear 24 1020 29 10000 0 0 18:18 14.11.2021
5438 Clear 24 1021 30 10000 0.09 316 17:57 14.11.2021
5439 Clear 23 1020 33 10000 0 0 17:39 14.11.2021
5440 Clear 22 1020 36 10000 0 0 17:21 14.11.2021
5441 Clear 20 1019 42 10000 0 0 16:50 14.11.2021
5442 Clear 19 1019 46 10000 0 0 16:22 14.11.2021
5443 Clear 19 1019 42 10000 0 0 15:52 14.11.2021
5444 Clear 19 1019 41 10000 0 0 15:19 14.11.2021
5445 Clear 19 1018 41 10000 0 0 14:34 14.11.2021
5446 Clear 21 1018 32 10000 0.84 24 14:00 14.11.2021
5447 Clear 20 1018 41 10000 0 0 13:40 14.11.2021
5448 Clear 19 1018 41 10000 0 0 12:52 14.11.2021
5449 Clear 20 1018 39 10000 0 0 12:21 14.11.2021
5450 Clear 22 1018 31 10000 1.19 30 10:54 14.11.2021
5451 Clear 20 1018 40 10000 0 0 10:30 14.11.2021
5452 Clear 20 1018 40 10000 0 0 09:18 14.11.2021
5453 Clear 21 1019 39 10000 0 0 08:43 14.11.2021
5454 Clear 22 1017 33 10000 0 0 04:46 14.11.2021
5455 Clear 32 1017 18 10000 0 0 22:28 13.11.2021
5456 Clear 32 1017 18 10000 0.89 180 21:59 13.11.2021
5457 Clear 32 1017 17 10000 0 0 21:30 13.11.2021
5458 Clear 31 1018 18 10000 0 0 20:26 13.11.2021
5459 Clear 28 1020 21 10000 1.54 0 18:54 13.11.2021
5460 Clear 26 1019 23 10000 0 0 18:28 13.11.2021
5461 Clear 23 1018 31 10000 2.06 30 17:34 13.11.2021
5462 Clear 21 1017 34 10000 2.06 20 15:45 13.11.2021
5463 Clear 20 1017 34 10000 0 0 14:41 13.11.2021
5464 Clear 21 1016 34 10000 0 0 13:47 13.11.2021
5465 Clear 22 1016 32 10000 2.06 360 12:43 13.11.2021
5466 Clear 22 1016 34 10000 0 0 11:46 13.11.2021
5467 Clear 22 1016 35 10000 0 0 11:21 13.11.2021
5468 Clear 22 1017 32 10000 0 0 10:33 13.11.2021
5469 Clear 22 1017 33 10000 0 0 09:45 13.11.2021
5470 Clear 23 1017 33 10000 0 0 09:22 13.11.2021
5471 Clear 23 1017 33 10000 1.54 30 08:48 13.11.2021
5472 Clear 23 1017 35 10000 0 0 07:51 13.11.2021
5473 Clear 23 1017 36 10000 0 0 04:43 13.11.2021
5474 Clear 23 1017 37 10000 0 0 04:20 13.11.2021
5475 Clear 32 1016 20 10000 0 0 23:35 12.11.2021
5476 Clear 32 1017 21 10000 2.06 260 22:33 12.11.2021
5477 Clear 31 1019 22 10000 0 0 20:47 12.11.2021
5478 Clear 30 1019 26 10000 0 0 19:32 12.11.2021
5479 Clear 30 1020 27 10000 0 0 18:59 12.11.2021
5480 Clear 27 1019 32 10000 0 0 18:20 12.11.2021
5481 Clear 20 1018 45 10000 0 0 15:55 12.11.2021
5482 Clear 21 1018 42 10000 0.45 39 13:46 12.11.2021
5483 Clear 21 1018 40 10000 0 0 11:26 12.11.2021
5484 Clear 21 1018 42 10000 0 0 10:43 12.11.2021
5485 Clear 23 1019 32 10000 2.14 11 08:59 12.11.2021
5486 Clear 22 1018 39 10000 0 0 08:29 12.11.2021
5487 Clear 29 1016 27 10000 1.54 280 00:37 12.11.2021
5488 Clear 31 1017 25 10000 2.57 260 23:30 11.11.2021
5489 Clear 30 1017 26 10000 0.45 271 22:27 11.11.2021
5490 Clear 30 1018 26 10000 0 0 21:26 11.11.2021
5491 Clear 29 1019 30 10000 0 0 20:18 11.11.2021
5492 Clear 26 1020 34 10000 0 0 18:42 11.11.2021
5493 Clear 23 1020 43 10000 0 0 17:42 11.11.2021
5494 Clear 19 1019 52 10000 0 0 16:24 11.11.2021
5495 Clear 18 1018 52 10000 0 0 14:44 11.11.2021
5496 Clear 18 1018 56 10000 0 0 14:25 11.11.2021
5497 Clear 17 1018 58 10000 0 0 13:36 11.11.2021
5498 Clear 18 1018 58 10000 0 0 12:30 11.11.2021
5499 Mist 18 1018 58 10000 0 0 10:34 11.11.2021
5500 Fog 18 1018 59 10000 0 0 09:33 11.11.2021
5501 Mist 19 1019 61 10000 0 0 07:35 11.11.2021
5502 Haze 22 1018 61 10000 1.54 260 00:43 11.11.2021
5503 Haze 23 1019 56 10000 0 0 22:49 10.11.2021
5504 Clear 23 1019 56 10000 0.45 189 21:56 10.11.2021
5505 Haze 23 1020 57 10000 0 0 21:18 10.11.2021
5506 Haze 22 1020 57 10000 0 0 21:18 10.11.2021
5507 Haze 22 1020 58 10000 0 0 20:35 10.11.2021
5508 Haze 20 1021 64 9656 0 0 19:46 10.11.2021
5509 Haze 17 1021 77 8047 0 0 17:40 10.11.2021
5510 Haze 14 1021 88 8047 0 0 16:25 10.11.2021
5511 Haze 14 1021 89 8047 0 0 14:40 10.11.2021
5512 Mist 14 1020 90 9656 0 0 13:40 10.11.2021
5513 Haze 14 1021 90 9656 1.54 80 12:40 10.11.2021
5514 Clouds 15 1021 91 10000 0 0 10:39 10.11.2021
5515 Clouds 15 1021 91 10000 0 0 08:45 10.11.2021
5516 Clouds 15 1022 89 10000 0 0 07:25 10.11.2021
5517 Clouds 15 1022 88 10000 0 0 06:25 10.11.2021
5518 Clouds 15 1022 88 10000 0 0 05:44 10.11.2021
5519 Clear 19 1022 67 10000 3.09 260 23:52 09.11.2021
5520 Haze 20 1023 65 10000 1.34 207 21:47 09.11.2021
5521 Haze 19 1024 69 10000 0 0 20:31 09.11.2021
5522 Haze 18 1024 72 8047 0 0 19:21 09.11.2021
5523 Haze 15 1024 81 6437 0 0 17:31 09.11.2021
5524 Haze 13 1023 88 9656 0 0 15:45 09.11.2021
5525 Haze 13 1022 90 9656 0 0 14:29 09.11.2021
5526 Mist 13 1021 89 9656 0 0 12:53 09.11.2021
5527 Clear 13 1021 88 10000 0 0 11:42 09.11.2021
5528 Clear 13 1021 89 10000 0 0 10:44 09.11.2021
5529 Clear 14 1021 88 10000 0 0 09:24 09.11.2021
5530 Clear 14 1021 88 10000 0 0 08:25 09.11.2021
5531 Clear 14 1020 86 10000 0 0 05:52 09.11.2021
5532 Clear 16 1018 75 10000 1.54 0 02:23 09.11.2021
5533 Clear 18 1018 70 10000 0 0 01:45 09.11.2021
5534 Clear 20 1018 61 10000 0.45 268 23:58 08.11.2021
5535 Haze 20 1018 60 10000 0 0 22:50 08.11.2021
5536 Haze 20 1018 63 6437 0.89 219 21:59 08.11.2021
5537 Haze 19 1018 66 8047 0.45 248 20:55 08.11.2021
5538 Haze 18 1019 70 6437 1.54 0 19:51 08.11.2021
5539 Haze 16 1019 75 4828 0 0 18:56 08.11.2021
5540 Haze 14 1018 85 4828 0 0 16:34 08.11.2021
5541 Haze 14 1017 86 8047 0 0 15:25 08.11.2021
5542 Haze 14 1017 87 9656 1.54 130 14:40 08.11.2021
5543 Haze 14 1017 90 8047 0 0 13:49 08.11.2021
5544 Mist 14 1017 91 4828 0 0 12:20 08.11.2021
5545 Mist 13 1017 91 4828 0 0 11:20 08.11.2021
5546 Mist 13 1017 90 4828 0 0 09:47 08.11.2021
5547 Mist 13 1017 87 6437 1.54 90 08:55 08.11.2021
5548 Mist 13 1017 89 6437 0 0 07:36 08.11.2021
5549 Haze 14 1016 88 10000 0 0 04:55 08.11.2021
5550 Haze 15 1015 84 8047 2.06 280 03:30 08.11.2021
5551 Haze 19 1015 69 4828 0 0 23:47 07.11.2021
5552 Haze 20 1016 66 4828 0 0 22:20 07.11.2021
5553 Haze 19 1017 68 4828 1.54 0 21:20 07.11.2021
5554 Haze 17 1018 73 4023 0 0 19:54 07.11.2021
5555 Haze 15 1018 81 3219 0 0 18:24 07.11.2021
5556 Mist 14 1018 86 3219 0 0 17:35 07.11.2021
5557 Mist 13 1017 91 4023 0 0 15:54 07.11.2021
5558 Mist 13 1017 90 4023 2.06 80 14:34 07.11.2021
5559 Mist 13 1017 91 4023 0 0 13:54 07.11.2021
5560 Mist 13 1017 92 3219 2.06 0 11:49 07.11.2021
5561 Fog 13 1017 91 805 2.06 70 09:58 07.11.2021
5562 Mist 13 1018 91 4023 0 0 08:48 07.11.2021
5563 Mist 16 1017 83 4828 0 0 02:46 07.11.2021
5564 Haze 20 1016 68 4828 2.06 250 23:42 06.11.2021
5565 Haze 20 1016 67 4828 2.06 0 22:52 06.11.2021
5566 Haze 20 1017 67 4828 1.54 240 21:36 06.11.2021
5567 Haze 20 1018 67 4828 1.54 260 20:52 06.11.2021
5568 Haze 18 1018 73 4023 0 0 19:36 06.11.2021
5569 Haze 14 1018 88 2816 0 0 17:18 06.11.2021
5570 Mist 14 1017 89 4023 0 0 15:39 06.11.2021
5571 Mist 14 1017 89 4023 0 0 13:39 06.11.2021
5572 Mist 14 1017 88 4023 0 0 12:36 06.11.2021
5573 Mist 14 1017 88 4023 1.54 120 09:42 06.11.2021
5574 Mist 14 1017 92 4023 0 0 07:58 06.11.2021
5575 Mist 17 1015 80 4023 0 0 03:20 06.11.2021
5576 Haze 25 1014 49 6437 1.54 0 23:40 05.11.2021
5577 Haze 25 1014 52 6437 1.54 0 22:52 05.11.2021
5578 Haze 25 1015 52 6437 1.54 0 21:55 05.11.2021
5579 Haze 24 1016 53 4828 0 0 20:20 05.11.2021
5580 Haze 25 1016 50 4828 0 0 19:49 05.11.2021
5581 Haze 23 1016 59 4023 0 0 18:42 05.11.2021
5582 Mist 18 1016 71 3219 0 0 17:34 05.11.2021
5583 Mist 16 1015 93 2414 0 0 16:35 05.11.2021
5584 Fog 16 1015 68 805 0 0 13:59 05.11.2021
5585 Fog 16 1015 93 805 0 0 11:43 05.11.2021
5586 Mist 18 1015 69 1207 2.06 160 08:57 05.11.2021
5587 Mist 17 1015 81 1207 1.54 120 07:46 05.11.2021
5588 Mist 18 1014 76 8047 0 0 05:33 05.11.2021
5589 Mist 18 1014 76 8047 0 0 05:33 05.11.2021
5590 Haze 21 1013 64 10000 0 0 02:27 05.11.2021
5591 Haze 23 1013 59 8047 0.45 221 00:54 05.11.2021
5592 Haze 24 1014 58 9656 1.54 0 23:26 04.11.2021
5593 Haze 24 1015 58 8047 0 0 22:21 04.11.2021
5594 Haze 24 1015 59 8047 0 0 21:52 04.11.2021
5595 Haze 23 1015 62 8047 0 0 21:19 04.11.2021
5596 Haze 22 1017 63 4828 1.54 0 20:25 04.11.2021
5597 Haze 21 1017 66 4828 0 0 19:48 04.11.2021
5598 Haze 21 1017 67 4828 0 0 19:20 04.11.2021
5599 Haze 19 1017 72 4828 0 0 18:22 04.11.2021
5600 Haze 16 1017 80 4828 0 0 17:26 04.11.2021
5601 Haze 16 1017 80 4828 0 0 17:26 04.11.2021
5602 Mist 14 1017 93 4023 0 0 15:35 04.11.2021
5603 Mist 14 1017 91 4828 0 0 13:45 04.11.2021
5604 Mist 14 1017 95 4828 1.54 0 10:22 04.11.2021
5605 Mist 15 1018 91 4828 0 0 08:31 04.11.2021
5606 Mist 16 1017 90 4023 0 0 07:36 04.11.2021
5607 Mist 17 1017 83 3219 0 0 06:38 04.11.2021
5608 Clear 25 1016 56 10000 1.34 244 22:59 03.11.2021
5609 Haze 24 1017 57 6437 0.89 290 22:19 03.11.2021
5610 Haze 24 1017 58 6437 2.06 280 21:35 03.11.2021
5611 Haze 24 1019 58 6437 0 0 20:39 03.11.2021
5612 Haze 24 1019 58 6437 0 0 20:39 03.11.2021
5613 Haze 22 1019 63 6437 0 0 20:21 03.11.2021
5614 Haze 21 1019 67 6437 0 0 19:28 03.11.2021
5615 Haze 19 1019 72 4828 0 0 18:26 03.11.2021
5616 Haze 17 1019 76 4828 0 0 17:41 03.11.2021
5617 Mist 15 1019 91 4828 0 0 16:46 03.11.2021
5618 Mist 14 1019 90 4023 0 0 15:49 03.11.2021
5619 Mist 14 1019 90 4828 0 0 15:29 03.11.2021
5620 Mist 14 1019 90 6437 0 0 13:29 03.11.2021
5621 Mist 15 1019 90 6437 0 0 11:34 03.11.2021
5622 Mist 15 1020 90 6437 0 0 10:50 03.11.2021
5623 Mist 15 1020 90 8047 0 0 09:40 03.11.2021
5624 Mist 15 1020 90 8047 0 0 08:49 03.11.2021
5625 Mist 15 1020 89 4828 0 0 07:40 03.11.2021
5626 Mist 15 1020 90 9656 0 0 06:30 03.11.2021
5627 Mist 16 1020 86 9656 0 0 04:22 03.11.2021
5628 Clear 20 1019 70 10000 0.45 248 00:57 03.11.2021
5629 Clear 21 1020 65 10000 0.89 170 22:52 02.11.2021
5630 Haze 20 1021 68 10000 0 0 21:54 02.11.2021
5631 Clouds 19 1021 72 10000 0 0 20:36 02.11.2021
5632 Haze 19 1022 76 6437 0 0 19:57 02.11.2021
5633 Haze 18 1022 79 6437 0 0 19:27 02.11.2021
5634 Mist 17 1022 81 4828 0 0 18:35 02.11.2021
5635 Mist 16 1022 85 4023 0 0 17:44 02.11.2021
5636 Mist 14 1022 87 2816 0 0 16:47 02.11.2021
5637 Mist 14 1021 91 4023 0 0 15:50 02.11.2021
5638 Mist 14 1021 90 9656 1.54 80 14:56 02.11.2021
5639 Mist 14 1021 89 10000 0 0 13:29 02.11.2021
5640 Clear 14 1021 84 10000 0 0 12:46 02.11.2021
5641 Clear 14 1021 85 10000 0 0 11:39 02.11.2021
5642 Clouds 14 1020 78 10000 0.51 203 10:55 02.11.2021
5643 Clear 14 1021 86 10000 0 0 10:32 02.11.2021
5644 Clear 14 1021 83 10000 0 0 09:44 02.11.2021
5645 Clear 14 1021 88 10000 0 0 07:46 02.11.2021
5646 Clear 15 1020 86 10000 0 0 05:42 02.11.2021
5647 Clear 16 1020 84 10000 0 0 03:24 02.11.2021
5648 Clouds 19 1020 77 10000 0.45 221 23:58 01.11.2021
5649 Haze 19 1020 74 10000 0 0 21:49 01.11.2021
5650 Haze 18 1020 75 10000 0 0 20:44 01.11.2021
5651 Haze 18 1020 75 10000 0 0 20:19 01.11.2021
5652 Haze 18 1021 75 10000 0 0 19:41 01.11.2021
5653 Haze 17 1020 76 9656 0 0 18:34 01.11.2021
5654 Haze 16 1020 82 6437 0 0 17:49 01.11.2021
5655 Haze 15 1020 87 4828 0 0 16:57 01.11.2021
5656 Mist 14 1019 91 4828 0 0 16:25 01.11.2021
5657 Mist 14 1019 88 6437 0 0 15:37 01.11.2021
5658 Mist 14 1019 88 6437 0 0 15:18 01.11.2021
5659 Mist 14 1018 88 8047 0 0 14:37 01.11.2021
5660 Haze 14 1018 90 8047 0.45 331 14:18 01.11.2021
5661 Mist 14 1017 87 6437 0 0 12:41 01.11.2021
5662 Mist 14 1018 88 6437 0 0 11:39 01.11.2021
5663 Mist 14 1018 90 6437 0 0 10:20 01.11.2021
5664 Haze 14 1018 88 8047 0 0 08:19 01.11.2021
5665 Haze 14 1017 88 8047 0 0 07:46 01.11.2021
5666 Clouds 16 1016 85 10000 0.89 207 03:53 01.11.2021
5667 Haze 18 1015 74 10000 0 0 01:44 01.11.2021
5668 Haze 20 1015 66 10000 0 0 23:30 31.10.2021
5669 Haze 19 1016 72 8047 3.13 244 20:58 31.10.2021
5670 Haze 18 1017 77 10000 0 0 19:49 31.10.2021
5671 Haze 17 1017 77 10000 0 0 18:43 31.10.2021
5672 Haze 17 1017 77 10000 0 0 18:20 31.10.2021
5673 Haze 16 1016 82 10000 0 0 16:41 31.10.2021
5674 Haze 15 1015 83 10000 0 0 14:45 31.10.2021
5675 Haze 15 1015 86 10000 0 0 12:55 31.10.2021
5676 Mist 15 1015 86 10000 0 0 11:44 31.10.2021
5677 Haze 15 1015 85 8047 0 0 10:48 31.10.2021
5678 Haze 16 1015 85 8047 0 0 09:26 31.10.2021
5679 Haze 15 1015 86 8047 1.54 0 08:45 31.10.2021
5680 Haze 17 1014 80 8047 2.06 270 02:52 31.10.2021
5681 Clear 22 1013 64 10000 2.57 260 00:36 31.10.2021
5682 Haze 22 1015 63 1200 3.58 254 22:27 30.10.2021
5683 Haze 21 1015 67 10000 0 0 21:29 30.10.2021
5684 Haze 18 1016 72 6437 0 0 19:49 30.10.2021
5685 Mist 16 1015 80 4828 0 0 17:51 30.10.2021
5686 Mist 16 1014 78 4828 0 0 15:49 30.10.2021
5687 Mist 16 1014 78 2816 0 0 14:23 30.10.2021
5688 Mist 16 1013 73 1609 0 0 13:38 30.10.2021
5689 Fog 16 1013 72 805 0 0 13:20 30.10.2021
5690 Mist 16 1014 82 1609 0 0 11:50 30.10.2021
5691 Mist 17 1014 82 1207 0 0 10:58 30.10.2021
5692 Mist 18 1014 77 2414 0 0 09:40 30.10.2021
5693 Fog 19 1014 73 3219 1.54 290 07:57 30.10.2021
5694 Fog 19 1014 73 3219 1.54 290 07:57 30.10.2021
5695 Clear 20 1013 67 10000 0 0 05:49 30.10.2021
5696 Clear 21 1012 57 10000 3.09 260 04:54 30.10.2021
5697 Clear 29 1012 37 10000 0 0 23:33 29.10.2021
5698 Clear 29 1013 34 10000 0 0 22:35 29.10.2021
5699 Clear 28 1014 35 10000 1.54 160 21:20 29.10.2021
5700 Clear 27 1014 35 10000 1.54 0 20:34 29.10.2021
5701 Clear 26 1014 36 10000 0 0 19:38 29.10.2021
5702 Clear 23 1014 43 10000 0 0 18:23 29.10.2021
5703 Clear 20 1013 48 10000 0 0 16:34 29.10.2021
5704 Smoke 20 1013 52 10000 0 0 13:34 29.10.2021
5705 Clear 20 1014 51 10000 0 0 10:52 29.10.2021
5706 Clear 21 1014 51 10000 0 0 10:33 29.10.2021
5707 Clear 21 1015 51 10000 0 0 07:23 29.10.2021
5708 Clear 31 1015 27 10000 1.54 0 00:35 29.10.2021
5709 Clear 31 1016 28 10000 0 0 22:51 28.10.2021
5710 Clear 31 1017 27 10000 0 0 21:52 28.10.2021
5711 Clear 29 1017 34 1200 0.45 212 20:25 28.10.2021
5712 Clear 26 1018 35 10000 0 0 19:23 28.10.2021
5713 Clear 23 1018 44 10000 0 0 18:18 28.10.2021
5714 Clear 20 1019 50 10000 0.45 338 16:58 28.10.2021
5715 Clear 19 1017 55 10000 0 0 15:20 28.10.2021
5716 Clear 20 1017 53 10000 0 0 13:45 28.10.2021
5717 Clear 19 1017 54 10000 0 0 13:21 28.10.2021
5718 Clear 19 1017 55 10000 0 0 12:39 28.10.2021
5719 Clear 21 1019 46 10000 1.49 11 10:54 28.10.2021
5720 Clear 20 1018 54 10000 0 0 09:38 28.10.2021
5721 Clear 20 1018 49 10000 0 0 08:55 28.10.2021
5722 Clear 20 1018 51 10000 0 0 08:28 28.10.2021
5723 Clear 21 1018 46 10000 0 0 04:42 28.10.2021
5724 Clear 28 1019 28 10000 0 0 23:50 27.10.2021
5725 Clear 27 1020 30 10000 0 0 22:31 27.10.2021
5726 Clear 26 1021 32 10000 0 0 21:33 27.10.2021
5727 Clear 24 1022 34 10000 0 0 20:53 27.10.2021
5728 Clear 24 1022 34 10000 0 0 20:33 27.10.2021
5729 Clear 22 1022 39 10000 1.54 80 19:40 27.10.2021
5730 Clear 20 1022 47 10000 0 0 18:52 27.10.2021
5731 Clear 15 1021 59 10000 0 0 16:27 27.10.2021
5732 Clear 15 1021 62 10000 0 0 15:32 27.10.2021
5733 Clear 15 1020 61 10000 0 0 14:40 27.10.2021
5734 Clear 15 1020 62 10000 0 0 12:33 27.10.2021
5735 Clear 16 1022 63 10000 1.68 351 10:58 27.10.2021
5736 Clear 16 1020 63 10000 0 0 09:51 27.10.2021
5737 Clear 16 1021 65 10000 0 0 08:35 27.10.2021
5738 Clear 16 1020 68 10000 0 0 07:31 27.10.2021
5739 Clear 19 1018 57 10000 0 0 02:30 27.10.2021
5740 Clear 21 1019 55 10000 0.45 199 00:57 27.10.2021
5741 Clear 21 1019 55 10000 0.45 199 00:57 27.10.2021
5742 Clear 20 1019 54 10000 1.34 184 00:30 27.10.2021
5743 Clear 20 1019 55 10000 0 0 23:43 26.10.2021
5744 Clear 20 1019 56 10000 2.57 0 22:39 26.10.2021
5745 Clear 20 1020 57 10000 0.89 172 21:59 26.10.2021
5746 Clear 19 1020 59 10000 0 0 20:51 26.10.2021
5747 Clear 16 1020 73 10000 0 0 19:32 26.10.2021
5748 Clear 15 1020 84 10000 0 0 18:41 26.10.2021
5749 Clouds 12 1019 92 10000 0 0 16:57 26.10.2021
5750 Clear 11 1018 89 10000 0.69 19 14:56 26.10.2021
5751 Mist 12 1017 93 8047 0 0 11:48 26.10.2021
5752 Clear 12 1016 90 10000 0 0 10:42 26.10.2021
5753 Clear 13 1014 90 10000 0 0 07:51 26.10.2021
5754 Clear 13 1014 92 10000 0 0 07:21 26.10.2021
5755 Rain 15 1011 95 4828 2.57 260 23:51 25.10.2021
5756 Mist 15 1011 95 1207 2.06 250 22:55 25.10.2021
5757 Mist 16 1012 95 2414 0.89 246 22:21 25.10.2021
5758 Rain 16 1012 94 2414 0 0 21:39 25.10.2021
5759 Clouds 16 1013 93 10000 2.06 0 20:19 25.10.2021
5760 Mist 16 1013 93 4023 1.54 0 19:42 25.10.2021
5761 Mist 16 1013 93 1207 0 0 19:20 25.10.2021
5762 Mist 15 1013 91 2012 2.57 120 18:22 25.10.2021
5763 Mist 15 1013 91 6437 1.54 90 16:27 25.10.2021
5764 Clouds 15 1013 90 10000 2.06 130 14:45 25.10.2021
5765 Clear 15 1014 89 10000 0 0 12:31 25.10.2021
5766 Clear 15 1014 88 10000 0 0 10:30 25.10.2021
5767 Clouds 15 1013 88 10000 1.24 206 08:54 25.10.2021
5768 Clear 16 1013 85 10000 0 0 06:26 25.10.2021
5769 Clear 19 1012 70 10000 1.54 0 02:44 25.10.2021
5770 Clouds 21 1012 61 10000 0 0 00:48 25.10.2021
5771 Clear 21 1013 64 10000 0 0 23:47 24.10.2021
5772 Clear 21 1013 63 10000 0 0 23:19 24.10.2021
5773 Clouds 20 1014 66 10000 0 0 22:37 24.10.2021
5774 Clouds 20 1014 67 10000 0 0 22:19 24.10.2021
5775 Clouds 19 1015 70 10000 0 0 20:54 24.10.2021
5776 Clouds 19 1015 71 10000 0 0 20:28 24.10.2021
5777 Clouds 18 1015 76 10000 0 0 19:29 24.10.2021
5778 Clear 17 1014 82 10000 1.54 0 18:28 24.10.2021
5779 Clear 15 1014 87 10000 0 0 17:43 24.10.2021
5780 Clouds 15 1013 90 10000 0 0 15:55 24.10.2021
5781 Clouds 15 1013 90 10000 0 0 14:41 24.10.2021
5782 Clouds 15 1013 87 10000 1.54 120 12:58 24.10.2021
5783 Clouds 15 1013 85 10000 0 0 11:44 24.10.2021
5784 Clouds 15 1012 86 10000 2.89 138 10:56 24.10.2021
5785 Clouds 15 1013 84 10000 0 0 10:27 24.10.2021
5786 Clouds 16 1013 84 10000 0 0 07:47 24.10.2021
5787 Clouds 19 1012 75 10000 2.57 250 01:21 24.10.2021
5788 Clouds 20 1012 73 10000 0 0 23:47 23.10.2021
5789 Clouds 19 1013 76 10000 1.34 266 22:18 23.10.2021
5790 Mist 18 1014 81 10000 1.54 0 20:37 23.10.2021
5791 Haze 17 1014 88 8047 0 0 18:59 23.10.2021
5792 Haze 16 1013 89 8047 1.54 70 18:30 23.10.2021
5793 Mist 16 1013 91 6437 1.54 0 17:43 23.10.2021
5794 Mist 16 1012 91 6437 0 0 16:24 23.10.2021
5795 Mist 16 1012 90 2414 1.54 90 14:32 23.10.2021
5796 Clouds 17 1014 79 10000 1.54 250 03:34 23.10.2021
5797 Clear 21 1015 67 10000 0 0 00:22 23.10.2021
5798 Clear 21 1016 67 10000 0 0 23:18 22.10.2021
5799 Haze 19 1017 68 6437 0 0 20:50 22.10.2021
5800 Haze 15 1018 84 8047 2.57 260 18:45 22.10.2021
5801 Haze 14 1017 88 8047 0 0 17:44 22.10.2021
5802 Mist 14 1017 86 9656 0 0 15:37 22.10.2021
5803 Clouds 14 1017 84 10000 0 0 13:54 22.10.2021
5804 Mist 15 1017 89 4828 0 0 11:33 22.10.2021
5805 Mist 15 1017 86 6437 0 0 10:48 22.10.2021
5806 Mist 15 1018 93 4828 1.54 250 09:56 22.10.2021
5807 Mist 15 1018 86 8047 0 0 09:30 22.10.2021
5808 Mist 16 1018 79 10000 0 0 07:25 22.10.2021
5809 Clear 19 1017 64 10000 0 0 03:48 22.10.2021
5810 Clear 24 1018 44 10000 2.06 250 00:24 22.10.2021
5811 Clear 25 1018 42 10000 2.06 0 23:40 21.10.2021
5812 Clear 25 1019 40 10000 0 0 22:21 21.10.2021
5813 Clear 24 1020 41 10000 0 0 20:55 21.10.2021
5814 Clear 22 1020 43 10000 0 0 20:20 21.10.2021
5815 Clear 21 1020 46 10000 0 0 19:30 21.10.2021
5816 Clear 21 1020 45 10000 0 0 19:30 21.10.2021
5817 Clear 19 1020 53 10000 0 0 18:52 21.10.2021
5818 Clear 18 1020 55 10000 0 0 18:27 21.10.2021
5819 Clear 15 1019 70 10000 0 0 17:42 21.10.2021
5820 Clear 14 1019 68 10000 0 0 16:26 21.10.2021
5821 Clear 14 1019 71 10000 0 0 15:21 21.10.2021
5822 Smoke 14 1019 72 10000 0 0 14:50 21.10.2021
5823 Clear 14 1019 74 10000 0 0 13:27 21.10.2021
5824 Clear 15 1019 75 10000 0 0 11:35 21.10.2021
5825 Clear 15 1019 75 10000 0 0 09:24 21.10.2021
5826 Clear 16 1019 74 10000 0 0 07:32 21.10.2021
5827 Clear 16 1019 68 10000 0 0 05:33 21.10.2021
5828 Clear 23 1018 52 10000 0.89 258 23:56 20.10.2021
5829 Clear 22 1019 49 10000 0 0 22:22 20.10.2021
5830 Clear 22 1020 48 10000 2.57 270 21:46 20.10.2021
5831 Clear 21 1020 51 10000 1.34 243 20:57 20.10.2021
5832 Clear 20 1020 53 10000 0 0 20:37 20.10.2021
5833 Clouds 20 1020 56 10000 0.45 165 19:59 20.10.2021
5834 Clouds 18 1021 64 10000 1.37 221 18:59 20.10.2021
5835 Clear 16 1020 66 10000 0 0 18:29 20.10.2021
5836 Clear 13 1019 75 10000 0 0 15:54 20.10.2021
5837 Clear 13 1018 77 10000 0 0 13:46 20.10.2021
5838 Clear 13 1018 81 10000 0 0 09:50 20.10.2021
5839 Clear 15 1017 76 10000 1.54 270 05:28 20.10.2021
5840 Clear 21 1016 50 10000 1.54 0 00:53 20.10.2021
5841 Clear 21 1016 49 10000 1.54 0 00:28 20.10.2021
5842 Clear 20 1017 50 10000 0.89 240 22:21 19.10.2021
5843 Clear 19 1018 52 10000 0.89 123 21:28 19.10.2021
5844 Clear 18 1018 57 10000 0.89 273 20:26 19.10.2021
5845 Clear 18 1018 60 10000 2.06 140 19:50 19.10.2021
5846 Clear 17 1018 64 10000 2.06 140 19:29 19.10.2021
5847 Clear 15 1018 71 10000 2.06 0 18:23 19.10.2021
5848 Clear 11 1016 82 10000 0.58 138 16:25 19.10.2021
5849 Clear 11 1016 82 10000 0 0 15:25 19.10.2021
5850 Clear 11 1016 82 10000 0 0 14:31 19.10.2021
5851 Clear 11 1016 81 10000 0 0 13:49 19.10.2021
5852 Clear 12 1016 81 10000 0 0 11:38 19.10.2021
5853 Clear 12 1016 82 10000 1.54 100 10:51 19.10.2021
5854 Clear 13 1016 81 10000 0 0 09:35 19.10.2021
5855 Clouds 13 1016 81 10000 2.57 110 08:53 19.10.2021
5856 Clear 19 1013 60 10000 0.89 229 00:36 19.10.2021
5857 Clear 19 1014 64 10000 0.89 273 23:56 18.10.2021
5858 Clear 18 1014 63 10000 1.79 238 23:22 18.10.2021
5859 Clouds 18 1014 65 10000 1.79 189 22:55 18.10.2021
5860 Clouds 18 1014 68 10000 3.13 251 22:18 18.10.2021
5861 Clouds 17 1015 74 10000 2.24 185 20:46 18.10.2021
5862 Clouds 17 1015 76 10000 0.89 172 20:21 18.10.2021
5863 Clouds 17 1015 81 10000 2.57 260 19:31 18.10.2021
5864 Clouds 16 1015 83 10000 6.17 270 18:58 18.10.2021
5865 Clouds 16 1015 83 10000 6.17 270 18:58 18.10.2021
5866 Clouds 15 1014 87 10000 0 0 16:33 18.10.2021
5867 Clouds 15 1014 84 10000 0 0 14:42 18.10.2021
5868 Clouds 15 1015 82 10000 1.54 140 11:54 18.10.2021
5869 Clouds 15 1016 83 10000 0 0 09:48 18.10.2021
5870 Clouds 15 1015 83 10000 0 0 07:46 18.10.2021
5871 Clear 22 1015 56 10000 4.63 270 00:29 18.10.2021
5872 Clear 23 1015 48 10000 1.54 0 22:48 17.10.2021
5873 Clear 24 1016 38 10000 0 0 21:44 17.10.2021
5874 Clear 24 1016 36 10000 0 0 20:57 17.10.2021
5875 Clear 23 1016 34 10000 0 0 20:21 17.10.2021
5876 Clear 22 1016 36 10000 0 0 19:38 17.10.2021
5877 Clouds 20 1017 34 10000 1.99 187 18:35 17.10.2021
5878 Clear 16 1015 39 10000 0 0 16:47 17.10.2021
5879 Fog 16 1014 42 10000 0 0 14:40 17.10.2021
5880 Fog 16 1014 41 10000 0 0 14:22 17.10.2021
5881 Fog 16 1015 41 10000 0 0 13:33 17.10.2021
5882 Clear 17 1016 40 10000 0 0 11:49 17.10.2021
5883 Clear 18 1016 41 10000 0 0 10:19 17.10.2021
5884 Clear 18 1016 37 10000 0 0 09:22 17.10.2021
5885 Clear 20 1015 26 10000 0 0 06:52 17.10.2021
5886 Clear 30 1014 16 10000 2.57 0 00:49 17.10.2021
5887 Clear 31 1014 17 10000 0 0 23:33 16.10.2021
5888 Clear 30 1016 15 10000 1.54 0 21:28 16.10.2021
5889 Clear 29 1016 16 10000 0 0 20:30 16.10.2021
5890 Clear 27 1017 18 10000 1.54 60 19:42 16.10.2021
5891 Clear 26 1017 20 10000 1.54 60 19:20 16.10.2021
5892 Clear 24 1017 22 10000 0 0 18:46 16.10.2021
5893 Clear 23 1017 20 10000 0 0 18:28 16.10.2021
5894 Clear 21 1016 23 10000 1.54 30 17:52 16.10.2021
5895 Clear 19 1016 26 10000 1.54 30 17:21 16.10.2021
5896 Clear 19 1016 30 10000 0.45 22 13:59 16.10.2021
5897 Clear 20 1016 27 10000 0 0 11:26 16.10.2021
5898 Clear 20 1016 29 10000 0 0 09:48 16.10.2021
5899 Clear 21 1016 28 10000 0 0 06:51 16.10.2021
5900 Clear 30 1016 13 10000 3.6 260 01:25 16.10.2021
5901 Clear 30 1016 13 10000 3.6 260 01:25 16.10.2021
5902 Clear 30 1016 13 10000 3.6 260 01:25 16.10.2021
5903 Clear 30 1016 13 10000 0 0 23:50 15.10.2021
5904 Clear 30 1018 13 10000 0 0 22:24 15.10.2021
5905 Clear 30 1018 19 10000 0.89 296 21:56 15.10.2021
5906 Clear 29 1018 20 10000 0 0 21:25 15.10.2021
5907 Clear 28 1019 21 10000 0 0 20:45 15.10.2021
5908 Clear 25 1019 26 10000 0 0 19:26 15.10.2021
5909 Clear 23 1020 29 10000 1.54 10 18:40 15.10.2021
5910 Clear 17 1018 36 10000 0 0 16:28 15.10.2021
5911 Clear 17 1018 36 10000 0 0 15:28 15.10.2021
5912 Clear 17 1017 44 10000 0 0 12:42 15.10.2021
5913 Clear 18 1018 43 10000 0 0 11:31 15.10.2021
5914 Clear 18 1018 47 10000 0 0 10:43 15.10.2021
5915 Clear 18 1017 30 10000 0.83 18 08:59 15.10.2021
5916 Clear 18 1016 45 10000 0 0 05:31 15.10.2021
5917 Clear 25 1015 26 10000 1.54 0 00:48 15.10.2021
5918 Clear 25 1015 26 10000 1.54 0 00:21 15.10.2021
5919 Clear 25 1016 29 10000 0 0 22:51 14.10.2021
5920 Clear 25 1016 28 10000 0 0 22:51 14.10.2021
5921 Clear 24 1017 26 10000 0 0 21:44 14.10.2021
5922 Clear 23 1017 25 10000 0 0 20:48 14.10.2021
5923 Clear 22 1017 25 10000 0 0 20:18 14.10.2021
5924 Clear 21 1017 29 10000 1.54 90 19:33 14.10.2021
5925 Clear 15 1016 45 10000 0 0 17:30 14.10.2021
5926 Clear 14 1016 51 10000 0 0 16:49 14.10.2021
5927 Clear 13 1015 53 10000 0 0 15:44 14.10.2021
5928 Clear 13 1015 56 10000 0 0 14:43 14.10.2021
5929 Clear 13 1014 54 10000 0 0 13:39 14.10.2021
5930 Clear 14 1014 56 10000 0 0 11:44 14.10.2021
5931 Clear 15 1014 61 10000 0 0 09:55 14.10.2021
5932 Clear 16 1015 42 10000 0.63 192 06:56 14.10.2021
5933 Clear 22 1013 24 10000 0.89 221 00:59 14.10.2021
5934 Clear 23 1013 24 10000 2.68 239 00:25 14.10.2021
5935 Clear 23 1014 22 10000 0.89 220 21:58 13.10.2021
5936 Clear 22 1015 21 10000 0 0 21:32 13.10.2021
5937 Clear 21 1015 23 10000 0.45 15 19:59 13.10.2021
5938 Clear 18 1015 27 10000 0 0 18:54 13.10.2021
5939 Clear 18 1015 27 10000 0 0 18:34 13.10.2021
5940 Clear 12 1014 36 10000 0 0 15:32 13.10.2021
5941 Clear 12 1014 36 10000 0 0 14:45 13.10.2021
5942 Clear 12 1014 34 10000 0 0 14:21 13.10.2021
5943 Clear 12 1014 41 10000 0 0 12:22 13.10.2021
5944 Clear 12 1014 42 10000 0 0 11:34 13.10.2021
5945 Clear 14 1014 38 10000 0 0 08:42 13.10.2021
5946 Clear 15 1014 38 10000 0 0 06:51 13.10.2021
5947 Clear 19 1012 29 10000 2.57 250 02:28 13.10.2021
5948 Clear 20 1012 29 10000 2.57 250 01:43 13.10.2021
5949 Clear 21 1012 23 10000 3.6 250 23:30 12.10.2021
5950 Clear 21 1013 21 10000 1.54 0 22:47 12.10.2021
5951 Clear 20 1013 19 10000 2.57 0 21:52 12.10.2021
5952 Clear 19 1014 18 10000 3.6 310 20:41 12.10.2021
5953 Clear 19 1013 19 10000 3.6 310 20:18 12.10.2021
5954 Smoke 17 1013 23 10000 2.57 0 18:45 12.10.2021
5955 Clear 16 1013 27 10000 0.45 345 17:57 12.10.2021
5956 Clear 13 1012 28 10000 2.57 0 16:39 12.10.2021
5957 Clear 13 1011 29 10000 2.06 320 15:58 12.10.2021
5958 Clear 13 1010 28 10000 2.57 0 14:46 12.10.2021
5959 Clear 14 1010 28 10000 0 0 13:44 12.10.2021
5960 Clear 14 1010 32 10000 0 0 12:40 12.10.2021
5961 Clear 15 1009 28 10000 0 0 10:20 12.10.2021
5962 Clouds 16 1008 29 10000 2.06 0 08:44 12.10.2021
5963 Haze 17 1008 25 10000 7.15 336 07:54 12.10.2021
5964 Haze 17 1007 25 10000 2.06 0 06:40 12.10.2021
5965 Haze 18 1005 23 9656 2.57 0 04:33 12.10.2021
5966 Haze 21 1004 53 10000 2.06 260 01:28 12.10.2021
5967 Clouds 21 1005 63 10000 2.57 250 23:41 11.10.2021
5968 Clouds 21 1005 62 10000 2.57 250 22:59 11.10.2021
5969 Clouds 21 1007 61 10000 0 0 21:46 11.10.2021
5970 Clouds 21 1007 61 10000 0 0 21:46 11.10.2021
5971 Clouds 21 1007 61 10000 0.89 282 21:18 11.10.2021
5972 Clouds 19 1008 71 10000 1.54 0 19:46 11.10.2021
5973 Mist 18 1009 77 10000 0 0 18:44 11.10.2021
5974 Mist 16 1009 82 10000 2.06 0 17:59 11.10.2021
5975 Mist 14 1009 86 6437 0 0 16:39 11.10.2021
5976 Clouds 14 1009 75 10000 0 0 15:52 11.10.2021
5977 Clouds 15 1009 76 10000 0 0 15:32 11.10.2021
5978 Clear 15 1009 80 10000 0 0 14:46 11.10.2021
5979 Clear 15 1010 70 10000 0 0 13:38 11.10.2021
5980 Clear 16 1011 65 10000 0 0 11:52 11.10.2021
5981 Clear 17 1012 68 10000 0 0 10:48 11.10.2021
5982 Clear 17 1012 74 10000 0 0 09:44 11.10.2021
5983 Clear 18 1013 63 10000 0 0 07:30 11.10.2021
5984 Clear 25 1013 43 10000 2.06 250 01:42 11.10.2021
5985 Clear 26 1014 45 10000 1.34 340 00:52 11.10.2021
5986 Clear 26 1014 44 10000 1.79 266 00:28 11.10.2021
5987 Clear 26 1016 35 10000 1.34 248 21:57 10.10.2021
5988 Clear 25 1017 38 10000 0 0 21:35 10.10.2021
5989 Clear 25 1017 37 10000 0 0 20:48 10.10.2021
5990 Clear 24 1017 39 10000 0 0 20:22 10.10.2021
5991 Clear 23 1018 41 10000 0.45 5 19:59 10.10.2021
5992 Clear 22 1018 46 10000 0 0 19:38 10.10.2021
5993 Clear 19 1018 54 10000 0 0 18:37 10.10.2021
5994 Clear 16 1017 71 10000 0 0 17:19 10.10.2021
5995 Clear 14 1017 71 10000 0 0 15:47 10.10.2021
5996 Clear 15 1017 75 10000 0 0 14:44 10.10.2021
5997 Clear 15 1017 75 10000 0 0 13:34 10.10.2021
5998 Clear 16 1017 73 10000 0 0 12:41 10.10.2021
5999 Clear 16 1017 70 10000 0 0 10:55 10.10.2021
6000 Clear 17 1017 70 10000 1.54 80 09:51 10.10.2021
6001 Clear 17 1017 67 10000 0 0 08:54 10.10.2021
6002 Clear 17 1017 48 10000 1.04 83 07:56 10.10.2021
6003 Clear 19 1016 60 10000 0 0 03:47 10.10.2021
6004 Clear 22 1016 52 10000 0.45 223 01:39 10.10.2021
6005 Clear 23 1016 52 10000 2.24 252 00:37 10.10.2021
6006 Clear 22 1017 53 10000 0 0 23:22 09.10.2021
6007 Clear 22 1018 56 10000 2.57 0 21:52 09.10.2021
6008 Clear 21 1019 55 10000 2.57 0 21:29 09.10.2021
6009 Clear 20 1019 59 10000 0 0 19:50 09.10.2021
6010 Clear 19 1019 60 10000 0 0 19:31 09.10.2021
6011 Clear 18 1019 72 10000 1.54 20 18:34 09.10.2021
6012 Clear 17 1019 79 10000 0 0 17:51 09.10.2021
6013 Clear 13 1018 88 10000 0 0 16:19 09.10.2021
6014 Clear 14 1018 86 10000 0 0 13:48 09.10.2021
6015 Clear 14 1018 86 10000 0 0 13:25 09.10.2021
6016 Clouds 15 1017 86 10000 0.2 292 11:58 09.10.2021
6017 Clear 15 1018 82 10000 0 0 10:43 09.10.2021
6018 Clear 15 1018 82 10000 0 0 10:18 09.10.2021
6019 Clear 16 1018 82 10000 0 0 08:33 09.10.2021
6020 Clear 16 1018 81 10000 0 0 07:50 09.10.2021
6021 Clouds 16 1018 79 10000 0 0 06:22 09.10.2021
6022 Clear 17 1017 76 10000 2.57 270 04:31 09.10.2021
6023 Clouds 19 1017 70 10000 3.09 280 02:43 09.10.2021
6024 Clouds 20 1018 67 10000 3.09 0 00:23 09.10.2021
6025 Clouds 20 1018 68 10000 0 0 23:31 08.10.2021
6026 Clouds 20 1019 68 10000 2.57 0 22:42 08.10.2021
6027 Clouds 20 1019 70 10000 0 0 21:44 08.10.2021
6028 Clouds 19 1019 74 10000 1.54 270 19:49 08.10.2021
6029 Clouds 17 1018 82 10000 0 0 18:23 08.10.2021
6030 Clouds 16 1018 83 10000 3.09 250 16:55 08.10.2021
6031 Clouds 16 1017 83 10000 1.54 260 16:24 08.10.2021
6032 Clouds 17 1017 83 10000 0 0 14:56 08.10.2021
6033 Clouds 17 1016 83 10000 1.54 260 13:45 08.10.2021
6034 Clouds 17 1017 82 10000 0 0 11:42 08.10.2021
6035 Clouds 18 1017 83 10000 0 0 10:42 08.10.2021
6036 Clouds 18 1017 81 10000 0 0 09:47 08.10.2021
6037 Clouds 19 1016 79 10000 1.54 250 03:38 08.10.2021
6038 Clouds 21 1017 73 10000 1.54 0 23:25 07.10.2021
6039 Clouds 21 1017 73 10000 0 0 22:35 07.10.2021
6040 Clouds 20 1018 76 10000 0 0 21:28 07.10.2021
6041 Haze 20 1018 79 10000 0 0 20:39 07.10.2021
6042 Haze 19 1017 81 9656 0 0 19:32 07.10.2021
6043 Haze 19 1017 83 8047 0 0 18:41 07.10.2021
6044 Haze 18 1017 87 10000 0 0 17:33 07.10.2021
6045 Clouds 17 1017 87 10000 0 0 16:42 07.10.2021
6046 Clouds 17 1017 87 10000 1.54 80 14:55 07.10.2021
6047 Clouds 17 1016 86 10000 0 0 13:43 07.10.2021
6048 Clouds 17 1016 86 10000 0 0 12:54 07.10.2021
6049 Clouds 17 1015 87 10000 0.87 200 10:59 07.10.2021
6050 Clouds 17 1015 87 10000 0 0 10:40 07.10.2021
6051 Clouds 17 1015 87 10000 0 0 09:43 07.10.2021
6052 Clouds 17 1015 86 10000 0 0 08:54 07.10.2021
6053 Clouds 17 1015 87 10000 1.89 199 07:58 07.10.2021
6054 Clear 17 1015 85 10000 0 0 07:38 07.10.2021
6055 Clear 18 1015 84 10000 0 0 06:41 07.10.2021
6056 Clear 23 1014 66 10000 0 0 00:52 07.10.2021
6057 Haze 23 1016 69 10000 0.89 220 23:20 06.10.2021
6058 Clouds 22 1016 70 10000 1.54 270 22:31 06.10.2021
6059 Haze 22 1017 74 10000 1.54 260 21:39 06.10.2021
6060 Haze 21 1017 75 8047 1.54 0 20:29 06.10.2021
6061 Haze 20 1018 78 1200 1.54 0 19:21 06.10.2021
6062 Haze 18 1017 87 9656 0 0 17:27 06.10.2021
6063 Mist 17 1016 89 10000 0 0 15:43 06.10.2021
6064 Clouds 17 1016 89 10000 0 0 14:43 06.10.2021
6065 Clear 17 1016 85 10000 0 0 13:24 06.10.2021
6066 Clear 17 1016 88 10000 0 0 12:47 06.10.2021
6067 Clear 17 1016 88 10000 0 0 12:25 06.10.2021
6068 Clouds 17 1016 87 10000 0 0 11:35 06.10.2021
6069 Clouds 17 1016 87 10000 0 0 11:35 06.10.2021
6070 Clouds 18 1016 87 10000 0 0 09:40 06.10.2021
6071 Clouds 18 1016 85 10000 0 0 08:59 06.10.2021
6072 Clear 18 1016 86 10000 0 0 08:30 06.10.2021
6073 Clear 19 1015 82 10000 0.45 229 06:18 06.10.2021
6074 Clear 24 1014 55 10000 0 0 02:19 06.10.2021
6075 Clouds 25 1014 55 10000 1.54 0 00:24 06.10.2021
6076 Clouds 26 1014 55 10000 1.34 290 23:51 05.10.2021
6077 Clouds 26 1014 55 10000 1.34 248 23:30 05.10.2021
6078 Clear 26 1014 52 10000 1.54 0 22:35 05.10.2021
6079 Clouds 26 1015 53 10000 1.34 306 21:57 05.10.2021
6080 Clouds 26 1015 53 10000 1.34 306 21:57 05.10.2021
6081 Clear 26 1015 55 10000 0 0 21:20 05.10.2021
6082 Clear 25 1015 60 10000 1.54 0 20:31 05.10.2021
6083 Clear 24 1015 63 10000 0 0 19:51 05.10.2021
6084 Clear 23 1015 64 10000 0 0 19:24 05.10.2021
6085 Clear 22 1014 70 10000 2.06 270 18:21 05.10.2021
6086 Clouds 19 1013 73 10000 0 0 15:33 05.10.2021
6087 Clouds 19 1014 79 10000 2.57 90 13:52 05.10.2021
6088 Clouds 19 1014 79 10000 2.57 90 13:23 05.10.2021
6089 Rain 19 1015 84 10000 1.54 0 12:34 05.10.2021
6090 Rain 19 1016 83 10000 1.54 100 11:41 05.10.2021
6091 Clouds 19 1016 86 10000 0 0 10:37 05.10.2021
6092 Rain 20 1016 74 10000 2.06 360 07:59 05.10.2021
6093 Rain 26 1012 39 10000 1.54 0 01:47 05.10.2021
6094 Clear 25 1013 40 10000 1.79 219 22:56 04.10.2021
6095 Clear 28 1013 28 10000 0 0 21:38 04.10.2021
6096 Clear 25 1014 43 10000 0 0 18:52 04.10.2021
6097 Clear 23 1013 39 10000 0 0 17:32 04.10.2021
6098 Clear 22 1013 45 10000 0 0 15:50 04.10.2021
6099 Clear 22 1013 45 10000 0 0 15:24 04.10.2021
6100 Clear 22 1013 44 10000 0 0 14:34 04.10.2021
6101 Clear 22 1013 46 10000 0 0 13:32 04.10.2021
6102 Clear 22 1013 49 10000 0 0 12:50 04.10.2021
6103 Clear 22 1013 51 10000 0 0 11:34 04.10.2021
6104 Clear 22 1014 51 10000 0 0 10:47 04.10.2021
6105 Clear 22 1014 54 10000 0 0 09:45 04.10.2021
6106 Clear 23 1013 39 10000 0 0 07:54 04.10.2021
6107 Clear 23 1013 39 10000 0 0 06:51 04.10.2021
6108 Clear 33 1012 23 10000 1.79 260 23:41 03.10.2021
6109 Clear 33 1013 23 10000 0 0 22:30 03.10.2021
6110 Clear 33 1014 19 10000 0 0 21:35 03.10.2021
6111 Clear 32 1014 19 10000 0 0 20:50 03.10.2021
6112 Clear 30 1014 19 10000 0 0 19:50 03.10.2021
6113 Clear 26 1014 26 10000 0 0 18:30 03.10.2021
6114 Clear 24 1014 37 10000 0 0 17:39 03.10.2021
6115 Clear 21 1014 44 10000 0 0 15:30 03.10.2021
6116 Clear 21 1013 43 10000 0 0 14:35 03.10.2021
6117 Clear 21 1013 41 10000 0 0 13:40 03.10.2021
6118 Clear 21 1013 41 10000 0 0 13:20 03.10.2021
6119 Clear 22 1014 41 10000 0 0 11:48 03.10.2021
6120 Clear 22 1014 39 10000 0 0 10:31 03.10.2021
6121 Clear 23 1014 33 10000 0 0 07:39 03.10.2021
6122 Clear 32 1013 24 10000 3.09 270 00:26 03.10.2021
6123 Clear 32 1015 24 10000 2.06 260 22:19 02.10.2021
6124 Clear 30 1016 25 10000 0 0 20:35 02.10.2021
6125 Clouds 27 1017 28 10000 0.94 217 18:58 02.10.2021
6126 Clear 25 1016 36 10000 0 0 18:28 02.10.2021
6127 Fog 22 1015 45 10000 0 0 17:38 02.10.2021
6128 Mist 19 1015 74 10000 0 0 16:40 02.10.2021
6129 Fog 20 1015 59 10000 0 0 14:36 02.10.2021
6130 Clear 17 1013 65 10000 0 0 15:38 30.09.2021
6131 Clear 18 1013 68 10000 0 0 14:42 30.09.2021
6132 Clear 17 1013 70 10000 0 0 12:22 30.09.2021
6133 Clear 18 1013 76 10000 0 0 11:29 30.09.2021
6134 Clear 18 1014 78 10000 0 0 10:26 30.09.2021
6135 Clear 17 1014 82 10000 0 0 08:54 30.09.2021
6136 Clear 17 1014 83 10000 0 0 08:22 30.09.2021
6137 Clear 18 1012 80 10000 0 0 05:50 30.09.2021
6138 Clear 22 1012 63 10000 2.57 260 02:33 30.09.2021
6139 Clear 24 1012 59 10000 0 0 00:37 30.09.2021
6140 Clear 24 1012 59 10000 1.34 246 22:59 29.09.2021
6141 Clouds 23 1013 59 10000 3.09 270 21:54 29.09.2021
6142 Clouds 22 1014 62 10000 0 0 20:42 29.09.2021
6143 Clouds 22 1014 63 10000 0 0 20:20 29.09.2021
6144 Clear 21 1014 69 10000 0 0 19:26 29.09.2021
6145 Clear 19 1014 77 10000 0 0 18:18 29.09.2021
6146 Clouds 16 1013 88 10000 0 0 16:56 29.09.2021
6147 Clear 15 1013 87 10000 0 0 16:29 29.09.2021
6148 Clear 15 1013 86 10000 0 0 15:43 29.09.2021
6149 Clear 16 1012 86 10000 0 0 14:38 29.09.2021
6150 Clear 16 1013 86 10000 0 0 13:34 29.09.2021
6151 Clear 16 1012 86 10000 0 0 12:41 29.09.2021
6152 Clouds 16 1013 85 10000 0 0 11:24 29.09.2021
6153 Clear 16 1013 85 10000 0 0 10:34 29.09.2021
6154 Clear 16 1013 85 10000 0 0 09:44 29.09.2021
6155 Clear 17 1013 83 10000 0 0 08:24 29.09.2021
6156 Clouds 17 1012 82 10000 0 0 06:53 29.09.2021
6157 Clouds 22 1012 68 10000 2.06 0 00:51 29.09.2021
6158 Clouds 22 1013 68 10000 0 0 23:20 28.09.2021
6159 Clouds 22 1013 68 10000 0 0 22:22 28.09.2021
6160 Clouds 21 1014 70 10000 0 0 21:24 28.09.2021
6161 Clouds 20 1014 71 10000 1.54 0 20:26 28.09.2021
6162 Clouds 20 1015 72 10000 0 0 19:41 28.09.2021
6163 Clouds 19 1014 78 10000 0 0 18:44 28.09.2021
6164 Clouds 18 1014 83 10000 0 0 17:30 28.09.2021
6165 Clouds 17 1014 86 10000 0 0 15:21 28.09.2021
6166 Clouds 17 1014 84 10000 0 0 13:28 28.09.2021
6167 Clouds 17 1015 83 10000 0 0 12:28 28.09.2021
6168 Clouds 17 1015 84 10000 1.89 142 11:57 28.09.2021
6169 Clouds 17 1015 83 10000 0 0 11:39 28.09.2021
6170 Clouds 18 1015 83 10000 0 0 10:47 28.09.2021
6171 Clouds 18 1016 82 10000 0 0 09:45 28.09.2021
6172 Clouds 18 1016 82 10000 0 0 08:44 28.09.2021
6173 Clouds 18 1016 82 10000 0 0 08:44 28.09.2021
6174 Clouds 18 1016 82 10000 0 0 08:25 28.09.2021
6175 Clouds 18 1016 82 10000 0 0 06:47 28.09.2021
6176 Clouds 18 1015 82 10000 1.54 260 05:22 28.09.2021
6177 Clouds 20 1016 77 10000 0 0 01:22 28.09.2021
6178 Clouds 20 1016 77 10000 0 0 00:20 28.09.2021
6179 Clouds 19 1017 80 10000 0 0 23:30 27.09.2021
6180 Clouds 19 1017 80 10000 2.06 260 22:46 27.09.2021
6181 Clouds 19 1018 83 10000 0 0 21:41 27.09.2021
6182 Clouds 18 1018 85 10000 0 0 20:39 27.09.2021
6183 Clouds 18 1018 83 10000 0 0 19:50 27.09.2021
6184 Clouds 18 1018 83 10000 0 0 19:23 27.09.2021
6185 Haze 17 1018 84 10000 0 0 18:31 27.09.2021
6186 Mist 17 1017 85 10000 1.54 0 17:28 27.09.2021
6187 Clouds 17 1017 85 10000 0 0 16:41 27.09.2021
6188 Clouds 17 1016 85 10000 0 0 15:43 27.09.2021
6189 Clouds 17 1017 85 10000 1.54 240 14:56 27.09.2021
6190 Clouds 17 1017 83 10000 0 0 13:31 27.09.2021
6191 Haze 17 1017 82 10000 0 0 11:23 27.09.2021
6192 Haze 17 1017 82 10000 1.54 270 10:32 27.09.2021
6193 Clouds 17 1017 82 10000 1.54 250 08:48 27.09.2021
6194 Clouds 18 1016 81 10000 0 0 05:22 27.09.2021
6195 Clear 20 1016 75 10000 0.89 254 02:59 27.09.2021
6196 Haze 21 1017 70 10000 2.06 260 22:33 26.09.2021
6197 Clouds 20 1017 75 10000 0 0 21:50 26.09.2021
6198 Haze 20 1017 77 10000 0 0 21:25 26.09.2021
6199 Haze 19 1018 79 10000 1.54 250 20:21 26.09.2021
6200 Haze 18 1018 81 10000 0 0 19:48 26.09.2021
6201 Clouds 18 1017 82 10000 0 0 18:46 26.09.2021
6202 Haze 17 1018 84 9656 0 0 17:57 26.09.2021
6203 Haze 17 1017 83 10000 0 0 17:22 26.09.2021
6204 Haze 17 1017 84 10000 1.54 260 16:54 26.09.2021
6205 Clouds 17 1017 87 10000 1.54 180 15:59 26.09.2021
6206 Haze 17 1016 86 3219 1.54 70 14:59 26.09.2021
6207 Clear 17 1016 86 10000 1.54 232 13:57 26.09.2021
6208 Clouds 17 1016 84 10000 0 0 13:21 26.09.2021
6209 Clouds 17 1017 84 10000 0 0 12:25 26.09.2021
6210 Clouds 17 1017 84 10000 0 0 11:42 26.09.2021
6211 Clouds 17 1017 85 10000 0 0 10:30 26.09.2021
6212 Clouds 17 1016 84 10000 0 0 09:20 26.09.2021
6213 Clear 18 1015 84 10000 1.74 223 07:56 26.09.2021
6214 Smoke 25 1014 59 10000 1.54 0 00:23 26.09.2021
6215 Smoke 25 1014 59 10000 1.54 0 00:23 26.09.2021
6216 Smoke 26 1015 58 10000 2.57 250 23:33 25.09.2021
6217 Clear 25 1015 60 10000 2.06 260 22:38 25.09.2021
6218 Clear 25 1016 62 10000 2.57 260 21:55 25.09.2021
6219 Smoke 25 1016 62 10000 2.57 260 21:33 25.09.2021
6220 Clear 24 1016 64 10000 1.54 0 20:51 25.09.2021
6221 Clear 22 1016 71 10000 0 0 19:32 25.09.2021
6222 Clear 21 1016 77 10000 0 0 18:26 25.09.2021
6223 Mist 17 1016 86 8047 0 0 16:28 25.09.2021
6224 Clouds 17 1015 89 10000 1.54 300 13:58 25.09.2021
6225 Mist 17 1015 89 9656 0 0 13:33 25.09.2021
6226 Clear 17 1015 85 10000 0 0 12:28 25.09.2021
6227 Clear 18 1015 85 10000 0 0 10:36 25.09.2021
6228 Clear 18 1015 86 10000 0 0 09:47 25.09.2021
6229 Clear 19 1015 82 10000 1.54 250 08:38 25.09.2021
6230 Clear 20 1014 76 10000 0 0 07:27 25.09.2021
6231 Clear 26 1013 59 10000 0 0 00:49 25.09.2021
6232 Smoke 26 1014 56 10000 1.34 292 21:57 24.09.2021
6233 Haze 24 1014 65 9656 0 0 20:50 24.09.2021
6234 Haze 23 1015 65 9656 0 0 20:19 24.09.2021
6235 Haze 20 1014 79 6437 0 0 18:36 24.09.2021
6236 Haze 18 1014 82 6437 0 0 17:56 24.09.2021
6237 Mist 17 1014 83 4828 0 0 17:37 24.09.2021
6238 Mist 17 1014 85 4828 0 0 17:19 24.09.2021
6239 Mist 17 1014 85 9656 0 0 14:48 24.09.2021
6240 Clouds 17 1014 82 10000 0 0 13:20 24.09.2021
6241 Clouds 17 1013 87 10000 0 0 12:41 24.09.2021
6242 Clouds 18 1013 79 10000 0 0 12:23 24.09.2021
6243 Clouds 18 1014 81 10000 2.06 270 10:28 24.09.2021
6244 Clouds 18 1014 73 10000 2.06 280 08:59 24.09.2021
6245 Clear 19 1013 76 10000 0 0 07:55 24.09.2021
6246 Smoke 19 1013 72 10000 0 0 06:51 24.09.2021
6247 Smoke 21 1012 69 10000 1.54 0 05:22 24.09.2021
6248 Smoke 27 1012 54 10000 2.06 0 00:48 24.09.2021
6249 Fog 28 1012 54 10000 0 0 22:37 23.09.2021
6250 Clear 29 1012 50 10000 1.79 262 21:58 23.09.2021
6251 Clear 27 1013 54 10000 0 0 20:51 23.09.2021
6252 Clear 27 1013 54 10000 0 0 20:26 23.09.2021
6253 Haze 24 1013 63 10000 0 0 18:27 23.09.2021
6254 Mist 20 1013 71 10000 0 0 15:37 23.09.2021
6255 Mist 20 1013 71 10000 0 0 15:18 23.09.2021
6256 Clouds 22 1014 62 10000 0 0 13:57 23.09.2021
6257 Clear 21 1013 73 10000 0 0 13:25 23.09.2021
6258 Clear 21 1014 73 10000 0 0 12:54 23.09.2021
6259 Clear 21 1014 74 10000 0 0 12:24 23.09.2021
6260 Clouds 22 1012 45 10000 1.58 158 11:56 23.09.2021
6261 Clear 22 1014 70 10000 0 0 10:29 23.09.2021
6262 Clear 23 1014 64 10000 0 0 09:54 23.09.2021
6263 Clear 25 1013 45 10000 1.54 157 08:55 23.09.2021
6264 Clouds 27 1014 43 10000 0 0 05:29 23.09.2021
6265 Clear 34 1016 27 10000 1.54 250 23:48 22.09.2021
6266 Clear 35 1017 31 10000 1.34 240 22:50 22.09.2021
6267 Clear 34 1017 34 10000 0.45 281 22:18 22.09.2021
6268 Clear 34 1018 34 10000 0 0 21:42 22.09.2021
6269 Clear 34 1018 33 10000 0.45 236 20:57 22.09.2021
6270 Clear 31 1019 37 10000 0 0 19:47 22.09.2021
6271 Clear 30 1019 35 10000 0 0 19:26 22.09.2021
6272 Clear 27 1019 47 10000 0 0 18:25 22.09.2021
6273 Clear 26 1018 40 10000 0.3 267 16:57 22.09.2021
6274 Clear 23 1018 59 10000 0 0 15:38 22.09.2021
6275 Clear 23 1018 60 10000 0 0 14:27 22.09.2021
6276 Clear 25 1018 36 10000 0.35 34 12:55 22.09.2021
6277 Clear 23 1019 60 10000 0 0 11:18 22.09.2021
6278 Clear 24 1018 51 10000 0 0 09:30 22.09.2021
6279 Clear 24 1018 53 10000 0 0 08:44 22.09.2021
6280 Clear 25 1018 49 10000 0 0 07:31 22.09.2021
6281 Clear 26 1018 49 10000 0 0 06:31 22.09.2021
6282 Clear 26 1017 48 10000 0 0 05:48 22.09.2021
6283 Clear 28 1018 36 10000 2.39 242 03:59 22.09.2021
6284 Clear 31 1017 34 10000 1.79 193 02:56 22.09.2021
6285 Clear 33 1017 40 10000 1.54 0 23:42 21.09.2021
6286 Clear 34 1018 34 10000 0 0 22:26 21.09.2021
6287 Clear 32 1019 39 10000 1.34 277 20:31 21.09.2021
6288 Clear 30 1019 42 10000 0.89 264 19:36 21.09.2021
6289 Clear 28 1019 47 10000 0.45 207 19:18 21.09.2021
6290 Clear 20 1017 77 10000 0 0 16:48 21.09.2021
6291 Clear 21 1017 32 10000 0.49 23 15:56 21.09.2021
6292 Clouds 19 1017 60 10000 0 0 14:59 21.09.2021
6293 Clear 19 1017 75 10000 0 0 14:40 21.09.2021
6294 Clear 19 1016 76 10000 0 0 13:39 21.09.2021
6295 Clear 19 1016 77 10000 0 0 12:44 21.09.2021
6296 Clear 19 1016 79 10000 0 0 10:43 21.09.2021
6297 Clear 20 1016 80 10000 0 0 09:28 21.09.2021
6298 Clear 21 1015 76 10000 0 0 07:40 21.09.2021
6299 Clear 22 1014 70 10000 2.06 270 05:18 21.09.2021
6300 Clear 28 1013 45 10000 1.54 260 23:19 20.09.2021
6301 Clear 26 1014 47 10000 0 0 21:52 20.09.2021
6302 Clear 26 1014 49 10000 0 0 21:32 20.09.2021
6303 Clear 23 1013 65 10000 1.67 211 19:55 20.09.2021
6304 Haze 21 1013 77 10000 0 0 18:37 20.09.2021
6305 Haze 18 1013 80 9656 0 0 17:30 20.09.2021
6306 Mist 17 1013 85 6437 0 0 16:26 20.09.2021
6307 Mist 17 1012 83 8047 0 0 15:47 20.09.2021
6308 Mist 17 1012 83 8047 0 0 14:59 20.09.2021
6309 Mist 17 1012 81 4023 0 0 13:36 20.09.2021
6310 Clear 17 1012 77 10000 0 0 12:34 20.09.2021
6311 Clear 17 1012 75 10000 0 0 11:18 20.09.2021
6312 Clear 18 1013 78 10000 0 0 09:53 20.09.2021
6313 Clear 17 1013 82 10000 0 0 09:34 20.09.2021
6314 Clear 17 1012 85 10000 1.3 149 08:56 20.09.2021
6315 Clear 19 1013 79 10000 0 0 06:36 20.09.2021
6316 Clear 25 1014 54 10000 0 0 23:44 19.09.2021
6317 Clear 24 1015 59 10000 0.45 276 21:56 19.09.2021
6318 Clear 23 1015 58 10000 0 0 21:33 19.09.2021
6319 Clear 22 1016 64 10000 2.06 170 20:33 19.09.2021
6320 Clear 20 1016 71 10000 0 0 19:18 19.09.2021
6321 Clouds 18 1016 79 10000 0 0 18:25 19.09.2021
6322 Haze 16 1016 82 10000 0 0 17:22 19.09.2021
6323 Clouds 15 1016 86 10000 0 0 15:52 19.09.2021
6324 Clouds 15 1015 87 10000 0 0 14:50 19.09.2021
6325 Clouds 15 1015 87 10000 0 0 14:29 19.09.2021
6326 Clouds 16 1015 87 10000 0 0 13:19 19.09.2021
6327 Clear 16 1015 87 10000 0 0 12:45 19.09.2021
6328 Clear 16 1016 76 10000 0 0 11:27 19.09.2021
6329 Clear 16 1016 81 10000 0 0 10:21 19.09.2021
6330 Clear 17 1016 81 10000 0 0 09:28 19.09.2021
6331 Clear 17 1016 81 10000 0 0 07:29 19.09.2021
6332 Clear 19 1015 72 10000 2.57 260 04:21 19.09.2021
6333 Clear 24 1017 53 10000 1.79 229 23:35 18.09.2021
6334 Clear 23 1018 59 10000 1.54 0 21:58 18.09.2021
6335 Clouds 22 1019 65 10000 0 0 20:48 18.09.2021
6336 Clouds 21 1019 65 10000 0 0 20:48 18.09.2021
6337 Clouds 21 1019 66 10000 0 0 20:27 18.09.2021
6338 Clouds 20 1019 71 10000 0 0 19:39 18.09.2021
6339 Clouds 19 1019 72 10000 0 0 19:20 18.09.2021
6340 Haze 18 1018 77 10000 0 0 18:31 18.09.2021
6341 Clouds 17 1018 83 10000 0 0 17:25 18.09.2021
6342 Clouds 16 1017 86 10000 0 0 15:48 18.09.2021
6343 Clear 16 1017 84 10000 0 0 13:46 18.09.2021
6344 Clear 16 1017 82 10000 0 0 13:27 18.09.2021
6345 Clear 16 1017 81 10000 0 0 12:49 18.09.2021
6346 Clear 16 1017 83 10000 0 0 11:38 18.09.2021
6347 Clear 16 1017 83 10000 0 0 10:31 18.09.2021
6348 Clear 17 1017 82 10000 0 0 09:27 18.09.2021
6349 Clear 17 1017 81 10000 1.54 270 08:48 18.09.2021
6350 Clear 23 1015 59 10000 1.79 261 02:50 18.09.2021
6351 Clear 25 1015 53 10000 0.45 293 00:41 18.09.2021
6352 Clear 25 1016 53 10000 0.45 296 23:47 17.09.2021
6353 Clear 24 1016 58 10000 0.89 284 22:33 17.09.2021
6354 Haze 23 1017 60 10000 0.89 257 21:55 17.09.2021
6355 Haze 22 1017 64 10000 2.06 120 20:45 17.09.2021
6356 Haze 19 1016 75 8047 0 0 18:54 17.09.2021
6357 Haze 17 1015 79 10000 0 0 16:51 17.09.2021
6358 Haze 16 1015 82 10000 0 0 16:24 17.09.2021
6359 Clouds 16 1013 85 10000 0 0 12:37 17.09.2021
6360 Clear 16 1013 84 10000 0 0 10:41 17.09.2021
6361 Clouds 16 1013 83 10000 0 0 08:45 17.09.2021
6362 Clouds 17 1012 80 10000 0 0 06:50 17.09.2021
6363 Clear 24 1011 57 10000 1.34 243 00:59 17.09.2021
6364 Haze 24 1012 57 10000 0.89 312 22:54 16.09.2021
6365 Haze 24 1012 57 10000 1.54 0 22:24 16.09.2021
6366 Haze 23 1012 59 9656 0 0 21:41 16.09.2021
6367 Haze 23 1012 59 9656 0 0 21:20 16.09.2021
6368 Haze 21 1013 65 8047 0 0 20:18 16.09.2021
6369 Haze 18 1013 77 6437 0 0 18:19 16.09.2021
6370 Haze 17 1013 80 6437 0 0 17:32 16.09.2021
6371 Mist 16 1011 83 10000 0 0 14:55 16.09.2021
6372 Clear 16 1011 85 10000 1.14 230 13:55 16.09.2021
6373 Clouds 16 1012 84 10000 0 0 12:48 16.09.2021
6374 Clouds 16 1012 84 10000 0 0 12:28 16.09.2021
6375 Clouds 16 1012 85 10000 0 0 11:25 16.09.2021
6376 Clouds 16 1013 85 10000 0 0 10:31 16.09.2021
6377 Clouds 16 1013 84 10000 0 0 09:53 16.09.2021
6378 Clouds 17 1013 82 10000 1.54 270 08:42 16.09.2021
6379 Clouds 17 1013 80 10000 0 0 07:22 16.09.2021
6380 Clouds 18 1012 78 10000 1.54 250 06:43 16.09.2021
6381 Clear 19 1012 73 10000 1.54 250 04:55 16.09.2021
6382 Clear 25 1012 54 10000 1.54 250 01:40 16.09.2021
6383 Clear 26 1012 53 10000 2.57 260 23:45 15.09.2021
6384 Haze 26 1013 53 10000 0 0 22:47 15.09.2021
6385 Haze 25 1014 54 1200 0.45 43 21:44 15.09.2021
6386 Haze 24 1015 56 1200 0.89 233 21:25 15.09.2021
6387 Haze 22 1014 69 6437 0 0 19:53 15.09.2021
6388 Haze 21 1014 71 6437 0 0 19:21 15.09.2021
6389 Haze 18 1014 83 9656 1.54 110 17:57 15.09.2021
6390 Haze 17 1014 85 8047 0 0 16:55 15.09.2021
6391 Haze 17 1014 85 8047 0 0 15:34 15.09.2021
6392 Mist 17 1013 86 8047 0 0 14:44 15.09.2021
6393 Haze 17 1014 86 8047 0 0 13:52 15.09.2021
6394 Haze 17 1014 86 8047 0 0 13:30 15.09.2021
6395 Mist 17 1014 86 8047 0 0 12:48 15.09.2021
6396 Mist 17 1014 85 8047 0 0 11:52 15.09.2021
6397 Clouds 17 1014 85 10000 0 0 11:52 15.09.2021
6398 Mist 17 1014 86 8047 0 0 11:31 15.09.2021
6399 Haze 17 1014 87 10000 2.06 250 10:55 15.09.2021
6400 Clear 17 1014 85 10000 0 0 09:30 15.09.2021
6401 Clear 18 1014 85 10000 0 0 08:20 15.09.2021
6402 Clear 20 1012 71 10000 1.54 250 04:55 15.09.2021
6403 Clear 28 1012 42 10000 0.89 219 23:54 14.09.2021
6404 Haze 27 1014 48 10000 0 0 21:42 14.09.2021
6405 Haze 25 1014 53 8047 0 0 20:39 14.09.2021
6406 Haze 23 1014 62 4828 0 0 19:42 14.09.2021
6407 Mist 19 1014 74 3219 0 0 17:45 14.09.2021
6408 Mist 18 1014 72 3219 0 0 17:27 14.09.2021
6409 Haze 17 1013 70 6437 2.06 140 15:37 14.09.2021
6410 Mist 17 1013 70 4828 1.54 160 14:31 14.09.2021
6411 Mist 18 1013 75 6437 0 0 12:46 14.09.2021
6412 Mist 19 1012 70 9656 0 0 10:55 14.09.2021
6413 Mist 19 1012 74 8047 1.54 260 09:51 14.09.2021
6414 Mist 20 1012 65 8047 0 0 08:48 14.09.2021
6415 Mist 21 1012 60 10000 0 0 06:38 14.09.2021
6416 Clear 32 1010 32 10000 0 0 00:41 14.09.2021
6417 Clear 32 1011 32 10000 0 0 22:53 13.09.2021
6418 Clear 31 1011 35 10000 0 0 22:24 13.09.2021
6419 Clear 32 1012 34 10000 1.34 205 21:53 13.09.2021
6420 Clear 29 1013 42 10000 1.54 0 20:51 13.09.2021
6421 Haze 26 1013 51 9656 0 0 19:26 13.09.2021
6422 Haze 25 1013 59 6437 0 0 18:43 13.09.2021
6423 Mist 21 1013 73 4023 0 0 16:58 13.09.2021
6424 Mist 19 1012 81 4828 0 0 15:32 13.09.2021
6425 Mist 19 1012 79 8047 0 0 13:32 13.09.2021
6426 Mist 20 1013 69 8047 0 0 10:58 13.09.2021
6427 Mist 21 1013 70 8047 0 0 09:41 13.09.2021
6428 Clear 22 1012 61 10000 0 0 07:28 13.09.2021
6429 Clear 33 1012 37 10000 1.54 0 23:44 12.09.2021
6430 Clear 33 1013 34 10000 0 0 22:26 12.09.2021
6431 Clear 32 1013 39 10000 0 0 21:37 12.09.2021
6432 Clear 30 1014 43 10000 1.54 0 20:34 12.09.2021
6433 Fog 29 1014 50 10000 0 0 19:54 12.09.2021
6434 Fog 28 1014 53 10000 0 0 19:28 12.09.2021
6435 Fog 26 1014 58 10000 0 0 18:29 12.09.2021
6436 Fog 22 1013 64 10000 0 0 16:33 12.09.2021
6437 Clear 23 1012 38 10000 0.82 155 14:59 12.09.2021
6438 Clear 22 1013 64 10000 0 0 13:49 12.09.2021
6439 Clear 23 1013 62 10000 0 0 11:47 12.09.2021
6440 Clear 23 1013 55 10000 0 0 09:41 12.09.2021
6441 Clear 23 1013 56 10000 0 0 08:38 12.09.2021
6442 Clear 32 1012 31 10000 1.54 0 02:39 12.09.2021
6443 Clear 33 1013 40 10000 3.09 260 23:52 11.09.2021
6444 Clear 32 1014 43 10000 2.57 260 22:25 11.09.2021
6445 Clear 32 1015 40 1200 0.45 264 21:36 11.09.2021
6446 Clear 28 1016 52 10000 0 0 19:32 11.09.2021
6447 Clear 25 1015 63 10000 0 0 17:52 11.09.2021
6448 Clear 21 1014 70 10000 0 0 16:21 11.09.2021
6449 Clear 21 1014 72 10000 0 0 14:22 11.09.2021
6450 Clear 21 1014 73 10000 0 0 13:19 11.09.2021
6451 Clear 21 1014 73 10000 0 0 11:34 11.09.2021
6452 Clear 21 1014 70 10000 0 0 09:41 11.09.2021
6453 Clear 21 1014 70 10000 0 0 09:41 11.09.2021
6454 Clear 22 1015 69 10000 0 0 07:50 11.09.2021
6455 Clear 23 1015 62 10000 0 0 07:28 11.09.2021
6456 Clear 31 1013 44 10000 2.06 260 00:49 11.09.2021
6457 Clear 31 1013 47 10000 1.34 271 22:26 10.09.2021
6458 Clear 31 1013 46 10000 0 0 21:55 10.09.2021
6459 Fog 29 1014 52 10000 1.54 280 20:31 10.09.2021
6460 Clear 25 1014 65 10000 0 0 18:28 10.09.2021
6461 Fog 22 1014 73 10000 1.54 270 16:57 10.09.2021
6462 Fog 22 1013 76 10000 0 0 15:36 10.09.2021
6463 Mist 22 1012 74 10000 0 0 13:18 10.09.2021
6464 Clear 22 1013 72 10000 0 0 09:50 10.09.2021
6465 Clear 22 1012 75 10000 1.54 260 07:51 10.09.2021
6466 Clear 26 1010 59 10000 1.54 0 03:43 10.09.2021
6467 Clear 31 1012 50 10000 2.57 260 22:33 09.09.2021
6468 Clear 29 1012 56 10000 0 0 21:46 09.09.2021
6469 Clear 28 1013 64 10000 0 0 20:47 09.09.2021
6470 Clear 27 1013 63 10000 0 0 20:21 09.09.2021
6471 Fog 25 1012 78 10000 0 0 18:35 09.09.2021
6472 Mist 21 1012 89 1200 2.06 240 16:41 09.09.2021
6473 Mist 21 1012 79 1200 2.06 240 16:21 09.09.2021
6474 Mist 22 1011 76 10000 0 0 13:22 09.09.2021
6475 Fog 20 1012 80 10000 0 0 11:49 09.09.2021
6476 Mist 19 1012 91 10000 1.54 0 10:31 09.09.2021
6477 Mist 20 1012 84 10000 0 0 08:58 09.09.2021
6478 Mist 22 1011 76 10000 3.09 260 06:50 09.09.2021
6479 Mist 26 1009 63 10000 1.54 280 03:44 09.09.2021
6480 Clear 29 1011 54 10000 0.45 236 22:57 08.09.2021
6481 Haze 27 1013 63 9656 0 0 21:39 08.09.2021
6482 Haze 24 1014 73 6437 0 0 20:19 08.09.2021
6483 Haze 23 1014 80 4828 0 0 19:29 08.09.2021
6484 Mist 22 1014 85 4828 0 0 18:31 08.09.2021
6485 Mist 22 1014 84 4828 0 0 18:30 08.09.2021
6486 Mist 21 1013 88 4023 0 0 17:58 08.09.2021
6487 Mist 19 1012 92 4023 0 0 16:55 08.09.2021
6488 Mist 19 1012 89 9656 0 0 14:30 08.09.2021
6489 Mist 19 1012 88 9656 0 0 14:30 08.09.2021
6490 Mist 19 1012 88 9656 0 0 14:30 08.09.2021
6491 Mist 19 1012 90 9656 0 0 13:21 08.09.2021
6492 Mist 19 1012 89 9656 0 0 12:41 08.09.2021
6493 Mist 19 1012 90 9656 0 0 12:19 08.09.2021
6494 Clear 20 1013 89 10000 0 0 10:50 08.09.2021
6495 Clear 20 1013 89 10000 0 0 10:25 08.09.2021
6496 Mist 20 1013 86 10000 0 0 09:25 08.09.2021
6497 Clear 21 1013 83 10000 1.54 260 07:41 08.09.2021
6498 Clear 23 1012 77 10000 2.57 270 05:44 08.09.2021
6499 Clear 29 1014 56 10000 1.34 139 22:51 07.09.2021
6500 Clear 28 1014 59 10000 1.79 239 22:18 07.09.2021
6501 Clear 26 1016 65 10000 0 0 20:37 07.09.2021
6502 Clear 24 1016 71 10000 0 0 18:49 07.09.2021
6503 Clear 23 1016 72 10000 0 0 18:24 07.09.2021
6504 Haze 21 1015 82 10000 0 0 16:56 07.09.2021
6505 Clear 19 1015 85 10000 0 0 15:43 07.09.2021
6506 Clear 20 1014 84 10000 0 0 14:46 07.09.2021
6507 Clear 20 1015 84 10000 0 0 12:45 07.09.2021
6508 Clear 20 1015 83 10000 0 0 12:45 07.09.2021
6509 Clear 20 1015 83 10000 0 0 11:51 07.09.2021
6510 Clear 20 1015 83 10000 0 0 10:43 07.09.2021
6511 Clear 21 1015 80 10000 1.54 120 08:40 07.09.2021
6512 Clear 21 1015 80 10000 1.54 0 07:45 07.09.2021
6513 Clouds 22 1014 77 10000 2.06 130 05:47 07.09.2021
6514 Clear 27 1012 61 10000 1.54 0 02:38 07.09.2021
6515 Clear 29 1012 54 10000 0.89 226 00:54 07.09.2021
6516 Clear 30 1012 48 10000 3.58 272 23:43 06.09.2021
6517 Clear 30 1013 49 10000 2.24 306 23:20 06.09.2021
6518 Clear 30 1013 48 10000 0 0 22:45 06.09.2021
6519 Clear 30 1014 49 10000 1.34 221 21:52 06.09.2021
6520 Clear 25 1014 66 10000 0 0 19:36 06.09.2021
6521 Clear 25 1014 68 10000 0 0 19:18 06.09.2021
6522 Clouds 23 1015 74 10000 0 0 18:27 06.09.2021
6523 Haze 21 1014 80 9656 1.54 150 17:37 06.09.2021
6524 Haze 21 1014 80 9656 1.54 150 17:37 06.09.2021
6525 Clouds 19 1014 89 10000 1.54 0 15:59 06.09.2021
6526 Clear 20 1013 85 10000 0 0 14:34 06.09.2021
6527 Clouds 20 1013 84 10000 0 0 12:48 06.09.2021
6528 Clouds 20 1014 84 10000 2.06 90 11:43 06.09.2021
6529 Clouds 21 1012 82 10000 2 163 09:59 06.09.2021
6530 Clear 24 1012 48 10000 0 0 07:35 06.09.2021
6531 Clear 35 1010 21 10000 0 0 01:32 06.09.2021
6532 Clear 35 1011 23 10000 3.09 260 23:20 05.09.2021
6533 Clear 35 1011 25 10000 1.54 0 22:32 05.09.2021
6534 Clear 34 1012 28 10000 0 0 21:55 05.09.2021
6535 Clear 34 1012 28 10000 0 0 21:19 05.09.2021
6536 Fog 30 1012 33 10000 0 0 19:23 05.09.2021
6537 Haze 28 1012 46 9656 0 0 17:51 05.09.2021
6538 Mist 22 1011 56 10000 0 0 15:42 05.09.2021
6539 Clear 26 1011 23 10000 0.16 307 14:56 05.09.2021
6540 Clear 23 1011 58 10000 0 0 12:43 05.09.2021
6541 Clear 23 1011 57 10000 0 0 11:31 05.09.2021
6542 Clear 23 1011 56 10000 0 0 10:36 05.09.2021
6543 Clear 24 1011 45 10000 0 0 09:32 05.09.2021
6544 Clear 24 1011 42 10000 0 0 08:26 05.09.2021
6545 Clear 33 1010 15 10000 2.06 260 03:22 05.09.2021
6546 Clear 33 1011 30 10000 3.6 270 00:37 05.09.2021
6547 Clear 33 1012 28 10000 2.06 0 23:54 04.09.2021
6548 Clear 33 1012 33 10000 2.06 0 23:21 04.09.2021
6549 Clear 32 1012 35 10000 2.06 250 22:34 04.09.2021
6550 Clear 30 1013 43 10000 0.45 184 19:59 04.09.2021
6551 Clear 28 1013 47 10000 0 0 19:32 04.09.2021
6552 Clear 21 1013 67 10000 0 0 17:21 04.09.2021
6553 Clear 19 1012 73 10000 0 0 14:29 04.09.2021
6554 Clear 20 1012 64 10000 0 0 11:22 04.09.2021
6555 Clear 20 1012 64 10000 0 0 10:27 04.09.2021
6556 Clear 21 1012 60 10000 0 0 07:30 04.09.2021
6557 Clear 28 1012 55 10000 1.54 250 00:48 04.09.2021
6558 Clear 28 1013 54 10000 0 0 23:39 03.09.2021
6559 Clear 28 1012 54 10000 0 0 23:19 03.09.2021
6560 Haze 26 1014 59 10000 1.54 0 21:41 03.09.2021
6561 Haze 25 1014 65 9656 0.89 294 20:54 03.09.2021
6562 Haze 24 1014 67 8047 0 0 20:24 03.09.2021
6563 Haze 22 1014 73 6437 0 0 19:33 03.09.2021
6564 Haze 22 1014 73 6437 0 0 19:33 03.09.2021
6565 Haze 19 1014 82 6437 0 0 18:20 03.09.2021
6566 Mist 18 1014 87 6437 0 0 16:47 03.09.2021
6567 Haze 17 1014 86 8047 0 0 15:38 03.09.2021
6568 Mist 17 1013 87 9656 0 0 13:48 03.09.2021
6569 Clouds 18 1014 85 10000 0 0 11:21 03.09.2021
6570 Clouds 18 1014 85 10000 0 0 09:21 03.09.2021
6571 Clouds 18 1014 86 10000 0 0 08:18 03.09.2021
6572 Clouds 19 1013 84 10000 1.54 260 06:48 03.09.2021
6573 Clear 26 1013 59 10000 0.45 292 23:56 02.09.2021
6574 Clouds 23 1014 65 10000 0.89 302 21:55 02.09.2021
6575 Clouds 22 1015 70 10000 0 0 20:40 02.09.2021
6576 Clouds 20 1014 77 10000 0 0 17:41 02.09.2021
6577 Clouds 19 1014 80 10000 0 0 16:30 02.09.2021
6578 Clouds 19 1013 80 10000 0 0 15:30 02.09.2021
6579 Clouds 19 1013 82 10000 0 0 13:28 02.09.2021
6580 Clear 19 1013 82 1200 1.54 280 11:43 02.09.2021
6581 Clouds 19 1013 83 10000 2.06 270 10:53 02.09.2021
6582 Clouds 19 1013 83 10000 1.54 200 08:57 02.09.2021
6583 Clear 19 1013 82 10000 0 0 07:22 02.09.2021
6584 Clear 19 1013 82 10000 0 0 07:22 02.09.2021
6585 Clear 20 1012 79 10000 1.54 270 05:31 02.09.2021
6586 Clouds 24 1011 63 10000 0 0 02:37 02.09.2021
6587 Clouds 24 1011 61 10000 1.54 0 01:49 02.09.2021
6588 Clouds 24 1012 62 10000 0 0 23:41 01.09.2021
6589 Clouds 23 1012 64 10000 1.54 270 22:44 01.09.2021
6590 Clouds 23 1012 67 10000 0 0 21:58 01.09.2021
6591 Clouds 22 1012 69 10000 0 0 21:29 01.09.2021
6592 Clouds 21 1012 72 10000 0 0 19:37 01.09.2021
6593 Clouds 20 1011 79 10000 2.06 180 17:52 01.09.2021
6594 Clouds 20 1011 83 10000 1.75 153 16:59 01.09.2021
6595 Clouds 19 1010 82 10000 0 0 16:35 01.09.2021
6596 Clouds 19 1010 84 10000 0 0 13:59 01.09.2021
6597 Haze 19 1010 82 9656 1.54 100 11:47 01.09.2021
6598 Haze 19 1010 83 10000 0 0 09:49 01.09.2021
6599 Haze 19 1010 83 10000 0 0 08:19 01.09.2021
6600 Clouds 19 1009 83 10000 1.54 260 06:42 01.09.2021
6601 Clouds 19 1009 83 10000 1.54 260 06:42 01.09.2021
6602 Clear 22 1009 72 10000 0 0 23:30 31.08.2021
6603 Clear 23 1009 68 10000 0.45 259 22:21 31.08.2021
6604 Haze 22 1010 72 6437 0 0 19:52 31.08.2021
6605 Haze 21 1010 75 6437 0 0 19:23 31.08.2021
6606 Haze 19 1010 82 9656 0 0 17:44 31.08.2021
6607 Haze 19 1010 82 9656 0 0 17:25 31.08.2021
6608 Haze 19 1009 83 9656 0 0 16:28 31.08.2021
6609 Clouds 19 1008 84 10000 0 0 15:25 31.08.2021
6610 Clear 18 1008 84 10000 0 0 11:46 31.08.2021
6611 Clear 18 1008 84 10000 0 0 11:19 31.08.2021
6612 Clear 18 1008 84 10000 0 0 10:43 31.08.2021
6613 Clear 19 1009 84 10000 0 0 09:41 31.08.2021
6614 Clear 19 1009 82 10000 0 0 07:48 31.08.2021
6615 Clouds 20 1009 80 10000 2.18 213 05:57 31.08.2021
6616 Clear 27 1008 58 10000 2.06 260 23:36 30.08.2021
6617 Clear 27 1009 57 10000 2.06 250 22:36 30.08.2021
6618 Clear 26 1009 59 10000 2.24 232 21:35 30.08.2021
6619 Clear 25 1009 63 10000 0 0 20:41 30.08.2021
6620 Clear 25 1009 63 10000 2.06 180 19:53 30.08.2021
6621 Clear 24 1009 69 10000 0 0 19:19 30.08.2021
6622 Haze 21 1009 80 8047 0 0 17:50 30.08.2021
6623 Mist 19 1009 88 6437 0 0 16:28 30.08.2021
6624 Mist 18 1008 90 8047 1.54 260 15:45 30.08.2021
6625 Mist 18 1008 93 10000 0 0 13:59 30.08.2021
6626 Mist 19 1008 91 6437 0 0 13:19 30.08.2021
6627 Mist 19 1008 89 10000 1.54 260 10:59 30.08.2021
6628 Clear 26 1008 60 10000 0 0 03:31 30.08.2021
6629 Haze 30 1009 48 9656 2.24 238 21:57 29.08.2021
6630 Haze 28 1009 58 10000 0 0 20:48 29.08.2021
6631 Haze 26 1009 61 10000 0 0 19:28 29.08.2021
6632 Haze 24 1009 67 10000 0 0 18:25 29.08.2021
6633 Mist 20 1009 94 2012 0 0 15:58 29.08.2021
6634 Mist 20 1008 74 8047 0 0 14:28 29.08.2021
6635 Mist 19 1008 80 8047 0 0 13:55 29.08.2021
6636 Mist 19 1008 80 8047 0 0 13:55 29.08.2021
6637 Mist 21 1008 76 6437 0 0 12:57 29.08.2021
6638 Mist 20 1008 80 6437 0 0 12:18 29.08.2021
6639 Mist 20 1009 80 8047 1.54 270 11:40 29.08.2021
6640 Mist 20 1009 79 10000 1.54 270 10:46 29.08.2021
6641 Haze 20 1009 79 10000 1.54 270 10:28 29.08.2021
6642 Mist 19 1009 78 10000 0 0 09:30 29.08.2021
6643 Clear 23 1008 69 10000 2.06 0 04:19 29.08.2021
6644 Clear 33 1008 34 10000 0.89 225 22:57 28.08.2021
6645 Fog 28 1009 55 10000 0 0 20:31 28.08.2021
6646 Haze 27 1009 54 10000 0 0 19:20 28.08.2021
6647 Mist 25 1008 59 10000 0 0 18:22 28.08.2021
6648 Mist 22 1008 71 4828 0 0 17:45 28.08.2021
6649 Mist 20 1007 73 2012 0 0 16:32 28.08.2021
6650 Mist 19 1007 80 2012 0 0 14:52 28.08.2021
6651 Mist 20 1007 78 4023 0 0 13:58 28.08.2021
6652 Mist 19 1007 80 2816 0 0 13:39 28.08.2021
6653 Mist 20 1007 76 6437 0 0 12:30 28.08.2021
6654 Mist 19 1007 80 10000 0 0 10:46 28.08.2021
6655 Mist 20 1007 75 10000 0 0 09:34 28.08.2021
6656 Clear 23 1006 65 10000 0 0 07:34 28.08.2021
6657 Clear 32 1006 40 10000 2.06 260 23:45 27.08.2021
6658 Clear 31 1008 41 10000 2.68 263 21:26 27.08.2021
6659 Clear 31 1008 39 10000 0 0 20:52 27.08.2021
6660 Clear 28 1008 47 10000 0 0 19:32 27.08.2021
6661 Clear 25 1008 54 10000 0 0 18:39 27.08.2021
6662 Haze 23 1008 61 10000 0 0 17:45 27.08.2021
6663 Haze 20 1008 66 9656 0 0 16:35 27.08.2021
6664 Clear 20 1008 67 10000 0 0 14:44 27.08.2021
6665 Clear 21 1008 66 10000 0 0 12:57 27.08.2021
6666 Clear 23 1007 20 10000 0.67 159 11:58 27.08.2021
6667 Clear 21 1009 65 10000 0 0 10:50 27.08.2021
6668 Clear 21 1009 65 10000 0 0 10:23 27.08.2021
6669 Clear 22 1009 55 10000 0 0 08:57 27.08.2021
6670 Clear 22 1009 56 10000 0 0 08:35 27.08.2021
6671 Clear 26 1008 46 10000 0 0 05:37 27.08.2021
6672 Clear 32 1009 35 10000 3.6 260 00:47 27.08.2021
6673 Clear 33 1010 34 10000 3.6 260 00:28 27.08.2021
6674 Clear 33 1011 37 10000 2.24 248 22:26 26.08.2021
6675 Clear 33 1012 37 10000 1.54 250 21:47 26.08.2021
6676 Haze 29 1012 41 9656 0 0 19:33 26.08.2021
6677 Haze 26 1012 50 9656 0 0 18:26 26.08.2021
6678 Haze 23 1012 61 10000 0 0 17:25 26.08.2021
6679 Haze 21 1012 62 10000 0 0 16:27 26.08.2021
6680 Clear 21 1012 66 10000 0 0 14:47 26.08.2021
6681 Clear 21 1012 68 10000 0 0 13:21 26.08.2021
6682 Clear 21 1012 68 10000 0 0 12:33 26.08.2021
6683 Clear 21 1012 59 10000 0 0 11:38 26.08.2021
6684 Clear 22 1013 60 10000 0 0 08:51 26.08.2021
6685 Clear 22 1013 60 10000 0 0 08:19 26.08.2021
6686 Clear 30 1014 46 10000 1.54 240 23:43 25.08.2021
6687 Clear 30 1014 45 10000 1.54 260 22:41 25.08.2021
6688 Clear 30 1014 45 10000 1.54 260 22:23 25.08.2021
6689 Clear 28 1015 53 10000 0 0 20:57 25.08.2021
6690 Clear 27 1015 53 10000 0 0 20:30 25.08.2021
6691 Clear 26 1015 59 10000 0 0 19:42 25.08.2021
6692 Clear 21 1015 77 10000 0 0 17:53 25.08.2021
6693 Clear 18 1014 62 10000 0.66 225 15:59 25.08.2021
6694 Clear 18 1014 87 10000 0 0 15:33 25.08.2021
6695 Clear 18 1014 84 10000 0 0 14:46 25.08.2021
6696 Clear 18 1014 85 10000 0 0 13:54 25.08.2021
6697 Clear 18 1014 80 10000 0 0 12:23 25.08.2021
6698 Clear 18 1014 82 10000 0 0 11:20 25.08.2021
6699 Clear 18 1014 82 10000 0 0 10:18 25.08.2021
6700 Clear 18 1014 82 10000 0 0 09:40 25.08.2021
6701 Clear 19 1015 81 10000 0 0 08:38 25.08.2021
6702 Clear 19 1014 80 10000 0 0 07:31 25.08.2021
6703 Clear 27 1012 53 10000 1.54 240 01:25 25.08.2021
6704 Clear 27 1013 50 10000 2.57 260 23:31 24.08.2021
6705 Clear 26 1014 57 10000 2.57 250 21:21 24.08.2021
6706 Clear 24 1014 61 10000 0 0 20:21 24.08.2021
6707 Clear 23 1015 64 10000 1.54 270 19:43 24.08.2021
6708 Clear 20 1014 76 10000 1.54 230 17:55 24.08.2021
6709 Clear 19 1014 80 10000 0 0 17:22 24.08.2021
6710 Clear 17 1014 86 10000 0 0 16:23 24.08.2021
6711 Clouds 17 1013 85 10000 0.67 237 13:54 24.08.2021
6712 Clear 17 1013 87 10000 0 0 12:45 24.08.2021
6713 Clear 17 1013 85 10000 0 0 11:24 24.08.2021
6714 Clear 17 1013 85 10000 0 0 10:47 24.08.2021
6715 Clouds 18 1012 85 10000 1.44 221 09:55 24.08.2021
6716 Clear 19 1012 82 10000 0 0 07:42 24.08.2021
6717 Clear 19 1012 79 10000 0